<?xml version="1.0" encoding="UTF-8" standalone="no" ?>
<gpx xmlns="http://www.topografix.com/GPX/1/1" xmlns:xsi="http://www.w3.org/2001/XMLSchema-instance" xsi:schemaLocation="http://www.topografix.com/GPX/1/1 http://www.topografix.com/GPX/1/1/gpx.xsd" version="1.1" creator="VisuGPX - https://www.visugpx.com">
  <metadata>
    <name>Pornichet 22/09/2022</name>
    <desc><![CDATA[Sortie jeudi 22 septembre 2022]]></desc>
  </metadata>
  <trk>
    <name><![CDATA[Pornichet Cyclisme]]></name>
    <trkseg>
      <trkpt lat="47.2641" lon="-2.31547">
        <ele>10</ele>
        <time>2022-09-22T06:49:11.000Z</time>
      </trkpt>
      <trkpt lat="47.26411" lon="-2.3156">
        <ele>9.8</ele>
        <time>2022-09-22T06:49:15.000Z</time>
      </trkpt>
      <trkpt lat="47.26411" lon="-2.31564">
        <ele>-0.20000000298023</ele>
        <time>2022-09-22T06:49:16.000Z</time>
      </trkpt>
      <trkpt lat="47.26411" lon="-2.31573">
        <ele>-0.20000000298023</ele>
        <time>2022-09-22T06:49:18.000Z</time>
      </trkpt>
      <trkpt lat="47.26413" lon="-2.31601">
        <ele>-0.20000000298023</ele>
        <time>2022-09-22T06:49:24.000Z</time>
      </trkpt>
      <trkpt lat="47.26417" lon="-2.31633">
        <ele>-0.20000000298023</ele>
        <time>2022-09-22T06:49:30.000Z</time>
      </trkpt>
      <trkpt lat="47.26417" lon="-2.31637">
        <ele>-0.20000000298023</ele>
        <time>2022-09-22T06:49:31.000Z</time>
      </trkpt>
      <trkpt lat="47.26413" lon="-2.31644">
        <ele>-0.20000000298023</ele>
        <time>2022-09-22T06:49:33.000Z</time>
      </trkpt>
      <trkpt lat="47.26404" lon="-2.3165">
        <ele>-0.20000000298023</ele>
        <time>2022-09-22T06:49:36.000Z</time>
      </trkpt>
      <trkpt lat="47.264" lon="-2.31652">
        <ele>-0.20000000298023</ele>
        <time>2022-09-22T06:49:37.000Z</time>
      </trkpt>
      <trkpt lat="47.26392" lon="-2.31656">
        <ele>-0.20000000298023</ele>
        <time>2022-09-22T06:49:38.000Z</time>
      </trkpt>
      <trkpt lat="47.2638" lon="-2.31661">
        <ele>-0.60000002384186</ele>
        <time>2022-09-22T06:49:42.000Z</time>
      </trkpt>
      <trkpt lat="47.26376" lon="-2.31664">
        <ele>-1</ele>
        <time>2022-09-22T06:49:43.000Z</time>
      </trkpt>
      <trkpt lat="47.26372" lon="-2.31666">
        <ele>-1.3999999761581</ele>
        <time>2022-09-22T06:49:44.000Z</time>
      </trkpt>
      <trkpt lat="47.26368" lon="-2.31669">
        <ele>-1.7999999523163</ele>
        <time>2022-09-22T06:49:45.000Z</time>
      </trkpt>
      <trkpt lat="47.26364" lon="-2.31671">
        <ele>-2.2000000476837</ele>
        <time>2022-09-22T06:49:46.000Z</time>
      </trkpt>
      <trkpt lat="47.26362" lon="-2.31673">
        <ele>-2.2000000476837</ele>
        <time>2022-09-22T06:49:47.000Z</time>
      </trkpt>
      <trkpt lat="47.26351" lon="-2.31677">
        <ele>-2.2000000476837</ele>
        <time>2022-09-22T06:49:52.000Z</time>
      </trkpt>
      <trkpt lat="47.26335" lon="-2.31685">
        <ele>-2.2000000476837</ele>
        <time>2022-09-22T06:49:57.000Z</time>
      </trkpt>
      <trkpt lat="47.26332" lon="-2.31687">
        <ele>-2.5999999046326</ele>
        <time>2022-09-22T06:49:58.000Z</time>
      </trkpt>
      <trkpt lat="47.26329" lon="-2.31688">
        <ele>-3</ele>
        <time>2022-09-22T06:49:59.000Z</time>
      </trkpt>
      <trkpt lat="47.26327" lon="-2.31689">
        <ele>-3.4000000953674</ele>
        <time>2022-09-22T06:50:00.000Z</time>
      </trkpt>
      <trkpt lat="47.26324" lon="-2.31691">
        <ele>-4</ele>
        <time>2022-09-22T06:50:01.000Z</time>
      </trkpt>
      <trkpt lat="47.26321" lon="-2.31692">
        <ele>-4.4000000953674</ele>
        <time>2022-09-22T06:50:02.000Z</time>
      </trkpt>
      <trkpt lat="47.26316" lon="-2.31698">
        <ele>-4.4000000953674</ele>
        <time>2022-09-22T06:50:04.000Z</time>
      </trkpt>
      <trkpt lat="47.26316" lon="-2.31702">
        <ele>-4.4000000953674</ele>
        <time>2022-09-22T06:50:05.000Z</time>
      </trkpt>
      <trkpt lat="47.26317" lon="-2.31712">
        <ele>-4.4000000953674</ele>
        <time>2022-09-22T06:50:07.000Z</time>
      </trkpt>
      <trkpt lat="47.2632" lon="-2.31728">
        <ele>-4.4000000953674</ele>
        <time>2022-09-22T06:50:10.000Z</time>
      </trkpt>
      <trkpt lat="47.2632" lon="-2.3174">
        <ele>-4.4000000953674</ele>
        <time>2022-09-22T06:50:12.000Z</time>
      </trkpt>
      <trkpt lat="47.26322" lon="-2.31757">
        <ele>-4.4000000953674</ele>
        <time>2022-09-22T06:50:15.000Z</time>
      </trkpt>
      <trkpt lat="47.26323" lon="-2.31769">
        <ele>-4.4000000953674</ele>
        <time>2022-09-22T06:50:17.000Z</time>
      </trkpt>
      <trkpt lat="47.26323" lon="-2.31789">
        <ele>-4.4000000953674</ele>
        <time>2022-09-22T06:50:20.000Z</time>
      </trkpt>
      <trkpt lat="47.2632" lon="-2.31826">
        <ele>-4.4000000953674</ele>
        <time>2022-09-22T06:50:26.000Z</time>
      </trkpt>
      <trkpt lat="47.26319" lon="-2.31858">
        <ele>-4.4000000953674</ele>
        <time>2022-09-22T06:50:32.000Z</time>
      </trkpt>
      <trkpt lat="47.26312" lon="-2.31867">
        <ele>-4.4000000953674</ele>
        <time>2022-09-22T06:50:36.000Z</time>
      </trkpt>
      <trkpt lat="47.26309" lon="-2.31869">
        <ele>-4.4000000953674</ele>
        <time>2022-09-22T06:50:37.000Z</time>
      </trkpt>
      <trkpt lat="47.26297" lon="-2.3189">
        <ele>-4.4000000953674</ele>
        <time>2022-09-22T06:50:43.000Z</time>
      </trkpt>
      <trkpt lat="47.26289" lon="-2.31903">
        <ele>-4.8000001907349</ele>
        <time>2022-09-22T06:50:46.000Z</time>
      </trkpt>
      <trkpt lat="47.26286" lon="-2.31909">
        <ele>-5.1999998092651</ele>
        <time>2022-09-22T06:50:47.000Z</time>
      </trkpt>
      <trkpt lat="47.26283" lon="-2.31914">
        <ele>-5.5999999046326</ele>
        <time>2022-09-22T06:50:48.000Z</time>
      </trkpt>
      <trkpt lat="47.2628" lon="-2.31918">
        <ele>-6</ele>
        <time>2022-09-22T06:50:49.000Z</time>
      </trkpt>
      <trkpt lat="47.26276" lon="-2.31922">
        <ele>-6.4000000953674</ele>
        <time>2022-09-22T06:50:50.000Z</time>
      </trkpt>
      <trkpt lat="47.26265" lon="-2.3193">
        <ele>-6.4000000953674</ele>
        <time>2022-09-22T06:50:53.000Z</time>
      </trkpt>
      <trkpt lat="47.26253" lon="-2.31946">
        <ele>-6.4000000953674</ele>
        <time>2022-09-22T06:50:57.000Z</time>
      </trkpt>
      <trkpt lat="47.2623" lon="-2.3197">
        <ele>-6.4000000953674</ele>
        <time>2022-09-22T06:51:03.000Z</time>
      </trkpt>
      <trkpt lat="47.26225" lon="-2.31976">
        <ele>-6.4000000953674</ele>
        <time>2022-09-22T06:51:05.000Z</time>
      </trkpt>
      <trkpt lat="47.26225" lon="-2.31981">
        <ele>-6.4000000953674</ele>
        <time>2022-09-22T06:51:06.000Z</time>
      </trkpt>
      <trkpt lat="47.26221" lon="-2.31991">
        <ele>-6.4000000953674</ele>
        <time>2022-09-22T06:51:10.000Z</time>
      </trkpt>
      <trkpt lat="47.26215" lon="-2.31992">
        <ele>-6.4000000953674</ele>
        <time>2022-09-22T06:51:13.000Z</time>
      </trkpt>
      <trkpt lat="47.26208" lon="-2.31991">
        <ele>-6.4000000953674</ele>
        <time>2022-09-22T06:51:15.000Z</time>
      </trkpt>
      <trkpt lat="47.26191" lon="-2.32">
        <ele>-6.4000000953674</ele>
        <time>2022-09-22T06:51:20.000Z</time>
      </trkpt>
      <trkpt lat="47.26187" lon="-2.32004">
        <ele>-6.4000000953674</ele>
        <time>2022-09-22T06:51:21.000Z</time>
      </trkpt>
      <trkpt lat="47.26177" lon="-2.32023">
        <ele>-6.4000000953674</ele>
        <time>2022-09-22T06:51:24.000Z</time>
      </trkpt>
      <trkpt lat="47.26174" lon="-2.32029">
        <ele>-6.4000000953674</ele>
        <time>2022-09-22T06:51:25.000Z</time>
      </trkpt>
      <trkpt lat="47.26164" lon="-2.32057">
        <ele>-6.4000000953674</ele>
        <time>2022-09-22T06:51:30.000Z</time>
      </trkpt>
      <trkpt lat="47.26157" lon="-2.32074">
        <ele>-6.4000000953674</ele>
        <time>2022-09-22T06:51:33.000Z</time>
      </trkpt>
      <trkpt lat="47.26153" lon="-2.3209">
        <ele>-6.4000000953674</ele>
        <time>2022-09-22T06:51:36.000Z</time>
      </trkpt>
      <trkpt lat="47.26142" lon="-2.32127">
        <ele>-6.4000000953674</ele>
        <time>2022-09-22T06:51:43.000Z</time>
      </trkpt>
      <trkpt lat="47.26128" lon="-2.32164">
        <ele>-6.4000000953674</ele>
        <time>2022-09-22T06:51:50.000Z</time>
      </trkpt>
      <trkpt lat="47.26123" lon="-2.32175">
        <ele>-6.4000000953674</ele>
        <time>2022-09-22T06:51:52.000Z</time>
      </trkpt>
      <trkpt lat="47.26112" lon="-2.32195">
        <ele>-6.4000000953674</ele>
        <time>2022-09-22T06:51:56.000Z</time>
      </trkpt>
      <trkpt lat="47.26096" lon="-2.32218">
        <ele>-6.4000000953674</ele>
        <time>2022-09-22T06:52:01.000Z</time>
      </trkpt>
      <trkpt lat="47.26091" lon="-2.32223">
        <ele>-6.4000000953674</ele>
        <time>2022-09-22T06:52:02.000Z</time>
      </trkpt>
      <trkpt lat="47.26075" lon="-2.32241">
        <ele>-6.4000000953674</ele>
        <time>2022-09-22T06:52:06.000Z</time>
      </trkpt>
      <trkpt lat="47.26072" lon="-2.32245">
        <ele>-6.4000000953674</ele>
        <time>2022-09-22T06:52:07.000Z</time>
      </trkpt>
      <trkpt lat="47.26049" lon="-2.32273">
        <ele>-6.4000000953674</ele>
        <time>2022-09-22T06:52:13.000Z</time>
      </trkpt>
      <trkpt lat="47.26029" lon="-2.32296">
        <ele>-6.4000000953674</ele>
        <time>2022-09-22T06:52:18.000Z</time>
      </trkpt>
      <trkpt lat="47.2602" lon="-2.32309">
        <ele>-6.4000000953674</ele>
        <time>2022-09-22T06:52:21.000Z</time>
      </trkpt>
      <trkpt lat="47.26009" lon="-2.32325">
        <ele>-6.4000000953674</ele>
        <time>2022-09-22T06:52:24.000Z</time>
      </trkpt>
      <trkpt lat="47.25977" lon="-2.32362">
        <ele>-6.4000000953674</ele>
        <time>2022-09-22T06:52:32.000Z</time>
      </trkpt>
      <trkpt lat="47.25949" lon="-2.32399">
        <ele>-6.4000000953674</ele>
        <time>2022-09-22T06:52:40.000Z</time>
      </trkpt>
      <trkpt lat="47.25924" lon="-2.32428">
        <ele>-6.4000000953674</ele>
        <time>2022-09-22T06:52:47.000Z</time>
      </trkpt>
      <trkpt lat="47.25911" lon="-2.32448">
        <ele>-6.4000000953674</ele>
        <time>2022-09-22T06:52:52.000Z</time>
      </trkpt>
      <trkpt lat="47.25911" lon="-2.32454">
        <ele>-6.4000000953674</ele>
        <time>2022-09-22T06:52:53.000Z</time>
      </trkpt>
      <trkpt lat="47.25915" lon="-2.3246">
        <ele>-6.4000000953674</ele>
        <time>2022-09-22T06:52:55.000Z</time>
      </trkpt>
      <trkpt lat="47.25927" lon="-2.32474">
        <ele>-6.4000000953674</ele>
        <time>2022-09-22T06:52:59.000Z</time>
      </trkpt>
      <trkpt lat="47.25934" lon="-2.32492">
        <ele>-6.4000000953674</ele>
        <time>2022-09-22T06:53:02.000Z</time>
      </trkpt>
      <trkpt lat="47.25938" lon="-2.32504">
        <ele>-6.4000000953674</ele>
        <time>2022-09-22T06:53:04.000Z</time>
      </trkpt>
      <trkpt lat="47.25949" lon="-2.32549">
        <ele>-6.4000000953674</ele>
        <time>2022-09-22T06:53:11.000Z</time>
      </trkpt>
      <trkpt lat="47.2596" lon="-2.326">
        <ele>-6.4000000953674</ele>
        <time>2022-09-22T06:53:19.000Z</time>
      </trkpt>
      <trkpt lat="47.25963" lon="-2.32619">
        <ele>-6.4000000953674</ele>
        <time>2022-09-22T06:53:22.000Z</time>
      </trkpt>
      <trkpt lat="47.25964" lon="-2.32638">
        <ele>-6.4000000953674</ele>
        <time>2022-09-22T06:53:25.000Z</time>
      </trkpt>
      <trkpt lat="47.25964" lon="-2.32649">
        <ele>-6.4000000953674</ele>
        <time>2022-09-22T06:53:27.000Z</time>
      </trkpt>
      <trkpt lat="47.25965" lon="-2.32651">
        <ele>-6.4000000953674</ele>
        <time>2022-09-22T06:53:28.000Z</time>
      </trkpt>
      <trkpt lat="47.25967" lon="-2.32652">
        <ele>-6.4000000953674</ele>
        <time>2022-09-22T06:53:29.000Z</time>
      </trkpt>
      <trkpt lat="47.25977" lon="-2.32651">
        <ele>-6.4000000953674</ele>
        <time>2022-09-22T06:53:32.000Z</time>
      </trkpt>
      <trkpt lat="47.25993" lon="-2.32653">
        <ele>-6.4000000953674</ele>
        <time>2022-09-22T06:53:36.000Z</time>
      </trkpt>
      <trkpt lat="47.25997" lon="-2.32653">
        <ele>-6.4000000953674</ele>
        <time>2022-09-22T06:53:37.000Z</time>
      </trkpt>
      <trkpt lat="47.26026" lon="-2.32649">
        <ele>-6.4000000953674</ele>
        <time>2022-09-22T06:53:44.000Z</time>
      </trkpt>
      <trkpt lat="47.2606" lon="-2.32643">
        <ele>-6.4000000953674</ele>
        <time>2022-09-22T06:53:52.000Z</time>
      </trkpt>
      <trkpt lat="47.26094" lon="-2.32636">
        <ele>-6.4000000953674</ele>
        <time>2022-09-22T06:54:00.000Z</time>
      </trkpt>
      <trkpt lat="47.26111" lon="-2.32635">
        <ele>-6</ele>
        <time>2022-09-22T06:54:04.000Z</time>
      </trkpt>
      <trkpt lat="47.26115" lon="-2.32635">
        <ele>-5.5999999046326</ele>
        <time>2022-09-22T06:54:05.000Z</time>
      </trkpt>
      <trkpt lat="47.26119" lon="-2.32635">
        <ele>-5.1999998092651</ele>
        <time>2022-09-22T06:54:06.000Z</time>
      </trkpt>
      <trkpt lat="47.26123" lon="-2.32635">
        <ele>-4.8000001907349</ele>
        <time>2022-09-22T06:54:07.000Z</time>
      </trkpt>
      <trkpt lat="47.26127" lon="-2.32636">
        <ele>-4.1999998092651</ele>
        <time>2022-09-22T06:54:08.000Z</time>
      </trkpt>
      <trkpt lat="47.26144" lon="-2.32639">
        <ele>-4.1999998092651</ele>
        <time>2022-09-22T06:54:12.000Z</time>
      </trkpt>
      <trkpt lat="47.26173" lon="-2.32655">
        <ele>-4.1999998092651</ele>
        <time>2022-09-22T06:54:19.000Z</time>
      </trkpt>
      <trkpt lat="47.26195" lon="-2.3267">
        <ele>-4.1999998092651</ele>
        <time>2022-09-22T06:54:25.000Z</time>
      </trkpt>
      <trkpt lat="47.2621" lon="-2.32689">
        <ele>-4.1999998092651</ele>
        <time>2022-09-22T06:54:31.000Z</time>
      </trkpt>
      <trkpt lat="47.26224" lon="-2.32707">
        <ele>-4.1999998092651</ele>
        <time>2022-09-22T06:54:36.000Z</time>
      </trkpt>
      <trkpt lat="47.26248" lon="-2.32743">
        <ele>-4.1999998092651</ele>
        <time>2022-09-22T06:54:43.000Z</time>
      </trkpt>
      <trkpt lat="47.26252" lon="-2.32749">
        <ele>-4.1999998092651</ele>
        <time>2022-09-22T06:54:44.000Z</time>
      </trkpt>
      <trkpt lat="47.26266" lon="-2.32771">
        <ele>-4.5999999046326</ele>
        <time>2022-09-22T06:54:48.000Z</time>
      </trkpt>
      <trkpt lat="47.2627" lon="-2.32777">
        <ele>-5.1999998092651</ele>
        <time>2022-09-22T06:54:49.000Z</time>
      </trkpt>
      <trkpt lat="47.26273" lon="-2.32784">
        <ele>-5.5999999046326</ele>
        <time>2022-09-22T06:54:50.000Z</time>
      </trkpt>
      <trkpt lat="47.26276" lon="-2.3279">
        <ele>-6</ele>
        <time>2022-09-22T06:54:51.000Z</time>
      </trkpt>
      <trkpt lat="47.26278" lon="-2.32797">
        <ele>-6.4000000953674</ele>
        <time>2022-09-22T06:54:52.000Z</time>
      </trkpt>
      <trkpt lat="47.26284" lon="-2.32818">
        <ele>-6.4000000953674</ele>
        <time>2022-09-22T06:54:55.000Z</time>
      </trkpt>
      <trkpt lat="47.26287" lon="-2.3284">
        <ele>-6.4000000953674</ele>
        <time>2022-09-22T06:54:58.000Z</time>
      </trkpt>
      <trkpt lat="47.26289" lon="-2.32846">
        <ele>-6.4000000953674</ele>
        <time>2022-09-22T06:54:59.000Z</time>
      </trkpt>
      <trkpt lat="47.26295" lon="-2.32857">
        <ele>-6.4000000953674</ele>
        <time>2022-09-22T06:55:01.000Z</time>
      </trkpt>
      <trkpt lat="47.26308" lon="-2.32863">
        <ele>-6.4000000953674</ele>
        <time>2022-09-22T06:55:04.000Z</time>
      </trkpt>
      <trkpt lat="47.26318" lon="-2.32879">
        <ele>-6.4000000953674</ele>
        <time>2022-09-22T06:55:07.000Z</time>
      </trkpt>
      <trkpt lat="47.2632" lon="-2.32886">
        <ele>-6.4000000953674</ele>
        <time>2022-09-22T06:55:08.000Z</time>
      </trkpt>
      <trkpt lat="47.26325" lon="-2.329">
        <ele>-6.4000000953674</ele>
        <time>2022-09-22T06:55:10.000Z</time>
      </trkpt>
      <trkpt lat="47.26332" lon="-2.32919">
        <ele>-6.4000000953674</ele>
        <time>2022-09-22T06:55:13.000Z</time>
      </trkpt>
      <trkpt lat="47.26349" lon="-2.32965">
        <ele>-6.4000000953674</ele>
        <time>2022-09-22T06:55:20.000Z</time>
      </trkpt>
      <trkpt lat="47.26352" lon="-2.32971">
        <ele>-6.4000000953674</ele>
        <time>2022-09-22T06:55:21.000Z</time>
      </trkpt>
      <trkpt lat="47.26363" lon="-2.32985">
        <ele>-6.4000000953674</ele>
        <time>2022-09-22T06:55:24.000Z</time>
      </trkpt>
      <trkpt lat="47.26365" lon="-2.32992">
        <ele>-6.4000000953674</ele>
        <time>2022-09-22T06:55:25.000Z</time>
      </trkpt>
      <trkpt lat="47.26365" lon="-2.33012">
        <ele>-6.4000000953674</ele>
        <time>2022-09-22T06:55:28.000Z</time>
      </trkpt>
      <trkpt lat="47.26366" lon="-2.33019">
        <ele>-6.4000000953674</ele>
        <time>2022-09-22T06:55:29.000Z</time>
      </trkpt>
      <trkpt lat="47.26367" lon="-2.33034">
        <ele>-6.4000000953674</ele>
        <time>2022-09-22T06:55:31.000Z</time>
      </trkpt>
      <trkpt lat="47.26369" lon="-2.33064">
        <ele>-6.4000000953674</ele>
        <time>2022-09-22T06:55:35.000Z</time>
      </trkpt>
      <trkpt lat="47.26371" lon="-2.33108">
        <ele>-6.4000000953674</ele>
        <time>2022-09-22T06:55:41.000Z</time>
      </trkpt>
      <trkpt lat="47.26373" lon="-2.33129">
        <ele>-6.4000000953674</ele>
        <time>2022-09-22T06:55:44.000Z</time>
      </trkpt>
      <trkpt lat="47.26376" lon="-2.332">
        <ele>-6.4000000953674</ele>
        <time>2022-09-22T06:55:54.000Z</time>
      </trkpt>
      <trkpt lat="47.26379" lon="-2.33243">
        <ele>-6.4000000953674</ele>
        <time>2022-09-22T06:56:00.000Z</time>
      </trkpt>
      <trkpt lat="47.26381" lon="-2.3325">
        <ele>-6.4000000953674</ele>
        <time>2022-09-22T06:56:01.000Z</time>
      </trkpt>
      <trkpt lat="47.26392" lon="-2.33263">
        <ele>-6.4000000953674</ele>
        <time>2022-09-22T06:56:04.000Z</time>
      </trkpt>
      <trkpt lat="47.26407" lon="-2.33266">
        <ele>-6.4000000953674</ele>
        <time>2022-09-22T06:56:07.000Z</time>
      </trkpt>
      <trkpt lat="47.26416" lon="-2.33267">
        <ele>-6.4000000953674</ele>
        <time>2022-09-22T06:56:09.000Z</time>
      </trkpt>
      <trkpt lat="47.26459" lon="-2.33271">
        <ele>-6.4000000953674</ele>
        <time>2022-09-22T06:56:18.000Z</time>
      </trkpt>
      <trkpt lat="47.26489" lon="-2.33277">
        <ele>-6.4000000953674</ele>
        <time>2022-09-22T06:56:26.000Z</time>
      </trkpt>
      <trkpt lat="47.26502" lon="-2.33279">
        <ele>-6.4000000953674</ele>
        <time>2022-09-22T06:56:30.000Z</time>
      </trkpt>
      <trkpt lat="47.26504" lon="-2.33281">
        <ele>-6.4000000953674</ele>
        <time>2022-09-22T06:56:31.000Z</time>
      </trkpt>
      <trkpt lat="47.26512" lon="-2.33289">
        <ele>-6.4000000953674</ele>
        <time>2022-09-22T06:56:36.000Z</time>
      </trkpt>
      <trkpt lat="47.26521" lon="-2.33299">
        <ele>-6.4000000953674</ele>
        <time>2022-09-22T06:56:39.000Z</time>
      </trkpt>
      <trkpt lat="47.26523" lon="-2.33304">
        <ele>-6.4000000953674</ele>
        <time>2022-09-22T06:56:40.000Z</time>
      </trkpt>
      <trkpt lat="47.26526" lon="-2.3333">
        <ele>-6.4000000953674</ele>
        <time>2022-09-22T06:56:44.000Z</time>
      </trkpt>
      <trkpt lat="47.26525" lon="-2.33338">
        <ele>-6.4000000953674</ele>
        <time>2022-09-22T06:56:45.000Z</time>
      </trkpt>
      <trkpt lat="47.26529" lon="-2.33361">
        <ele>-6.4000000953674</ele>
        <time>2022-09-22T06:56:48.000Z</time>
      </trkpt>
      <trkpt lat="47.26533" lon="-2.33375">
        <ele>-6.4000000953674</ele>
        <time>2022-09-22T06:56:50.000Z</time>
      </trkpt>
      <trkpt lat="47.26535" lon="-2.33382">
        <ele>-6.4000000953674</ele>
        <time>2022-09-22T06:56:51.000Z</time>
      </trkpt>
      <trkpt lat="47.2654" lon="-2.33404">
        <ele>-6.4000000953674</ele>
        <time>2022-09-22T06:56:54.000Z</time>
      </trkpt>
      <trkpt lat="47.26549" lon="-2.33459">
        <ele>-6.4000000953674</ele>
        <time>2022-09-22T06:57:01.000Z</time>
      </trkpt>
      <trkpt lat="47.2655" lon="-2.33467">
        <ele>-6.4000000953674</ele>
        <time>2022-09-22T06:57:02.000Z</time>
      </trkpt>
      <trkpt lat="47.26555" lon="-2.33497">
        <ele>-6.4000000953674</ele>
        <time>2022-09-22T06:57:06.000Z</time>
      </trkpt>
      <trkpt lat="47.26561" lon="-2.3351">
        <ele>-6.4000000953674</ele>
        <time>2022-09-22T06:57:08.000Z</time>
      </trkpt>
      <trkpt lat="47.26563" lon="-2.33517">
        <ele>-6.4000000953674</ele>
        <time>2022-09-22T06:57:09.000Z</time>
      </trkpt>
      <trkpt lat="47.26565" lon="-2.33539">
        <ele>-6.4000000953674</ele>
        <time>2022-09-22T06:57:12.000Z</time>
      </trkpt>
      <trkpt lat="47.26565" lon="-2.33551">
        <ele>-6.4000000953674</ele>
        <time>2022-09-22T06:57:14.000Z</time>
      </trkpt>
      <trkpt lat="47.26565" lon="-2.33562">
        <ele>-6.4000000953674</ele>
        <time>2022-09-22T06:57:16.000Z</time>
      </trkpt>
      <trkpt lat="47.26569" lon="-2.33608">
        <ele>-6.4000000953674</ele>
        <time>2022-09-22T06:57:23.000Z</time>
      </trkpt>
      <trkpt lat="47.26571" lon="-2.33615">
        <ele>-6.4000000953674</ele>
        <time>2022-09-22T06:57:24.000Z</time>
      </trkpt>
      <trkpt lat="47.26574" lon="-2.33633">
        <ele>-6.4000000953674</ele>
        <time>2022-09-22T06:57:27.000Z</time>
      </trkpt>
      <trkpt lat="47.26579" lon="-2.33657">
        <ele>-6.4000000953674</ele>
        <time>2022-09-22T06:57:31.000Z</time>
      </trkpt>
      <trkpt lat="47.26581" lon="-2.33663">
        <ele>-6.4000000953674</ele>
        <time>2022-09-22T06:57:32.000Z</time>
      </trkpt>
      <trkpt lat="47.26584" lon="-2.33668">
        <ele>-6</ele>
        <time>2022-09-22T06:57:33.000Z</time>
      </trkpt>
      <trkpt lat="47.26587" lon="-2.33673">
        <ele>-5.5999999046326</ele>
        <time>2022-09-22T06:57:34.000Z</time>
      </trkpt>
      <trkpt lat="47.2659" lon="-2.33679">
        <ele>-5.1999998092651</ele>
        <time>2022-09-22T06:57:35.000Z</time>
      </trkpt>
      <trkpt lat="47.26593" lon="-2.33683">
        <ele>-4.5999999046326</ele>
        <time>2022-09-22T06:57:36.000Z</time>
      </trkpt>
      <trkpt lat="47.26596" lon="-2.33688">
        <ele>-4.1999998092651</ele>
        <time>2022-09-22T06:57:37.000Z</time>
      </trkpt>
      <trkpt lat="47.26605" lon="-2.33699">
        <ele>-4.1999998092651</ele>
        <time>2022-09-22T06:57:40.000Z</time>
      </trkpt>
      <trkpt lat="47.26611" lon="-2.33709">
        <ele>-4.1999998092651</ele>
        <time>2022-09-22T06:57:42.000Z</time>
      </trkpt>
      <trkpt lat="47.2662" lon="-2.33725">
        <ele>-4.1999998092651</ele>
        <time>2022-09-22T06:57:45.000Z</time>
      </trkpt>
      <trkpt lat="47.26631" lon="-2.33745">
        <ele>-4.1999998092651</ele>
        <time>2022-09-22T06:57:49.000Z</time>
      </trkpt>
      <trkpt lat="47.26637" lon="-2.33755">
        <ele>-4.1999998092651</ele>
        <time>2022-09-22T06:57:51.000Z</time>
      </trkpt>
      <trkpt lat="47.26644" lon="-2.33765">
        <ele>-4.1999998092651</ele>
        <time>2022-09-22T06:57:53.000Z</time>
      </trkpt>
      <trkpt lat="47.26658" lon="-2.33784">
        <ele>-4.1999998092651</ele>
        <time>2022-09-22T06:57:57.000Z</time>
      </trkpt>
      <trkpt lat="47.26664" lon="-2.33793">
        <ele>-4.1999998092651</ele>
        <time>2022-09-22T06:57:59.000Z</time>
      </trkpt>
      <trkpt lat="47.26674" lon="-2.33806">
        <ele>-4.1999998092651</ele>
        <time>2022-09-22T06:58:02.000Z</time>
      </trkpt>
      <trkpt lat="47.26694" lon="-2.33838">
        <ele>-4.1999998092651</ele>
        <time>2022-09-22T06:58:08.000Z</time>
      </trkpt>
      <trkpt lat="47.26712" lon="-2.33868">
        <ele>-3.7999999523163</ele>
        <time>2022-09-22T06:58:14.000Z</time>
      </trkpt>
      <trkpt lat="47.26716" lon="-2.33874">
        <ele>-3.4000000953674</ele>
        <time>2022-09-22T06:58:15.000Z</time>
      </trkpt>
      <trkpt lat="47.26719" lon="-2.33879">
        <ele>-3</ele>
        <time>2022-09-22T06:58:16.000Z</time>
      </trkpt>
      <trkpt lat="47.26722" lon="-2.33885">
        <ele>-2.5999999046326</ele>
        <time>2022-09-22T06:58:17.000Z</time>
      </trkpt>
      <trkpt lat="47.26725" lon="-2.33891">
        <ele>-2</ele>
        <time>2022-09-22T06:58:18.000Z</time>
      </trkpt>
      <trkpt lat="47.26735" lon="-2.33907">
        <ele>-2</ele>
        <time>2022-09-22T06:58:21.000Z</time>
      </trkpt>
      <trkpt lat="47.26757" lon="-2.33945">
        <ele>-2</ele>
        <time>2022-09-22T06:58:28.000Z</time>
      </trkpt>
      <trkpt lat="47.26764" lon="-2.33955">
        <ele>-2</ele>
        <time>2022-09-22T06:58:30.000Z</time>
      </trkpt>
      <trkpt lat="47.26787" lon="-2.3399">
        <ele>-2</ele>
        <time>2022-09-22T06:58:37.000Z</time>
      </trkpt>
      <trkpt lat="47.26796" lon="-2.34006">
        <ele>-2</ele>
        <time>2022-09-22T06:58:40.000Z</time>
      </trkpt>
      <trkpt lat="47.26809" lon="-2.34027">
        <ele>-2</ele>
        <time>2022-09-22T06:58:44.000Z</time>
      </trkpt>
      <trkpt lat="47.26824" lon="-2.34051">
        <ele>-2</ele>
        <time>2022-09-22T06:58:49.000Z</time>
      </trkpt>
      <trkpt lat="47.26826" lon="-2.34055">
        <ele>-2</ele>
        <time>2022-09-22T06:58:50.000Z</time>
      </trkpt>
      <trkpt lat="47.26847" lon="-2.34089">
        <ele>-2</ele>
        <time>2022-09-22T06:58:57.000Z</time>
      </trkpt>
      <trkpt lat="47.26866" lon="-2.34121">
        <ele>-2</ele>
        <time>2022-09-22T06:59:03.000Z</time>
      </trkpt>
      <trkpt lat="47.26869" lon="-2.34127">
        <ele>-2</ele>
        <time>2022-09-22T06:59:04.000Z</time>
      </trkpt>
      <trkpt lat="47.26875" lon="-2.34137">
        <ele>-2</ele>
        <time>2022-09-22T06:59:06.000Z</time>
      </trkpt>
      <trkpt lat="47.2689" lon="-2.34156">
        <ele>-2</ele>
        <time>2022-09-22T06:59:10.000Z</time>
      </trkpt>
      <trkpt lat="47.26918" lon="-2.34197">
        <ele>-2</ele>
        <time>2022-09-22T06:59:18.000Z</time>
      </trkpt>
      <trkpt lat="47.26947" lon="-2.34246">
        <ele>-2</ele>
        <time>2022-09-22T06:59:27.000Z</time>
      </trkpt>
      <trkpt lat="47.2697" lon="-2.3428">
        <ele>-2</ele>
        <time>2022-09-22T06:59:34.000Z</time>
      </trkpt>
      <trkpt lat="47.26973" lon="-2.34285">
        <ele>-2</ele>
        <time>2022-09-22T06:59:35.000Z</time>
      </trkpt>
      <trkpt lat="47.26986" lon="-2.34308">
        <ele>-2</ele>
        <time>2022-09-22T06:59:40.000Z</time>
      </trkpt>
      <trkpt lat="47.26996" lon="-2.34316">
        <ele>-2</ele>
        <time>2022-09-22T06:59:44.000Z</time>
      </trkpt>
      <trkpt lat="47.27008" lon="-2.34317">
        <ele>-2</ele>
        <time>2022-09-22T06:59:49.000Z</time>
      </trkpt>
      <trkpt lat="47.2701" lon="-2.34318">
        <ele>-2</ele>
        <time>2022-09-22T06:59:50.000Z</time>
      </trkpt>
      <trkpt lat="47.27014" lon="-2.34324">
        <ele>-2</ele>
        <time>2022-09-22T06:59:53.000Z</time>
      </trkpt>
      <trkpt lat="47.27016" lon="-2.34327">
        <ele>-2</ele>
        <time>2022-09-22T06:59:55.000Z</time>
      </trkpt>
      <trkpt lat="47.27017" lon="-2.34326">
        <ele>-2</ele>
        <time>2022-09-22T06:59:58.000Z</time>
      </trkpt>
      <trkpt lat="47.27018" lon="-2.34326">
        <ele>-2</ele>
        <time>2022-09-22T06:59:59.000Z</time>
      </trkpt>
      <trkpt lat="47.27022" lon="-2.34326">
        <ele>-2</ele>
        <time>2022-09-22T07:00:47.000Z</time>
      </trkpt>
      <trkpt lat="47.27025" lon="-2.34326">
        <ele>-2</ele>
        <time>2022-09-22T07:00:49.000Z</time>
      </trkpt>
      <trkpt lat="47.27033" lon="-2.34328">
        <ele>-2</ele>
        <time>2022-09-22T07:00:55.000Z</time>
      </trkpt>
      <trkpt lat="47.27037" lon="-2.34333">
        <ele>-2</ele>
        <time>2022-09-22T07:00:57.000Z</time>
      </trkpt>
      <trkpt lat="47.27039" lon="-2.34338">
        <ele>-2</ele>
        <time>2022-09-22T07:00:58.000Z</time>
      </trkpt>
      <trkpt lat="47.27046" lon="-2.34362">
        <ele>-2</ele>
        <time>2022-09-22T07:01:02.000Z</time>
      </trkpt>
      <trkpt lat="47.27048" lon="-2.34369">
        <ele>-2</ele>
        <time>2022-09-22T07:01:03.000Z</time>
      </trkpt>
      <trkpt lat="47.27062" lon="-2.34431">
        <ele>-2</ele>
        <time>2022-09-22T07:01:12.000Z</time>
      </trkpt>
      <trkpt lat="47.27073" lon="-2.34479">
        <ele>-2</ele>
        <time>2022-09-22T07:01:19.000Z</time>
      </trkpt>
      <trkpt lat="47.27084" lon="-2.34528">
        <ele>-2</ele>
        <time>2022-09-22T07:01:26.000Z</time>
      </trkpt>
      <trkpt lat="47.27095" lon="-2.34569">
        <ele>-2</ele>
        <time>2022-09-22T07:01:32.000Z</time>
      </trkpt>
      <trkpt lat="47.27108" lon="-2.34629">
        <ele>-2</ele>
        <time>2022-09-22T07:01:40.000Z</time>
      </trkpt>
      <trkpt lat="47.27119" lon="-2.34677">
        <ele>-2</ele>
        <time>2022-09-22T07:01:46.000Z</time>
      </trkpt>
      <trkpt lat="47.27134" lon="-2.34746">
        <ele>-2</ele>
        <time>2022-09-22T07:01:55.000Z</time>
      </trkpt>
      <trkpt lat="47.27143" lon="-2.34791">
        <ele>-2</ele>
        <time>2022-09-22T07:02:01.000Z</time>
      </trkpt>
      <trkpt lat="47.27153" lon="-2.34842">
        <ele>-2</ele>
        <time>2022-09-22T07:02:08.000Z</time>
      </trkpt>
      <trkpt lat="47.27168" lon="-2.34899">
        <ele>-2</ele>
        <time>2022-09-22T07:02:16.000Z</time>
      </trkpt>
      <trkpt lat="47.27178" lon="-2.34932">
        <ele>-1.6000000238419</ele>
        <time>2022-09-22T07:02:21.000Z</time>
      </trkpt>
      <trkpt lat="47.2718" lon="-2.34938">
        <ele>-1.2000000476837</ele>
        <time>2022-09-22T07:02:22.000Z</time>
      </trkpt>
      <trkpt lat="47.27183" lon="-2.34945">
        <ele>-0.80000001192093</ele>
        <time>2022-09-22T07:02:23.000Z</time>
      </trkpt>
      <trkpt lat="47.27185" lon="-2.34951">
        <ele>-0.40000000596046</ele>
        <time>2022-09-22T07:02:24.000Z</time>
      </trkpt>
      <trkpt lat="47.27187" lon="-2.34958">
        <ele>11.7</ele>
        <time>2022-09-22T07:02:25.000Z</time>
      </trkpt>
      <trkpt lat="47.272" lon="-2.34991">
        <ele>11.7</ele>
        <time>2022-09-22T07:02:30.000Z</time>
      </trkpt>
      <trkpt lat="47.27217" lon="-2.3504">
        <ele>11.8</ele>
        <time>2022-09-22T07:02:38.000Z</time>
      </trkpt>
      <trkpt lat="47.27239" lon="-2.35093">
        <ele>11.6</ele>
        <time>2022-09-22T07:02:46.000Z</time>
      </trkpt>
      <trkpt lat="47.27254" lon="-2.35121">
        <ele>12.1</ele>
        <time>2022-09-22T07:02:51.000Z</time>
      </trkpt>
      <trkpt lat="47.27257" lon="-2.35122">
        <ele>12.3</ele>
        <time>2022-09-22T07:02:52.000Z</time>
      </trkpt>
      <trkpt lat="47.27265" lon="-2.35118">
        <ele>12.5</ele>
        <time>2022-09-22T07:02:54.000Z</time>
      </trkpt>
      <trkpt lat="47.27268" lon="-2.35116">
        <ele>12.7</ele>
        <time>2022-09-22T07:02:55.000Z</time>
      </trkpt>
      <trkpt lat="47.27275" lon="-2.35112">
        <ele>12.9</ele>
        <time>2022-09-22T07:02:57.000Z</time>
      </trkpt>
      <trkpt lat="47.27289" lon="-2.35106">
        <ele>13.6</ele>
        <time>2022-09-22T07:03:01.000Z</time>
      </trkpt>
      <trkpt lat="47.27303" lon="-2.351">
        <ele>0.40000000596046</ele>
        <time>2022-09-22T07:03:05.000Z</time>
      </trkpt>
      <trkpt lat="47.27306" lon="-2.35099">
        <ele>0.80000001192093</ele>
        <time>2022-09-22T07:03:06.000Z</time>
      </trkpt>
      <trkpt lat="47.27309" lon="-2.35097">
        <ele>1.2000000476837</ele>
        <time>2022-09-22T07:03:07.000Z</time>
      </trkpt>
      <trkpt lat="47.27312" lon="-2.35095">
        <ele>1.6000000238419</ele>
        <time>2022-09-22T07:03:08.000Z</time>
      </trkpt>
      <trkpt lat="47.27316" lon="-2.35094">
        <ele>2.2000000476837</ele>
        <time>2022-09-22T07:03:09.000Z</time>
      </trkpt>
      <trkpt lat="47.27332" lon="-2.35084">
        <ele>2.5999999046326</ele>
        <time>2022-09-22T07:03:15.000Z</time>
      </trkpt>
      <trkpt lat="47.27335" lon="-2.35082">
        <ele>3</ele>
        <time>2022-09-22T07:03:16.000Z</time>
      </trkpt>
      <trkpt lat="47.27337" lon="-2.35082">
        <ele>3.4000000953674</ele>
        <time>2022-09-22T07:03:17.000Z</time>
      </trkpt>
      <trkpt lat="47.2734" lon="-2.3508">
        <ele>3.7999999523163</ele>
        <time>2022-09-22T07:03:18.000Z</time>
      </trkpt>
      <trkpt lat="47.27344" lon="-2.35078">
        <ele>4.1999998092651</ele>
        <time>2022-09-22T07:03:19.000Z</time>
      </trkpt>
      <trkpt lat="47.27347" lon="-2.35076">
        <ele>4.1999998092651</ele>
        <time>2022-09-22T07:03:20.000Z</time>
      </trkpt>
      <trkpt lat="47.27368" lon="-2.35066">
        <ele>5.1999998092651</ele>
        <time>2022-09-22T07:03:26.000Z</time>
      </trkpt>
      <trkpt lat="47.27372" lon="-2.35064">
        <ele>5.5999999046326</ele>
        <time>2022-09-22T07:03:27.000Z</time>
      </trkpt>
      <trkpt lat="47.27375" lon="-2.35062">
        <ele>6</ele>
        <time>2022-09-22T07:03:28.000Z</time>
      </trkpt>
      <trkpt lat="47.27378" lon="-2.35061">
        <ele>6.4000000953674</ele>
        <time>2022-09-22T07:03:29.000Z</time>
      </trkpt>
      <trkpt lat="47.27393" lon="-2.35056">
        <ele>6.4000000953674</ele>
        <time>2022-09-22T07:03:34.000Z</time>
      </trkpt>
      <trkpt lat="47.27395" lon="-2.35058">
        <ele>6.4000000953674</ele>
        <time>2022-09-22T07:03:35.000Z</time>
      </trkpt>
      <trkpt lat="47.27403" lon="-2.35071">
        <ele>6.4000000953674</ele>
        <time>2022-09-22T07:03:39.000Z</time>
      </trkpt>
      <trkpt lat="47.27405" lon="-2.3508">
        <ele>6.4000000953674</ele>
        <time>2022-09-22T07:03:41.000Z</time>
      </trkpt>
      <trkpt lat="47.27411" lon="-2.35101">
        <ele>6.4000000953674</ele>
        <time>2022-09-22T07:03:45.000Z</time>
      </trkpt>
      <trkpt lat="47.27419" lon="-2.35134">
        <ele>7.1999998092651</ele>
        <time>2022-09-22T07:03:51.000Z</time>
      </trkpt>
      <trkpt lat="47.2742" lon="-2.3514">
        <ele>7.5999999046326</ele>
        <time>2022-09-22T07:03:52.000Z</time>
      </trkpt>
      <trkpt lat="47.27421" lon="-2.35145">
        <ele>8</ele>
        <time>2022-09-22T07:03:53.000Z</time>
      </trkpt>
      <trkpt lat="47.27422" lon="-2.35151">
        <ele>8.3999996185303</ele>
        <time>2022-09-22T07:03:54.000Z</time>
      </trkpt>
      <trkpt lat="47.2743" lon="-2.35171">
        <ele>8.3999996185303</ele>
        <time>2022-09-22T07:03:59.000Z</time>
      </trkpt>
      <trkpt lat="47.27442" lon="-2.35166">
        <ele>8.3999996185303</ele>
        <time>2022-09-22T07:04:03.000Z</time>
      </trkpt>
      <trkpt lat="47.27472" lon="-2.3515">
        <ele>8.3999996185303</ele>
        <time>2022-09-22T07:04:12.000Z</time>
      </trkpt>
      <trkpt lat="47.27495" lon="-2.35138">
        <ele>8.3999996185303</ele>
        <time>2022-09-22T07:04:19.000Z</time>
      </trkpt>
      <trkpt lat="47.27497" lon="-2.35135">
        <ele>8.8000001907349</ele>
        <time>2022-09-22T07:04:20.000Z</time>
      </trkpt>
      <trkpt lat="47.27499" lon="-2.35132">
        <ele>9.1999998092651</ele>
        <time>2022-09-22T07:04:21.000Z</time>
      </trkpt>
      <trkpt lat="47.275" lon="-2.35128">
        <ele>9.6000003814697</ele>
        <time>2022-09-22T07:04:22.000Z</time>
      </trkpt>
      <trkpt lat="47.27503" lon="-2.35126">
        <ele>10</ele>
        <time>2022-09-22T07:04:23.000Z</time>
      </trkpt>
      <trkpt lat="47.27506" lon="-2.35126">
        <ele>10.39999961853</ele>
        <time>2022-09-22T07:04:24.000Z</time>
      </trkpt>
      <trkpt lat="47.27513" lon="-2.35128">
        <ele>10.39999961853</ele>
        <time>2022-09-22T07:04:26.000Z</time>
      </trkpt>
      <trkpt lat="47.2752" lon="-2.35131">
        <ele>10.39999961853</ele>
        <time>2022-09-22T07:04:28.000Z</time>
      </trkpt>
      <trkpt lat="47.27534" lon="-2.35137">
        <ele>10.39999961853</ele>
        <time>2022-09-22T07:04:32.000Z</time>
      </trkpt>
      <trkpt lat="47.27563" lon="-2.35134">
        <ele>10.39999961853</ele>
        <time>2022-09-22T07:04:39.000Z</time>
      </trkpt>
      <trkpt lat="47.2759" lon="-2.35131">
        <ele>10.39999961853</ele>
        <time>2022-09-22T07:04:45.000Z</time>
      </trkpt>
      <trkpt lat="47.27598" lon="-2.35131">
        <ele>10.39999961853</ele>
        <time>2022-09-22T07:04:47.000Z</time>
      </trkpt>
      <trkpt lat="47.27607" lon="-2.35138">
        <ele>10.39999961853</ele>
        <time>2022-09-22T07:04:49.000Z</time>
      </trkpt>
      <trkpt lat="47.27609" lon="-2.35152">
        <ele>10.39999961853</ele>
        <time>2022-09-22T07:04:51.000Z</time>
      </trkpt>
      <trkpt lat="47.27616" lon="-2.35177">
        <ele>10.39999961853</ele>
        <time>2022-09-22T07:04:55.000Z</time>
      </trkpt>
      <trkpt lat="47.27629" lon="-2.35179">
        <ele>10.39999961853</ele>
        <time>2022-09-22T07:04:58.000Z</time>
      </trkpt>
      <trkpt lat="47.27635" lon="-2.35177">
        <ele>10.39999961853</ele>
        <time>2022-09-22T07:04:59.000Z</time>
      </trkpt>
      <trkpt lat="47.2766" lon="-2.35172">
        <ele>10</ele>
        <time>2022-09-22T07:05:04.000Z</time>
      </trkpt>
      <trkpt lat="47.27665" lon="-2.35174">
        <ele>9.6000003814697</ele>
        <time>2022-09-22T07:05:05.000Z</time>
      </trkpt>
      <trkpt lat="47.2767" lon="-2.35177">
        <ele>9.1999998092651</ele>
        <time>2022-09-22T07:05:06.000Z</time>
      </trkpt>
      <trkpt lat="47.27671" lon="-2.35184">
        <ele>8.8000001907349</ele>
        <time>2022-09-22T07:05:07.000Z</time>
      </trkpt>
      <trkpt lat="47.27671" lon="-2.35191">
        <ele>8.3999996185303</ele>
        <time>2022-09-22T07:05:08.000Z</time>
      </trkpt>
      <trkpt lat="47.27672" lon="-2.35206">
        <ele>8.3999996185303</ele>
        <time>2022-09-22T07:05:10.000Z</time>
      </trkpt>
      <trkpt lat="47.27674" lon="-2.3522">
        <ele>8</ele>
        <time>2022-09-22T07:05:13.000Z</time>
      </trkpt>
      <trkpt lat="47.27677" lon="-2.35221">
        <ele>7.5999999046326</ele>
        <time>2022-09-22T07:05:14.000Z</time>
      </trkpt>
      <trkpt lat="47.27681" lon="-2.3522">
        <ele>7.1999998092651</ele>
        <time>2022-09-22T07:05:15.000Z</time>
      </trkpt>
      <trkpt lat="47.27685" lon="-2.35219">
        <ele>6.8000001907349</ele>
        <time>2022-09-22T07:05:16.000Z</time>
      </trkpt>
      <trkpt lat="47.2769" lon="-2.35217">
        <ele>6.1999998092651</ele>
        <time>2022-09-22T07:05:17.000Z</time>
      </trkpt>
      <trkpt lat="47.27695" lon="-2.35216">
        <ele>6.1999998092651</ele>
        <time>2022-09-22T07:05:18.000Z</time>
      </trkpt>
      <trkpt lat="47.27711" lon="-2.3521">
        <ele>6.1999998092651</ele>
        <time>2022-09-22T07:05:21.000Z</time>
      </trkpt>
      <trkpt lat="47.27745" lon="-2.35202">
        <ele>5.8000001907349</ele>
        <time>2022-09-22T07:05:27.000Z</time>
      </trkpt>
      <trkpt lat="47.2775" lon="-2.35201">
        <ele>5.4000000953674</ele>
        <time>2022-09-22T07:05:28.000Z</time>
      </trkpt>
      <trkpt lat="47.27756" lon="-2.35199">
        <ele>4.5999999046326</ele>
        <time>2022-09-22T07:05:29.000Z</time>
      </trkpt>
      <trkpt lat="47.27761" lon="-2.35198">
        <ele>4.1999998092651</ele>
        <time>2022-09-22T07:05:30.000Z</time>
      </trkpt>
      <trkpt lat="47.27767" lon="-2.352">
        <ele>4.1999998092651</ele>
        <time>2022-09-22T07:05:32.000Z</time>
      </trkpt>
      <trkpt lat="47.27769" lon="-2.35204">
        <ele>4.1999998092651</ele>
        <time>2022-09-22T07:05:33.000Z</time>
      </trkpt>
      <trkpt lat="47.27774" lon="-2.3522">
        <ele>4.1999998092651</ele>
        <time>2022-09-22T07:05:36.000Z</time>
      </trkpt>
      <trkpt lat="47.27775" lon="-2.35226">
        <ele>4.1999998092651</ele>
        <time>2022-09-22T07:05:37.000Z</time>
      </trkpt>
      <trkpt lat="47.27783" lon="-2.35269">
        <ele>4.1999998092651</ele>
        <time>2022-09-22T07:05:43.000Z</time>
      </trkpt>
      <trkpt lat="47.27787" lon="-2.35292">
        <ele>4.1999998092651</ele>
        <time>2022-09-22T07:05:46.000Z</time>
      </trkpt>
      <trkpt lat="47.27794" lon="-2.3532">
        <ele>4.1999998092651</ele>
        <time>2022-09-22T07:05:50.000Z</time>
      </trkpt>
      <trkpt lat="47.27805" lon="-2.35354">
        <ele>4.1999998092651</ele>
        <time>2022-09-22T07:05:55.000Z</time>
      </trkpt>
      <trkpt lat="47.27808" lon="-2.35359">
        <ele>4.1999998092651</ele>
        <time>2022-09-22T07:05:56.000Z</time>
      </trkpt>
      <trkpt lat="47.27822" lon="-2.35362">
        <ele>4.1999998092651</ele>
        <time>2022-09-22T07:05:59.000Z</time>
      </trkpt>
      <trkpt lat="47.27832" lon="-2.35361">
        <ele>4.1999998092651</ele>
        <time>2022-09-22T07:06:01.000Z</time>
      </trkpt>
      <trkpt lat="47.27851" lon="-2.35359">
        <ele>4.1999998092651</ele>
        <time>2022-09-22T07:06:05.000Z</time>
      </trkpt>
      <trkpt lat="47.27873" lon="-2.35363">
        <ele>4.1999998092651</ele>
        <time>2022-09-22T07:06:10.000Z</time>
      </trkpt>
      <trkpt lat="47.27876" lon="-2.35365">
        <ele>4.1999998092651</ele>
        <time>2022-09-22T07:06:11.000Z</time>
      </trkpt>
      <trkpt lat="47.27887" lon="-2.35378">
        <ele>4.1999998092651</ele>
        <time>2022-09-22T07:06:14.000Z</time>
      </trkpt>
      <trkpt lat="47.27893" lon="-2.35386">
        <ele>4.1999998092651</ele>
        <time>2022-09-22T07:06:16.000Z</time>
      </trkpt>
      <trkpt lat="47.2792" lon="-2.35422">
        <ele>4.1999998092651</ele>
        <time>2022-09-22T07:06:24.000Z</time>
      </trkpt>
      <trkpt lat="47.27954" lon="-2.35458">
        <ele>4.1999998092651</ele>
        <time>2022-09-22T07:06:33.000Z</time>
      </trkpt>
      <trkpt lat="47.27972" lon="-2.35468">
        <ele>4.1999998092651</ele>
        <time>2022-09-22T07:06:37.000Z</time>
      </trkpt>
      <trkpt lat="47.2798" lon="-2.35478">
        <ele>4.1999998092651</ele>
        <time>2022-09-22T07:06:39.000Z</time>
      </trkpt>
      <trkpt lat="47.2799" lon="-2.35494">
        <ele>4.1999998092651</ele>
        <time>2022-09-22T07:06:42.000Z</time>
      </trkpt>
      <trkpt lat="47.27996" lon="-2.35505">
        <ele>4.1999998092651</ele>
        <time>2022-09-22T07:06:44.000Z</time>
      </trkpt>
      <trkpt lat="47.28005" lon="-2.35533">
        <ele>4.1999998092651</ele>
        <time>2022-09-22T07:06:50.000Z</time>
      </trkpt>
      <trkpt lat="47.28008" lon="-2.35545">
        <ele>4.5999999046326</ele>
        <time>2022-09-22T07:06:53.000Z</time>
      </trkpt>
      <trkpt lat="47.28009" lon="-2.35549">
        <ele>5</ele>
        <time>2022-09-22T07:06:54.000Z</time>
      </trkpt>
      <trkpt lat="47.28011" lon="-2.35553">
        <ele>5.4000000953674</ele>
        <time>2022-09-22T07:06:55.000Z</time>
      </trkpt>
      <trkpt lat="47.28012" lon="-2.35557">
        <ele>5.8000001907349</ele>
        <time>2022-09-22T07:06:56.000Z</time>
      </trkpt>
      <trkpt lat="47.28014" lon="-2.3556">
        <ele>6.1999998092651</ele>
        <time>2022-09-22T07:06:57.000Z</time>
      </trkpt>
      <trkpt lat="47.28016" lon="-2.35561">
        <ele>6.1999998092651</ele>
        <time>2022-09-22T07:06:58.000Z</time>
      </trkpt>
      <trkpt lat="47.28018" lon="-2.35561">
        <ele>6.1999998092651</ele>
        <time>2022-09-22T07:06:59.000Z</time>
      </trkpt>
      <trkpt lat="47.28034" lon="-2.35568">
        <ele>6.1999998092651</ele>
        <time>2022-09-22T07:07:04.000Z</time>
      </trkpt>
      <trkpt lat="47.28037" lon="-2.35571">
        <ele>6.1999998092651</ele>
        <time>2022-09-22T07:07:05.000Z</time>
      </trkpt>
      <trkpt lat="47.28055" lon="-2.3558">
        <ele>6.5999999046326</ele>
        <time>2022-09-22T07:07:11.000Z</time>
      </trkpt>
      <trkpt lat="47.28057" lon="-2.35581">
        <ele>7</ele>
        <time>2022-09-22T07:07:12.000Z</time>
      </trkpt>
      <trkpt lat="47.28061" lon="-2.35581">
        <ele>7.4000000953674</ele>
        <time>2022-09-22T07:07:13.000Z</time>
      </trkpt>
      <trkpt lat="47.28064" lon="-2.35582">
        <ele>7.8000001907349</ele>
        <time>2022-09-22T07:07:14.000Z</time>
      </trkpt>
      <trkpt lat="47.28066" lon="-2.35584">
        <ele>8.1999998092651</ele>
        <time>2022-09-22T07:07:15.000Z</time>
      </trkpt>
      <trkpt lat="47.2807" lon="-2.35591">
        <ele>8.1999998092651</ele>
        <time>2022-09-22T07:07:17.000Z</time>
      </trkpt>
      <trkpt lat="47.28082" lon="-2.35611">
        <ele>8.1999998092651</ele>
        <time>2022-09-22T07:07:24.000Z</time>
      </trkpt>
      <trkpt lat="47.28089" lon="-2.35621">
        <ele>8.1999998092651</ele>
        <time>2022-09-22T07:07:30.000Z</time>
      </trkpt>
      <trkpt lat="47.28089" lon="-2.35623">
        <ele>8.1999998092651</ele>
        <time>2022-09-22T07:07:32.000Z</time>
      </trkpt>
      <trkpt lat="47.28084" lon="-2.35618">
        <ele>8.1999998092651</ele>
        <time>2022-09-22T07:10:47.000Z</time>
      </trkpt>
      <trkpt lat="47.28082" lon="-2.35617">
        <ele>8.1999998092651</ele>
        <time>2022-09-22T07:10:48.000Z</time>
      </trkpt>
      <trkpt lat="47.28073" lon="-2.35614">
        <ele>8.1999998092651</ele>
        <time>2022-09-22T07:10:54.000Z</time>
      </trkpt>
      <trkpt lat="47.28075" lon="-2.35618">
        <ele>8.1999998092651</ele>
        <time>2022-09-22T07:10:57.000Z</time>
      </trkpt>
      <trkpt lat="47.28076" lon="-2.3562">
        <ele>8.1999998092651</ele>
        <time>2022-09-22T07:10:58.000Z</time>
      </trkpt>
      <trkpt lat="47.2808" lon="-2.35627">
        <ele>8.1999998092651</ele>
        <time>2022-09-22T07:11:01.000Z</time>
      </trkpt>
      <trkpt lat="47.2808" lon="-2.35634">
        <ele>8.1999998092651</ele>
        <time>2022-09-22T07:11:03.000Z</time>
      </trkpt>
      <trkpt lat="47.2808" lon="-2.3564">
        <ele>8.6000003814697</ele>
        <time>2022-09-22T07:11:05.000Z</time>
      </trkpt>
      <trkpt lat="47.2808" lon="-2.35642">
        <ele>9</ele>
        <time>2022-09-22T07:11:06.000Z</time>
      </trkpt>
      <trkpt lat="47.2808" lon="-2.35644">
        <ele>9.6000003814697</ele>
        <time>2022-09-22T07:11:07.000Z</time>
      </trkpt>
      <trkpt lat="47.2808" lon="-2.35647">
        <ele>10</ele>
        <time>2022-09-22T07:11:08.000Z</time>
      </trkpt>
      <trkpt lat="47.2808" lon="-2.35649">
        <ele>10.39999961853</ele>
        <time>2022-09-22T07:11:09.000Z</time>
      </trkpt>
      <trkpt lat="47.28081" lon="-2.35654">
        <ele>10.39999961853</ele>
        <time>2022-09-22T07:11:12.000Z</time>
      </trkpt>
      <trkpt lat="47.28083" lon="-2.35658">
        <ele>10.39999961853</ele>
        <time>2022-09-22T07:11:26.000Z</time>
      </trkpt>
      <trkpt lat="47.28086" lon="-2.35664">
        <ele>10.800000190735</ele>
        <time>2022-09-22T07:11:28.000Z</time>
      </trkpt>
      <trkpt lat="47.28087" lon="-2.35669">
        <ele>11.199999809265</ele>
        <time>2022-09-22T07:11:29.000Z</time>
      </trkpt>
      <trkpt lat="47.28088" lon="-2.35673">
        <ele>11.800000190735</ele>
        <time>2022-09-22T07:11:30.000Z</time>
      </trkpt>
      <trkpt lat="47.28089" lon="-2.35676">
        <ele>12.199999809265</ele>
        <time>2022-09-22T07:11:31.000Z</time>
      </trkpt>
      <trkpt lat="47.28089" lon="-2.3568">
        <ele>12.60000038147</ele>
        <time>2022-09-22T07:11:32.000Z</time>
      </trkpt>
      <trkpt lat="47.28093" lon="-2.35698">
        <ele>12.60000038147</ele>
        <time>2022-09-22T07:11:37.000Z</time>
      </trkpt>
      <trkpt lat="47.28094" lon="-2.35704">
        <ele>13</ele>
        <time>2022-09-22T07:11:39.000Z</time>
      </trkpt>
      <trkpt lat="47.28094" lon="-2.35707">
        <ele>13.39999961853</ele>
        <time>2022-09-22T07:11:40.000Z</time>
      </trkpt>
      <trkpt lat="47.28094" lon="-2.35711">
        <ele>13.800000190735</ele>
        <time>2022-09-22T07:11:41.000Z</time>
      </trkpt>
      <trkpt lat="47.28093" lon="-2.35714">
        <ele>14.199999809265</ele>
        <time>2022-09-22T07:11:42.000Z</time>
      </trkpt>
      <trkpt lat="47.28092" lon="-2.35718">
        <ele>14.60000038147</ele>
        <time>2022-09-22T07:11:43.000Z</time>
      </trkpt>
      <trkpt lat="47.28088" lon="-2.35737">
        <ele>14.60000038147</ele>
        <time>2022-09-22T07:11:47.000Z</time>
      </trkpt>
      <trkpt lat="47.28087" lon="-2.35745">
        <ele>14.60000038147</ele>
        <time>2022-09-22T07:11:48.000Z</time>
      </trkpt>
      <trkpt lat="47.28084" lon="-2.35768">
        <ele>14.199999809265</ele>
        <time>2022-09-22T07:11:51.000Z</time>
      </trkpt>
      <trkpt lat="47.28083" lon="-2.35773">
        <ele>13.60000038147</ele>
        <time>2022-09-22T07:11:52.000Z</time>
      </trkpt>
      <trkpt lat="47.28082" lon="-2.35779">
        <ele>13.199999809265</ele>
        <time>2022-09-22T07:11:53.000Z</time>
      </trkpt>
      <trkpt lat="47.28081" lon="-2.35786">
        <ele>12.800000190735</ele>
        <time>2022-09-22T07:11:54.000Z</time>
      </trkpt>
      <trkpt lat="47.28079" lon="-2.35791">
        <ele>12.39999961853</ele>
        <time>2022-09-22T07:11:55.000Z</time>
      </trkpt>
      <trkpt lat="47.28079" lon="-2.35797">
        <ele>12.39999961853</ele>
        <time>2022-09-22T07:11:56.000Z</time>
      </trkpt>
      <trkpt lat="47.2808" lon="-2.35801">
        <ele>12.39999961853</ele>
        <time>2022-09-22T07:11:57.000Z</time>
      </trkpt>
      <trkpt lat="47.28082" lon="-2.35806">
        <ele>12</ele>
        <time>2022-09-22T07:11:58.000Z</time>
      </trkpt>
      <trkpt lat="47.28084" lon="-2.35811">
        <ele>11.39999961853</ele>
        <time>2022-09-22T07:11:59.000Z</time>
      </trkpt>
      <trkpt lat="47.28085" lon="-2.35815">
        <ele>11</ele>
        <time>2022-09-22T07:12:00.000Z</time>
      </trkpt>
      <trkpt lat="47.28087" lon="-2.35818">
        <ele>10.39999961853</ele>
        <time>2022-09-22T07:12:01.000Z</time>
      </trkpt>
      <trkpt lat="47.28088" lon="-2.35819">
        <ele>10</ele>
        <time>2022-09-22T07:12:02.000Z</time>
      </trkpt>
      <trkpt lat="47.2809" lon="-2.35821">
        <ele>10</ele>
        <time>2022-09-22T07:12:03.000Z</time>
      </trkpt>
      <trkpt lat="47.28093" lon="-2.35823">
        <ele>10</ele>
        <time>2022-09-22T07:12:05.000Z</time>
      </trkpt>
      <trkpt lat="47.28094" lon="-2.35825">
        <ele>10</ele>
        <time>2022-09-22T07:12:08.000Z</time>
      </trkpt>
      <trkpt lat="47.28097" lon="-2.35827">
        <ele>10</ele>
        <time>2022-09-22T07:12:12.000Z</time>
      </trkpt>
      <trkpt lat="47.281" lon="-2.35828">
        <ele>10</ele>
        <time>2022-09-22T07:12:26.000Z</time>
      </trkpt>
      <trkpt lat="47.28101" lon="-2.35832">
        <ele>10</ele>
        <time>2022-09-22T07:12:28.000Z</time>
      </trkpt>
      <trkpt lat="47.28102" lon="-2.35836">
        <ele>10</ele>
        <time>2022-09-22T07:12:30.000Z</time>
      </trkpt>
      <trkpt lat="47.28104" lon="-2.35837">
        <ele>10</ele>
        <time>2022-09-22T07:12:32.000Z</time>
      </trkpt>
      <trkpt lat="47.28107" lon="-2.35837">
        <ele>10</ele>
        <time>2022-09-22T07:12:34.000Z</time>
      </trkpt>
      <trkpt lat="47.28111" lon="-2.35837">
        <ele>10</ele>
        <time>2022-09-22T07:12:37.000Z</time>
      </trkpt>
      <trkpt lat="47.28112" lon="-2.35838">
        <ele>10</ele>
        <time>2022-09-22T07:12:39.000Z</time>
      </trkpt>
      <trkpt lat="47.28118" lon="-2.35843">
        <ele>10</ele>
        <time>2022-09-22T07:12:48.000Z</time>
      </trkpt>
      <trkpt lat="47.28121" lon="-2.35851">
        <ele>10</ele>
        <time>2022-09-22T07:12:50.000Z</time>
      </trkpt>
      <trkpt lat="47.28125" lon="-2.35864">
        <ele>10</ele>
        <time>2022-09-22T07:12:53.000Z</time>
      </trkpt>
      <trkpt lat="47.28128" lon="-2.35865">
        <ele>10</ele>
        <time>2022-09-22T07:12:55.000Z</time>
      </trkpt>
      <trkpt lat="47.2813" lon="-2.35866">
        <ele>10</ele>
        <time>2022-09-22T07:12:56.000Z</time>
      </trkpt>
      <trkpt lat="47.28139" lon="-2.35874">
        <ele>10</ele>
        <time>2022-09-22T07:13:00.000Z</time>
      </trkpt>
      <trkpt lat="47.28142" lon="-2.35877">
        <ele>10</ele>
        <time>2022-09-22T07:13:01.000Z</time>
      </trkpt>
      <trkpt lat="47.28154" lon="-2.35893">
        <ele>10</ele>
        <time>2022-09-22T07:13:06.000Z</time>
      </trkpt>
      <trkpt lat="47.28166" lon="-2.35904">
        <ele>10</ele>
        <time>2022-09-22T07:13:11.000Z</time>
      </trkpt>
      <trkpt lat="47.28177" lon="-2.35923">
        <ele>10</ele>
        <time>2022-09-22T07:13:17.000Z</time>
      </trkpt>
      <trkpt lat="47.28179" lon="-2.35943">
        <ele>9.6000003814697</ele>
        <time>2022-09-22T07:13:22.000Z</time>
      </trkpt>
      <trkpt lat="47.28181" lon="-2.35948">
        <ele>9.1999998092651</ele>
        <time>2022-09-22T07:13:23.000Z</time>
      </trkpt>
      <trkpt lat="47.28182" lon="-2.35954">
        <ele>8.8000001907349</ele>
        <time>2022-09-22T07:13:24.000Z</time>
      </trkpt>
      <trkpt lat="47.28183" lon="-2.35961">
        <ele>8.3999996185303</ele>
        <time>2022-09-22T07:13:25.000Z</time>
      </trkpt>
      <trkpt lat="47.28185" lon="-2.35966">
        <ele>8</ele>
        <time>2022-09-22T07:13:26.000Z</time>
      </trkpt>
      <trkpt lat="47.28188" lon="-2.35973">
        <ele>8</ele>
        <time>2022-09-22T07:13:27.000Z</time>
      </trkpt>
      <trkpt lat="47.28198" lon="-2.35991">
        <ele>8</ele>
        <time>2022-09-22T07:13:30.000Z</time>
      </trkpt>
      <trkpt lat="47.28206" lon="-2.36016">
        <ele>8</ele>
        <time>2022-09-22T07:13:35.000Z</time>
      </trkpt>
      <trkpt lat="47.28209" lon="-2.3602">
        <ele>8</ele>
        <time>2022-09-22T07:13:37.000Z</time>
      </trkpt>
      <trkpt lat="47.28213" lon="-2.36026">
        <ele>8</ele>
        <time>2022-09-22T07:13:39.000Z</time>
      </trkpt>
      <trkpt lat="47.28221" lon="-2.3603">
        <ele>8</ele>
        <time>2022-09-22T07:13:43.000Z</time>
      </trkpt>
      <trkpt lat="47.28223" lon="-2.36029">
        <ele>8</ele>
        <time>2022-09-22T07:13:44.000Z</time>
      </trkpt>
      <trkpt lat="47.2823" lon="-2.36023">
        <ele>8</ele>
        <time>2022-09-22T07:13:48.000Z</time>
      </trkpt>
      <trkpt lat="47.28235" lon="-2.36022">
        <ele>8</ele>
        <time>2022-09-22T07:13:50.000Z</time>
      </trkpt>
      <trkpt lat="47.28245" lon="-2.36019">
        <ele>8</ele>
        <time>2022-09-22T07:13:55.000Z</time>
      </trkpt>
      <trkpt lat="47.28248" lon="-2.36021">
        <ele>8</ele>
        <time>2022-09-22T07:13:57.000Z</time>
      </trkpt>
      <trkpt lat="47.28248" lon="-2.36036">
        <ele>8</ele>
        <time>2022-09-22T07:14:02.000Z</time>
      </trkpt>
      <trkpt lat="47.28248" lon="-2.36049">
        <ele>8.3999996185303</ele>
        <time>2022-09-22T07:14:06.000Z</time>
      </trkpt>
      <trkpt lat="47.28249" lon="-2.36052">
        <ele>8.8000001907349</ele>
        <time>2022-09-22T07:14:07.000Z</time>
      </trkpt>
      <trkpt lat="47.28248" lon="-2.36054">
        <ele>9.6000003814697</ele>
        <time>2022-09-22T07:14:08.000Z</time>
      </trkpt>
      <trkpt lat="47.28249" lon="-2.36057">
        <ele>10</ele>
        <time>2022-09-22T07:14:09.000Z</time>
      </trkpt>
      <trkpt lat="47.28245" lon="-2.36076">
        <ele>10</ele>
        <time>2022-09-22T07:14:14.000Z</time>
      </trkpt>
      <trkpt lat="47.28243" lon="-2.361">
        <ele>10</ele>
        <time>2022-09-22T07:14:19.000Z</time>
      </trkpt>
      <trkpt lat="47.28245" lon="-2.36107">
        <ele>10</ele>
        <time>2022-09-22T07:14:20.000Z</time>
      </trkpt>
      <trkpt lat="47.2825" lon="-2.36118">
        <ele>10</ele>
        <time>2022-09-22T07:14:22.000Z</time>
      </trkpt>
      <trkpt lat="47.28257" lon="-2.36135">
        <ele>10</ele>
        <time>2022-09-22T07:14:25.000Z</time>
      </trkpt>
      <trkpt lat="47.28263" lon="-2.3615">
        <ele>10</ele>
        <time>2022-09-22T07:14:28.000Z</time>
      </trkpt>
      <trkpt lat="47.28268" lon="-2.36176">
        <ele>10</ele>
        <time>2022-09-22T07:14:33.000Z</time>
      </trkpt>
      <trkpt lat="47.28275" lon="-2.36215">
        <ele>10</ele>
        <time>2022-09-22T07:14:40.000Z</time>
      </trkpt>
      <trkpt lat="47.28279" lon="-2.36228">
        <ele>9.6000003814697</ele>
        <time>2022-09-22T07:14:43.000Z</time>
      </trkpt>
      <trkpt lat="47.2828" lon="-2.36233">
        <ele>9.1999998092651</ele>
        <time>2022-09-22T07:14:44.000Z</time>
      </trkpt>
      <trkpt lat="47.28283" lon="-2.36236">
        <ele>8.8000001907349</ele>
        <time>2022-09-22T07:14:45.000Z</time>
      </trkpt>
      <trkpt lat="47.28285" lon="-2.36239">
        <ele>8.3999996185303</ele>
        <time>2022-09-22T07:14:46.000Z</time>
      </trkpt>
      <trkpt lat="47.28288" lon="-2.36241">
        <ele>7.8000001907349</ele>
        <time>2022-09-22T07:14:47.000Z</time>
      </trkpt>
      <trkpt lat="47.28291" lon="-2.36242">
        <ele>7.8000001907349</ele>
        <time>2022-09-22T07:14:48.000Z</time>
      </trkpt>
      <trkpt lat="47.28299" lon="-2.36242">
        <ele>7.8000001907349</ele>
        <time>2022-09-22T07:14:52.000Z</time>
      </trkpt>
      <trkpt lat="47.28311" lon="-2.36247">
        <ele>7.8000001907349</ele>
        <time>2022-09-22T07:14:57.000Z</time>
      </trkpt>
      <trkpt lat="47.28323" lon="-2.36251">
        <ele>7.8000001907349</ele>
        <time>2022-09-22T07:15:01.000Z</time>
      </trkpt>
      <trkpt lat="47.28342" lon="-2.36258">
        <ele>7.8000001907349</ele>
        <time>2022-09-22T07:15:07.000Z</time>
      </trkpt>
      <trkpt lat="47.28355" lon="-2.36267">
        <ele>8.3999996185303</ele>
        <time>2022-09-22T07:15:12.000Z</time>
      </trkpt>
      <trkpt lat="47.28358" lon="-2.36269">
        <ele>8.8000001907349</ele>
        <time>2022-09-22T07:15:13.000Z</time>
      </trkpt>
      <trkpt lat="47.28361" lon="-2.36269">
        <ele>9.1999998092651</ele>
        <time>2022-09-22T07:15:14.000Z</time>
      </trkpt>
      <trkpt lat="47.28363" lon="-2.3627">
        <ele>9.6000003814697</ele>
        <time>2022-09-22T07:15:15.000Z</time>
      </trkpt>
      <trkpt lat="47.28366" lon="-2.36271">
        <ele>10</ele>
        <time>2022-09-22T07:15:16.000Z</time>
      </trkpt>
      <trkpt lat="47.28369" lon="-2.36272">
        <ele>10</ele>
        <time>2022-09-22T07:15:17.000Z</time>
      </trkpt>
      <trkpt lat="47.28386" lon="-2.36279">
        <ele>10</ele>
        <time>2022-09-22T07:15:23.000Z</time>
      </trkpt>
      <trkpt lat="47.28389" lon="-2.36281">
        <ele>10.39999961853</ele>
        <time>2022-09-22T07:15:24.000Z</time>
      </trkpt>
      <trkpt lat="47.28391" lon="-2.36282">
        <ele>10.800000190735</ele>
        <time>2022-09-22T07:15:25.000Z</time>
      </trkpt>
      <trkpt lat="47.28394" lon="-2.36282">
        <ele>11.199999809265</ele>
        <time>2022-09-22T07:15:26.000Z</time>
      </trkpt>
      <trkpt lat="47.28397" lon="-2.36284">
        <ele>11.60000038147</ele>
        <time>2022-09-22T07:15:27.000Z</time>
      </trkpt>
      <trkpt lat="47.284" lon="-2.36285">
        <ele>12</ele>
        <time>2022-09-22T07:15:28.000Z</time>
      </trkpt>
      <trkpt lat="47.28414" lon="-2.3629">
        <ele>12</ele>
        <time>2022-09-22T07:15:33.000Z</time>
      </trkpt>
      <trkpt lat="47.28421" lon="-2.36293">
        <ele>12.39999961853</ele>
        <time>2022-09-22T07:15:35.000Z</time>
      </trkpt>
      <trkpt lat="47.28423" lon="-2.36294">
        <ele>12.800000190735</ele>
        <time>2022-09-22T07:15:36.000Z</time>
      </trkpt>
      <trkpt lat="47.28426" lon="-2.36295">
        <ele>13.199999809265</ele>
        <time>2022-09-22T07:15:37.000Z</time>
      </trkpt>
      <trkpt lat="47.28429" lon="-2.36298">
        <ele>13.60000038147</ele>
        <time>2022-09-22T07:15:38.000Z</time>
      </trkpt>
      <trkpt lat="47.28431" lon="-2.36299">
        <ele>14</ele>
        <time>2022-09-22T07:15:39.000Z</time>
      </trkpt>
      <trkpt lat="47.2845" lon="-2.36303">
        <ele>14</ele>
        <time>2022-09-22T07:15:45.000Z</time>
      </trkpt>
      <trkpt lat="47.28457" lon="-2.36306">
        <ele>14</ele>
        <time>2022-09-22T07:15:48.000Z</time>
      </trkpt>
      <trkpt lat="47.28459" lon="-2.3631">
        <ele>14</ele>
        <time>2022-09-22T07:15:50.000Z</time>
      </trkpt>
      <trkpt lat="47.28463" lon="-2.3632">
        <ele>14</ele>
        <time>2022-09-22T07:15:53.000Z</time>
      </trkpt>
      <trkpt lat="47.28464" lon="-2.36322">
        <ele>14</ele>
        <time>2022-09-22T07:15:54.000Z</time>
      </trkpt>
      <trkpt lat="47.28466" lon="-2.3633">
        <ele>14</ele>
        <time>2022-09-22T07:15:57.000Z</time>
      </trkpt>
      <trkpt lat="47.28467" lon="-2.36342">
        <ele>14</ele>
        <time>2022-09-22T07:16:00.000Z</time>
      </trkpt>
      <trkpt lat="47.28471" lon="-2.36373">
        <ele>14</ele>
        <time>2022-09-22T07:16:08.000Z</time>
      </trkpt>
      <trkpt lat="47.28471" lon="-2.3639">
        <ele>14.39999961853</ele>
        <time>2022-09-22T07:16:11.000Z</time>
      </trkpt>
      <trkpt lat="47.28471" lon="-2.36395">
        <ele>14.800000190735</ele>
        <time>2022-09-22T07:16:12.000Z</time>
      </trkpt>
      <trkpt lat="47.28472" lon="-2.36399">
        <ele>15.199999809265</ele>
        <time>2022-09-22T07:16:13.000Z</time>
      </trkpt>
      <trkpt lat="47.28472" lon="-2.36403">
        <ele>15.60000038147</ele>
        <time>2022-09-22T07:16:14.000Z</time>
      </trkpt>
      <trkpt lat="47.28474" lon="-2.36407">
        <ele>16</ele>
        <time>2022-09-22T07:16:15.000Z</time>
      </trkpt>
      <trkpt lat="47.28477" lon="-2.36412">
        <ele>16</ele>
        <time>2022-09-22T07:16:17.000Z</time>
      </trkpt>
      <trkpt lat="47.28485" lon="-2.3643">
        <ele>16</ele>
        <time>2022-09-22T07:16:21.000Z</time>
      </trkpt>
      <trkpt lat="47.28489" lon="-2.36435">
        <ele>16</ele>
        <time>2022-09-22T07:16:22.000Z</time>
      </trkpt>
      <trkpt lat="47.28499" lon="-2.3644">
        <ele>16</ele>
        <time>2022-09-22T07:16:24.000Z</time>
      </trkpt>
      <trkpt lat="47.28503" lon="-2.36443">
        <ele>16</ele>
        <time>2022-09-22T07:16:25.000Z</time>
      </trkpt>
      <trkpt lat="47.28514" lon="-2.36463">
        <ele>16</ele>
        <time>2022-09-22T07:16:29.000Z</time>
      </trkpt>
      <trkpt lat="47.28517" lon="-2.36477">
        <ele>16</ele>
        <time>2022-09-22T07:16:32.000Z</time>
      </trkpt>
      <trkpt lat="47.28518" lon="-2.36491">
        <ele>16</ele>
        <time>2022-09-22T07:16:34.000Z</time>
      </trkpt>
      <trkpt lat="47.28519" lon="-2.36501">
        <ele>16</ele>
        <time>2022-09-22T07:16:36.000Z</time>
      </trkpt>
      <trkpt lat="47.28514" lon="-2.36509">
        <ele>15.60000038147</ele>
        <time>2022-09-22T07:16:38.000Z</time>
      </trkpt>
      <trkpt lat="47.28511" lon="-2.36512">
        <ele>15.199999809265</ele>
        <time>2022-09-22T07:16:39.000Z</time>
      </trkpt>
      <trkpt lat="47.28506" lon="-2.36517">
        <ele>14.800000190735</ele>
        <time>2022-09-22T07:16:40.000Z</time>
      </trkpt>
      <trkpt lat="47.28502" lon="-2.36522">
        <ele>14.39999961853</ele>
        <time>2022-09-22T07:16:41.000Z</time>
      </trkpt>
      <trkpt lat="47.28497" lon="-2.36528">
        <ele>14</ele>
        <time>2022-09-22T07:16:42.000Z</time>
      </trkpt>
      <trkpt lat="47.28489" lon="-2.36539">
        <ele>14</ele>
        <time>2022-09-22T07:16:44.000Z</time>
      </trkpt>
      <trkpt lat="47.2848" lon="-2.3655">
        <ele>13.60000038147</ele>
        <time>2022-09-22T07:16:46.000Z</time>
      </trkpt>
      <trkpt lat="47.28476" lon="-2.36555">
        <ele>13.199999809265</ele>
        <time>2022-09-22T07:16:47.000Z</time>
      </trkpt>
      <trkpt lat="47.28472" lon="-2.36559">
        <ele>12.800000190735</ele>
        <time>2022-09-22T07:16:48.000Z</time>
      </trkpt>
      <trkpt lat="47.28471" lon="-2.36564">
        <ele>12.39999961853</ele>
        <time>2022-09-22T07:16:49.000Z</time>
      </trkpt>
      <trkpt lat="47.2847" lon="-2.36572">
        <ele>12</ele>
        <time>2022-09-22T07:16:50.000Z</time>
      </trkpt>
      <trkpt lat="47.28475" lon="-2.366">
        <ele>12</ele>
        <time>2022-09-22T07:16:54.000Z</time>
      </trkpt>
      <trkpt lat="47.28492" lon="-2.36659">
        <ele>12</ele>
        <time>2022-09-22T07:17:03.000Z</time>
      </trkpt>
      <trkpt lat="47.28497" lon="-2.3667">
        <ele>12</ele>
        <time>2022-09-22T07:17:06.000Z</time>
      </trkpt>
      <trkpt lat="47.28507" lon="-2.36679">
        <ele>12</ele>
        <time>2022-09-22T07:17:11.000Z</time>
      </trkpt>
      <trkpt lat="47.28515" lon="-2.36686">
        <ele>12</ele>
        <time>2022-09-22T07:17:17.000Z</time>
      </trkpt>
      <trkpt lat="47.2852" lon="-2.36693">
        <ele>11.60000038147</ele>
        <time>2022-09-22T07:17:20.000Z</time>
      </trkpt>
      <trkpt lat="47.28522" lon="-2.36695">
        <ele>11.199999809265</ele>
        <time>2022-09-22T07:17:21.000Z</time>
      </trkpt>
      <trkpt lat="47.28524" lon="-2.36699">
        <ele>10.800000190735</ele>
        <time>2022-09-22T07:17:22.000Z</time>
      </trkpt>
      <trkpt lat="47.28526" lon="-2.36703">
        <ele>10.199999809265</ele>
        <time>2022-09-22T07:17:23.000Z</time>
      </trkpt>
      <trkpt lat="47.28529" lon="-2.36707">
        <ele>9.8000001907349</ele>
        <time>2022-09-22T07:17:24.000Z</time>
      </trkpt>
      <trkpt lat="47.28545" lon="-2.36737">
        <ele>9.3999996185303</ele>
        <time>2022-09-22T07:17:28.000Z</time>
      </trkpt>
      <trkpt lat="47.28549" lon="-2.36745">
        <ele>9</ele>
        <time>2022-09-22T07:17:29.000Z</time>
      </trkpt>
      <trkpt lat="47.28552" lon="-2.36752">
        <ele>8.6000003814697</ele>
        <time>2022-09-22T07:17:30.000Z</time>
      </trkpt>
      <trkpt lat="47.28556" lon="-2.3676">
        <ele>8.1999998092651</ele>
        <time>2022-09-22T07:17:31.000Z</time>
      </trkpt>
      <trkpt lat="47.2856" lon="-2.36769">
        <ele>7.8000001907349</ele>
        <time>2022-09-22T07:17:32.000Z</time>
      </trkpt>
      <trkpt lat="47.28568" lon="-2.36785">
        <ele>7.8000001907349</ele>
        <time>2022-09-22T07:17:34.000Z</time>
      </trkpt>
      <trkpt lat="47.28576" lon="-2.368">
        <ele>7.1999998092651</ele>
        <time>2022-09-22T07:17:36.000Z</time>
      </trkpt>
      <trkpt lat="47.2858" lon="-2.36808">
        <ele>6.8000001907349</ele>
        <time>2022-09-22T07:17:37.000Z</time>
      </trkpt>
      <trkpt lat="47.28584" lon="-2.36816">
        <ele>6.4000000953674</ele>
        <time>2022-09-22T07:17:38.000Z</time>
      </trkpt>
      <trkpt lat="47.28588" lon="-2.36824">
        <ele>6</ele>
        <time>2022-09-22T07:17:39.000Z</time>
      </trkpt>
      <trkpt lat="47.28592" lon="-2.36831">
        <ele>5.5999999046326</ele>
        <time>2022-09-22T07:17:40.000Z</time>
      </trkpt>
      <trkpt lat="47.28597" lon="-2.36837">
        <ele>5.5999999046326</ele>
        <time>2022-09-22T07:17:41.000Z</time>
      </trkpt>
      <trkpt lat="47.28607" lon="-2.36841">
        <ele>5.5999999046326</ele>
        <time>2022-09-22T07:17:43.000Z</time>
      </trkpt>
      <trkpt lat="47.28619" lon="-2.36832">
        <ele>5.5999999046326</ele>
        <time>2022-09-22T07:17:46.000Z</time>
      </trkpt>
      <trkpt lat="47.28623" lon="-2.36827">
        <ele>5.5999999046326</ele>
        <time>2022-09-22T07:17:47.000Z</time>
      </trkpt>
      <trkpt lat="47.28639" lon="-2.36809">
        <ele>5.5999999046326</ele>
        <time>2022-09-22T07:17:52.000Z</time>
      </trkpt>
      <trkpt lat="47.28643" lon="-2.36802">
        <ele>5.5999999046326</ele>
        <time>2022-09-22T07:17:54.000Z</time>
      </trkpt>
      <trkpt lat="47.28646" lon="-2.36795">
        <ele>5.5999999046326</ele>
        <time>2022-09-22T07:17:56.000Z</time>
      </trkpt>
      <trkpt lat="47.28653" lon="-2.36792">
        <ele>5.5999999046326</ele>
        <time>2022-09-22T07:17:59.000Z</time>
      </trkpt>
      <trkpt lat="47.28666" lon="-2.36804">
        <ele>5.5999999046326</ele>
        <time>2022-09-22T07:18:04.000Z</time>
      </trkpt>
      <trkpt lat="47.28668" lon="-2.36808">
        <ele>5.5999999046326</ele>
        <time>2022-09-22T07:18:05.000Z</time>
      </trkpt>
      <trkpt lat="47.28678" lon="-2.36827">
        <ele>5.5999999046326</ele>
        <time>2022-09-22T07:18:09.000Z</time>
      </trkpt>
      <trkpt lat="47.28689" lon="-2.36855">
        <ele>5.5999999046326</ele>
        <time>2022-09-22T07:18:13.000Z</time>
      </trkpt>
      <trkpt lat="47.28691" lon="-2.36862">
        <ele>5.5999999046326</ele>
        <time>2022-09-22T07:18:14.000Z</time>
      </trkpt>
      <trkpt lat="47.287" lon="-2.36888">
        <ele>5.5999999046326</ele>
        <time>2022-09-22T07:18:18.000Z</time>
      </trkpt>
      <trkpt lat="47.28703" lon="-2.36894">
        <ele>5.5999999046326</ele>
        <time>2022-09-22T07:18:19.000Z</time>
      </trkpt>
      <trkpt lat="47.28705" lon="-2.369">
        <ele>5.1999998092651</ele>
        <time>2022-09-22T07:18:20.000Z</time>
      </trkpt>
      <trkpt lat="47.28709" lon="-2.36905">
        <ele>4.8000001907349</ele>
        <time>2022-09-22T07:18:21.000Z</time>
      </trkpt>
      <trkpt lat="47.28713" lon="-2.36908">
        <ele>4.4000000953674</ele>
        <time>2022-09-22T07:18:22.000Z</time>
      </trkpt>
      <trkpt lat="47.28718" lon="-2.36912">
        <ele>3.7999999523163</ele>
        <time>2022-09-22T07:18:23.000Z</time>
      </trkpt>
      <trkpt lat="47.28724" lon="-2.36916">
        <ele>3.2000000476837</ele>
        <time>2022-09-22T07:18:24.000Z</time>
      </trkpt>
      <trkpt lat="47.28729" lon="-2.36919">
        <ele>2.5999999046326</ele>
        <time>2022-09-22T07:18:25.000Z</time>
      </trkpt>
      <trkpt lat="47.28733" lon="-2.36923">
        <ele>2</ele>
        <time>2022-09-22T07:18:26.000Z</time>
      </trkpt>
      <trkpt lat="47.28737" lon="-2.36926">
        <ele>1.3999999761581</ele>
        <time>2022-09-22T07:18:27.000Z</time>
      </trkpt>
      <trkpt lat="47.28744" lon="-2.36932">
        <ele>1.3999999761581</ele>
        <time>2022-09-22T07:18:29.000Z</time>
      </trkpt>
      <trkpt lat="47.28749" lon="-2.36941">
        <ele>1.7999999523163</ele>
        <time>2022-09-22T07:18:31.000Z</time>
      </trkpt>
      <trkpt lat="47.2875" lon="-2.36945">
        <ele>2.2000000476837</ele>
        <time>2022-09-22T07:18:32.000Z</time>
      </trkpt>
      <trkpt lat="47.2875" lon="-2.3695">
        <ele>2.5999999046326</ele>
        <time>2022-09-22T07:18:33.000Z</time>
      </trkpt>
      <trkpt lat="47.28751" lon="-2.36955">
        <ele>3.2000000476837</ele>
        <time>2022-09-22T07:18:34.000Z</time>
      </trkpt>
      <trkpt lat="47.28752" lon="-2.36959">
        <ele>3.5999999046326</ele>
        <time>2022-09-22T07:18:35.000Z</time>
      </trkpt>
      <trkpt lat="47.28752" lon="-2.36962">
        <ele>4.1999998092651</ele>
        <time>2022-09-22T07:18:36.000Z</time>
      </trkpt>
      <trkpt lat="47.28752" lon="-2.36964">
        <ele>4.5999999046326</ele>
        <time>2022-09-22T07:18:37.000Z</time>
      </trkpt>
      <trkpt lat="47.28753" lon="-2.36967">
        <ele>5.1999998092651</ele>
        <time>2022-09-22T07:18:38.000Z</time>
      </trkpt>
      <trkpt lat="47.28754" lon="-2.36971">
        <ele>5.5999999046326</ele>
        <time>2022-09-22T07:18:39.000Z</time>
      </trkpt>
      <trkpt lat="47.28761" lon="-2.36985">
        <ele>5.5999999046326</ele>
        <time>2022-09-22T07:18:44.000Z</time>
      </trkpt>
      <trkpt lat="47.28773" lon="-2.37002">
        <ele>5.5999999046326</ele>
        <time>2022-09-22T07:18:49.000Z</time>
      </trkpt>
      <trkpt lat="47.28782" lon="-2.37032">
        <ele>5.5999999046326</ele>
        <time>2022-09-22T07:18:54.000Z</time>
      </trkpt>
      <trkpt lat="47.28785" lon="-2.37045">
        <ele>5.5999999046326</ele>
        <time>2022-09-22T07:18:56.000Z</time>
      </trkpt>
      <trkpt lat="47.2879" lon="-2.37066">
        <ele>5.1999998092651</ele>
        <time>2022-09-22T07:18:59.000Z</time>
      </trkpt>
      <trkpt lat="47.28791" lon="-2.37074">
        <ele>4.5999999046326</ele>
        <time>2022-09-22T07:19:00.000Z</time>
      </trkpt>
      <trkpt lat="47.28792" lon="-2.37083">
        <ele>4.1999998092651</ele>
        <time>2022-09-22T07:19:01.000Z</time>
      </trkpt>
      <trkpt lat="47.28794" lon="-2.3709">
        <ele>3.5999999046326</ele>
        <time>2022-09-22T07:19:02.000Z</time>
      </trkpt>
      <trkpt lat="47.28795" lon="-2.37095">
        <ele>3.2000000476837</ele>
        <time>2022-09-22T07:19:03.000Z</time>
      </trkpt>
      <trkpt lat="47.28797" lon="-2.37099">
        <ele>2.4000000953674</ele>
        <time>2022-09-22T07:19:04.000Z</time>
      </trkpt>
      <trkpt lat="47.28799" lon="-2.371">
        <ele>1.7999999523163</ele>
        <time>2022-09-22T07:19:05.000Z</time>
      </trkpt>
      <trkpt lat="47.28802" lon="-2.37101">
        <ele>1.3999999761581</ele>
        <time>2022-09-22T07:19:06.000Z</time>
      </trkpt>
      <trkpt lat="47.28805" lon="-2.37102">
        <ele>1</ele>
        <time>2022-09-22T07:19:07.000Z</time>
      </trkpt>
      <trkpt lat="47.28809" lon="-2.37102">
        <ele>0.60000002384186</ele>
        <time>2022-09-22T07:19:08.000Z</time>
      </trkpt>
      <trkpt lat="47.28812" lon="-2.37102">
        <ele>0.20000000298023</ele>
        <time>2022-09-22T07:19:09.000Z</time>
      </trkpt>
      <trkpt lat="47.28813" lon="-2.37102">
        <ele>-0.20000000298023</ele>
        <time>2022-09-22T07:19:10.000Z</time>
      </trkpt>
      <trkpt lat="47.28815" lon="-2.37101">
        <ele>-0.60000002384186</ele>
        <time>2022-09-22T07:19:11.000Z</time>
      </trkpt>
      <trkpt lat="47.28817" lon="-2.37099">
        <ele>-1.2000000476837</ele>
        <time>2022-09-22T07:19:12.000Z</time>
      </trkpt>
      <trkpt lat="47.28819" lon="-2.37098">
        <ele>-1.7999999523163</ele>
        <time>2022-09-22T07:19:13.000Z</time>
      </trkpt>
      <trkpt lat="47.28821" lon="-2.37099">
        <ele>-2.4000000953674</ele>
        <time>2022-09-22T07:19:14.000Z</time>
      </trkpt>
      <trkpt lat="47.28823" lon="-2.37102">
        <ele>-2.7999999523163</ele>
        <time>2022-09-22T07:19:15.000Z</time>
      </trkpt>
      <trkpt lat="47.28824" lon="-2.37106">
        <ele>-3.4000000953674</ele>
        <time>2022-09-22T07:19:16.000Z</time>
      </trkpt>
      <trkpt lat="47.28823" lon="-2.37121">
        <ele>-3.4000000953674</ele>
        <time>2022-09-22T07:19:19.000Z</time>
      </trkpt>
      <trkpt lat="47.28825" lon="-2.37145">
        <ele>-3.4000000953674</ele>
        <time>2022-09-22T07:19:23.000Z</time>
      </trkpt>
      <trkpt lat="47.28825" lon="-2.37151">
        <ele>-3.4000000953674</ele>
        <time>2022-09-22T07:19:24.000Z</time>
      </trkpt>
      <trkpt lat="47.28826" lon="-2.37157">
        <ele>-3.7999999523163</ele>
        <time>2022-09-22T07:19:25.000Z</time>
      </trkpt>
      <trkpt lat="47.28827" lon="-2.37163">
        <ele>-4.1999998092651</ele>
        <time>2022-09-22T07:19:26.000Z</time>
      </trkpt>
      <trkpt lat="47.28828" lon="-2.37169">
        <ele>-4.5999999046326</ele>
        <time>2022-09-22T07:19:27.000Z</time>
      </trkpt>
      <trkpt lat="47.28829" lon="-2.37175">
        <ele>-5</ele>
        <time>2022-09-22T07:19:28.000Z</time>
      </trkpt>
      <trkpt lat="47.2883" lon="-2.37182">
        <ele>-5.4000000953674</ele>
        <time>2022-09-22T07:19:29.000Z</time>
      </trkpt>
      <trkpt lat="47.28832" lon="-2.37188">
        <ele>-5.4000000953674</ele>
        <time>2022-09-22T07:19:30.000Z</time>
      </trkpt>
      <trkpt lat="47.28837" lon="-2.37212">
        <ele>-5.4000000953674</ele>
        <time>2022-09-22T07:19:35.000Z</time>
      </trkpt>
      <trkpt lat="47.28841" lon="-2.37231">
        <ele>-5.4000000953674</ele>
        <time>2022-09-22T07:19:39.000Z</time>
      </trkpt>
      <trkpt lat="47.28843" lon="-2.37235">
        <ele>-5.4000000953674</ele>
        <time>2022-09-22T07:19:40.000Z</time>
      </trkpt>
      <trkpt lat="47.28853" lon="-2.37238">
        <ele>-5.4000000953674</ele>
        <time>2022-09-22T07:19:44.000Z</time>
      </trkpt>
      <trkpt lat="47.28853" lon="-2.37238">
        <ele>-5.4000000953674</ele>
        <time>2022-09-22T07:19:45.000Z</time>
      </trkpt>
      <trkpt lat="47.28856" lon="-2.37242">
        <ele>-5.4000000953674</ele>
        <time>2022-09-22T07:21:09.000Z</time>
      </trkpt>
      <trkpt lat="47.28854" lon="-2.37244">
        <ele>-5.4000000953674</ele>
        <time>2022-09-22T07:21:11.000Z</time>
      </trkpt>
      <trkpt lat="47.28844" lon="-2.37241">
        <ele>-5.4000000953674</ele>
        <time>2022-09-22T07:21:16.000Z</time>
      </trkpt>
      <trkpt lat="47.28839" lon="-2.37226">
        <ele>-5.4000000953674</ele>
        <time>2022-09-22T07:21:20.000Z</time>
      </trkpt>
      <trkpt lat="47.28833" lon="-2.37188">
        <ele>-5.4000000953674</ele>
        <time>2022-09-22T07:21:27.000Z</time>
      </trkpt>
      <trkpt lat="47.28827" lon="-2.37161">
        <ele>-5.4000000953674</ele>
        <time>2022-09-22T07:21:32.000Z</time>
      </trkpt>
      <trkpt lat="47.28824" lon="-2.37133">
        <ele>-5.4000000953674</ele>
        <time>2022-09-22T07:21:37.000Z</time>
      </trkpt>
      <trkpt lat="47.28827" lon="-2.37106">
        <ele>-5.4000000953674</ele>
        <time>2022-09-22T07:21:42.000Z</time>
      </trkpt>
      <trkpt lat="47.28825" lon="-2.3708">
        <ele>-5.4000000953674</ele>
        <time>2022-09-22T07:21:47.000Z</time>
      </trkpt>
      <trkpt lat="47.28823" lon="-2.37069">
        <ele>-5.4000000953674</ele>
        <time>2022-09-22T07:21:49.000Z</time>
      </trkpt>
      <trkpt lat="47.28818" lon="-2.37059">
        <ele>-5.4000000953674</ele>
        <time>2022-09-22T07:21:51.000Z</time>
      </trkpt>
      <trkpt lat="47.28816" lon="-2.37053">
        <ele>-5.4000000953674</ele>
        <time>2022-09-22T07:21:52.000Z</time>
      </trkpt>
      <trkpt lat="47.2881" lon="-2.37029">
        <ele>-5.4000000953674</ele>
        <time>2022-09-22T07:21:56.000Z</time>
      </trkpt>
      <trkpt lat="47.28793" lon="-2.36985">
        <ele>-5.4000000953674</ele>
        <time>2022-09-22T07:22:04.000Z</time>
      </trkpt>
      <trkpt lat="47.28786" lon="-2.36955">
        <ele>-5.4000000953674</ele>
        <time>2022-09-22T07:22:09.000Z</time>
      </trkpt>
      <trkpt lat="47.28781" lon="-2.36938">
        <ele>-5.4000000953674</ele>
        <time>2022-09-22T07:22:12.000Z</time>
      </trkpt>
      <trkpt lat="47.28775" lon="-2.3692">
        <ele>-5.4000000953674</ele>
        <time>2022-09-22T07:22:15.000Z</time>
      </trkpt>
      <trkpt lat="47.28766" lon="-2.36915">
        <ele>-5.4000000953674</ele>
        <time>2022-09-22T07:22:18.000Z</time>
      </trkpt>
      <trkpt lat="47.28762" lon="-2.36911">
        <ele>-5.4000000953674</ele>
        <time>2022-09-22T07:22:20.000Z</time>
      </trkpt>
      <trkpt lat="47.28758" lon="-2.36907">
        <ele>-5.4000000953674</ele>
        <time>2022-09-22T07:22:22.000Z</time>
      </trkpt>
      <trkpt lat="47.28756" lon="-2.36904">
        <ele>-5.4000000953674</ele>
        <time>2022-09-22T07:22:23.000Z</time>
      </trkpt>
      <trkpt lat="47.28755" lon="-2.36899">
        <ele>-5</ele>
        <time>2022-09-22T07:22:25.000Z</time>
      </trkpt>
      <trkpt lat="47.28755" lon="-2.36894">
        <ele>-4.5999999046326</ele>
        <time>2022-09-22T07:22:26.000Z</time>
      </trkpt>
      <trkpt lat="47.28755" lon="-2.3689">
        <ele>-4.1999998092651</ele>
        <time>2022-09-22T07:22:27.000Z</time>
      </trkpt>
      <trkpt lat="47.28756" lon="-2.36886">
        <ele>-3.7999999523163</ele>
        <time>2022-09-22T07:22:28.000Z</time>
      </trkpt>
      <trkpt lat="47.28756" lon="-2.36882">
        <ele>-3.4000000953674</ele>
        <time>2022-09-22T07:22:29.000Z</time>
      </trkpt>
      <trkpt lat="47.28759" lon="-2.36861">
        <ele>-3.4000000953674</ele>
        <time>2022-09-22T07:22:34.000Z</time>
      </trkpt>
      <trkpt lat="47.2876" lon="-2.36856">
        <ele>-3</ele>
        <time>2022-09-22T07:22:35.000Z</time>
      </trkpt>
      <trkpt lat="47.28761" lon="-2.36848">
        <ele>-2.5999999046326</ele>
        <time>2022-09-22T07:22:36.000Z</time>
      </trkpt>
      <trkpt lat="47.28761" lon="-2.36842">
        <ele>-2</ele>
        <time>2022-09-22T07:22:37.000Z</time>
      </trkpt>
      <trkpt lat="47.28762" lon="-2.36837">
        <ele>-1.6000000238419</ele>
        <time>2022-09-22T07:22:38.000Z</time>
      </trkpt>
      <trkpt lat="47.28763" lon="-2.3683">
        <ele>-1.2000000476837</ele>
        <time>2022-09-22T07:22:39.000Z</time>
      </trkpt>
      <trkpt lat="47.28765" lon="-2.36823">
        <ele>-1.2000000476837</ele>
        <time>2022-09-22T07:22:40.000Z</time>
      </trkpt>
      <trkpt lat="47.28765" lon="-2.36818">
        <ele>-0.60000002384186</ele>
        <time>2022-09-22T07:22:41.000Z</time>
      </trkpt>
      <trkpt lat="47.28766" lon="-2.36813">
        <ele>-0.20000000298023</ele>
        <time>2022-09-22T07:22:42.000Z</time>
      </trkpt>
      <trkpt lat="47.28767" lon="-2.36809">
        <ele>0.20000000298023</ele>
        <time>2022-09-22T07:22:43.000Z</time>
      </trkpt>
      <trkpt lat="47.28768" lon="-2.36805">
        <ele>0.60000002384186</ele>
        <time>2022-09-22T07:22:44.000Z</time>
      </trkpt>
      <trkpt lat="47.28769" lon="-2.36801">
        <ele>1</ele>
        <time>2022-09-22T07:22:45.000Z</time>
      </trkpt>
      <trkpt lat="47.28771" lon="-2.36791">
        <ele>1</ele>
        <time>2022-09-22T07:22:47.000Z</time>
      </trkpt>
      <trkpt lat="47.28775" lon="-2.36767">
        <ele>1</ele>
        <time>2022-09-22T07:22:52.000Z</time>
      </trkpt>
      <trkpt lat="47.28782" lon="-2.36741">
        <ele>1.3999999761581</ele>
        <time>2022-09-22T07:22:58.000Z</time>
      </trkpt>
      <trkpt lat="47.28784" lon="-2.36736">
        <ele>1.7999999523163</ele>
        <time>2022-09-22T07:22:59.000Z</time>
      </trkpt>
      <trkpt lat="47.28785" lon="-2.36733">
        <ele>2.2000000476837</ele>
        <time>2022-09-22T07:23:00.000Z</time>
      </trkpt>
      <trkpt lat="47.28786" lon="-2.36728">
        <ele>2.5999999046326</ele>
        <time>2022-09-22T07:23:01.000Z</time>
      </trkpt>
      <trkpt lat="47.28788" lon="-2.36725">
        <ele>3</ele>
        <time>2022-09-22T07:23:02.000Z</time>
      </trkpt>
      <trkpt lat="47.28788" lon="-2.36721">
        <ele>3</ele>
        <time>2022-09-22T07:23:03.000Z</time>
      </trkpt>
      <trkpt lat="47.2879" lon="-2.36714">
        <ele>3</ele>
        <time>2022-09-22T07:23:05.000Z</time>
      </trkpt>
      <trkpt lat="47.28791" lon="-2.3671">
        <ele>3.5999999046326</ele>
        <time>2022-09-22T07:23:06.000Z</time>
      </trkpt>
      <trkpt lat="47.28792" lon="-2.36707">
        <ele>4</ele>
        <time>2022-09-22T07:23:07.000Z</time>
      </trkpt>
      <trkpt lat="47.28793" lon="-2.36704">
        <ele>4.4000000953674</ele>
        <time>2022-09-22T07:23:08.000Z</time>
      </trkpt>
      <trkpt lat="47.28794" lon="-2.36701">
        <ele>4.8000001907349</ele>
        <time>2022-09-22T07:23:09.000Z</time>
      </trkpt>
      <trkpt lat="47.28795" lon="-2.36698">
        <ele>5.1999998092651</ele>
        <time>2022-09-22T07:23:10.000Z</time>
      </trkpt>
      <trkpt lat="47.28795" lon="-2.36696">
        <ele>5.5999999046326</ele>
        <time>2022-09-22T07:23:11.000Z</time>
      </trkpt>
      <trkpt lat="47.28796" lon="-2.36693">
        <ele>6</ele>
        <time>2022-09-22T07:23:12.000Z</time>
      </trkpt>
      <trkpt lat="47.28797" lon="-2.36691">
        <ele>6.4000000953674</ele>
        <time>2022-09-22T07:23:13.000Z</time>
      </trkpt>
      <trkpt lat="47.28798" lon="-2.36688">
        <ele>7</ele>
        <time>2022-09-22T07:23:14.000Z</time>
      </trkpt>
      <trkpt lat="47.28799" lon="-2.36687">
        <ele>7.4000000953674</ele>
        <time>2022-09-22T07:23:15.000Z</time>
      </trkpt>
      <trkpt lat="47.28799" lon="-2.36685">
        <ele>7.4000000953674</ele>
        <time>2022-09-22T07:23:16.000Z</time>
      </trkpt>
      <trkpt lat="47.288" lon="-2.36682">
        <ele>7.4000000953674</ele>
        <time>2022-09-22T07:23:17.000Z</time>
      </trkpt>
      <trkpt lat="47.28801" lon="-2.36677">
        <ele>7.8000001907349</ele>
        <time>2022-09-22T07:23:19.000Z</time>
      </trkpt>
      <trkpt lat="47.28802" lon="-2.36674">
        <ele>8.1999998092651</ele>
        <time>2022-09-22T07:23:20.000Z</time>
      </trkpt>
      <trkpt lat="47.28802" lon="-2.36671">
        <ele>8.8000001907349</ele>
        <time>2022-09-22T07:23:21.000Z</time>
      </trkpt>
      <trkpt lat="47.28802" lon="-2.36667">
        <ele>9.1999998092651</ele>
        <time>2022-09-22T07:23:22.000Z</time>
      </trkpt>
      <trkpt lat="47.28803" lon="-2.36664">
        <ele>9.8000001907349</ele>
        <time>2022-09-22T07:23:23.000Z</time>
      </trkpt>
      <trkpt lat="47.28803" lon="-2.36661">
        <ele>9.8000001907349</ele>
        <time>2022-09-22T07:23:24.000Z</time>
      </trkpt>
      <trkpt lat="47.28802" lon="-2.36652">
        <ele>10.199999809265</ele>
        <time>2022-09-22T07:23:27.000Z</time>
      </trkpt>
      <trkpt lat="47.28801" lon="-2.36649">
        <ele>10.60000038147</ele>
        <time>2022-09-22T07:23:28.000Z</time>
      </trkpt>
      <trkpt lat="47.288" lon="-2.36646">
        <ele>11</ele>
        <time>2022-09-22T07:23:29.000Z</time>
      </trkpt>
      <trkpt lat="47.28799" lon="-2.36642">
        <ele>11.39999961853</ele>
        <time>2022-09-22T07:23:30.000Z</time>
      </trkpt>
      <trkpt lat="47.28798" lon="-2.36639">
        <ele>11.800000190735</ele>
        <time>2022-09-22T07:23:31.000Z</time>
      </trkpt>
      <trkpt lat="47.28795" lon="-2.36632">
        <ele>11.800000190735</ele>
        <time>2022-09-22T07:23:34.000Z</time>
      </trkpt>
      <trkpt lat="47.28791" lon="-2.36626">
        <ele>12.199999809265</ele>
        <time>2022-09-22T07:23:37.000Z</time>
      </trkpt>
      <trkpt lat="47.2879" lon="-2.36624">
        <ele>12.60000038147</ele>
        <time>2022-09-22T07:23:38.000Z</time>
      </trkpt>
      <trkpt lat="47.28789" lon="-2.36621">
        <ele>13</ele>
        <time>2022-09-22T07:23:39.000Z</time>
      </trkpt>
      <trkpt lat="47.28787" lon="-2.3662">
        <ele>13.39999961853</ele>
        <time>2022-09-22T07:23:40.000Z</time>
      </trkpt>
      <trkpt lat="47.28786" lon="-2.36618">
        <ele>13.800000190735</ele>
        <time>2022-09-22T07:23:41.000Z</time>
      </trkpt>
      <trkpt lat="47.28784" lon="-2.36615">
        <ele>13.800000190735</ele>
        <time>2022-09-22T07:23:42.000Z</time>
      </trkpt>
      <trkpt lat="47.28787" lon="-2.36603">
        <ele>13.800000190735</ele>
        <time>2022-09-22T07:23:44.000Z</time>
      </trkpt>
      <trkpt lat="47.28783" lon="-2.36592">
        <ele>13.800000190735</ele>
        <time>2022-09-22T07:23:48.000Z</time>
      </trkpt>
      <trkpt lat="47.28782" lon="-2.3659">
        <ele>14.199999809265</ele>
        <time>2022-09-22T07:23:49.000Z</time>
      </trkpt>
      <trkpt lat="47.28781" lon="-2.36588">
        <ele>14.60000038147</ele>
        <time>2022-09-22T07:23:50.000Z</time>
      </trkpt>
      <trkpt lat="47.28779" lon="-2.36585">
        <ele>15</ele>
        <time>2022-09-22T07:23:51.000Z</time>
      </trkpt>
      <trkpt lat="47.28777" lon="-2.36582">
        <ele>15.39999961853</ele>
        <time>2022-09-22T07:23:52.000Z</time>
      </trkpt>
      <trkpt lat="47.28776" lon="-2.3658">
        <ele>15.800000190735</ele>
        <time>2022-09-22T07:23:53.000Z</time>
      </trkpt>
      <trkpt lat="47.28774" lon="-2.36578">
        <ele>15.800000190735</ele>
        <time>2022-09-22T07:23:54.000Z</time>
      </trkpt>
      <trkpt lat="47.28774" lon="-2.36573">
        <ele>15.800000190735</ele>
        <time>2022-09-22T07:23:55.000Z</time>
      </trkpt>
      <trkpt lat="47.28772" lon="-2.36561">
        <ele>15.800000190735</ele>
        <time>2022-09-22T07:23:59.000Z</time>
      </trkpt>
      <trkpt lat="47.28773" lon="-2.36557">
        <ele>15.800000190735</ele>
        <time>2022-09-22T07:24:00.000Z</time>
      </trkpt>
      <trkpt lat="47.28777" lon="-2.3655">
        <ele>15.800000190735</ele>
        <time>2022-09-22T07:24:02.000Z</time>
      </trkpt>
      <trkpt lat="47.28779" lon="-2.36541">
        <ele>15.800000190735</ele>
        <time>2022-09-22T07:24:04.000Z</time>
      </trkpt>
      <trkpt lat="47.2878" lon="-2.3653">
        <ele>15.800000190735</ele>
        <time>2022-09-22T07:24:06.000Z</time>
      </trkpt>
      <trkpt lat="47.28781" lon="-2.36525">
        <ele>16.39999961853</ele>
        <time>2022-09-22T07:24:07.000Z</time>
      </trkpt>
      <trkpt lat="47.28782" lon="-2.36518">
        <ele>16.799999237061</ele>
        <time>2022-09-22T07:24:08.000Z</time>
      </trkpt>
      <trkpt lat="47.28783" lon="-2.36512">
        <ele>17.200000762939</ele>
        <time>2022-09-22T07:24:09.000Z</time>
      </trkpt>
      <trkpt lat="47.28785" lon="-2.36506">
        <ele>17.60000038147</ele>
        <time>2022-09-22T07:24:10.000Z</time>
      </trkpt>
      <trkpt lat="47.28786" lon="-2.36501">
        <ele>18</ele>
        <time>2022-09-22T07:24:11.000Z</time>
      </trkpt>
      <trkpt lat="47.28787" lon="-2.36495">
        <ele>18</ele>
        <time>2022-09-22T07:24:12.000Z</time>
      </trkpt>
      <trkpt lat="47.28794" lon="-2.36462">
        <ele>18</ele>
        <time>2022-09-22T07:24:19.000Z</time>
      </trkpt>
      <trkpt lat="47.28794" lon="-2.36458">
        <ele>18</ele>
        <time>2022-09-22T07:24:20.000Z</time>
      </trkpt>
      <trkpt lat="47.28794" lon="-2.3645">
        <ele>18.39999961853</ele>
        <time>2022-09-22T07:24:22.000Z</time>
      </trkpt>
      <trkpt lat="47.28793" lon="-2.36446">
        <ele>18.799999237061</ele>
        <time>2022-09-22T07:24:23.000Z</time>
      </trkpt>
      <trkpt lat="47.28794" lon="-2.36442">
        <ele>19.200000762939</ele>
        <time>2022-09-22T07:24:24.000Z</time>
      </trkpt>
      <trkpt lat="47.28795" lon="-2.36437">
        <ele>20</ele>
        <time>2022-09-22T07:24:25.000Z</time>
      </trkpt>
      <trkpt lat="47.288" lon="-2.36419">
        <ele>20</ele>
        <time>2022-09-22T07:24:29.000Z</time>
      </trkpt>
      <trkpt lat="47.28805" lon="-2.364">
        <ele>20</ele>
        <time>2022-09-22T07:24:34.000Z</time>
      </trkpt>
      <trkpt lat="47.28811" lon="-2.36377">
        <ele>20</ele>
        <time>2022-09-22T07:24:39.000Z</time>
      </trkpt>
      <trkpt lat="47.28822" lon="-2.36355">
        <ele>20</ele>
        <time>2022-09-22T07:24:43.000Z</time>
      </trkpt>
      <trkpt lat="47.28826" lon="-2.3635">
        <ele>20</ele>
        <time>2022-09-22T07:24:44.000Z</time>
      </trkpt>
      <trkpt lat="47.28836" lon="-2.36333">
        <ele>20</ele>
        <time>2022-09-22T07:24:47.000Z</time>
      </trkpt>
      <trkpt lat="47.28838" lon="-2.36321">
        <ele>20</ele>
        <time>2022-09-22T07:24:49.000Z</time>
      </trkpt>
      <trkpt lat="47.28837" lon="-2.36316">
        <ele>19.60000038147</ele>
        <time>2022-09-22T07:24:50.000Z</time>
      </trkpt>
      <trkpt lat="47.28835" lon="-2.36311">
        <ele>19.200000762939</ele>
        <time>2022-09-22T07:24:51.000Z</time>
      </trkpt>
      <trkpt lat="47.28832" lon="-2.36306">
        <ele>18.799999237061</ele>
        <time>2022-09-22T07:24:52.000Z</time>
      </trkpt>
      <trkpt lat="47.28828" lon="-2.36301">
        <ele>18.39999961853</ele>
        <time>2022-09-22T07:24:53.000Z</time>
      </trkpt>
      <trkpt lat="47.28824" lon="-2.36296">
        <ele>18</ele>
        <time>2022-09-22T07:24:54.000Z</time>
      </trkpt>
      <trkpt lat="47.2881" lon="-2.36286">
        <ele>18</ele>
        <time>2022-09-22T07:24:57.000Z</time>
      </trkpt>
      <trkpt lat="47.28788" lon="-2.36266">
        <ele>18</ele>
        <time>2022-09-22T07:25:03.000Z</time>
      </trkpt>
      <trkpt lat="47.2877" lon="-2.36243">
        <ele>18</ele>
        <time>2022-09-22T07:25:09.000Z</time>
      </trkpt>
      <trkpt lat="47.28761" lon="-2.36225">
        <ele>18</ele>
        <time>2022-09-22T07:25:14.000Z</time>
      </trkpt>
      <trkpt lat="47.28761" lon="-2.36222">
        <ele>18</ele>
        <time>2022-09-22T07:25:15.000Z</time>
      </trkpt>
      <trkpt lat="47.28765" lon="-2.36219">
        <ele>18</ele>
        <time>2022-09-22T07:25:17.000Z</time>
      </trkpt>
      <trkpt lat="47.28768" lon="-2.36216">
        <ele>18</ele>
        <time>2022-09-22T07:25:19.000Z</time>
      </trkpt>
      <trkpt lat="47.2878" lon="-2.36206">
        <ele>18</ele>
        <time>2022-09-22T07:25:25.000Z</time>
      </trkpt>
      <trkpt lat="47.28793" lon="-2.36194">
        <ele>18</ele>
        <time>2022-09-22T07:25:29.000Z</time>
      </trkpt>
      <trkpt lat="47.28801" lon="-2.36188">
        <ele>18</ele>
        <time>2022-09-22T07:25:31.000Z</time>
      </trkpt>
      <trkpt lat="47.28825" lon="-2.36167">
        <ele>18</ele>
        <time>2022-09-22T07:25:38.000Z</time>
      </trkpt>
      <trkpt lat="47.2884" lon="-2.36144">
        <ele>18</ele>
        <time>2022-09-22T07:25:44.000Z</time>
      </trkpt>
      <trkpt lat="47.28857" lon="-2.36125">
        <ele>18</ele>
        <time>2022-09-22T07:25:50.000Z</time>
      </trkpt>
      <trkpt lat="47.28879" lon="-2.36103">
        <ele>18</ele>
        <time>2022-09-22T07:25:57.000Z</time>
      </trkpt>
      <trkpt lat="47.28899" lon="-2.36084">
        <ele>18</ele>
        <time>2022-09-22T07:26:03.000Z</time>
      </trkpt>
      <trkpt lat="47.28922" lon="-2.36064">
        <ele>18</ele>
        <time>2022-09-22T07:26:09.000Z</time>
      </trkpt>
      <trkpt lat="47.28956" lon="-2.3604">
        <ele>18</ele>
        <time>2022-09-22T07:26:17.000Z</time>
      </trkpt>
      <trkpt lat="47.28987" lon="-2.36011">
        <ele>18</ele>
        <time>2022-09-22T07:26:25.000Z</time>
      </trkpt>
      <trkpt lat="47.29012" lon="-2.35984">
        <ele>18</ele>
        <time>2022-09-22T07:26:32.000Z</time>
      </trkpt>
      <trkpt lat="47.29043" lon="-2.3595">
        <ele>18</ele>
        <time>2022-09-22T07:26:40.000Z</time>
      </trkpt>
      <trkpt lat="47.29069" lon="-2.35921">
        <ele>18</ele>
        <time>2022-09-22T07:26:47.000Z</time>
      </trkpt>
      <trkpt lat="47.29096" lon="-2.3589">
        <ele>18</ele>
        <time>2022-09-22T07:26:54.000Z</time>
      </trkpt>
      <trkpt lat="47.2913" lon="-2.35851">
        <ele>18</ele>
        <time>2022-09-22T07:27:03.000Z</time>
      </trkpt>
      <trkpt lat="47.29144" lon="-2.35834">
        <ele>18</ele>
        <time>2022-09-22T07:27:07.000Z</time>
      </trkpt>
      <trkpt lat="47.29143" lon="-2.35825">
        <ele>18</ele>
        <time>2022-09-22T07:27:09.000Z</time>
      </trkpt>
      <trkpt lat="47.29135" lon="-2.35806">
        <ele>18</ele>
        <time>2022-09-22T07:27:13.000Z</time>
      </trkpt>
      <trkpt lat="47.29131" lon="-2.35793">
        <ele>18</ele>
        <time>2022-09-22T07:27:15.000Z</time>
      </trkpt>
      <trkpt lat="47.29123" lon="-2.35774">
        <ele>18</ele>
        <time>2022-09-22T07:27:18.000Z</time>
      </trkpt>
      <trkpt lat="47.29102" lon="-2.35724">
        <ele>18</ele>
        <time>2022-09-22T07:27:26.000Z</time>
      </trkpt>
      <trkpt lat="47.29091" lon="-2.35697">
        <ele>18</ele>
        <time>2022-09-22T07:27:31.000Z</time>
      </trkpt>
      <trkpt lat="47.2909" lon="-2.35692">
        <ele>18</ele>
        <time>2022-09-22T07:27:32.000Z</time>
      </trkpt>
      <trkpt lat="47.2909" lon="-2.35671">
        <ele>18</ele>
        <time>2022-09-22T07:27:36.000Z</time>
      </trkpt>
      <trkpt lat="47.29088" lon="-2.35662">
        <ele>18</ele>
        <time>2022-09-22T07:27:38.000Z</time>
      </trkpt>
      <trkpt lat="47.29083" lon="-2.3564">
        <ele>18</ele>
        <time>2022-09-22T07:27:42.000Z</time>
      </trkpt>
      <trkpt lat="47.29081" lon="-2.35634">
        <ele>18</ele>
        <time>2022-09-22T07:27:43.000Z</time>
      </trkpt>
      <trkpt lat="47.29072" lon="-2.35619">
        <ele>18</ele>
        <time>2022-09-22T07:27:46.000Z</time>
      </trkpt>
      <trkpt lat="47.29064" lon="-2.35599">
        <ele>18</ele>
        <time>2022-09-22T07:27:49.000Z</time>
      </trkpt>
      <trkpt lat="47.29057" lon="-2.3558">
        <ele>18</ele>
        <time>2022-09-22T07:27:52.000Z</time>
      </trkpt>
      <trkpt lat="47.29037" lon="-2.35529">
        <ele>18</ele>
        <time>2022-09-22T07:28:00.000Z</time>
      </trkpt>
      <trkpt lat="47.29037" lon="-2.35521">
        <ele>18</ele>
        <time>2022-09-22T07:28:01.000Z</time>
      </trkpt>
      <trkpt lat="47.29042" lon="-2.35507">
        <ele>18</ele>
        <time>2022-09-22T07:28:03.000Z</time>
      </trkpt>
      <trkpt lat="47.29049" lon="-2.35496">
        <ele>18</ele>
        <time>2022-09-22T07:28:05.000Z</time>
      </trkpt>
      <trkpt lat="47.2906" lon="-2.3548">
        <ele>18</ele>
        <time>2022-09-22T07:28:08.000Z</time>
      </trkpt>
      <trkpt lat="47.2908" lon="-2.35446">
        <ele>18</ele>
        <time>2022-09-22T07:28:15.000Z</time>
      </trkpt>
      <trkpt lat="47.29083" lon="-2.35445">
        <ele>18</ele>
        <time>2022-09-22T07:28:16.000Z</time>
      </trkpt>
      <trkpt lat="47.29086" lon="-2.35447">
        <ele>18</ele>
        <time>2022-09-22T07:28:17.000Z</time>
      </trkpt>
      <trkpt lat="47.2909" lon="-2.35462">
        <ele>18</ele>
        <time>2022-09-22T07:28:20.000Z</time>
      </trkpt>
      <trkpt lat="47.29099" lon="-2.35474">
        <ele>18</ele>
        <time>2022-09-22T07:28:24.000Z</time>
      </trkpt>
      <trkpt lat="47.29104" lon="-2.35472">
        <ele>18</ele>
        <time>2022-09-22T07:28:26.000Z</time>
      </trkpt>
      <trkpt lat="47.29104" lon="-2.35472">
        <ele>18</ele>
        <time>2022-09-22T07:28:27.000Z</time>
      </trkpt>
      <trkpt lat="47.29106" lon="-2.3547">
        <ele>18</ele>
        <time>2022-09-22T07:28:30.000Z</time>
      </trkpt>
      <trkpt lat="47.2911" lon="-2.35468">
        <ele>18</ele>
        <time>2022-09-22T07:28:32.000Z</time>
      </trkpt>
      <trkpt lat="47.29116" lon="-2.35466">
        <ele>18</ele>
        <time>2022-09-22T07:28:34.000Z</time>
      </trkpt>
      <trkpt lat="47.29124" lon="-2.35463">
        <ele>18</ele>
        <time>2022-09-22T07:28:36.000Z</time>
      </trkpt>
      <trkpt lat="47.29128" lon="-2.35462">
        <ele>18</ele>
        <time>2022-09-22T07:28:37.000Z</time>
      </trkpt>
      <trkpt lat="47.29151" lon="-2.35453">
        <ele>18</ele>
        <time>2022-09-22T07:28:42.000Z</time>
      </trkpt>
      <trkpt lat="47.2918" lon="-2.35441">
        <ele>18</ele>
        <time>2022-09-22T07:28:48.000Z</time>
      </trkpt>
      <trkpt lat="47.29206" lon="-2.35433">
        <ele>18</ele>
        <time>2022-09-22T07:28:54.000Z</time>
      </trkpt>
      <trkpt lat="47.29237" lon="-2.35421">
        <ele>18</ele>
        <time>2022-09-22T07:29:01.000Z</time>
      </trkpt>
      <trkpt lat="47.29271" lon="-2.35403">
        <ele>18</ele>
        <time>2022-09-22T07:29:09.000Z</time>
      </trkpt>
      <trkpt lat="47.29275" lon="-2.35399">
        <ele>18</ele>
        <time>2022-09-22T07:29:10.000Z</time>
      </trkpt>
      <trkpt lat="47.29296" lon="-2.3538">
        <ele>18</ele>
        <time>2022-09-22T07:29:15.000Z</time>
      </trkpt>
      <trkpt lat="47.29335" lon="-2.35337">
        <ele>18</ele>
        <time>2022-09-22T07:29:24.000Z</time>
      </trkpt>
      <trkpt lat="47.29339" lon="-2.35333">
        <ele>17.60000038147</ele>
        <time>2022-09-22T07:29:25.000Z</time>
      </trkpt>
      <trkpt lat="47.29343" lon="-2.35327">
        <ele>17</ele>
        <time>2022-09-22T07:29:26.000Z</time>
      </trkpt>
      <trkpt lat="47.29347" lon="-2.35322">
        <ele>16.60000038147</ele>
        <time>2022-09-22T07:29:27.000Z</time>
      </trkpt>
      <trkpt lat="47.29352" lon="-2.35318">
        <ele>16.200000762939</ele>
        <time>2022-09-22T07:29:28.000Z</time>
      </trkpt>
      <trkpt lat="47.29356" lon="-2.35313">
        <ele>15.800000190735</ele>
        <time>2022-09-22T07:29:29.000Z</time>
      </trkpt>
      <trkpt lat="47.29393" lon="-2.35266">
        <ele>15.800000190735</ele>
        <time>2022-09-22T07:29:37.000Z</time>
      </trkpt>
      <trkpt lat="47.29424" lon="-2.35219">
        <ele>15.800000190735</ele>
        <time>2022-09-22T07:29:45.000Z</time>
      </trkpt>
      <trkpt lat="47.29427" lon="-2.35212">
        <ele>15.39999961853</ele>
        <time>2022-09-22T07:29:46.000Z</time>
      </trkpt>
      <trkpt lat="47.29431" lon="-2.35206">
        <ele>15</ele>
        <time>2022-09-22T07:29:47.000Z</time>
      </trkpt>
      <trkpt lat="47.29434" lon="-2.352">
        <ele>14.60000038147</ele>
        <time>2022-09-22T07:29:48.000Z</time>
      </trkpt>
      <trkpt lat="47.29436" lon="-2.35193">
        <ele>14.199999809265</ele>
        <time>2022-09-22T07:29:49.000Z</time>
      </trkpt>
      <trkpt lat="47.29439" lon="-2.35187">
        <ele>13.800000190735</ele>
        <time>2022-09-22T07:29:50.000Z</time>
      </trkpt>
      <trkpt lat="47.29445" lon="-2.35174">
        <ele>13.800000190735</ele>
        <time>2022-09-22T07:29:52.000Z</time>
      </trkpt>
      <trkpt lat="47.29456" lon="-2.35144">
        <ele>13.800000190735</ele>
        <time>2022-09-22T07:29:57.000Z</time>
      </trkpt>
      <trkpt lat="47.29466" lon="-2.35112">
        <ele>13.800000190735</ele>
        <time>2022-09-22T07:30:02.000Z</time>
      </trkpt>
      <trkpt lat="47.29474" lon="-2.35087">
        <ele>13.800000190735</ele>
        <time>2022-09-22T07:30:06.000Z</time>
      </trkpt>
      <trkpt lat="47.29476" lon="-2.3508">
        <ele>13.800000190735</ele>
        <time>2022-09-22T07:30:07.000Z</time>
      </trkpt>
      <trkpt lat="47.29486" lon="-2.35045">
        <ele>13.800000190735</ele>
        <time>2022-09-22T07:30:13.000Z</time>
      </trkpt>
      <trkpt lat="47.29489" lon="-2.35029">
        <ele>13.199999809265</ele>
        <time>2022-09-22T07:30:15.000Z</time>
      </trkpt>
      <trkpt lat="47.29492" lon="-2.35021">
        <ele>12.800000190735</ele>
        <time>2022-09-22T07:30:16.000Z</time>
      </trkpt>
      <trkpt lat="47.29495" lon="-2.35012">
        <ele>12.199999809265</ele>
        <time>2022-09-22T07:30:17.000Z</time>
      </trkpt>
      <trkpt lat="47.295" lon="-2.35001">
        <ele>11.800000190735</ele>
        <time>2022-09-22T07:30:18.000Z</time>
      </trkpt>
      <trkpt lat="47.29505" lon="-2.34991">
        <ele>11.39999961853</ele>
        <time>2022-09-22T07:30:19.000Z</time>
      </trkpt>
      <trkpt lat="47.2951" lon="-2.34982">
        <ele>11</ele>
        <time>2022-09-22T07:30:20.000Z</time>
      </trkpt>
      <trkpt lat="47.29514" lon="-2.34975">
        <ele>10.60000038147</ele>
        <time>2022-09-22T07:30:21.000Z</time>
      </trkpt>
      <trkpt lat="47.29519" lon="-2.34967">
        <ele>10.199999809265</ele>
        <time>2022-09-22T07:30:22.000Z</time>
      </trkpt>
      <trkpt lat="47.29524" lon="-2.3496">
        <ele>9.6000003814697</ele>
        <time>2022-09-22T07:30:23.000Z</time>
      </trkpt>
      <trkpt lat="47.29528" lon="-2.34953">
        <ele>9.1999998092651</ele>
        <time>2022-09-22T07:30:24.000Z</time>
      </trkpt>
      <trkpt lat="47.29548" lon="-2.34924">
        <ele>9.1999998092651</ele>
        <time>2022-09-22T07:30:28.000Z</time>
      </trkpt>
      <trkpt lat="47.29553" lon="-2.34919">
        <ele>9.1999998092651</ele>
        <time>2022-09-22T07:30:29.000Z</time>
      </trkpt>
      <trkpt lat="47.29567" lon="-2.34899">
        <ele>9.6000003814697</ele>
        <time>2022-09-22T07:30:33.000Z</time>
      </trkpt>
      <trkpt lat="47.2957" lon="-2.34894">
        <ele>10.199999809265</ele>
        <time>2022-09-22T07:30:34.000Z</time>
      </trkpt>
      <trkpt lat="47.29572" lon="-2.34889">
        <ele>10.60000038147</ele>
        <time>2022-09-22T07:30:35.000Z</time>
      </trkpt>
      <trkpt lat="47.29574" lon="-2.34884">
        <ele>11.39999961853</ele>
        <time>2022-09-22T07:30:36.000Z</time>
      </trkpt>
      <trkpt lat="47.2958" lon="-2.34874">
        <ele>11.39999961853</ele>
        <time>2022-09-22T07:30:38.000Z</time>
      </trkpt>
      <trkpt lat="47.296" lon="-2.34843">
        <ele>11.39999961853</ele>
        <time>2022-09-22T07:30:44.000Z</time>
      </trkpt>
      <trkpt lat="47.29604" lon="-2.34839">
        <ele>11.39999961853</ele>
        <time>2022-09-22T07:30:45.000Z</time>
      </trkpt>
      <trkpt lat="47.29617" lon="-2.34839">
        <ele>11.39999961853</ele>
        <time>2022-09-22T07:30:48.000Z</time>
      </trkpt>
      <trkpt lat="47.29632" lon="-2.34849">
        <ele>11.39999961853</ele>
        <time>2022-09-22T07:30:51.000Z</time>
      </trkpt>
      <trkpt lat="47.29636" lon="-2.34854">
        <ele>11.39999961853</ele>
        <time>2022-09-22T07:30:52.000Z</time>
      </trkpt>
      <trkpt lat="47.29663" lon="-2.34884">
        <ele>11.39999961853</ele>
        <time>2022-09-22T07:30:58.000Z</time>
      </trkpt>
      <trkpt lat="47.29673" lon="-2.34892">
        <ele>11.39999961853</ele>
        <time>2022-09-22T07:31:00.000Z</time>
      </trkpt>
      <trkpt lat="47.29684" lon="-2.34896">
        <ele>11.39999961853</ele>
        <time>2022-09-22T07:31:02.000Z</time>
      </trkpt>
      <trkpt lat="47.29708" lon="-2.34887">
        <ele>11.39999961853</ele>
        <time>2022-09-22T07:31:07.000Z</time>
      </trkpt>
      <trkpt lat="47.29713" lon="-2.34884">
        <ele>11.39999961853</ele>
        <time>2022-09-22T07:31:08.000Z</time>
      </trkpt>
      <trkpt lat="47.29724" lon="-2.3488">
        <ele>11.39999961853</ele>
        <time>2022-09-22T07:31:10.000Z</time>
      </trkpt>
      <trkpt lat="47.29734" lon="-2.34876">
        <ele>11.39999961853</ele>
        <time>2022-09-22T07:31:12.000Z</time>
      </trkpt>
      <trkpt lat="47.29755" lon="-2.3487">
        <ele>11.39999961853</ele>
        <time>2022-09-22T07:31:17.000Z</time>
      </trkpt>
      <trkpt lat="47.29782" lon="-2.34861">
        <ele>11.39999961853</ele>
        <time>2022-09-22T07:31:23.000Z</time>
      </trkpt>
      <trkpt lat="47.29821" lon="-2.34853">
        <ele>11.39999961853</ele>
        <time>2022-09-22T07:31:30.000Z</time>
      </trkpt>
      <trkpt lat="47.2983" lon="-2.34851">
        <ele>11.39999961853</ele>
        <time>2022-09-22T07:31:32.000Z</time>
      </trkpt>
      <trkpt lat="47.29849" lon="-2.34848">
        <ele>11.39999961853</ele>
        <time>2022-09-22T07:31:36.000Z</time>
      </trkpt>
      <trkpt lat="47.29888" lon="-2.34839">
        <ele>11.39999961853</ele>
        <time>2022-09-22T07:31:44.000Z</time>
      </trkpt>
      <trkpt lat="47.29932" lon="-2.34831">
        <ele>11.39999961853</ele>
        <time>2022-09-22T07:31:54.000Z</time>
      </trkpt>
      <trkpt lat="47.29936" lon="-2.3483">
        <ele>11.800000190735</ele>
        <time>2022-09-22T07:31:55.000Z</time>
      </trkpt>
      <trkpt lat="47.29941" lon="-2.34828">
        <ele>12.199999809265</ele>
        <time>2022-09-22T07:31:56.000Z</time>
      </trkpt>
      <trkpt lat="47.29946" lon="-2.34827">
        <ele>12.60000038147</ele>
        <time>2022-09-22T07:31:57.000Z</time>
      </trkpt>
      <trkpt lat="47.2995" lon="-2.34826">
        <ele>13</ele>
        <time>2022-09-22T07:31:58.000Z</time>
      </trkpt>
      <trkpt lat="47.29955" lon="-2.34824">
        <ele>13.39999961853</ele>
        <time>2022-09-22T07:31:59.000Z</time>
      </trkpt>
      <trkpt lat="47.29963" lon="-2.34822">
        <ele>13.39999961853</ele>
        <time>2022-09-22T07:32:01.000Z</time>
      </trkpt>
      <trkpt lat="47.29979" lon="-2.34809">
        <ele>13.39999961853</ele>
        <time>2022-09-22T07:32:06.000Z</time>
      </trkpt>
      <trkpt lat="47.29977" lon="-2.34789">
        <ele>13.39999961853</ele>
        <time>2022-09-22T07:32:09.000Z</time>
      </trkpt>
      <trkpt lat="47.29971" lon="-2.3474">
        <ele>13.39999961853</ele>
        <time>2022-09-22T07:32:15.000Z</time>
      </trkpt>
      <trkpt lat="47.29965" lon="-2.34688">
        <ele>13.39999961853</ele>
        <time>2022-09-22T07:32:21.000Z</time>
      </trkpt>
      <trkpt lat="47.29956" lon="-2.34623">
        <ele>13.39999961853</ele>
        <time>2022-09-22T07:32:29.000Z</time>
      </trkpt>
      <trkpt lat="47.29947" lon="-2.34556">
        <ele>13.39999961853</ele>
        <time>2022-09-22T07:32:38.000Z</time>
      </trkpt>
      <trkpt lat="47.29938" lon="-2.34479">
        <ele>13.39999961853</ele>
        <time>2022-09-22T07:32:48.000Z</time>
      </trkpt>
      <trkpt lat="47.2993" lon="-2.34406">
        <ele>13.39999961853</ele>
        <time>2022-09-22T07:32:57.000Z</time>
      </trkpt>
      <trkpt lat="47.2992" lon="-2.34324">
        <ele>13.39999961853</ele>
        <time>2022-09-22T07:33:07.000Z</time>
      </trkpt>
      <trkpt lat="47.29915" lon="-2.34292">
        <ele>13.39999961853</ele>
        <time>2022-09-22T07:33:11.000Z</time>
      </trkpt>
      <trkpt lat="47.29912" lon="-2.34268">
        <ele>13.39999961853</ele>
        <time>2022-09-22T07:33:14.000Z</time>
      </trkpt>
      <trkpt lat="47.29921" lon="-2.34245">
        <ele>13.39999961853</ele>
        <time>2022-09-22T07:33:17.000Z</time>
      </trkpt>
      <trkpt lat="47.2993" lon="-2.34233">
        <ele>13.39999961853</ele>
        <time>2022-09-22T07:33:19.000Z</time>
      </trkpt>
      <trkpt lat="47.29943" lon="-2.34216">
        <ele>13.39999961853</ele>
        <time>2022-09-22T07:33:22.000Z</time>
      </trkpt>
      <trkpt lat="47.29971" lon="-2.3418">
        <ele>13.39999961853</ele>
        <time>2022-09-22T07:33:29.000Z</time>
      </trkpt>
      <trkpt lat="47.30012" lon="-2.34127">
        <ele>13.39999961853</ele>
        <time>2022-09-22T07:33:39.000Z</time>
      </trkpt>
      <trkpt lat="47.3005" lon="-2.34078">
        <ele>13.39999961853</ele>
        <time>2022-09-22T07:33:48.000Z</time>
      </trkpt>
      <trkpt lat="47.30081" lon="-2.34037">
        <ele>13</ele>
        <time>2022-09-22T07:33:55.000Z</time>
      </trkpt>
      <trkpt lat="47.30086" lon="-2.34031">
        <ele>12.60000038147</ele>
        <time>2022-09-22T07:33:56.000Z</time>
      </trkpt>
      <trkpt lat="47.30091" lon="-2.34024">
        <ele>12.199999809265</ele>
        <time>2022-09-22T07:33:57.000Z</time>
      </trkpt>
      <trkpt lat="47.30095" lon="-2.34018">
        <ele>11.800000190735</ele>
        <time>2022-09-22T07:33:58.000Z</time>
      </trkpt>
      <trkpt lat="47.301" lon="-2.34012">
        <ele>11.39999961853</ele>
        <time>2022-09-22T07:33:59.000Z</time>
      </trkpt>
      <trkpt lat="47.30113" lon="-2.33996">
        <ele>11.39999961853</ele>
        <time>2022-09-22T07:34:02.000Z</time>
      </trkpt>
      <trkpt lat="47.30126" lon="-2.3398">
        <ele>11.39999961853</ele>
        <time>2022-09-22T07:34:05.000Z</time>
      </trkpt>
      <trkpt lat="47.30139" lon="-2.33968">
        <ele>11.39999961853</ele>
        <time>2022-09-22T07:34:08.000Z</time>
      </trkpt>
      <trkpt lat="47.30169" lon="-2.33945">
        <ele>11.39999961853</ele>
        <time>2022-09-22T07:34:15.000Z</time>
      </trkpt>
      <trkpt lat="47.30173" lon="-2.33941">
        <ele>11.39999961853</ele>
        <time>2022-09-22T07:34:16.000Z</time>
      </trkpt>
      <trkpt lat="47.30177" lon="-2.33937">
        <ele>11.800000190735</ele>
        <time>2022-09-22T07:34:17.000Z</time>
      </trkpt>
      <trkpt lat="47.30181" lon="-2.33932">
        <ele>12.60000038147</ele>
        <time>2022-09-22T07:34:18.000Z</time>
      </trkpt>
      <trkpt lat="47.30185" lon="-2.33927">
        <ele>13</ele>
        <time>2022-09-22T07:34:19.000Z</time>
      </trkpt>
      <trkpt lat="47.30188" lon="-2.33923">
        <ele>13.39999961853</ele>
        <time>2022-09-22T07:34:20.000Z</time>
      </trkpt>
      <trkpt lat="47.30192" lon="-2.33919">
        <ele>13.39999961853</ele>
        <time>2022-09-22T07:34:21.000Z</time>
      </trkpt>
      <trkpt lat="47.30208" lon="-2.33901">
        <ele>13.39999961853</ele>
        <time>2022-09-22T07:34:26.000Z</time>
      </trkpt>
      <trkpt lat="47.30216" lon="-2.33893">
        <ele>13.39999961853</ele>
        <time>2022-09-22T07:34:28.000Z</time>
      </trkpt>
      <trkpt lat="47.30233" lon="-2.3388">
        <ele>13.39999961853</ele>
        <time>2022-09-22T07:34:32.000Z</time>
      </trkpt>
      <trkpt lat="47.30242" lon="-2.33874">
        <ele>13.800000190735</ele>
        <time>2022-09-22T07:34:34.000Z</time>
      </trkpt>
      <trkpt lat="47.30247" lon="-2.33871">
        <ele>14.199999809265</ele>
        <time>2022-09-22T07:34:35.000Z</time>
      </trkpt>
      <trkpt lat="47.30251" lon="-2.33868">
        <ele>14.60000038147</ele>
        <time>2022-09-22T07:34:36.000Z</time>
      </trkpt>
      <trkpt lat="47.30254" lon="-2.33865">
        <ele>15</ele>
        <time>2022-09-22T07:34:37.000Z</time>
      </trkpt>
      <trkpt lat="47.30259" lon="-2.33861">
        <ele>15.39999961853</ele>
        <time>2022-09-22T07:34:38.000Z</time>
      </trkpt>
      <trkpt lat="47.3028" lon="-2.33844">
        <ele>15.39999961853</ele>
        <time>2022-09-22T07:34:43.000Z</time>
      </trkpt>
      <trkpt lat="47.30299" lon="-2.33832">
        <ele>15.39999961853</ele>
        <time>2022-09-22T07:34:47.000Z</time>
      </trkpt>
      <trkpt lat="47.30304" lon="-2.33828">
        <ele>15.39999961853</ele>
        <time>2022-09-22T07:34:48.000Z</time>
      </trkpt>
      <trkpt lat="47.30319" lon="-2.33819">
        <ele>15.39999961853</ele>
        <time>2022-09-22T07:34:51.000Z</time>
      </trkpt>
      <trkpt lat="47.30323" lon="-2.33815">
        <ele>15.39999961853</ele>
        <time>2022-09-22T07:34:52.000Z</time>
      </trkpt>
      <trkpt lat="47.30327" lon="-2.33811">
        <ele>15.39999961853</ele>
        <time>2022-09-22T07:34:53.000Z</time>
      </trkpt>
      <trkpt lat="47.30344" lon="-2.33794">
        <ele>15.39999961853</ele>
        <time>2022-09-22T07:34:57.000Z</time>
      </trkpt>
      <trkpt lat="47.30366" lon="-2.33769">
        <ele>15.39999961853</ele>
        <time>2022-09-22T07:35:02.000Z</time>
      </trkpt>
      <trkpt lat="47.30391" lon="-2.33733">
        <ele>15.39999961853</ele>
        <time>2022-09-22T07:35:08.000Z</time>
      </trkpt>
      <trkpt lat="47.30413" lon="-2.33696">
        <ele>15.39999961853</ele>
        <time>2022-09-22T07:35:14.000Z</time>
      </trkpt>
      <trkpt lat="47.30428" lon="-2.33688">
        <ele>15.39999961853</ele>
        <time>2022-09-22T07:35:17.000Z</time>
      </trkpt>
      <trkpt lat="47.30434" lon="-2.33687">
        <ele>15.39999961853</ele>
        <time>2022-09-22T07:35:18.000Z</time>
      </trkpt>
      <trkpt lat="47.30439" lon="-2.33683">
        <ele>15.39999961853</ele>
        <time>2022-09-22T07:35:19.000Z</time>
      </trkpt>
      <trkpt lat="47.30456" lon="-2.33673">
        <ele>15.39999961853</ele>
        <time>2022-09-22T07:35:22.000Z</time>
      </trkpt>
      <trkpt lat="47.30461" lon="-2.3367">
        <ele>15.39999961853</ele>
        <time>2022-09-22T07:35:23.000Z</time>
      </trkpt>
      <trkpt lat="47.30483" lon="-2.33658">
        <ele>15.39999961853</ele>
        <time>2022-09-22T07:35:27.000Z</time>
      </trkpt>
      <trkpt lat="47.30489" lon="-2.33656">
        <ele>15.39999961853</ele>
        <time>2022-09-22T07:35:28.000Z</time>
      </trkpt>
      <trkpt lat="47.30505" lon="-2.3365">
        <ele>15.39999961853</ele>
        <time>2022-09-22T07:35:31.000Z</time>
      </trkpt>
      <trkpt lat="47.30516" lon="-2.33647">
        <ele>15.39999961853</ele>
        <time>2022-09-22T07:35:33.000Z</time>
      </trkpt>
      <trkpt lat="47.30532" lon="-2.33644">
        <ele>15.39999961853</ele>
        <time>2022-09-22T07:35:36.000Z</time>
      </trkpt>
      <trkpt lat="47.30542" lon="-2.33644">
        <ele>15.39999961853</ele>
        <time>2022-09-22T07:35:38.000Z</time>
      </trkpt>
      <trkpt lat="47.30548" lon="-2.33654">
        <ele>15.39999961853</ele>
        <time>2022-09-22T07:35:40.000Z</time>
      </trkpt>
      <trkpt lat="47.30552" lon="-2.33668">
        <ele>15.39999961853</ele>
        <time>2022-09-22T07:35:42.000Z</time>
      </trkpt>
      <trkpt lat="47.30555" lon="-2.33689">
        <ele>15.39999961853</ele>
        <time>2022-09-22T07:35:45.000Z</time>
      </trkpt>
      <trkpt lat="47.30564" lon="-2.33734">
        <ele>15.39999961853</ele>
        <time>2022-09-22T07:35:51.000Z</time>
      </trkpt>
      <trkpt lat="47.30566" lon="-2.33742">
        <ele>15.39999961853</ele>
        <time>2022-09-22T07:35:52.000Z</time>
      </trkpt>
      <trkpt lat="47.30573" lon="-2.33772">
        <ele>15.39999961853</ele>
        <time>2022-09-22T07:35:56.000Z</time>
      </trkpt>
      <trkpt lat="47.30584" lon="-2.33817">
        <ele>15.39999961853</ele>
        <time>2022-09-22T07:36:02.000Z</time>
      </trkpt>
      <trkpt lat="47.30588" lon="-2.33832">
        <ele>15.39999961853</ele>
        <time>2022-09-22T07:36:04.000Z</time>
      </trkpt>
      <trkpt lat="47.30591" lon="-2.33855">
        <ele>15.39999961853</ele>
        <time>2022-09-22T07:36:07.000Z</time>
      </trkpt>
      <trkpt lat="47.30591" lon="-2.33862">
        <ele>15.39999961853</ele>
        <time>2022-09-22T07:36:08.000Z</time>
      </trkpt>
      <trkpt lat="47.30589" lon="-2.3387">
        <ele>15.39999961853</ele>
        <time>2022-09-22T07:36:10.000Z</time>
      </trkpt>
      <trkpt lat="47.3059" lon="-2.33881">
        <ele>15.39999961853</ele>
        <time>2022-09-22T07:36:12.000Z</time>
      </trkpt>
      <trkpt lat="47.3059" lon="-2.33888">
        <ele>15.39999961853</ele>
        <time>2022-09-22T07:36:13.000Z</time>
      </trkpt>
      <trkpt lat="47.30591" lon="-2.33895">
        <ele>15.39999961853</ele>
        <time>2022-09-22T07:36:14.000Z</time>
      </trkpt>
      <trkpt lat="47.30599" lon="-2.33926">
        <ele>15.39999961853</ele>
        <time>2022-09-22T07:36:19.000Z</time>
      </trkpt>
      <trkpt lat="47.30601" lon="-2.33933">
        <ele>15.39999961853</ele>
        <time>2022-09-22T07:36:20.000Z</time>
      </trkpt>
      <trkpt lat="47.30607" lon="-2.33946">
        <ele>15.39999961853</ele>
        <time>2022-09-22T07:36:22.000Z</time>
      </trkpt>
      <trkpt lat="47.30615" lon="-2.33954">
        <ele>15.39999961853</ele>
        <time>2022-09-22T07:36:24.000Z</time>
      </trkpt>
      <trkpt lat="47.30619" lon="-2.33957">
        <ele>15.39999961853</ele>
        <time>2022-09-22T07:36:25.000Z</time>
      </trkpt>
      <trkpt lat="47.30628" lon="-2.33966">
        <ele>15.39999961853</ele>
        <time>2022-09-22T07:36:27.000Z</time>
      </trkpt>
      <trkpt lat="47.30642" lon="-2.33982">
        <ele>15.39999961853</ele>
        <time>2022-09-22T07:36:30.000Z</time>
      </trkpt>
      <trkpt lat="47.30665" lon="-2.3399">
        <ele>15.39999961853</ele>
        <time>2022-09-22T07:36:34.000Z</time>
      </trkpt>
      <trkpt lat="47.30688" lon="-2.33989">
        <ele>15.39999961853</ele>
        <time>2022-09-22T07:36:39.000Z</time>
      </trkpt>
      <trkpt lat="47.3072" lon="-2.33984">
        <ele>15.39999961853</ele>
        <time>2022-09-22T07:36:45.000Z</time>
      </trkpt>
      <trkpt lat="47.30731" lon="-2.3398">
        <ele>15.39999961853</ele>
        <time>2022-09-22T07:36:47.000Z</time>
      </trkpt>
      <trkpt lat="47.30747" lon="-2.33976">
        <ele>15.39999961853</ele>
        <time>2022-09-22T07:36:50.000Z</time>
      </trkpt>
      <trkpt lat="47.30752" lon="-2.33976">
        <ele>15.39999961853</ele>
        <time>2022-09-22T07:36:51.000Z</time>
      </trkpt>
      <trkpt lat="47.30757" lon="-2.33975">
        <ele>15.800000190735</ele>
        <time>2022-09-22T07:36:52.000Z</time>
      </trkpt>
      <trkpt lat="47.30761" lon="-2.33975">
        <ele>16.200000762939</ele>
        <time>2022-09-22T07:36:53.000Z</time>
      </trkpt>
      <trkpt lat="47.30766" lon="-2.33974">
        <ele>16.60000038147</ele>
        <time>2022-09-22T07:36:54.000Z</time>
      </trkpt>
      <trkpt lat="47.3077" lon="-2.33973">
        <ele>17</ele>
        <time>2022-09-22T07:36:55.000Z</time>
      </trkpt>
      <trkpt lat="47.30775" lon="-2.33972">
        <ele>17.60000038147</ele>
        <time>2022-09-22T07:36:56.000Z</time>
      </trkpt>
      <trkpt lat="47.30798" lon="-2.33966">
        <ele>17.60000038147</ele>
        <time>2022-09-22T07:37:01.000Z</time>
      </trkpt>
      <trkpt lat="47.30829" lon="-2.33957">
        <ele>17.60000038147</ele>
        <time>2022-09-22T07:37:08.000Z</time>
      </trkpt>
      <trkpt lat="47.30838" lon="-2.33955">
        <ele>17.60000038147</ele>
        <time>2022-09-22T07:37:10.000Z</time>
      </trkpt>
      <trkpt lat="47.30853" lon="-2.33952">
        <ele>17.60000038147</ele>
        <time>2022-09-22T07:37:13.000Z</time>
      </trkpt>
      <trkpt lat="47.30885" lon="-2.33947">
        <ele>17.60000038147</ele>
        <time>2022-09-22T07:37:20.000Z</time>
      </trkpt>
      <trkpt lat="47.30919" lon="-2.33946">
        <ele>17.60000038147</ele>
        <time>2022-09-22T07:37:27.000Z</time>
      </trkpt>
      <trkpt lat="47.30959" lon="-2.33954">
        <ele>17.60000038147</ele>
        <time>2022-09-22T07:37:35.000Z</time>
      </trkpt>
      <trkpt lat="47.30988" lon="-2.33957">
        <ele>17.60000038147</ele>
        <time>2022-09-22T07:37:41.000Z</time>
      </trkpt>
      <trkpt lat="47.31021" lon="-2.33953">
        <ele>17.60000038147</ele>
        <time>2022-09-22T07:37:48.000Z</time>
      </trkpt>
      <trkpt lat="47.31026" lon="-2.33951">
        <ele>17.60000038147</ele>
        <time>2022-09-22T07:37:49.000Z</time>
      </trkpt>
      <trkpt lat="47.31056" lon="-2.33944">
        <ele>17.60000038147</ele>
        <time>2022-09-22T07:37:55.000Z</time>
      </trkpt>
      <trkpt lat="47.31059" lon="-2.33932">
        <ele>17.200000762939</ele>
        <time>2022-09-22T07:37:57.000Z</time>
      </trkpt>
      <trkpt lat="47.31059" lon="-2.33925">
        <ele>16.799999237061</ele>
        <time>2022-09-22T07:37:58.000Z</time>
      </trkpt>
      <trkpt lat="47.3106" lon="-2.33917">
        <ele>16.39999961853</ele>
        <time>2022-09-22T07:37:59.000Z</time>
      </trkpt>
      <trkpt lat="47.31059" lon="-2.33909">
        <ele>16</ele>
        <time>2022-09-22T07:38:00.000Z</time>
      </trkpt>
      <trkpt lat="47.3106" lon="-2.33902">
        <ele>15.60000038147</ele>
        <time>2022-09-22T07:38:01.000Z</time>
      </trkpt>
      <trkpt lat="47.3106" lon="-2.3387">
        <ele>15.60000038147</ele>
        <time>2022-09-22T07:38:05.000Z</time>
      </trkpt>
      <trkpt lat="47.31064" lon="-2.33813">
        <ele>15.60000038147</ele>
        <time>2022-09-22T07:38:12.000Z</time>
      </trkpt>
      <trkpt lat="47.31066" lon="-2.33805">
        <ele>15.60000038147</ele>
        <time>2022-09-22T07:38:13.000Z</time>
      </trkpt>
      <trkpt lat="47.31075" lon="-2.33781">
        <ele>15.60000038147</ele>
        <time>2022-09-22T07:38:16.000Z</time>
      </trkpt>
      <trkpt lat="47.31078" lon="-2.33774">
        <ele>15.60000038147</ele>
        <time>2022-09-22T07:38:17.000Z</time>
      </trkpt>
      <trkpt lat="47.31087" lon="-2.33749">
        <ele>15.60000038147</ele>
        <time>2022-09-22T07:38:20.000Z</time>
      </trkpt>
      <trkpt lat="47.31092" lon="-2.33732">
        <ele>15.60000038147</ele>
        <time>2022-09-22T07:38:22.000Z</time>
      </trkpt>
      <trkpt lat="47.31099" lon="-2.33682">
        <ele>15.60000038147</ele>
        <time>2022-09-22T07:38:28.000Z</time>
      </trkpt>
      <trkpt lat="47.31108" lon="-2.33608">
        <ele>15.60000038147</ele>
        <time>2022-09-22T07:38:37.000Z</time>
      </trkpt>
      <trkpt lat="47.31108" lon="-2.33563">
        <ele>15.60000038147</ele>
        <time>2022-09-22T07:38:43.000Z</time>
      </trkpt>
      <trkpt lat="47.31104" lon="-2.33541">
        <ele>15.60000038147</ele>
        <time>2022-09-22T07:38:46.000Z</time>
      </trkpt>
      <trkpt lat="47.31101" lon="-2.33525">
        <ele>15.60000038147</ele>
        <time>2022-09-22T07:38:48.000Z</time>
      </trkpt>
      <trkpt lat="47.31093" lon="-2.3347">
        <ele>15.60000038147</ele>
        <time>2022-09-22T07:38:54.000Z</time>
      </trkpt>
      <trkpt lat="47.31092" lon="-2.33432">
        <ele>15.199999809265</ele>
        <time>2022-09-22T07:38:58.000Z</time>
      </trkpt>
      <trkpt lat="47.31092" lon="-2.33422">
        <ele>14.800000190735</ele>
        <time>2022-09-22T07:38:59.000Z</time>
      </trkpt>
      <trkpt lat="47.31092" lon="-2.33413">
        <ele>14.39999961853</ele>
        <time>2022-09-22T07:39:00.000Z</time>
      </trkpt>
      <trkpt lat="47.31092" lon="-2.33403">
        <ele>13.800000190735</ele>
        <time>2022-09-22T07:39:01.000Z</time>
      </trkpt>
      <trkpt lat="47.31092" lon="-2.33393">
        <ele>13.39999961853</ele>
        <time>2022-09-22T07:39:02.000Z</time>
      </trkpt>
      <trkpt lat="47.31095" lon="-2.33327">
        <ele>13.39999961853</ele>
        <time>2022-09-22T07:39:09.000Z</time>
      </trkpt>
      <trkpt lat="47.31099" lon="-2.33254">
        <ele>13.39999961853</ele>
        <time>2022-09-22T07:39:17.000Z</time>
      </trkpt>
      <trkpt lat="47.31101" lon="-2.33228">
        <ele>13</ele>
        <time>2022-09-22T07:39:20.000Z</time>
      </trkpt>
      <trkpt lat="47.31103" lon="-2.3322">
        <ele>12.60000038147</ele>
        <time>2022-09-22T07:39:21.000Z</time>
      </trkpt>
      <trkpt lat="47.31107" lon="-2.33212">
        <ele>12.199999809265</ele>
        <time>2022-09-22T07:39:22.000Z</time>
      </trkpt>
      <trkpt lat="47.31111" lon="-2.33207">
        <ele>11.60000038147</ele>
        <time>2022-09-22T07:39:23.000Z</time>
      </trkpt>
      <trkpt lat="47.31116" lon="-2.33204">
        <ele>11.199999809265</ele>
        <time>2022-09-22T07:39:24.000Z</time>
      </trkpt>
      <trkpt lat="47.31122" lon="-2.33201">
        <ele>11.199999809265</ele>
        <time>2022-09-22T07:39:25.000Z</time>
      </trkpt>
      <trkpt lat="47.31132" lon="-2.33194">
        <ele>11.199999809265</ele>
        <time>2022-09-22T07:39:27.000Z</time>
      </trkpt>
      <trkpt lat="47.31146" lon="-2.33182">
        <ele>11.199999809265</ele>
        <time>2022-09-22T07:39:30.000Z</time>
      </trkpt>
      <trkpt lat="47.31152" lon="-2.3318">
        <ele>11.199999809265</ele>
        <time>2022-09-22T07:39:31.000Z</time>
      </trkpt>
      <trkpt lat="47.31174" lon="-2.33166">
        <ele>11.199999809265</ele>
        <time>2022-09-22T07:39:35.000Z</time>
      </trkpt>
      <trkpt lat="47.31205" lon="-2.33151">
        <ele>11.199999809265</ele>
        <time>2022-09-22T07:39:40.000Z</time>
      </trkpt>
      <trkpt lat="47.31212" lon="-2.3315">
        <ele>11.199999809265</ele>
        <time>2022-09-22T07:39:41.000Z</time>
      </trkpt>
      <trkpt lat="47.31251" lon="-2.33153">
        <ele>11.199999809265</ele>
        <time>2022-09-22T07:39:47.000Z</time>
      </trkpt>
      <trkpt lat="47.31277" lon="-2.33161">
        <ele>11.199999809265</ele>
        <time>2022-09-22T07:39:51.000Z</time>
      </trkpt>
      <trkpt lat="47.31283" lon="-2.33164">
        <ele>11.199999809265</ele>
        <time>2022-09-22T07:39:52.000Z</time>
      </trkpt>
      <trkpt lat="47.31294" lon="-2.33171">
        <ele>11.199999809265</ele>
        <time>2022-09-22T07:39:54.000Z</time>
      </trkpt>
      <trkpt lat="47.3131" lon="-2.33183">
        <ele>11.199999809265</ele>
        <time>2022-09-22T07:39:57.000Z</time>
      </trkpt>
      <trkpt lat="47.31315" lon="-2.33188">
        <ele>11.199999809265</ele>
        <time>2022-09-22T07:39:58.000Z</time>
      </trkpt>
      <trkpt lat="47.31348" lon="-2.33217">
        <ele>11.199999809265</ele>
        <time>2022-09-22T07:40:05.000Z</time>
      </trkpt>
      <trkpt lat="47.31386" lon="-2.33244">
        <ele>11.199999809265</ele>
        <time>2022-09-22T07:40:13.000Z</time>
      </trkpt>
      <trkpt lat="47.31428" lon="-2.33277">
        <ele>11.199999809265</ele>
        <time>2022-09-22T07:40:22.000Z</time>
      </trkpt>
      <trkpt lat="47.31442" lon="-2.33291">
        <ele>11.199999809265</ele>
        <time>2022-09-22T07:40:25.000Z</time>
      </trkpt>
      <trkpt lat="47.31448" lon="-2.33303">
        <ele>11.199999809265</ele>
        <time>2022-09-22T07:40:27.000Z</time>
      </trkpt>
      <trkpt lat="47.31451" lon="-2.33309">
        <ele>11.199999809265</ele>
        <time>2022-09-22T07:40:28.000Z</time>
      </trkpt>
      <trkpt lat="47.31463" lon="-2.33335">
        <ele>11.199999809265</ele>
        <time>2022-09-22T07:40:32.000Z</time>
      </trkpt>
      <trkpt lat="47.31475" lon="-2.33359">
        <ele>11.199999809265</ele>
        <time>2022-09-22T07:40:36.000Z</time>
      </trkpt>
      <trkpt lat="47.31482" lon="-2.33367">
        <ele>11.199999809265</ele>
        <time>2022-09-22T07:40:38.000Z</time>
      </trkpt>
      <trkpt lat="47.31494" lon="-2.33364">
        <ele>11.199999809265</ele>
        <time>2022-09-22T07:40:41.000Z</time>
      </trkpt>
      <trkpt lat="47.31514" lon="-2.33352">
        <ele>11.199999809265</ele>
        <time>2022-09-22T07:40:46.000Z</time>
      </trkpt>
      <trkpt lat="47.31536" lon="-2.33342">
        <ele>11.199999809265</ele>
        <time>2022-09-22T07:40:52.000Z</time>
      </trkpt>
      <trkpt lat="47.31546" lon="-2.33338">
        <ele>11.199999809265</ele>
        <time>2022-09-22T07:40:57.000Z</time>
      </trkpt>
      <trkpt lat="47.31556" lon="-2.33334">
        <ele>11.199999809265</ele>
        <time>2022-09-22T07:41:05.000Z</time>
      </trkpt>
      <trkpt lat="47.31566" lon="-2.3333">
        <ele>11.199999809265</ele>
        <time>2022-09-22T07:41:11.000Z</time>
      </trkpt>
      <trkpt lat="47.31575" lon="-2.33323">
        <ele>11.60000038147</ele>
        <time>2022-09-22T07:41:13.000Z</time>
      </trkpt>
      <trkpt lat="47.31579" lon="-2.33319">
        <ele>12</ele>
        <time>2022-09-22T07:41:14.000Z</time>
      </trkpt>
      <trkpt lat="47.31584" lon="-2.33316">
        <ele>12.39999961853</ele>
        <time>2022-09-22T07:41:15.000Z</time>
      </trkpt>
      <trkpt lat="47.31588" lon="-2.33313">
        <ele>12.800000190735</ele>
        <time>2022-09-22T07:41:16.000Z</time>
      </trkpt>
      <trkpt lat="47.31593" lon="-2.33311">
        <ele>13.199999809265</ele>
        <time>2022-09-22T07:41:17.000Z</time>
      </trkpt>
      <trkpt lat="47.31608" lon="-2.33303">
        <ele>13.199999809265</ele>
        <time>2022-09-22T07:41:20.000Z</time>
      </trkpt>
      <trkpt lat="47.31646" lon="-2.33282">
        <ele>13.199999809265</ele>
        <time>2022-09-22T07:41:27.000Z</time>
      </trkpt>
      <trkpt lat="47.31679" lon="-2.33269">
        <ele>12.800000190735</ele>
        <time>2022-09-22T07:41:33.000Z</time>
      </trkpt>
      <trkpt lat="47.31683" lon="-2.33267">
        <ele>12.39999961853</ele>
        <time>2022-09-22T07:41:34.000Z</time>
      </trkpt>
      <trkpt lat="47.31688" lon="-2.33264">
        <ele>12</ele>
        <time>2022-09-22T07:41:35.000Z</time>
      </trkpt>
      <trkpt lat="47.31694" lon="-2.33261">
        <ele>11.60000038147</ele>
        <time>2022-09-22T07:41:36.000Z</time>
      </trkpt>
      <trkpt lat="47.317" lon="-2.33258">
        <ele>11.199999809265</ele>
        <time>2022-09-22T07:41:37.000Z</time>
      </trkpt>
      <trkpt lat="47.31706" lon="-2.33256">
        <ele>11.199999809265</ele>
        <time>2022-09-22T07:41:38.000Z</time>
      </trkpt>
      <trkpt lat="47.31724" lon="-2.33248">
        <ele>10.800000190735</ele>
        <time>2022-09-22T07:41:41.000Z</time>
      </trkpt>
      <trkpt lat="47.3173" lon="-2.33248">
        <ele>9.8000001907349</ele>
        <time>2022-09-22T07:41:42.000Z</time>
      </trkpt>
      <trkpt lat="47.31734" lon="-2.3325">
        <ele>9.3999996185303</ele>
        <time>2022-09-22T07:41:43.000Z</time>
      </trkpt>
      <trkpt lat="47.31737" lon="-2.33256">
        <ele>9</ele>
        <time>2022-09-22T07:41:44.000Z</time>
      </trkpt>
      <trkpt lat="47.31737" lon="-2.33261">
        <ele>9</ele>
        <time>2022-09-22T07:41:45.000Z</time>
      </trkpt>
      <trkpt lat="47.31739" lon="-2.33273">
        <ele>9</ele>
        <time>2022-09-22T07:41:47.000Z</time>
      </trkpt>
      <trkpt lat="47.31743" lon="-2.33286">
        <ele>9</ele>
        <time>2022-09-22T07:41:49.000Z</time>
      </trkpt>
      <trkpt lat="47.31745" lon="-2.33293">
        <ele>9</ele>
        <time>2022-09-22T07:41:50.000Z</time>
      </trkpt>
      <trkpt lat="47.31751" lon="-2.33309">
        <ele>9</ele>
        <time>2022-09-22T07:41:52.000Z</time>
      </trkpt>
      <trkpt lat="47.31758" lon="-2.33323">
        <ele>8.6000003814697</ele>
        <time>2022-09-22T07:41:54.000Z</time>
      </trkpt>
      <trkpt lat="47.31761" lon="-2.33328">
        <ele>8</ele>
        <time>2022-09-22T07:41:55.000Z</time>
      </trkpt>
      <trkpt lat="47.31764" lon="-2.3333">
        <ele>7.5999999046326</ele>
        <time>2022-09-22T07:41:56.000Z</time>
      </trkpt>
      <trkpt lat="47.31769" lon="-2.33328">
        <ele>7.1999998092651</ele>
        <time>2022-09-22T07:41:57.000Z</time>
      </trkpt>
      <trkpt lat="47.31773" lon="-2.33325">
        <ele>6.8000001907349</ele>
        <time>2022-09-22T07:41:58.000Z</time>
      </trkpt>
      <trkpt lat="47.31778" lon="-2.33322">
        <ele>6.8000001907349</ele>
        <time>2022-09-22T07:41:59.000Z</time>
      </trkpt>
      <trkpt lat="47.31783" lon="-2.33318">
        <ele>6.4000000953674</ele>
        <time>2022-09-22T07:42:00.000Z</time>
      </trkpt>
      <trkpt lat="47.31788" lon="-2.33315">
        <ele>6</ele>
        <time>2022-09-22T07:42:01.000Z</time>
      </trkpt>
      <trkpt lat="47.31792" lon="-2.3331">
        <ele>5.5999999046326</ele>
        <time>2022-09-22T07:42:02.000Z</time>
      </trkpt>
      <trkpt lat="47.31796" lon="-2.33305">
        <ele>5.1999998092651</ele>
        <time>2022-09-22T07:42:03.000Z</time>
      </trkpt>
      <trkpt lat="47.31801" lon="-2.33299">
        <ele>4.5999999046326</ele>
        <time>2022-09-22T07:42:04.000Z</time>
      </trkpt>
      <trkpt lat="47.31807" lon="-2.33295">
        <ele>4.1999998092651</ele>
        <time>2022-09-22T07:42:05.000Z</time>
      </trkpt>
      <trkpt lat="47.31813" lon="-2.33289">
        <ele>3.5999999046326</ele>
        <time>2022-09-22T07:42:06.000Z</time>
      </trkpt>
      <trkpt lat="47.31818" lon="-2.33281">
        <ele>2.5999999046326</ele>
        <time>2022-09-22T07:42:07.000Z</time>
      </trkpt>
      <trkpt lat="47.31828" lon="-2.33264">
        <ele>2</ele>
        <time>2022-09-22T07:42:09.000Z</time>
      </trkpt>
      <trkpt lat="47.31834" lon="-2.33256">
        <ele>1.6000000238419</ele>
        <time>2022-09-22T07:42:10.000Z</time>
      </trkpt>
      <trkpt lat="47.31838" lon="-2.33247">
        <ele>1.2000000476837</ele>
        <time>2022-09-22T07:42:11.000Z</time>
      </trkpt>
      <trkpt lat="47.31841" lon="-2.33238">
        <ele>0.60000002384186</ele>
        <time>2022-09-22T07:42:12.000Z</time>
      </trkpt>
      <trkpt lat="47.31843" lon="-2.33228">
        <ele>0.20000000298023</ele>
        <time>2022-09-22T07:42:13.000Z</time>
      </trkpt>
      <trkpt lat="47.31846" lon="-2.33218">
        <ele>0.20000000298023</ele>
        <time>2022-09-22T07:42:14.000Z</time>
      </trkpt>
      <trkpt lat="47.31855" lon="-2.33178">
        <ele>0.20000000298023</ele>
        <time>2022-09-22T07:42:18.000Z</time>
      </trkpt>
      <trkpt lat="47.31857" lon="-2.33169">
        <ele>0.20000000298023</ele>
        <time>2022-09-22T07:42:19.000Z</time>
      </trkpt>
      <trkpt lat="47.31861" lon="-2.33149">
        <ele>-0.40000000596046</ele>
        <time>2022-09-22T07:42:21.000Z</time>
      </trkpt>
      <trkpt lat="47.31862" lon="-2.33139">
        <ele>-0.80000001192093</ele>
        <time>2022-09-22T07:42:22.000Z</time>
      </trkpt>
      <trkpt lat="47.31864" lon="-2.33129">
        <ele>-1.3999999761581</ele>
        <time>2022-09-22T07:42:23.000Z</time>
      </trkpt>
      <trkpt lat="47.31865" lon="-2.33118">
        <ele>-1.7999999523163</ele>
        <time>2022-09-22T07:42:24.000Z</time>
      </trkpt>
      <trkpt lat="47.31866" lon="-2.33107">
        <ele>-2.2000000476837</ele>
        <time>2022-09-22T07:42:25.000Z</time>
      </trkpt>
      <trkpt lat="47.31868" lon="-2.33086">
        <ele>-2.7999999523163</ele>
        <time>2022-09-22T07:42:27.000Z</time>
      </trkpt>
      <trkpt lat="47.31869" lon="-2.33075">
        <ele>-3.2000000476837</ele>
        <time>2022-09-22T07:42:28.000Z</time>
      </trkpt>
      <trkpt lat="47.31869" lon="-2.33065">
        <ele>-3.5999999046326</ele>
        <time>2022-09-22T07:42:29.000Z</time>
      </trkpt>
      <trkpt lat="47.31871" lon="-2.33053">
        <ele>-4.4000000953674</ele>
        <time>2022-09-22T07:42:30.000Z</time>
      </trkpt>
      <trkpt lat="47.31871" lon="-2.33019">
        <ele>-4.4000000953674</ele>
        <time>2022-09-22T07:42:33.000Z</time>
      </trkpt>
      <trkpt lat="47.3187" lon="-2.33007">
        <ele>-4.4000000953674</ele>
        <time>2022-09-22T07:42:34.000Z</time>
      </trkpt>
      <trkpt lat="47.31872" lon="-2.32965">
        <ele>-4.4000000953674</ele>
        <time>2022-09-22T07:42:38.000Z</time>
      </trkpt>
      <trkpt lat="47.31876" lon="-2.32924">
        <ele>-4.4000000953674</ele>
        <time>2022-09-22T07:42:42.000Z</time>
      </trkpt>
      <trkpt lat="47.31876" lon="-2.32916">
        <ele>-4.4000000953674</ele>
        <time>2022-09-22T07:42:43.000Z</time>
      </trkpt>
      <trkpt lat="47.31879" lon="-2.32853">
        <ele>-4.4000000953674</ele>
        <time>2022-09-22T07:42:49.000Z</time>
      </trkpt>
      <trkpt lat="47.31878" lon="-2.32801">
        <ele>-4.4000000953674</ele>
        <time>2022-09-22T07:42:54.000Z</time>
      </trkpt>
      <trkpt lat="47.31875" lon="-2.32772">
        <ele>-4.4000000953674</ele>
        <time>2022-09-22T07:42:57.000Z</time>
      </trkpt>
      <trkpt lat="47.31871" lon="-2.32754">
        <ele>-4.4000000953674</ele>
        <time>2022-09-22T07:42:59.000Z</time>
      </trkpt>
      <trkpt lat="47.31868" lon="-2.32746">
        <ele>-4.4000000953674</ele>
        <time>2022-09-22T07:43:00.000Z</time>
      </trkpt>
      <trkpt lat="47.31863" lon="-2.32729">
        <ele>-4.4000000953674</ele>
        <time>2022-09-22T07:43:02.000Z</time>
      </trkpt>
      <trkpt lat="47.31859" lon="-2.32714">
        <ele>-4</ele>
        <time>2022-09-22T07:43:04.000Z</time>
      </trkpt>
      <trkpt lat="47.31857" lon="-2.32707">
        <ele>-3.4000000953674</ele>
        <time>2022-09-22T07:43:05.000Z</time>
      </trkpt>
      <trkpt lat="47.31853" lon="-2.327">
        <ele>-3</ele>
        <time>2022-09-22T07:43:06.000Z</time>
      </trkpt>
      <trkpt lat="47.3185" lon="-2.32693">
        <ele>-2.5999999046326</ele>
        <time>2022-09-22T07:43:07.000Z</time>
      </trkpt>
      <trkpt lat="47.31847" lon="-2.32686">
        <ele>-2.2000000476837</ele>
        <time>2022-09-22T07:43:08.000Z</time>
      </trkpt>
      <trkpt lat="47.31842" lon="-2.32671">
        <ele>-2.2000000476837</ele>
        <time>2022-09-22T07:43:10.000Z</time>
      </trkpt>
      <trkpt lat="47.31834" lon="-2.32643">
        <ele>-2.2000000476837</ele>
        <time>2022-09-22T07:43:14.000Z</time>
      </trkpt>
      <trkpt lat="47.31825" lon="-2.32609">
        <ele>-1.7999999523163</ele>
        <time>2022-09-22T07:43:19.000Z</time>
      </trkpt>
      <trkpt lat="47.31822" lon="-2.32601">
        <ele>-1.3999999761581</ele>
        <time>2022-09-22T07:43:20.000Z</time>
      </trkpt>
      <trkpt lat="47.3182" lon="-2.32594">
        <ele>-1</ele>
        <time>2022-09-22T07:43:21.000Z</time>
      </trkpt>
      <trkpt lat="47.31819" lon="-2.32587">
        <ele>-0.40000000596046</ele>
        <time>2022-09-22T07:43:22.000Z</time>
      </trkpt>
      <trkpt lat="47.31818" lon="-2.32581">
        <ele>21.7</ele>
        <time>2022-09-22T07:43:23.000Z</time>
      </trkpt>
      <trkpt lat="47.31815" lon="-2.32568">
        <ele>22.2</ele>
        <time>2022-09-22T07:43:25.000Z</time>
      </trkpt>
      <trkpt lat="47.31811" lon="-2.32555">
        <ele>22.6</ele>
        <time>2022-09-22T07:43:27.000Z</time>
      </trkpt>
      <trkpt lat="47.31808" lon="-2.32539">
        <ele>22.9</ele>
        <time>2022-09-22T07:43:30.000Z</time>
      </trkpt>
      <trkpt lat="47.31806" lon="-2.32534">
        <ele>0.40000000596046</ele>
        <time>2022-09-22T07:43:31.000Z</time>
      </trkpt>
      <trkpt lat="47.31805" lon="-2.32529">
        <ele>0.80000001192093</ele>
        <time>2022-09-22T07:43:32.000Z</time>
      </trkpt>
      <trkpt lat="47.31804" lon="-2.32524">
        <ele>1.2000000476837</ele>
        <time>2022-09-22T07:43:33.000Z</time>
      </trkpt>
      <trkpt lat="47.31803" lon="-2.32517">
        <ele>1.6000000238419</ele>
        <time>2022-09-22T07:43:34.000Z</time>
      </trkpt>
      <trkpt lat="47.31801" lon="-2.32511">
        <ele>2</ele>
        <time>2022-09-22T07:43:35.000Z</time>
      </trkpt>
      <trkpt lat="47.318" lon="-2.32505">
        <ele>2</ele>
        <time>2022-09-22T07:43:36.000Z</time>
      </trkpt>
      <trkpt lat="47.31792" lon="-2.32476">
        <ele>2</ele>
        <time>2022-09-22T07:43:42.000Z</time>
      </trkpt>
      <trkpt lat="47.3179" lon="-2.32474">
        <ele>2.4000000953674</ele>
        <time>2022-09-22T07:43:43.000Z</time>
      </trkpt>
      <trkpt lat="47.31789" lon="-2.3247">
        <ele>3.4000000953674</ele>
        <time>2022-09-22T07:43:44.000Z</time>
      </trkpt>
      <trkpt lat="47.31787" lon="-2.32467">
        <ele>3.7999999523163</ele>
        <time>2022-09-22T07:43:45.000Z</time>
      </trkpt>
      <trkpt lat="47.31786" lon="-2.32462">
        <ele>4.1999998092651</ele>
        <time>2022-09-22T07:43:46.000Z</time>
      </trkpt>
      <trkpt lat="47.31785" lon="-2.32451">
        <ele>4.1999998092651</ele>
        <time>2022-09-22T07:43:48.000Z</time>
      </trkpt>
      <trkpt lat="47.31784" lon="-2.32442">
        <ele>4.1999998092651</ele>
        <time>2022-09-22T07:43:50.000Z</time>
      </trkpt>
      <trkpt lat="47.31783" lon="-2.32431">
        <ele>4.5999999046326</ele>
        <time>2022-09-22T07:43:52.000Z</time>
      </trkpt>
      <trkpt lat="47.31782" lon="-2.32426">
        <ele>5.1999998092651</ele>
        <time>2022-09-22T07:43:53.000Z</time>
      </trkpt>
      <trkpt lat="47.31781" lon="-2.32421">
        <ele>5.5999999046326</ele>
        <time>2022-09-22T07:43:54.000Z</time>
      </trkpt>
      <trkpt lat="47.3178" lon="-2.32416">
        <ele>6</ele>
        <time>2022-09-22T07:43:55.000Z</time>
      </trkpt>
      <trkpt lat="47.31779" lon="-2.32412">
        <ele>6.4000000953674</ele>
        <time>2022-09-22T07:43:56.000Z</time>
      </trkpt>
      <trkpt lat="47.31776" lon="-2.32395">
        <ele>6.4000000953674</ele>
        <time>2022-09-22T07:44:00.000Z</time>
      </trkpt>
      <trkpt lat="47.31773" lon="-2.32367">
        <ele>6.4000000953674</ele>
        <time>2022-09-22T07:44:06.000Z</time>
      </trkpt>
      <trkpt lat="47.31768" lon="-2.32342">
        <ele>6.8000001907349</ele>
        <time>2022-09-22T07:44:11.000Z</time>
      </trkpt>
      <trkpt lat="47.31767" lon="-2.32338">
        <ele>7.1999998092651</ele>
        <time>2022-09-22T07:44:12.000Z</time>
      </trkpt>
      <trkpt lat="47.31766" lon="-2.32333">
        <ele>7.5999999046326</ele>
        <time>2022-09-22T07:44:13.000Z</time>
      </trkpt>
      <trkpt lat="47.31765" lon="-2.32328">
        <ele>8</ele>
        <time>2022-09-22T07:44:14.000Z</time>
      </trkpt>
      <trkpt lat="47.31765" lon="-2.32323">
        <ele>8.3999996185303</ele>
        <time>2022-09-22T07:44:15.000Z</time>
      </trkpt>
      <trkpt lat="47.31761" lon="-2.32304">
        <ele>8.3999996185303</ele>
        <time>2022-09-22T07:44:19.000Z</time>
      </trkpt>
      <trkpt lat="47.31755" lon="-2.32272">
        <ele>8.3999996185303</ele>
        <time>2022-09-22T07:44:26.000Z</time>
      </trkpt>
      <trkpt lat="47.31751" lon="-2.32241">
        <ele>8.3999996185303</ele>
        <time>2022-09-22T07:44:33.000Z</time>
      </trkpt>
      <trkpt lat="47.31753" lon="-2.32237">
        <ele>8.3999996185303</ele>
        <time>2022-09-22T07:44:35.000Z</time>
      </trkpt>
      <trkpt lat="47.31757" lon="-2.32235">
        <ele>8.3999996185303</ele>
        <time>2022-09-22T07:44:37.000Z</time>
      </trkpt>
      <trkpt lat="47.3176" lon="-2.32236">
        <ele>8.3999996185303</ele>
        <time>2022-09-22T07:44:39.000Z</time>
      </trkpt>
      <trkpt lat="47.31762" lon="-2.32235">
        <ele>8.3999996185303</ele>
        <time>2022-09-22T07:44:41.000Z</time>
      </trkpt>
      <trkpt lat="47.3177" lon="-2.32232">
        <ele>8.3999996185303</ele>
        <time>2022-09-22T07:45:11.000Z</time>
      </trkpt>
      <trkpt lat="47.31779" lon="-2.3223">
        <ele>8.3999996185303</ele>
        <time>2022-09-22T07:45:14.000Z</time>
      </trkpt>
      <trkpt lat="47.31797" lon="-2.32228">
        <ele>8.3999996185303</ele>
        <time>2022-09-22T07:45:19.000Z</time>
      </trkpt>
      <trkpt lat="47.3182" lon="-2.32225">
        <ele>8.3999996185303</ele>
        <time>2022-09-22T07:45:25.000Z</time>
      </trkpt>
      <trkpt lat="47.31837" lon="-2.32219">
        <ele>8</ele>
        <time>2022-09-22T07:45:30.000Z</time>
      </trkpt>
      <trkpt lat="47.31842" lon="-2.32218">
        <ele>7.5999999046326</ele>
        <time>2022-09-22T07:45:31.000Z</time>
      </trkpt>
      <trkpt lat="47.31845" lon="-2.32219">
        <ele>7.1999998092651</ele>
        <time>2022-09-22T07:45:32.000Z</time>
      </trkpt>
      <trkpt lat="47.31849" lon="-2.32218">
        <ele>6.8000001907349</ele>
        <time>2022-09-22T07:45:33.000Z</time>
      </trkpt>
      <trkpt lat="47.31853" lon="-2.32216">
        <ele>6.4000000953674</ele>
        <time>2022-09-22T07:45:34.000Z</time>
      </trkpt>
      <trkpt lat="47.31862" lon="-2.32212">
        <ele>6.4000000953674</ele>
        <time>2022-09-22T07:45:36.000Z</time>
      </trkpt>
      <trkpt lat="47.31868" lon="-2.3221">
        <ele>5.8000001907349</ele>
        <time>2022-09-22T07:45:37.000Z</time>
      </trkpt>
      <trkpt lat="47.31874" lon="-2.32209">
        <ele>5.4000000953674</ele>
        <time>2022-09-22T07:45:38.000Z</time>
      </trkpt>
      <trkpt lat="47.3188" lon="-2.32208">
        <ele>5</ele>
        <time>2022-09-22T07:45:39.000Z</time>
      </trkpt>
      <trkpt lat="47.31886" lon="-2.32208">
        <ele>4.5999999046326</ele>
        <time>2022-09-22T07:45:40.000Z</time>
      </trkpt>
      <trkpt lat="47.31892" lon="-2.32207">
        <ele>4</ele>
        <time>2022-09-22T07:45:41.000Z</time>
      </trkpt>
      <trkpt lat="47.31905" lon="-2.32206">
        <ele>3.5999999046326</ele>
        <time>2022-09-22T07:45:43.000Z</time>
      </trkpt>
      <trkpt lat="47.31912" lon="-2.32207">
        <ele>3.2000000476837</ele>
        <time>2022-09-22T07:45:44.000Z</time>
      </trkpt>
      <trkpt lat="47.3192" lon="-2.32208">
        <ele>2.7999999523163</ele>
        <time>2022-09-22T07:45:45.000Z</time>
      </trkpt>
      <trkpt lat="47.31928" lon="-2.3221">
        <ele>2.4000000953674</ele>
        <time>2022-09-22T07:45:46.000Z</time>
      </trkpt>
      <trkpt lat="47.31935" lon="-2.32212">
        <ele>1.6000000238419</ele>
        <time>2022-09-22T07:45:47.000Z</time>
      </trkpt>
      <trkpt lat="47.31941" lon="-2.32213">
        <ele>1</ele>
        <time>2022-09-22T07:45:48.000Z</time>
      </trkpt>
      <trkpt lat="47.31946" lon="-2.32215">
        <ele>0.60000002384186</ele>
        <time>2022-09-22T07:45:49.000Z</time>
      </trkpt>
      <trkpt lat="47.31949" lon="-2.32217">
        <ele>0.20000000298023</ele>
        <time>2022-09-22T07:45:50.000Z</time>
      </trkpt>
      <trkpt lat="47.31952" lon="-2.3222">
        <ele>-0.20000000298023</ele>
        <time>2022-09-22T07:45:51.000Z</time>
      </trkpt>
      <trkpt lat="47.31953" lon="-2.32223">
        <ele>-0.20000000298023</ele>
        <time>2022-09-22T07:45:52.000Z</time>
      </trkpt>
      <trkpt lat="47.31954" lon="-2.32227">
        <ele>-0.20000000298023</ele>
        <time>2022-09-22T07:45:53.000Z</time>
      </trkpt>
      <trkpt lat="47.3195" lon="-2.32238">
        <ele>-0.60000002384186</ele>
        <time>2022-09-22T07:45:56.000Z</time>
      </trkpt>
      <trkpt lat="47.31949" lon="-2.32242">
        <ele>-1.2000000476837</ele>
        <time>2022-09-22T07:45:57.000Z</time>
      </trkpt>
      <trkpt lat="47.31948" lon="-2.32247">
        <ele>-1.6000000238419</ele>
        <time>2022-09-22T07:45:58.000Z</time>
      </trkpt>
      <trkpt lat="47.31947" lon="-2.32251">
        <ele>-2</ele>
        <time>2022-09-22T07:45:59.000Z</time>
      </trkpt>
      <trkpt lat="47.31947" lon="-2.32256">
        <ele>-2.4000000953674</ele>
        <time>2022-09-22T07:46:00.000Z</time>
      </trkpt>
      <trkpt lat="47.31948" lon="-2.32261">
        <ele>-2.4000000953674</ele>
        <time>2022-09-22T07:46:01.000Z</time>
      </trkpt>
      <trkpt lat="47.31959" lon="-2.32257">
        <ele>-2.4000000953674</ele>
        <time>2022-09-22T07:46:04.000Z</time>
      </trkpt>
      <trkpt lat="47.31963" lon="-2.3225">
        <ele>-2.7999999523163</ele>
        <time>2022-09-22T07:46:05.000Z</time>
      </trkpt>
      <trkpt lat="47.31966" lon="-2.32244">
        <ele>-3.2000000476837</ele>
        <time>2022-09-22T07:46:06.000Z</time>
      </trkpt>
      <trkpt lat="47.3197" lon="-2.32237">
        <ele>-3.5999999046326</ele>
        <time>2022-09-22T07:46:07.000Z</time>
      </trkpt>
      <trkpt lat="47.31976" lon="-2.3223">
        <ele>-4</ele>
        <time>2022-09-22T07:46:08.000Z</time>
      </trkpt>
      <trkpt lat="47.31982" lon="-2.32223">
        <ele>-4.5999999046326</ele>
        <time>2022-09-22T07:46:09.000Z</time>
      </trkpt>
      <trkpt lat="47.31987" lon="-2.32218">
        <ele>-5</ele>
        <time>2022-09-22T07:46:10.000Z</time>
      </trkpt>
      <trkpt lat="47.31993" lon="-2.3221">
        <ele>-5.5999999046326</ele>
        <time>2022-09-22T07:46:11.000Z</time>
      </trkpt>
      <trkpt lat="47.31999" lon="-2.32203">
        <ele>-6.1999998092651</ele>
        <time>2022-09-22T07:46:12.000Z</time>
      </trkpt>
      <trkpt lat="47.32005" lon="-2.32197">
        <ele>-6.8000001907349</ele>
        <time>2022-09-22T07:46:13.000Z</time>
      </trkpt>
      <trkpt lat="47.32025" lon="-2.32181">
        <ele>-7.1999998092651</ele>
        <time>2022-09-22T07:46:16.000Z</time>
      </trkpt>
      <trkpt lat="47.32034" lon="-2.32182">
        <ele>-7.5999999046326</ele>
        <time>2022-09-22T07:46:17.000Z</time>
      </trkpt>
      <trkpt lat="47.32042" lon="-2.32183">
        <ele>-8</ele>
        <time>2022-09-22T07:46:18.000Z</time>
      </trkpt>
      <trkpt lat="47.3205" lon="-2.32183">
        <ele>-8.3999996185303</ele>
        <time>2022-09-22T07:46:19.000Z</time>
      </trkpt>
      <trkpt lat="47.32058" lon="-2.32183">
        <ele>-8.8000001907349</ele>
        <time>2022-09-22T07:46:20.000Z</time>
      </trkpt>
      <trkpt lat="47.32067" lon="-2.32183">
        <ele>-8.8000001907349</ele>
        <time>2022-09-22T07:46:21.000Z</time>
      </trkpt>
      <trkpt lat="47.32113" lon="-2.32179">
        <ele>-9.1999998092651</ele>
        <time>2022-09-22T07:46:27.000Z</time>
      </trkpt>
      <trkpt lat="47.3212" lon="-2.32177">
        <ele>-9.6000003814697</ele>
        <time>2022-09-22T07:46:28.000Z</time>
      </trkpt>
      <trkpt lat="47.32127" lon="-2.32173">
        <ele>-10</ele>
        <time>2022-09-22T07:46:29.000Z</time>
      </trkpt>
      <trkpt lat="47.32134" lon="-2.32169">
        <ele>-10.39999961853</ele>
        <time>2022-09-22T07:46:30.000Z</time>
      </trkpt>
      <trkpt lat="47.3214" lon="-2.32164">
        <ele>-10.800000190735</ele>
        <time>2022-09-22T07:46:31.000Z</time>
      </trkpt>
      <trkpt lat="47.32146" lon="-2.32158">
        <ele>-10.800000190735</ele>
        <time>2022-09-22T07:46:32.000Z</time>
      </trkpt>
      <trkpt lat="47.32151" lon="-2.32153">
        <ele>-10.800000190735</ele>
        <time>2022-09-22T07:46:33.000Z</time>
      </trkpt>
      <trkpt lat="47.32164" lon="-2.32143">
        <ele>-10.800000190735</ele>
        <time>2022-09-22T07:46:36.000Z</time>
      </trkpt>
      <trkpt lat="47.32182" lon="-2.32129">
        <ele>-10.800000190735</ele>
        <time>2022-09-22T07:46:41.000Z</time>
      </trkpt>
      <trkpt lat="47.32196" lon="-2.32118">
        <ele>-10.800000190735</ele>
        <time>2022-09-22T07:46:46.000Z</time>
      </trkpt>
      <trkpt lat="47.32218" lon="-2.32113">
        <ele>-10.800000190735</ele>
        <time>2022-09-22T07:46:51.000Z</time>
      </trkpt>
      <trkpt lat="47.32254" lon="-2.32105">
        <ele>-10.800000190735</ele>
        <time>2022-09-22T07:46:58.000Z</time>
      </trkpt>
      <trkpt lat="47.32271" lon="-2.32102">
        <ele>-10.800000190735</ele>
        <time>2022-09-22T07:47:01.000Z</time>
      </trkpt>
      <trkpt lat="47.32287" lon="-2.321">
        <ele>-10.800000190735</ele>
        <time>2022-09-22T07:47:04.000Z</time>
      </trkpt>
      <trkpt lat="47.32306" lon="-2.32099">
        <ele>-10.800000190735</ele>
        <time>2022-09-22T07:47:08.000Z</time>
      </trkpt>
      <trkpt lat="47.32314" lon="-2.32101">
        <ele>-10.800000190735</ele>
        <time>2022-09-22T07:47:10.000Z</time>
      </trkpt>
      <trkpt lat="47.32342" lon="-2.32106">
        <ele>-10.800000190735</ele>
        <time>2022-09-22T07:47:17.000Z</time>
      </trkpt>
      <trkpt lat="47.32355" lon="-2.32108">
        <ele>-10.800000190735</ele>
        <time>2022-09-22T07:47:21.000Z</time>
      </trkpt>
      <trkpt lat="47.32383" lon="-2.32107">
        <ele>-10.800000190735</ele>
        <time>2022-09-22T07:47:27.000Z</time>
      </trkpt>
      <trkpt lat="47.32422" lon="-2.32104">
        <ele>-10.800000190735</ele>
        <time>2022-09-22T07:47:34.000Z</time>
      </trkpt>
      <trkpt lat="47.32458" lon="-2.321">
        <ele>-10.800000190735</ele>
        <time>2022-09-22T07:47:40.000Z</time>
      </trkpt>
      <trkpt lat="47.32464" lon="-2.32099">
        <ele>-10.800000190735</ele>
        <time>2022-09-22T07:47:41.000Z</time>
      </trkpt>
      <trkpt lat="47.32489" lon="-2.32097">
        <ele>-10.800000190735</ele>
        <time>2022-09-22T07:47:46.000Z</time>
      </trkpt>
      <trkpt lat="47.32526" lon="-2.32096">
        <ele>-10.800000190735</ele>
        <time>2022-09-22T07:47:53.000Z</time>
      </trkpt>
      <trkpt lat="47.32545" lon="-2.32094">
        <ele>-10.800000190735</ele>
        <time>2022-09-22T07:47:57.000Z</time>
      </trkpt>
      <trkpt lat="47.32555" lon="-2.32094">
        <ele>-10.800000190735</ele>
        <time>2022-09-22T07:47:59.000Z</time>
      </trkpt>
      <trkpt lat="47.3257" lon="-2.32094">
        <ele>-10.800000190735</ele>
        <time>2022-09-22T07:48:02.000Z</time>
      </trkpt>
      <trkpt lat="47.32582" lon="-2.32094">
        <ele>-10.800000190735</ele>
        <time>2022-09-22T07:48:05.000Z</time>
      </trkpt>
      <trkpt lat="47.32591" lon="-2.321">
        <ele>-10.800000190735</ele>
        <time>2022-09-22T07:48:09.000Z</time>
      </trkpt>
      <trkpt lat="47.32591" lon="-2.32102">
        <ele>-10.800000190735</ele>
        <time>2022-09-22T07:48:10.000Z</time>
      </trkpt>
      <trkpt lat="47.32592" lon="-2.32112">
        <ele>-10.800000190735</ele>
        <time>2022-09-22T07:48:14.000Z</time>
      </trkpt>
      <trkpt lat="47.32588" lon="-2.32129">
        <ele>-10.800000190735</ele>
        <time>2022-09-22T07:48:18.000Z</time>
      </trkpt>
      <trkpt lat="47.32586" lon="-2.32134">
        <ele>-10.800000190735</ele>
        <time>2022-09-22T07:48:19.000Z</time>
      </trkpt>
      <trkpt lat="47.32581" lon="-2.32147">
        <ele>-11.199999809265</ele>
        <time>2022-09-22T07:48:21.000Z</time>
      </trkpt>
      <trkpt lat="47.32579" lon="-2.32154">
        <ele>-11.800000190735</ele>
        <time>2022-09-22T07:48:22.000Z</time>
      </trkpt>
      <trkpt lat="47.32576" lon="-2.32161">
        <ele>-12.199999809265</ele>
        <time>2022-09-22T07:48:23.000Z</time>
      </trkpt>
      <trkpt lat="47.32574" lon="-2.3217">
        <ele>-12.60000038147</ele>
        <time>2022-09-22T07:48:24.000Z</time>
      </trkpt>
      <trkpt lat="47.32572" lon="-2.32178">
        <ele>-13</ele>
        <time>2022-09-22T07:48:25.000Z</time>
      </trkpt>
      <trkpt lat="47.32564" lon="-2.32202">
        <ele>-13.39999961853</ele>
        <time>2022-09-22T07:48:28.000Z</time>
      </trkpt>
      <trkpt lat="47.32562" lon="-2.3221">
        <ele>-13.800000190735</ele>
        <time>2022-09-22T07:48:29.000Z</time>
      </trkpt>
      <trkpt lat="47.32559" lon="-2.32218">
        <ele>-14.199999809265</ele>
        <time>2022-09-22T07:48:30.000Z</time>
      </trkpt>
      <trkpt lat="47.32557" lon="-2.32226">
        <ele>-14.60000038147</ele>
        <time>2022-09-22T07:48:31.000Z</time>
      </trkpt>
      <trkpt lat="47.32555" lon="-2.32233">
        <ele>-15</ele>
        <time>2022-09-22T07:48:32.000Z</time>
      </trkpt>
      <trkpt lat="47.32547" lon="-2.32256">
        <ele>-15</ele>
        <time>2022-09-22T07:48:35.000Z</time>
      </trkpt>
      <trkpt lat="47.32541" lon="-2.32276">
        <ele>-15</ele>
        <time>2022-09-22T07:48:38.000Z</time>
      </trkpt>
      <trkpt lat="47.32539" lon="-2.32283">
        <ele>-14.60000038147</ele>
        <time>2022-09-22T07:48:39.000Z</time>
      </trkpt>
      <trkpt lat="47.32538" lon="-2.32289">
        <ele>-14.199999809265</ele>
        <time>2022-09-22T07:48:40.000Z</time>
      </trkpt>
      <trkpt lat="47.32536" lon="-2.32294">
        <ele>-13.39999961853</ele>
        <time>2022-09-22T07:48:41.000Z</time>
      </trkpt>
      <trkpt lat="47.32534" lon="-2.323">
        <ele>-12.800000190735</ele>
        <time>2022-09-22T07:48:42.000Z</time>
      </trkpt>
      <trkpt lat="47.32533" lon="-2.32305">
        <ele>-12.39999961853</ele>
        <time>2022-09-22T07:48:43.000Z</time>
      </trkpt>
      <trkpt lat="47.32534" lon="-2.3231">
        <ele>-12</ele>
        <time>2022-09-22T07:48:44.000Z</time>
      </trkpt>
      <trkpt lat="47.32536" lon="-2.32313">
        <ele>-11.60000038147</ele>
        <time>2022-09-22T07:48:45.000Z</time>
      </trkpt>
      <trkpt lat="47.3254" lon="-2.32314">
        <ele>-11.199999809265</ele>
        <time>2022-09-22T07:48:46.000Z</time>
      </trkpt>
      <trkpt lat="47.32545" lon="-2.32315">
        <ele>-10.60000038147</ele>
        <time>2022-09-22T07:48:47.000Z</time>
      </trkpt>
      <trkpt lat="47.32549" lon="-2.32315">
        <ele>-10.60000038147</ele>
        <time>2022-09-22T07:48:48.000Z</time>
      </trkpt>
      <trkpt lat="47.3256" lon="-2.32314">
        <ele>-10.60000038147</ele>
        <time>2022-09-22T07:48:50.000Z</time>
      </trkpt>
      <trkpt lat="47.32606" lon="-2.32308">
        <ele>-10.60000038147</ele>
        <time>2022-09-22T07:48:58.000Z</time>
      </trkpt>
      <trkpt lat="47.32645" lon="-2.32311">
        <ele>-10.60000038147</ele>
        <time>2022-09-22T07:49:05.000Z</time>
      </trkpt>
      <trkpt lat="47.32688" lon="-2.32321">
        <ele>-10.60000038147</ele>
        <time>2022-09-22T07:49:12.000Z</time>
      </trkpt>
      <trkpt lat="47.32714" lon="-2.32331">
        <ele>-10.60000038147</ele>
        <time>2022-09-22T07:49:16.000Z</time>
      </trkpt>
      <trkpt lat="47.3272" lon="-2.32335">
        <ele>-11</ele>
        <time>2022-09-22T07:49:17.000Z</time>
      </trkpt>
      <trkpt lat="47.32726" lon="-2.32338">
        <ele>-11.39999961853</ele>
        <time>2022-09-22T07:49:18.000Z</time>
      </trkpt>
      <trkpt lat="47.32732" lon="-2.32342">
        <ele>-11.800000190735</ele>
        <time>2022-09-22T07:49:19.000Z</time>
      </trkpt>
      <trkpt lat="47.32738" lon="-2.32346">
        <ele>-12.199999809265</ele>
        <time>2022-09-22T07:49:20.000Z</time>
      </trkpt>
      <trkpt lat="47.32744" lon="-2.32349">
        <ele>-12.60000038147</ele>
        <time>2022-09-22T07:49:21.000Z</time>
      </trkpt>
      <trkpt lat="47.32786" lon="-2.32375">
        <ele>-12.60000038147</ele>
        <time>2022-09-22T07:49:28.000Z</time>
      </trkpt>
      <trkpt lat="47.32801" lon="-2.32387">
        <ele>-12.60000038147</ele>
        <time>2022-09-22T07:49:31.000Z</time>
      </trkpt>
      <trkpt lat="47.32811" lon="-2.32398">
        <ele>-12.60000038147</ele>
        <time>2022-09-22T07:49:33.000Z</time>
      </trkpt>
      <trkpt lat="47.32853" lon="-2.32432">
        <ele>-12.60000038147</ele>
        <time>2022-09-22T07:49:41.000Z</time>
      </trkpt>
      <trkpt lat="47.32885" lon="-2.32452">
        <ele>-12.60000038147</ele>
        <time>2022-09-22T07:49:47.000Z</time>
      </trkpt>
      <trkpt lat="47.32889" lon="-2.32456">
        <ele>-12.60000038147</ele>
        <time>2022-09-22T07:49:48.000Z</time>
      </trkpt>
      <trkpt lat="47.32898" lon="-2.32473">
        <ele>-12.60000038147</ele>
        <time>2022-09-22T07:49:51.000Z</time>
      </trkpt>
      <trkpt lat="47.32901" lon="-2.3248">
        <ele>-12.60000038147</ele>
        <time>2022-09-22T07:49:52.000Z</time>
      </trkpt>
      <trkpt lat="47.32903" lon="-2.32489">
        <ele>-12.60000038147</ele>
        <time>2022-09-22T07:49:53.000Z</time>
      </trkpt>
      <trkpt lat="47.32911" lon="-2.32522">
        <ele>-12.60000038147</ele>
        <time>2022-09-22T07:49:57.000Z</time>
      </trkpt>
      <trkpt lat="47.32916" lon="-2.32556">
        <ele>-12.60000038147</ele>
        <time>2022-09-22T07:50:01.000Z</time>
      </trkpt>
      <trkpt lat="47.32916" lon="-2.32567">
        <ele>-12.60000038147</ele>
        <time>2022-09-22T07:50:02.000Z</time>
      </trkpt>
      <trkpt lat="47.32916" lon="-2.32612">
        <ele>-12.60000038147</ele>
        <time>2022-09-22T07:50:07.000Z</time>
      </trkpt>
      <trkpt lat="47.32916" lon="-2.32627">
        <ele>-12.60000038147</ele>
        <time>2022-09-22T07:50:09.000Z</time>
      </trkpt>
      <trkpt lat="47.32922" lon="-2.32639">
        <ele>-12.60000038147</ele>
        <time>2022-09-22T07:50:11.000Z</time>
      </trkpt>
      <trkpt lat="47.32932" lon="-2.32644">
        <ele>-13</ele>
        <time>2022-09-22T07:50:13.000Z</time>
      </trkpt>
      <trkpt lat="47.32938" lon="-2.32643">
        <ele>-13.39999961853</ele>
        <time>2022-09-22T07:50:14.000Z</time>
      </trkpt>
      <trkpt lat="47.32944" lon="-2.32642">
        <ele>-14</ele>
        <time>2022-09-22T07:50:15.000Z</time>
      </trkpt>
      <trkpt lat="47.3295" lon="-2.32641">
        <ele>-14.39999961853</ele>
        <time>2022-09-22T07:50:16.000Z</time>
      </trkpt>
      <trkpt lat="47.32955" lon="-2.3264">
        <ele>-14.800000190735</ele>
        <time>2022-09-22T07:50:17.000Z</time>
      </trkpt>
      <trkpt lat="47.32965" lon="-2.32638">
        <ele>-14.800000190735</ele>
        <time>2022-09-22T07:50:19.000Z</time>
      </trkpt>
      <trkpt lat="47.32974" lon="-2.32633">
        <ele>-14.800000190735</ele>
        <time>2022-09-22T07:50:21.000Z</time>
      </trkpt>
      <trkpt lat="47.32984" lon="-2.32625">
        <ele>-14.800000190735</ele>
        <time>2022-09-22T07:50:23.000Z</time>
      </trkpt>
      <trkpt lat="47.33001" lon="-2.32626">
        <ele>-14.800000190735</ele>
        <time>2022-09-22T07:50:26.000Z</time>
      </trkpt>
      <trkpt lat="47.33006" lon="-2.3263">
        <ele>-14.800000190735</ele>
        <time>2022-09-22T07:50:27.000Z</time>
      </trkpt>
      <trkpt lat="47.33012" lon="-2.32633">
        <ele>-14.800000190735</ele>
        <time>2022-09-22T07:50:28.000Z</time>
      </trkpt>
      <trkpt lat="47.33024" lon="-2.32635">
        <ele>-14.800000190735</ele>
        <time>2022-09-22T07:50:30.000Z</time>
      </trkpt>
      <trkpt lat="47.3303" lon="-2.32634">
        <ele>-15.199999809265</ele>
        <time>2022-09-22T07:50:31.000Z</time>
      </trkpt>
      <trkpt lat="47.33035" lon="-2.3263">
        <ele>-15.60000038147</ele>
        <time>2022-09-22T07:50:32.000Z</time>
      </trkpt>
      <trkpt lat="47.33041" lon="-2.32627">
        <ele>-16</ele>
        <time>2022-09-22T07:50:33.000Z</time>
      </trkpt>
      <trkpt lat="47.33045" lon="-2.32622">
        <ele>-16.39999961853</ele>
        <time>2022-09-22T07:50:34.000Z</time>
      </trkpt>
      <trkpt lat="47.3305" lon="-2.32618">
        <ele>-16.799999237061</ele>
        <time>2022-09-22T07:50:35.000Z</time>
      </trkpt>
      <trkpt lat="47.33059" lon="-2.32611">
        <ele>-16.799999237061</ele>
        <time>2022-09-22T07:50:37.000Z</time>
      </trkpt>
      <trkpt lat="47.33067" lon="-2.32603">
        <ele>-16.799999237061</ele>
        <time>2022-09-22T07:50:39.000Z</time>
      </trkpt>
      <trkpt lat="47.33084" lon="-2.3259">
        <ele>-16.39999961853</ele>
        <time>2022-09-22T07:50:43.000Z</time>
      </trkpt>
      <trkpt lat="47.33088" lon="-2.32586">
        <ele>-15.800000190735</ele>
        <time>2022-09-22T07:50:44.000Z</time>
      </trkpt>
      <trkpt lat="47.33093" lon="-2.32582">
        <ele>-15</ele>
        <time>2022-09-22T07:50:45.000Z</time>
      </trkpt>
      <trkpt lat="47.33097" lon="-2.32579">
        <ele>-14.60000038147</ele>
        <time>2022-09-22T07:50:46.000Z</time>
      </trkpt>
      <trkpt lat="47.33111" lon="-2.32567">
        <ele>-14.60000038147</ele>
        <time>2022-09-22T07:50:49.000Z</time>
      </trkpt>
      <trkpt lat="47.3312" lon="-2.3256">
        <ele>-14.60000038147</ele>
        <time>2022-09-22T07:50:51.000Z</time>
      </trkpt>
      <trkpt lat="47.3315" lon="-2.32537">
        <ele>-14.60000038147</ele>
        <time>2022-09-22T07:50:58.000Z</time>
      </trkpt>
      <trkpt lat="47.33169" lon="-2.32523">
        <ele>-14.199999809265</ele>
        <time>2022-09-22T07:51:02.000Z</time>
      </trkpt>
      <trkpt lat="47.33174" lon="-2.32521">
        <ele>-13.800000190735</ele>
        <time>2022-09-22T07:51:03.000Z</time>
      </trkpt>
      <trkpt lat="47.33179" lon="-2.32519">
        <ele>-13.39999961853</ele>
        <time>2022-09-22T07:51:04.000Z</time>
      </trkpt>
      <trkpt lat="47.33185" lon="-2.32516">
        <ele>-13</ele>
        <time>2022-09-22T07:51:05.000Z</time>
      </trkpt>
      <trkpt lat="47.3319" lon="-2.32514">
        <ele>-12.60000038147</ele>
        <time>2022-09-22T07:51:06.000Z</time>
      </trkpt>
      <trkpt lat="47.33217" lon="-2.32503">
        <ele>-12.60000038147</ele>
        <time>2022-09-22T07:51:11.000Z</time>
      </trkpt>
      <trkpt lat="47.3325" lon="-2.32489">
        <ele>-12.60000038147</ele>
        <time>2022-09-22T07:51:17.000Z</time>
      </trkpt>
      <trkpt lat="47.33282" lon="-2.32475">
        <ele>-12.60000038147</ele>
        <time>2022-09-22T07:51:23.000Z</time>
      </trkpt>
      <trkpt lat="47.33314" lon="-2.3246">
        <ele>-12.60000038147</ele>
        <time>2022-09-22T07:51:29.000Z</time>
      </trkpt>
      <trkpt lat="47.33319" lon="-2.32458">
        <ele>-12.60000038147</ele>
        <time>2022-09-22T07:51:30.000Z</time>
      </trkpt>
      <trkpt lat="47.33334" lon="-2.32449">
        <ele>-12.60000038147</ele>
        <time>2022-09-22T07:51:33.000Z</time>
      </trkpt>
      <trkpt lat="47.33337" lon="-2.32444">
        <ele>-12.60000038147</ele>
        <time>2022-09-22T07:51:34.000Z</time>
      </trkpt>
      <trkpt lat="47.33358" lon="-2.32414">
        <ele>-12.60000038147</ele>
        <time>2022-09-22T07:51:39.000Z</time>
      </trkpt>
      <trkpt lat="47.33385" lon="-2.32391">
        <ele>-12.60000038147</ele>
        <time>2022-09-22T07:51:44.000Z</time>
      </trkpt>
      <trkpt lat="47.3342" lon="-2.32362">
        <ele>-12.60000038147</ele>
        <time>2022-09-22T07:51:50.000Z</time>
      </trkpt>
      <trkpt lat="47.33443" lon="-2.32344">
        <ele>-13</ele>
        <time>2022-09-22T07:51:54.000Z</time>
      </trkpt>
      <trkpt lat="47.33449" lon="-2.3234">
        <ele>-13.39999961853</ele>
        <time>2022-09-22T07:51:55.000Z</time>
      </trkpt>
      <trkpt lat="47.33455" lon="-2.32336">
        <ele>-13.800000190735</ele>
        <time>2022-09-22T07:51:56.000Z</time>
      </trkpt>
      <trkpt lat="47.33462" lon="-2.32333">
        <ele>-14.199999809265</ele>
        <time>2022-09-22T07:51:57.000Z</time>
      </trkpt>
      <trkpt lat="47.33468" lon="-2.3233">
        <ele>-14.60000038147</ele>
        <time>2022-09-22T07:51:58.000Z</time>
      </trkpt>
      <trkpt lat="47.33494" lon="-2.32318">
        <ele>-14.60000038147</ele>
        <time>2022-09-22T07:52:02.000Z</time>
      </trkpt>
      <trkpt lat="47.33522" lon="-2.32304">
        <ele>-14.60000038147</ele>
        <time>2022-09-22T07:52:07.000Z</time>
      </trkpt>
      <trkpt lat="47.33527" lon="-2.32304">
        <ele>-14.60000038147</ele>
        <time>2022-09-22T07:52:08.000Z</time>
      </trkpt>
      <trkpt lat="47.33544" lon="-2.32304">
        <ele>-14.60000038147</ele>
        <time>2022-09-22T07:52:11.000Z</time>
      </trkpt>
      <trkpt lat="47.33555" lon="-2.32301">
        <ele>-14.60000038147</ele>
        <time>2022-09-22T07:52:13.000Z</time>
      </trkpt>
      <trkpt lat="47.33578" lon="-2.32294">
        <ele>-14.199999809265</ele>
        <time>2022-09-22T07:52:17.000Z</time>
      </trkpt>
      <trkpt lat="47.33583" lon="-2.32293">
        <ele>-13.800000190735</ele>
        <time>2022-09-22T07:52:18.000Z</time>
      </trkpt>
      <trkpt lat="47.33589" lon="-2.32292">
        <ele>-13.39999961853</ele>
        <time>2022-09-22T07:52:19.000Z</time>
      </trkpt>
      <trkpt lat="47.33594" lon="-2.32291">
        <ele>-13</ele>
        <time>2022-09-22T07:52:20.000Z</time>
      </trkpt>
      <trkpt lat="47.336" lon="-2.3229">
        <ele>-12.60000038147</ele>
        <time>2022-09-22T07:52:21.000Z</time>
      </trkpt>
      <trkpt lat="47.33633" lon="-2.32284">
        <ele>-12.60000038147</ele>
        <time>2022-09-22T07:52:27.000Z</time>
      </trkpt>
      <trkpt lat="47.33667" lon="-2.32271">
        <ele>-12.60000038147</ele>
        <time>2022-09-22T07:52:33.000Z</time>
      </trkpt>
      <trkpt lat="47.33698" lon="-2.32253">
        <ele>-12.60000038147</ele>
        <time>2022-09-22T07:52:39.000Z</time>
      </trkpt>
      <trkpt lat="47.33726" lon="-2.32235">
        <ele>-12.60000038147</ele>
        <time>2022-09-22T07:52:44.000Z</time>
      </trkpt>
      <trkpt lat="47.33766" lon="-2.32217">
        <ele>-12.60000038147</ele>
        <time>2022-09-22T07:52:51.000Z</time>
      </trkpt>
      <trkpt lat="47.33777" lon="-2.32213">
        <ele>-12.60000038147</ele>
        <time>2022-09-22T07:52:53.000Z</time>
      </trkpt>
      <trkpt lat="47.33794" lon="-2.3221">
        <ele>-12.60000038147</ele>
        <time>2022-09-22T07:52:56.000Z</time>
      </trkpt>
      <trkpt lat="47.33827" lon="-2.32203">
        <ele>-12.60000038147</ele>
        <time>2022-09-22T07:53:02.000Z</time>
      </trkpt>
      <trkpt lat="47.33833" lon="-2.32203">
        <ele>-12.60000038147</ele>
        <time>2022-09-22T07:53:03.000Z</time>
      </trkpt>
      <trkpt lat="47.33856" lon="-2.322">
        <ele>-12.60000038147</ele>
        <time>2022-09-22T07:53:07.000Z</time>
      </trkpt>
      <trkpt lat="47.33883" lon="-2.32199">
        <ele>-13</ele>
        <time>2022-09-22T07:53:11.000Z</time>
      </trkpt>
      <trkpt lat="47.33889" lon="-2.32199">
        <ele>-13.39999961853</ele>
        <time>2022-09-22T07:53:12.000Z</time>
      </trkpt>
      <trkpt lat="47.33896" lon="-2.32199">
        <ele>-14.199999809265</ele>
        <time>2022-09-22T07:53:13.000Z</time>
      </trkpt>
      <trkpt lat="47.33901" lon="-2.32199">
        <ele>-14.60000038147</ele>
        <time>2022-09-22T07:53:14.000Z</time>
      </trkpt>
      <trkpt lat="47.33922" lon="-2.32198">
        <ele>-14.60000038147</ele>
        <time>2022-09-22T07:53:18.000Z</time>
      </trkpt>
      <trkpt lat="47.33942" lon="-2.3221">
        <ele>-14.60000038147</ele>
        <time>2022-09-22T07:53:22.000Z</time>
      </trkpt>
      <trkpt lat="47.33967" lon="-2.32216">
        <ele>-14.60000038147</ele>
        <time>2022-09-22T07:53:26.000Z</time>
      </trkpt>
      <trkpt lat="47.34012" lon="-2.32217">
        <ele>-14.60000038147</ele>
        <time>2022-09-22T07:53:33.000Z</time>
      </trkpt>
      <trkpt lat="47.34059" lon="-2.32222">
        <ele>-14.60000038147</ele>
        <time>2022-09-22T07:53:40.000Z</time>
      </trkpt>
      <trkpt lat="47.34075" lon="-2.32235">
        <ele>-14.60000038147</ele>
        <time>2022-09-22T07:53:43.000Z</time>
      </trkpt>
      <trkpt lat="47.34088" lon="-2.32263">
        <ele>-14.60000038147</ele>
        <time>2022-09-22T07:53:47.000Z</time>
      </trkpt>
      <trkpt lat="47.34091" lon="-2.32271">
        <ele>-14.199999809265</ele>
        <time>2022-09-22T07:53:48.000Z</time>
      </trkpt>
      <trkpt lat="47.34093" lon="-2.32279">
        <ele>-13.800000190735</ele>
        <time>2022-09-22T07:53:49.000Z</time>
      </trkpt>
      <trkpt lat="47.34095" lon="-2.32287">
        <ele>-13.39999961853</ele>
        <time>2022-09-22T07:53:50.000Z</time>
      </trkpt>
      <trkpt lat="47.34097" lon="-2.32294">
        <ele>-13</ele>
        <time>2022-09-22T07:53:51.000Z</time>
      </trkpt>
      <trkpt lat="47.34099" lon="-2.32302">
        <ele>-12.60000038147</ele>
        <time>2022-09-22T07:53:52.000Z</time>
      </trkpt>
      <trkpt lat="47.34105" lon="-2.32326">
        <ele>-12.60000038147</ele>
        <time>2022-09-22T07:53:55.000Z</time>
      </trkpt>
      <trkpt lat="47.34109" lon="-2.3234">
        <ele>-12.199999809265</ele>
        <time>2022-09-22T07:53:57.000Z</time>
      </trkpt>
      <trkpt lat="47.34111" lon="-2.32347">
        <ele>-11.60000038147</ele>
        <time>2022-09-22T07:53:58.000Z</time>
      </trkpt>
      <trkpt lat="47.34113" lon="-2.32354">
        <ele>-11.199999809265</ele>
        <time>2022-09-22T07:53:59.000Z</time>
      </trkpt>
      <trkpt lat="47.34115" lon="-2.32361">
        <ele>-10.800000190735</ele>
        <time>2022-09-22T07:54:00.000Z</time>
      </trkpt>
      <trkpt lat="47.34117" lon="-2.32368">
        <ele>-10.39999961853</ele>
        <time>2022-09-22T07:54:01.000Z</time>
      </trkpt>
      <trkpt lat="47.34125" lon="-2.32397">
        <ele>-10.39999961853</ele>
        <time>2022-09-22T07:54:05.000Z</time>
      </trkpt>
      <trkpt lat="47.34129" lon="-2.32412">
        <ele>-10.39999961853</ele>
        <time>2022-09-22T07:54:07.000Z</time>
      </trkpt>
      <trkpt lat="47.34142" lon="-2.32457">
        <ele>-10.39999961853</ele>
        <time>2022-09-22T07:54:13.000Z</time>
      </trkpt>
      <trkpt lat="47.3415" lon="-2.32496">
        <ele>-10.39999961853</ele>
        <time>2022-09-22T07:54:18.000Z</time>
      </trkpt>
      <trkpt lat="47.34151" lon="-2.32504">
        <ele>-10.39999961853</ele>
        <time>2022-09-22T07:54:19.000Z</time>
      </trkpt>
      <trkpt lat="47.34154" lon="-2.32545">
        <ele>-10.39999961853</ele>
        <time>2022-09-22T07:54:25.000Z</time>
      </trkpt>
      <trkpt lat="47.34154" lon="-2.32551">
        <ele>-10</ele>
        <time>2022-09-22T07:54:26.000Z</time>
      </trkpt>
      <trkpt lat="47.34155" lon="-2.32557">
        <ele>-9.1999998092651</ele>
        <time>2022-09-22T07:54:27.000Z</time>
      </trkpt>
      <trkpt lat="47.34155" lon="-2.32563">
        <ele>-8.8000001907349</ele>
        <time>2022-09-22T07:54:28.000Z</time>
      </trkpt>
      <trkpt lat="47.34155" lon="-2.32569">
        <ele>-8.3999996185303</ele>
        <time>2022-09-22T07:54:29.000Z</time>
      </trkpt>
      <trkpt lat="47.34152" lon="-2.32585">
        <ele>-8.3999996185303</ele>
        <time>2022-09-22T07:54:32.000Z</time>
      </trkpt>
      <trkpt lat="47.34151" lon="-2.32598">
        <ele>-8.3999996185303</ele>
        <time>2022-09-22T07:54:34.000Z</time>
      </trkpt>
      <trkpt lat="47.34152" lon="-2.32619">
        <ele>-8.3999996185303</ele>
        <time>2022-09-22T07:54:37.000Z</time>
      </trkpt>
      <trkpt lat="47.34156" lon="-2.32664">
        <ele>-8.3999996185303</ele>
        <time>2022-09-22T07:54:43.000Z</time>
      </trkpt>
      <trkpt lat="47.3416" lon="-2.32725">
        <ele>-8.3999996185303</ele>
        <time>2022-09-22T07:54:51.000Z</time>
      </trkpt>
      <trkpt lat="47.34163" lon="-2.32759">
        <ele>-8.3999996185303</ele>
        <time>2022-09-22T07:54:56.000Z</time>
      </trkpt>
      <trkpt lat="47.34168" lon="-2.32787">
        <ele>-8.3999996185303</ele>
        <time>2022-09-22T07:55:01.000Z</time>
      </trkpt>
      <trkpt lat="47.34173" lon="-2.32806">
        <ele>-8.3999996185303</ele>
        <time>2022-09-22T07:55:05.000Z</time>
      </trkpt>
      <trkpt lat="47.34185" lon="-2.32834">
        <ele>-8.3999996185303</ele>
        <time>2022-09-22T07:55:11.000Z</time>
      </trkpt>
      <trkpt lat="47.34187" lon="-2.32839">
        <ele>-8.8000001907349</ele>
        <time>2022-09-22T07:55:12.000Z</time>
      </trkpt>
      <trkpt lat="47.34189" lon="-2.32843">
        <ele>-9.1999998092651</ele>
        <time>2022-09-22T07:55:13.000Z</time>
      </trkpt>
      <trkpt lat="47.34191" lon="-2.32848">
        <ele>-9.6000003814697</ele>
        <time>2022-09-22T07:55:14.000Z</time>
      </trkpt>
      <trkpt lat="47.34193" lon="-2.32852">
        <ele>-10</ele>
        <time>2022-09-22T07:55:15.000Z</time>
      </trkpt>
      <trkpt lat="47.34195" lon="-2.32857">
        <ele>-10.39999961853</ele>
        <time>2022-09-22T07:55:16.000Z</time>
      </trkpt>
      <trkpt lat="47.34204" lon="-2.32878">
        <ele>-10.39999961853</ele>
        <time>2022-09-22T07:55:20.000Z</time>
      </trkpt>
      <trkpt lat="47.34208" lon="-2.32887">
        <ele>-10.800000190735</ele>
        <time>2022-09-22T07:55:22.000Z</time>
      </trkpt>
      <trkpt lat="47.3421" lon="-2.32891">
        <ele>-11.199999809265</ele>
        <time>2022-09-22T07:55:23.000Z</time>
      </trkpt>
      <trkpt lat="47.34212" lon="-2.32894">
        <ele>-11.60000038147</ele>
        <time>2022-09-22T07:55:24.000Z</time>
      </trkpt>
      <trkpt lat="47.34214" lon="-2.32897">
        <ele>-12</ele>
        <time>2022-09-22T07:55:25.000Z</time>
      </trkpt>
      <trkpt lat="47.34216" lon="-2.329">
        <ele>-12.39999961853</ele>
        <time>2022-09-22T07:55:26.000Z</time>
      </trkpt>
      <trkpt lat="47.34227" lon="-2.32917">
        <ele>-12.39999961853</ele>
        <time>2022-09-22T07:55:30.000Z</time>
      </trkpt>
      <trkpt lat="47.34231" lon="-2.32923">
        <ele>-12.800000190735</ele>
        <time>2022-09-22T07:55:31.000Z</time>
      </trkpt>
      <trkpt lat="47.34234" lon="-2.3293">
        <ele>-13.199999809265</ele>
        <time>2022-09-22T07:55:32.000Z</time>
      </trkpt>
      <trkpt lat="47.34236" lon="-2.32936">
        <ele>-13.800000190735</ele>
        <time>2022-09-22T07:55:33.000Z</time>
      </trkpt>
      <trkpt lat="47.34239" lon="-2.32943">
        <ele>-14.199999809265</ele>
        <time>2022-09-22T07:55:34.000Z</time>
      </trkpt>
      <trkpt lat="47.34242" lon="-2.32949">
        <ele>-14.60000038147</ele>
        <time>2022-09-22T07:55:35.000Z</time>
      </trkpt>
      <trkpt lat="47.34261" lon="-2.32984">
        <ele>-14.60000038147</ele>
        <time>2022-09-22T07:55:41.000Z</time>
      </trkpt>
      <trkpt lat="47.3428" lon="-2.33024">
        <ele>-14.60000038147</ele>
        <time>2022-09-22T07:55:47.000Z</time>
      </trkpt>
      <trkpt lat="47.34284" lon="-2.33039">
        <ele>-15</ele>
        <time>2022-09-22T07:55:50.000Z</time>
      </trkpt>
      <trkpt lat="47.34285" lon="-2.33043">
        <ele>-15.39999961853</ele>
        <time>2022-09-22T07:55:51.000Z</time>
      </trkpt>
      <trkpt lat="47.34286" lon="-2.33046">
        <ele>-15.800000190735</ele>
        <time>2022-09-22T07:55:52.000Z</time>
      </trkpt>
      <trkpt lat="47.34286" lon="-2.33048">
        <ele>-16.200000762939</ele>
        <time>2022-09-22T07:55:53.000Z</time>
      </trkpt>
      <trkpt lat="47.34284" lon="-2.33052">
        <ele>-16.60000038147</ele>
        <time>2022-09-22T07:55:54.000Z</time>
      </trkpt>
      <trkpt lat="47.34279" lon="-2.33059">
        <ele>-16.60000038147</ele>
        <time>2022-09-22T07:55:56.000Z</time>
      </trkpt>
      <trkpt lat="47.34265" lon="-2.33072">
        <ele>-16.60000038147</ele>
        <time>2022-09-22T07:56:00.000Z</time>
      </trkpt>
      <trkpt lat="47.34262" lon="-2.33078">
        <ele>-16.60000038147</ele>
        <time>2022-09-22T07:56:01.000Z</time>
      </trkpt>
      <trkpt lat="47.34253" lon="-2.33102">
        <ele>-16.60000038147</ele>
        <time>2022-09-22T07:56:05.000Z</time>
      </trkpt>
      <trkpt lat="47.34252" lon="-2.33107">
        <ele>-16.60000038147</ele>
        <time>2022-09-22T07:56:06.000Z</time>
      </trkpt>
      <trkpt lat="47.34244" lon="-2.33135">
        <ele>-16.60000038147</ele>
        <time>2022-09-22T07:56:10.000Z</time>
      </trkpt>
      <trkpt lat="47.34242" lon="-2.33142">
        <ele>-16.60000038147</ele>
        <time>2022-09-22T07:56:11.000Z</time>
      </trkpt>
      <trkpt lat="47.3424" lon="-2.3315">
        <ele>-16.60000038147</ele>
        <time>2022-09-22T07:56:12.000Z</time>
      </trkpt>
      <trkpt lat="47.34231" lon="-2.3318">
        <ele>-16.60000038147</ele>
        <time>2022-09-22T07:56:16.000Z</time>
      </trkpt>
      <trkpt lat="47.34227" lon="-2.33195">
        <ele>-16.60000038147</ele>
        <time>2022-09-22T07:56:18.000Z</time>
      </trkpt>
      <trkpt lat="47.34222" lon="-2.33209">
        <ele>-16.60000038147</ele>
        <time>2022-09-22T07:56:20.000Z</time>
      </trkpt>
      <trkpt lat="47.3422" lon="-2.33216">
        <ele>-16.200000762939</ele>
        <time>2022-09-22T07:56:21.000Z</time>
      </trkpt>
      <trkpt lat="47.34217" lon="-2.33223">
        <ele>-15.800000190735</ele>
        <time>2022-09-22T07:56:22.000Z</time>
      </trkpt>
      <trkpt lat="47.34214" lon="-2.3323">
        <ele>-15.39999961853</ele>
        <time>2022-09-22T07:56:23.000Z</time>
      </trkpt>
      <trkpt lat="47.34212" lon="-2.33237">
        <ele>-15</ele>
        <time>2022-09-22T07:56:24.000Z</time>
      </trkpt>
      <trkpt lat="47.3421" lon="-2.33244">
        <ele>-14.60000038147</ele>
        <time>2022-09-22T07:56:25.000Z</time>
      </trkpt>
      <trkpt lat="47.34199" lon="-2.3328">
        <ele>-14.60000038147</ele>
        <time>2022-09-22T07:56:30.000Z</time>
      </trkpt>
      <trkpt lat="47.34189" lon="-2.33309">
        <ele>-14.60000038147</ele>
        <time>2022-09-22T07:56:34.000Z</time>
      </trkpt>
      <trkpt lat="47.34187" lon="-2.33316">
        <ele>-14.60000038147</ele>
        <time>2022-09-22T07:56:35.000Z</time>
      </trkpt>
      <trkpt lat="47.34173" lon="-2.33361">
        <ele>-14.60000038147</ele>
        <time>2022-09-22T07:56:42.000Z</time>
      </trkpt>
      <trkpt lat="47.34163" lon="-2.33391">
        <ele>-14.199999809265</ele>
        <time>2022-09-22T07:56:47.000Z</time>
      </trkpt>
      <trkpt lat="47.3416" lon="-2.33397">
        <ele>-13.800000190735</ele>
        <time>2022-09-22T07:56:48.000Z</time>
      </trkpt>
      <trkpt lat="47.34157" lon="-2.33404">
        <ele>-13.199999809265</ele>
        <time>2022-09-22T07:56:49.000Z</time>
      </trkpt>
      <trkpt lat="47.34154" lon="-2.33409">
        <ele>-12.800000190735</ele>
        <time>2022-09-22T07:56:50.000Z</time>
      </trkpt>
      <trkpt lat="47.3415" lon="-2.33414">
        <ele>-12.39999961853</ele>
        <time>2022-09-22T07:56:51.000Z</time>
      </trkpt>
      <trkpt lat="47.34143" lon="-2.33424">
        <ele>-12.39999961853</ele>
        <time>2022-09-22T07:56:53.000Z</time>
      </trkpt>
      <trkpt lat="47.3414" lon="-2.33429">
        <ele>-12.39999961853</ele>
        <time>2022-09-22T07:56:54.000Z</time>
      </trkpt>
      <trkpt lat="47.34126" lon="-2.33449">
        <ele>-12.39999961853</ele>
        <time>2022-09-22T07:56:59.000Z</time>
      </trkpt>
      <trkpt lat="47.3411" lon="-2.33474">
        <ele>-12.39999961853</ele>
        <time>2022-09-22T07:57:06.000Z</time>
      </trkpt>
      <trkpt lat="47.34096" lon="-2.33493">
        <ele>-12.39999961853</ele>
        <time>2022-09-22T07:57:11.000Z</time>
      </trkpt>
      <trkpt lat="47.34093" lon="-2.33498">
        <ele>-12.39999961853</ele>
        <time>2022-09-22T07:57:12.000Z</time>
      </trkpt>
      <trkpt lat="47.34084" lon="-2.33512">
        <ele>-12.39999961853</ele>
        <time>2022-09-22T07:57:15.000Z</time>
      </trkpt>
      <trkpt lat="47.34081" lon="-2.33518">
        <ele>-12.39999961853</ele>
        <time>2022-09-22T07:57:16.000Z</time>
      </trkpt>
      <trkpt lat="47.34075" lon="-2.33529">
        <ele>-12</ele>
        <time>2022-09-22T07:57:18.000Z</time>
      </trkpt>
      <trkpt lat="47.34071" lon="-2.33535">
        <ele>-11.60000038147</ele>
        <time>2022-09-22T07:57:19.000Z</time>
      </trkpt>
      <trkpt lat="47.34068" lon="-2.33541">
        <ele>-11.199999809265</ele>
        <time>2022-09-22T07:57:20.000Z</time>
      </trkpt>
      <trkpt lat="47.34064" lon="-2.33548">
        <ele>-10.39999961853</ele>
        <time>2022-09-22T07:57:21.000Z</time>
      </trkpt>
      <trkpt lat="47.3404" lon="-2.33589">
        <ele>-10.39999961853</ele>
        <time>2022-09-22T07:57:28.000Z</time>
      </trkpt>
      <trkpt lat="47.34029" lon="-2.33608">
        <ele>-10.39999961853</ele>
        <time>2022-09-22T07:57:31.000Z</time>
      </trkpt>
      <trkpt lat="47.34022" lon="-2.33621">
        <ele>-10.39999961853</ele>
        <time>2022-09-22T07:57:33.000Z</time>
      </trkpt>
      <trkpt lat="47.33999" lon="-2.33665">
        <ele>-10.39999961853</ele>
        <time>2022-09-22T07:57:40.000Z</time>
      </trkpt>
      <trkpt lat="47.33979" lon="-2.33699">
        <ele>-10.39999961853</ele>
        <time>2022-09-22T07:57:46.000Z</time>
      </trkpt>
      <trkpt lat="47.33972" lon="-2.33711">
        <ele>-10</ele>
        <time>2022-09-22T07:57:48.000Z</time>
      </trkpt>
      <trkpt lat="47.33968" lon="-2.33717">
        <ele>-9.6000003814697</ele>
        <time>2022-09-22T07:57:49.000Z</time>
      </trkpt>
      <trkpt lat="47.33965" lon="-2.33724">
        <ele>-9.1999998092651</ele>
        <time>2022-09-22T07:57:50.000Z</time>
      </trkpt>
      <trkpt lat="47.33961" lon="-2.33731">
        <ele>-8.8000001907349</ele>
        <time>2022-09-22T07:57:51.000Z</time>
      </trkpt>
      <trkpt lat="47.33957" lon="-2.33737">
        <ele>-8.3999996185303</ele>
        <time>2022-09-22T07:57:52.000Z</time>
      </trkpt>
      <trkpt lat="47.33938" lon="-2.33771">
        <ele>-8.3999996185303</ele>
        <time>2022-09-22T07:57:57.000Z</time>
      </trkpt>
      <trkpt lat="47.33927" lon="-2.3379">
        <ele>-8.3999996185303</ele>
        <time>2022-09-22T07:58:00.000Z</time>
      </trkpt>
      <trkpt lat="47.33921" lon="-2.33802">
        <ele>-8.3999996185303</ele>
        <time>2022-09-22T07:58:02.000Z</time>
      </trkpt>
      <trkpt lat="47.33905" lon="-2.33831">
        <ele>-8.3999996185303</ele>
        <time>2022-09-22T07:58:08.000Z</time>
      </trkpt>
      <trkpt lat="47.33894" lon="-2.33847">
        <ele>-8.3999996185303</ele>
        <time>2022-09-22T07:58:12.000Z</time>
      </trkpt>
      <trkpt lat="47.3388" lon="-2.33867">
        <ele>-8.3999996185303</ele>
        <time>2022-09-22T07:58:18.000Z</time>
      </trkpt>
      <trkpt lat="47.33876" lon="-2.33874">
        <ele>-7.8000001907349</ele>
        <time>2022-09-22T07:58:20.000Z</time>
      </trkpt>
      <trkpt lat="47.33873" lon="-2.33877">
        <ele>-7.4000000953674</ele>
        <time>2022-09-22T07:58:21.000Z</time>
      </trkpt>
      <trkpt lat="47.33871" lon="-2.33881">
        <ele>-7</ele>
        <time>2022-09-22T07:58:22.000Z</time>
      </trkpt>
      <trkpt lat="47.33867" lon="-2.33884">
        <ele>-6.5999999046326</ele>
        <time>2022-09-22T07:58:23.000Z</time>
      </trkpt>
      <trkpt lat="47.33863" lon="-2.33887">
        <ele>-6.1999998092651</ele>
        <time>2022-09-22T07:58:24.000Z</time>
      </trkpt>
      <trkpt lat="47.33859" lon="-2.3389">
        <ele>-6.1999998092651</ele>
        <time>2022-09-22T07:58:25.000Z</time>
      </trkpt>
      <trkpt lat="47.33843" lon="-2.33905">
        <ele>-6.1999998092651</ele>
        <time>2022-09-22T07:58:29.000Z</time>
      </trkpt>
      <trkpt lat="47.33839" lon="-2.3391">
        <ele>-6.1999998092651</ele>
        <time>2022-09-22T07:58:30.000Z</time>
      </trkpt>
      <trkpt lat="47.3382" lon="-2.33926">
        <ele>-6.1999998092651</ele>
        <time>2022-09-22T07:58:34.000Z</time>
      </trkpt>
      <trkpt lat="47.3379" lon="-2.33949">
        <ele>-6.1999998092651</ele>
        <time>2022-09-22T07:58:40.000Z</time>
      </trkpt>
      <trkpt lat="47.33779" lon="-2.33957">
        <ele>-6.1999998092651</ele>
        <time>2022-09-22T07:58:42.000Z</time>
      </trkpt>
      <trkpt lat="47.33769" lon="-2.33965">
        <ele>-5.8000001907349</ele>
        <time>2022-09-22T07:58:44.000Z</time>
      </trkpt>
      <trkpt lat="47.33764" lon="-2.33969">
        <ele>-5.4000000953674</ele>
        <time>2022-09-22T07:58:45.000Z</time>
      </trkpt>
      <trkpt lat="47.33759" lon="-2.33973">
        <ele>-5</ele>
        <time>2022-09-22T07:58:46.000Z</time>
      </trkpt>
      <trkpt lat="47.33753" lon="-2.33977">
        <ele>-4.5999999046326</ele>
        <time>2022-09-22T07:58:47.000Z</time>
      </trkpt>
      <trkpt lat="47.33748" lon="-2.33981">
        <ele>-4.1999998092651</ele>
        <time>2022-09-22T07:58:48.000Z</time>
      </trkpt>
      <trkpt lat="47.33717" lon="-2.34006">
        <ele>-4.1999998092651</ele>
        <time>2022-09-22T07:58:54.000Z</time>
      </trkpt>
      <trkpt lat="47.33687" lon="-2.34032">
        <ele>-4.1999998092651</ele>
        <time>2022-09-22T07:59:00.000Z</time>
      </trkpt>
      <trkpt lat="47.33662" lon="-2.34052">
        <ele>-4.1999998092651</ele>
        <time>2022-09-22T07:59:05.000Z</time>
      </trkpt>
      <trkpt lat="47.33652" lon="-2.34062">
        <ele>-4.1999998092651</ele>
        <time>2022-09-22T07:59:07.000Z</time>
      </trkpt>
      <trkpt lat="47.33632" lon="-2.34081">
        <ele>-4.1999998092651</ele>
        <time>2022-09-22T07:59:11.000Z</time>
      </trkpt>
      <trkpt lat="47.33628" lon="-2.34086">
        <ele>-4.1999998092651</ele>
        <time>2022-09-22T07:59:12.000Z</time>
      </trkpt>
      <trkpt lat="47.33613" lon="-2.34097">
        <ele>-3.7999999523163</ele>
        <time>2022-09-22T07:59:15.000Z</time>
      </trkpt>
      <trkpt lat="47.33608" lon="-2.34101">
        <ele>-3.4000000953674</ele>
        <time>2022-09-22T07:59:16.000Z</time>
      </trkpt>
      <trkpt lat="47.33602" lon="-2.34105">
        <ele>-3</ele>
        <time>2022-09-22T07:59:17.000Z</time>
      </trkpt>
      <trkpt lat="47.33597" lon="-2.34109">
        <ele>-2.5999999046326</ele>
        <time>2022-09-22T07:59:18.000Z</time>
      </trkpt>
      <trkpt lat="47.33592" lon="-2.34113">
        <ele>-2.2000000476837</ele>
        <time>2022-09-22T07:59:19.000Z</time>
      </trkpt>
      <trkpt lat="47.33558" lon="-2.34137">
        <ele>-2.2000000476837</ele>
        <time>2022-09-22T07:59:25.000Z</time>
      </trkpt>
      <trkpt lat="47.33521" lon="-2.34164">
        <ele>-2.2000000476837</ele>
        <time>2022-09-22T07:59:32.000Z</time>
      </trkpt>
      <trkpt lat="47.3349" lon="-2.34187">
        <ele>-2.2000000476837</ele>
        <time>2022-09-22T07:59:38.000Z</time>
      </trkpt>
      <trkpt lat="47.33454" lon="-2.34224">
        <ele>-2.2000000476837</ele>
        <time>2022-09-22T07:59:45.000Z</time>
      </trkpt>
      <trkpt lat="47.33438" lon="-2.34249">
        <ele>-2.2000000476837</ele>
        <time>2022-09-22T07:59:49.000Z</time>
      </trkpt>
      <trkpt lat="47.33434" lon="-2.34256">
        <ele>-2.2000000476837</ele>
        <time>2022-09-22T07:59:50.000Z</time>
      </trkpt>
      <trkpt lat="47.33431" lon="-2.34263">
        <ele>-2.2000000476837</ele>
        <time>2022-09-22T07:59:51.000Z</time>
      </trkpt>
      <trkpt lat="47.33426" lon="-2.34276">
        <ele>-2.2000000476837</ele>
        <time>2022-09-22T07:59:53.000Z</time>
      </trkpt>
      <trkpt lat="47.33424" lon="-2.34283">
        <ele>-2.2000000476837</ele>
        <time>2022-09-22T07:59:54.000Z</time>
      </trkpt>
      <trkpt lat="47.33419" lon="-2.34298">
        <ele>-1.7999999523163</ele>
        <time>2022-09-22T07:59:56.000Z</time>
      </trkpt>
      <trkpt lat="47.33416" lon="-2.34306">
        <ele>-1.3999999761581</ele>
        <time>2022-09-22T07:59:57.000Z</time>
      </trkpt>
      <trkpt lat="47.33414" lon="-2.34313">
        <ele>-1</ele>
        <time>2022-09-22T07:59:58.000Z</time>
      </trkpt>
      <trkpt lat="47.33412" lon="-2.34321">
        <ele>-0.60000002384186</ele>
        <time>2022-09-22T07:59:59.000Z</time>
      </trkpt>
      <trkpt lat="47.33409" lon="-2.34328">
        <ele>-0.20000000298023</ele>
        <time>2022-09-22T08:00:00.000Z</time>
      </trkpt>
      <trkpt lat="47.33406" lon="-2.34335">
        <ele>-0.20000000298023</ele>
        <time>2022-09-22T08:00:01.000Z</time>
      </trkpt>
      <trkpt lat="47.33392" lon="-2.34373">
        <ele>-0.20000000298023</ele>
        <time>2022-09-22T08:00:06.000Z</time>
      </trkpt>
      <trkpt lat="47.33379" lon="-2.3441">
        <ele>-0.20000000298023</ele>
        <time>2022-09-22T08:00:11.000Z</time>
      </trkpt>
      <trkpt lat="47.33377" lon="-2.34417">
        <ele>-0.20000000298023</ele>
        <time>2022-09-22T08:00:12.000Z</time>
      </trkpt>
      <trkpt lat="47.33372" lon="-2.34432">
        <ele>-0.20000000298023</ele>
        <time>2022-09-22T08:00:14.000Z</time>
      </trkpt>
      <trkpt lat="47.33367" lon="-2.34446">
        <ele>-0.20000000298023</ele>
        <time>2022-09-22T08:00:16.000Z</time>
      </trkpt>
      <trkpt lat="47.3335" lon="-2.34491">
        <ele>-0.20000000298023</ele>
        <time>2022-09-22T08:00:23.000Z</time>
      </trkpt>
      <trkpt lat="47.3334" lon="-2.34512">
        <ele>-0.20000000298023</ele>
        <time>2022-09-22T08:00:27.000Z</time>
      </trkpt>
      <trkpt lat="47.33338" lon="-2.34519">
        <ele>-0.20000000298023</ele>
        <time>2022-09-22T08:00:28.000Z</time>
      </trkpt>
      <trkpt lat="47.33332" lon="-2.34543">
        <ele>-0.20000000298023</ele>
        <time>2022-09-22T08:00:33.000Z</time>
      </trkpt>
      <trkpt lat="47.33328" lon="-2.34554">
        <ele>-0.20000000298023</ele>
        <time>2022-09-22T08:00:36.000Z</time>
      </trkpt>
      <trkpt lat="47.33327" lon="-2.34558">
        <ele>-0.20000000298023</ele>
        <time>2022-09-22T08:00:37.000Z</time>
      </trkpt>
      <trkpt lat="47.33323" lon="-2.34571">
        <ele>-0.20000000298023</ele>
        <time>2022-09-22T08:00:40.000Z</time>
      </trkpt>
      <trkpt lat="47.33322" lon="-2.34576">
        <ele>-0.20000000298023</ele>
        <time>2022-09-22T08:00:41.000Z</time>
      </trkpt>
      <trkpt lat="47.33317" lon="-2.34593">
        <ele>-0.20000000298023</ele>
        <time>2022-09-22T08:00:44.000Z</time>
      </trkpt>
      <trkpt lat="47.33312" lon="-2.34606">
        <ele>-0.20000000298023</ele>
        <time>2022-09-22T08:00:46.000Z</time>
      </trkpt>
      <trkpt lat="47.33298" lon="-2.3464">
        <ele>-0.20000000298023</ele>
        <time>2022-09-22T08:00:52.000Z</time>
      </trkpt>
      <trkpt lat="47.33292" lon="-2.34652">
        <ele>-0.20000000298023</ele>
        <time>2022-09-22T08:00:55.000Z</time>
      </trkpt>
      <trkpt lat="47.33292" lon="-2.34655">
        <ele>-0.20000000298023</ele>
        <time>2022-09-22T08:00:56.000Z</time>
      </trkpt>
      <trkpt lat="47.33285" lon="-2.34677">
        <ele>-0.20000000298023</ele>
        <time>2022-09-22T08:01:01.000Z</time>
      </trkpt>
      <trkpt lat="47.33278" lon="-2.34697">
        <ele>-0.20000000298023</ele>
        <time>2022-09-22T08:01:04.000Z</time>
      </trkpt>
      <trkpt lat="47.33269" lon="-2.34721">
        <ele>-0.20000000298023</ele>
        <time>2022-09-22T08:01:08.000Z</time>
      </trkpt>
      <trkpt lat="47.33267" lon="-2.34728">
        <ele>-0.20000000298023</ele>
        <time>2022-09-22T08:01:09.000Z</time>
      </trkpt>
      <trkpt lat="47.3326" lon="-2.34749">
        <ele>-0.20000000298023</ele>
        <time>2022-09-22T08:01:12.000Z</time>
      </trkpt>
      <trkpt lat="47.33251" lon="-2.34779">
        <ele>-0.20000000298023</ele>
        <time>2022-09-22T08:01:16.000Z</time>
      </trkpt>
      <trkpt lat="47.33248" lon="-2.34785">
        <ele>-0.20000000298023</ele>
        <time>2022-09-22T08:01:17.000Z</time>
      </trkpt>
      <trkpt lat="47.33239" lon="-2.34807">
        <ele>-0.20000000298023</ele>
        <time>2022-09-22T08:01:20.000Z</time>
      </trkpt>
      <trkpt lat="47.33227" lon="-2.34835">
        <ele>-0.20000000298023</ele>
        <time>2022-09-22T08:01:24.000Z</time>
      </trkpt>
      <trkpt lat="47.33225" lon="-2.34842">
        <ele>-0.20000000298023</ele>
        <time>2022-09-22T08:01:25.000Z</time>
      </trkpt>
      <trkpt lat="47.3322" lon="-2.34855">
        <ele>-0.20000000298023</ele>
        <time>2022-09-22T08:01:27.000Z</time>
      </trkpt>
      <trkpt lat="47.33213" lon="-2.34869">
        <ele>-0.20000000298023</ele>
        <time>2022-09-22T08:01:29.000Z</time>
      </trkpt>
      <trkpt lat="47.33193" lon="-2.34909">
        <ele>-0.20000000298023</ele>
        <time>2022-09-22T08:01:35.000Z</time>
      </trkpt>
      <trkpt lat="47.33186" lon="-2.34926">
        <ele>-0.20000000298023</ele>
        <time>2022-09-22T08:01:38.000Z</time>
      </trkpt>
      <trkpt lat="47.33179" lon="-2.34941">
        <ele>0.40000000596046</ele>
        <time>2022-09-22T08:01:41.000Z</time>
      </trkpt>
      <trkpt lat="47.33176" lon="-2.34947">
        <ele>0.80000001192093</ele>
        <time>2022-09-22T08:01:42.000Z</time>
      </trkpt>
      <trkpt lat="47.33172" lon="-2.34953">
        <ele>1.2000000476837</ele>
        <time>2022-09-22T08:01:43.000Z</time>
      </trkpt>
      <trkpt lat="47.3317" lon="-2.34959">
        <ele>1.6000000238419</ele>
        <time>2022-09-22T08:01:44.000Z</time>
      </trkpt>
      <trkpt lat="47.33166" lon="-2.34966">
        <ele>2.2000000476837</ele>
        <time>2022-09-22T08:01:45.000Z</time>
      </trkpt>
      <trkpt lat="47.33163" lon="-2.34972">
        <ele>2.2000000476837</ele>
        <time>2022-09-22T08:01:46.000Z</time>
      </trkpt>
      <trkpt lat="47.33154" lon="-2.34989">
        <ele>2.2000000476837</ele>
        <time>2022-09-22T08:01:49.000Z</time>
      </trkpt>
      <trkpt lat="47.33147" lon="-2.35002">
        <ele>2.2000000476837</ele>
        <time>2022-09-22T08:01:51.000Z</time>
      </trkpt>
      <trkpt lat="47.3314" lon="-2.35014">
        <ele>2.2000000476837</ele>
        <time>2022-09-22T08:01:53.000Z</time>
      </trkpt>
      <trkpt lat="47.33133" lon="-2.35026">
        <ele>2.2000000476837</ele>
        <time>2022-09-22T08:01:55.000Z</time>
      </trkpt>
      <trkpt lat="47.33129" lon="-2.35032">
        <ele>2.2000000476837</ele>
        <time>2022-09-22T08:01:56.000Z</time>
      </trkpt>
      <trkpt lat="47.33108" lon="-2.35063">
        <ele>2.2000000476837</ele>
        <time>2022-09-22T08:02:02.000Z</time>
      </trkpt>
      <trkpt lat="47.33097" lon="-2.35079">
        <ele>2.5999999046326</ele>
        <time>2022-09-22T08:02:06.000Z</time>
      </trkpt>
      <trkpt lat="47.33094" lon="-2.35083">
        <ele>3</ele>
        <time>2022-09-22T08:02:07.000Z</time>
      </trkpt>
      <trkpt lat="47.33091" lon="-2.35086">
        <ele>3.4000000953674</ele>
        <time>2022-09-22T08:02:08.000Z</time>
      </trkpt>
      <trkpt lat="47.33088" lon="-2.35091">
        <ele>3.7999999523163</ele>
        <time>2022-09-22T08:02:09.000Z</time>
      </trkpt>
      <trkpt lat="47.33084" lon="-2.35096">
        <ele>4.1999998092651</ele>
        <time>2022-09-22T08:02:10.000Z</time>
      </trkpt>
      <trkpt lat="47.33076" lon="-2.35106">
        <ele>4.1999998092651</ele>
        <time>2022-09-22T08:02:12.000Z</time>
      </trkpt>
      <trkpt lat="47.3307" lon="-2.35116">
        <ele>4.1999998092651</ele>
        <time>2022-09-22T08:02:14.000Z</time>
      </trkpt>
      <trkpt lat="47.33063" lon="-2.35126">
        <ele>4.1999998092651</ele>
        <time>2022-09-22T08:02:16.000Z</time>
      </trkpt>
      <trkpt lat="47.33057" lon="-2.35138">
        <ele>4.1999998092651</ele>
        <time>2022-09-22T08:02:18.000Z</time>
      </trkpt>
      <trkpt lat="47.33051" lon="-2.35152">
        <ele>4.1999998092651</ele>
        <time>2022-09-22T08:02:20.000Z</time>
      </trkpt>
      <trkpt lat="47.33046" lon="-2.35166">
        <ele>4.1999998092651</ele>
        <time>2022-09-22T08:02:22.000Z</time>
      </trkpt>
      <trkpt lat="47.3304" lon="-2.35178">
        <ele>4.1999998092651</ele>
        <time>2022-09-22T08:02:24.000Z</time>
      </trkpt>
      <trkpt lat="47.33036" lon="-2.35183">
        <ele>4.1999998092651</ele>
        <time>2022-09-22T08:02:25.000Z</time>
      </trkpt>
      <trkpt lat="47.33033" lon="-2.3519">
        <ele>4.1999998092651</ele>
        <time>2022-09-22T08:02:26.000Z</time>
      </trkpt>
      <trkpt lat="47.33026" lon="-2.35207">
        <ele>4.1999998092651</ele>
        <time>2022-09-22T08:02:29.000Z</time>
      </trkpt>
      <trkpt lat="47.33023" lon="-2.35221">
        <ele>4.1999998092651</ele>
        <time>2022-09-22T08:02:32.000Z</time>
      </trkpt>
      <trkpt lat="47.33025" lon="-2.35227">
        <ele>4.1999998092651</ele>
        <time>2022-09-22T08:02:33.000Z</time>
      </trkpt>
      <trkpt lat="47.33027" lon="-2.35255">
        <ele>4.5999999046326</ele>
        <time>2022-09-22T08:02:38.000Z</time>
      </trkpt>
      <trkpt lat="47.33026" lon="-2.35262">
        <ele>5</ele>
        <time>2022-09-22T08:02:39.000Z</time>
      </trkpt>
      <trkpt lat="47.33026" lon="-2.35269">
        <ele>5.4000000953674</ele>
        <time>2022-09-22T08:02:40.000Z</time>
      </trkpt>
      <trkpt lat="47.33026" lon="-2.35277">
        <ele>5.8000001907349</ele>
        <time>2022-09-22T08:02:41.000Z</time>
      </trkpt>
      <trkpt lat="47.33026" lon="-2.35285">
        <ele>6.1999998092651</ele>
        <time>2022-09-22T08:02:42.000Z</time>
      </trkpt>
      <trkpt lat="47.33026" lon="-2.35293">
        <ele>6.1999998092651</ele>
        <time>2022-09-22T08:02:43.000Z</time>
      </trkpt>
      <trkpt lat="47.33025" lon="-2.35326">
        <ele>6.1999998092651</ele>
        <time>2022-09-22T08:02:47.000Z</time>
      </trkpt>
      <trkpt lat="47.33025" lon="-2.35335">
        <ele>6.1999998092651</ele>
        <time>2022-09-22T08:02:48.000Z</time>
      </trkpt>
      <trkpt lat="47.33029" lon="-2.35378">
        <ele>6.1999998092651</ele>
        <time>2022-09-22T08:02:53.000Z</time>
      </trkpt>
      <trkpt lat="47.33029" lon="-2.35432">
        <ele>6.1999998092651</ele>
        <time>2022-09-22T08:02:59.000Z</time>
      </trkpt>
      <trkpt lat="47.3303" lon="-2.3544">
        <ele>5.8000001907349</ele>
        <time>2022-09-22T08:03:00.000Z</time>
      </trkpt>
      <trkpt lat="47.33031" lon="-2.35447">
        <ele>5.1999998092651</ele>
        <time>2022-09-22T08:03:01.000Z</time>
      </trkpt>
      <trkpt lat="47.33031" lon="-2.35455">
        <ele>4.8000001907349</ele>
        <time>2022-09-22T08:03:02.000Z</time>
      </trkpt>
      <trkpt lat="47.3303" lon="-2.35463">
        <ele>4.4000000953674</ele>
        <time>2022-09-22T08:03:03.000Z</time>
      </trkpt>
      <trkpt lat="47.3303" lon="-2.35472">
        <ele>4</ele>
        <time>2022-09-22T08:03:04.000Z</time>
      </trkpt>
      <trkpt lat="47.33027" lon="-2.35498">
        <ele>4</ele>
        <time>2022-09-22T08:03:07.000Z</time>
      </trkpt>
      <trkpt lat="47.33026" lon="-2.35532">
        <ele>3.5999999046326</ele>
        <time>2022-09-22T08:03:11.000Z</time>
      </trkpt>
      <trkpt lat="47.33026" lon="-2.35541">
        <ele>3.2000000476837</ele>
        <time>2022-09-22T08:03:12.000Z</time>
      </trkpt>
      <trkpt lat="47.33027" lon="-2.35549">
        <ele>2.7999999523163</ele>
        <time>2022-09-22T08:03:13.000Z</time>
      </trkpt>
      <trkpt lat="47.33028" lon="-2.35558">
        <ele>2.4000000953674</ele>
        <time>2022-09-22T08:03:14.000Z</time>
      </trkpt>
      <trkpt lat="47.33027" lon="-2.35566">
        <ele>2</ele>
        <time>2022-09-22T08:03:15.000Z</time>
      </trkpt>
      <trkpt lat="47.33026" lon="-2.35583">
        <ele>2</ele>
        <time>2022-09-22T08:03:17.000Z</time>
      </trkpt>
      <trkpt lat="47.33022" lon="-2.3562">
        <ele>1.6000000238419</ele>
        <time>2022-09-22T08:03:21.000Z</time>
      </trkpt>
      <trkpt lat="47.33021" lon="-2.35629">
        <ele>1.2000000476837</ele>
        <time>2022-09-22T08:03:22.000Z</time>
      </trkpt>
      <trkpt lat="47.33019" lon="-2.35638">
        <ele>0.80000001192093</ele>
        <time>2022-09-22T08:03:23.000Z</time>
      </trkpt>
      <trkpt lat="47.33018" lon="-2.35647">
        <ele>0.40000000596046</ele>
        <time>2022-09-22T08:03:24.000Z</time>
      </trkpt>
      <trkpt lat="47.33017" lon="-2.35656">
        <ele>-0.20000000298023</ele>
        <time>2022-09-22T08:03:25.000Z</time>
      </trkpt>
      <trkpt lat="47.33014" lon="-2.35681">
        <ele>-0.20000000298023</ele>
        <time>2022-09-22T08:03:28.000Z</time>
      </trkpt>
      <trkpt lat="47.3301" lon="-2.35737">
        <ele>-0.20000000298023</ele>
        <time>2022-09-22T08:03:34.000Z</time>
      </trkpt>
      <trkpt lat="47.33011" lon="-2.35747">
        <ele>-0.20000000298023</ele>
        <time>2022-09-22T08:03:35.000Z</time>
      </trkpt>
      <trkpt lat="47.33012" lon="-2.3576">
        <ele>-0.20000000298023</ele>
        <time>2022-09-22T08:03:37.000Z</time>
      </trkpt>
      <trkpt lat="47.33014" lon="-2.35768">
        <ele>-0.20000000298023</ele>
        <time>2022-09-22T08:03:38.000Z</time>
      </trkpt>
      <trkpt lat="47.33026" lon="-2.35791">
        <ele>-0.20000000298023</ele>
        <time>2022-09-22T08:03:42.000Z</time>
      </trkpt>
      <trkpt lat="47.33044" lon="-2.35801">
        <ele>-0.20000000298023</ele>
        <time>2022-09-22T08:03:46.000Z</time>
      </trkpt>
      <trkpt lat="47.33065" lon="-2.35803">
        <ele>-0.20000000298023</ele>
        <time>2022-09-22T08:03:50.000Z</time>
      </trkpt>
      <trkpt lat="47.33071" lon="-2.35803">
        <ele>-0.20000000298023</ele>
        <time>2022-09-22T08:03:51.000Z</time>
      </trkpt>
      <trkpt lat="47.33104" lon="-2.35804">
        <ele>-0.20000000298023</ele>
        <time>2022-09-22T08:03:58.000Z</time>
      </trkpt>
      <trkpt lat="47.33114" lon="-2.35804">
        <ele>0.20000000298023</ele>
        <time>2022-09-22T08:04:00.000Z</time>
      </trkpt>
      <trkpt lat="47.33119" lon="-2.35804">
        <ele>0.80000001192093</ele>
        <time>2022-09-22T08:04:01.000Z</time>
      </trkpt>
      <trkpt lat="47.33123" lon="-2.35805">
        <ele>1.2000000476837</ele>
        <time>2022-09-22T08:04:02.000Z</time>
      </trkpt>
      <trkpt lat="47.33128" lon="-2.35805">
        <ele>1.6000000238419</ele>
        <time>2022-09-22T08:04:03.000Z</time>
      </trkpt>
      <trkpt lat="47.33133" lon="-2.35806">
        <ele>2</ele>
        <time>2022-09-22T08:04:04.000Z</time>
      </trkpt>
      <trkpt lat="47.33147" lon="-2.35808">
        <ele>2</ele>
        <time>2022-09-22T08:04:07.000Z</time>
      </trkpt>
      <trkpt lat="47.3316" lon="-2.35809">
        <ele>2</ele>
        <time>2022-09-22T08:04:10.000Z</time>
      </trkpt>
      <trkpt lat="47.33174" lon="-2.35812">
        <ele>2</ele>
        <time>2022-09-22T08:04:13.000Z</time>
      </trkpt>
      <trkpt lat="47.33189" lon="-2.35815">
        <ele>2</ele>
        <time>2022-09-22T08:04:16.000Z</time>
      </trkpt>
      <trkpt lat="47.33213" lon="-2.35822">
        <ele>2.4000000953674</ele>
        <time>2022-09-22T08:04:21.000Z</time>
      </trkpt>
      <trkpt lat="47.33217" lon="-2.35823">
        <ele>2.7999999523163</ele>
        <time>2022-09-22T08:04:22.000Z</time>
      </trkpt>
      <trkpt lat="47.33222" lon="-2.35826">
        <ele>3.2000000476837</ele>
        <time>2022-09-22T08:04:23.000Z</time>
      </trkpt>
      <trkpt lat="47.33226" lon="-2.35828">
        <ele>3.5999999046326</ele>
        <time>2022-09-22T08:04:24.000Z</time>
      </trkpt>
      <trkpt lat="47.3323" lon="-2.3583">
        <ele>4</ele>
        <time>2022-09-22T08:04:25.000Z</time>
      </trkpt>
      <trkpt lat="47.33242" lon="-2.35837">
        <ele>4</ele>
        <time>2022-09-22T08:04:28.000Z</time>
      </trkpt>
      <trkpt lat="47.33246" lon="-2.3584">
        <ele>4</ele>
        <time>2022-09-22T08:04:29.000Z</time>
      </trkpt>
      <trkpt lat="47.3325" lon="-2.35843">
        <ele>4.4000000953674</ele>
        <time>2022-09-22T08:04:30.000Z</time>
      </trkpt>
      <trkpt lat="47.33253" lon="-2.35847">
        <ele>4.8000001907349</ele>
        <time>2022-09-22T08:04:31.000Z</time>
      </trkpt>
      <trkpt lat="47.33256" lon="-2.35851">
        <ele>5.4000000953674</ele>
        <time>2022-09-22T08:04:32.000Z</time>
      </trkpt>
      <trkpt lat="47.3326" lon="-2.35855">
        <ele>5.8000001907349</ele>
        <time>2022-09-22T08:04:33.000Z</time>
      </trkpt>
      <trkpt lat="47.33263" lon="-2.35859">
        <ele>6.1999998092651</ele>
        <time>2022-09-22T08:04:34.000Z</time>
      </trkpt>
      <trkpt lat="47.33266" lon="-2.35863">
        <ele>6.1999998092651</ele>
        <time>2022-09-22T08:04:35.000Z</time>
      </trkpt>
      <trkpt lat="47.33273" lon="-2.3587">
        <ele>6.1999998092651</ele>
        <time>2022-09-22T08:04:37.000Z</time>
      </trkpt>
      <trkpt lat="47.33276" lon="-2.35873">
        <ele>6.5999999046326</ele>
        <time>2022-09-22T08:04:38.000Z</time>
      </trkpt>
      <trkpt lat="47.3328" lon="-2.35876">
        <ele>7</ele>
        <time>2022-09-22T08:04:39.000Z</time>
      </trkpt>
      <trkpt lat="47.33284" lon="-2.35879">
        <ele>7.4000000953674</ele>
        <time>2022-09-22T08:04:40.000Z</time>
      </trkpt>
      <trkpt lat="47.33287" lon="-2.35882">
        <ele>7.8000001907349</ele>
        <time>2022-09-22T08:04:41.000Z</time>
      </trkpt>
      <trkpt lat="47.33291" lon="-2.35884">
        <ele>8.1999998092651</ele>
        <time>2022-09-22T08:04:42.000Z</time>
      </trkpt>
      <trkpt lat="47.33305" lon="-2.35898">
        <ele>8.1999998092651</ele>
        <time>2022-09-22T08:04:46.000Z</time>
      </trkpt>
      <trkpt lat="47.33307" lon="-2.35903">
        <ele>8.1999998092651</ele>
        <time>2022-09-22T08:04:47.000Z</time>
      </trkpt>
      <trkpt lat="47.33312" lon="-2.35914">
        <ele>8.1999998092651</ele>
        <time>2022-09-22T08:04:49.000Z</time>
      </trkpt>
      <trkpt lat="47.33318" lon="-2.35932">
        <ele>8.6000003814697</ele>
        <time>2022-09-22T08:04:52.000Z</time>
      </trkpt>
      <trkpt lat="47.33319" lon="-2.35938">
        <ele>9</ele>
        <time>2022-09-22T08:04:53.000Z</time>
      </trkpt>
      <trkpt lat="47.3332" lon="-2.35944">
        <ele>9.3999996185303</ele>
        <time>2022-09-22T08:04:54.000Z</time>
      </trkpt>
      <trkpt lat="47.3332" lon="-2.35951">
        <ele>9.8000001907349</ele>
        <time>2022-09-22T08:04:55.000Z</time>
      </trkpt>
      <trkpt lat="47.3332" lon="-2.35957">
        <ele>10.199999809265</ele>
        <time>2022-09-22T08:04:56.000Z</time>
      </trkpt>
      <trkpt lat="47.33317" lon="-2.35978">
        <ele>10.199999809265</ele>
        <time>2022-09-22T08:04:59.000Z</time>
      </trkpt>
      <trkpt lat="47.33313" lon="-2.36004">
        <ele>10.199999809265</ele>
        <time>2022-09-22T08:05:03.000Z</time>
      </trkpt>
      <trkpt lat="47.33308" lon="-2.36053">
        <ele>10.199999809265</ele>
        <time>2022-09-22T08:05:10.000Z</time>
      </trkpt>
      <trkpt lat="47.33307" lon="-2.36106">
        <ele>10.199999809265</ele>
        <time>2022-09-22T08:05:19.000Z</time>
      </trkpt>
      <trkpt lat="47.33307" lon="-2.36151">
        <ele>10.199999809265</ele>
        <time>2022-09-22T08:05:27.000Z</time>
      </trkpt>
      <trkpt lat="47.33308" lon="-2.36195">
        <ele>10.199999809265</ele>
        <time>2022-09-22T08:05:36.000Z</time>
      </trkpt>
      <trkpt lat="47.33308" lon="-2.36212">
        <ele>10.199999809265</ele>
        <time>2022-09-22T08:05:41.000Z</time>
      </trkpt>
      <trkpt lat="47.33313" lon="-2.36217">
        <ele>10.199999809265</ele>
        <time>2022-09-22T08:06:18.000Z</time>
      </trkpt>
      <trkpt lat="47.33318" lon="-2.36216">
        <ele>10.199999809265</ele>
        <time>2022-09-22T08:06:20.000Z</time>
      </trkpt>
      <trkpt lat="47.33331" lon="-2.36207">
        <ele>10.199999809265</ele>
        <time>2022-09-22T08:06:24.000Z</time>
      </trkpt>
      <trkpt lat="47.33355" lon="-2.3619">
        <ele>10.199999809265</ele>
        <time>2022-09-22T08:06:31.000Z</time>
      </trkpt>
      <trkpt lat="47.33386" lon="-2.36171">
        <ele>10.199999809265</ele>
        <time>2022-09-22T08:06:39.000Z</time>
      </trkpt>
      <trkpt lat="47.33394" lon="-2.36166">
        <ele>10.199999809265</ele>
        <time>2022-09-22T08:06:41.000Z</time>
      </trkpt>
      <trkpt lat="47.33401" lon="-2.36161">
        <ele>10.199999809265</ele>
        <time>2022-09-22T08:06:43.000Z</time>
      </trkpt>
      <trkpt lat="47.33405" lon="-2.36161">
        <ele>10.199999809265</ele>
        <time>2022-09-22T08:06:44.000Z</time>
      </trkpt>
      <trkpt lat="47.33411" lon="-2.36176">
        <ele>10.199999809265</ele>
        <time>2022-09-22T08:06:47.000Z</time>
      </trkpt>
      <trkpt lat="47.33412" lon="-2.36182">
        <ele>10.199999809265</ele>
        <time>2022-09-22T08:06:48.000Z</time>
      </trkpt>
      <trkpt lat="47.33414" lon="-2.36201">
        <ele>10.199999809265</ele>
        <time>2022-09-22T08:06:51.000Z</time>
      </trkpt>
      <trkpt lat="47.33413" lon="-2.36216">
        <ele>10.199999809265</ele>
        <time>2022-09-22T08:06:53.000Z</time>
      </trkpt>
      <trkpt lat="47.33409" lon="-2.36247">
        <ele>10.199999809265</ele>
        <time>2022-09-22T08:06:57.000Z</time>
      </trkpt>
      <trkpt lat="47.3341" lon="-2.36262">
        <ele>10.199999809265</ele>
        <time>2022-09-22T08:06:59.000Z</time>
      </trkpt>
      <trkpt lat="47.3341" lon="-2.3627">
        <ele>9.8000001907349</ele>
        <time>2022-09-22T08:07:00.000Z</time>
      </trkpt>
      <trkpt lat="47.33411" lon="-2.36277">
        <ele>9.3999996185303</ele>
        <time>2022-09-22T08:07:01.000Z</time>
      </trkpt>
      <trkpt lat="47.33412" lon="-2.36285">
        <ele>9</ele>
        <time>2022-09-22T08:07:02.000Z</time>
      </trkpt>
      <trkpt lat="47.33413" lon="-2.36292">
        <ele>8.6000003814697</ele>
        <time>2022-09-22T08:07:03.000Z</time>
      </trkpt>
      <trkpt lat="47.33415" lon="-2.363">
        <ele>8.1999998092651</ele>
        <time>2022-09-22T08:07:04.000Z</time>
      </trkpt>
      <trkpt lat="47.33423" lon="-2.36327">
        <ele>8.1999998092651</ele>
        <time>2022-09-22T08:07:09.000Z</time>
      </trkpt>
      <trkpt lat="47.33432" lon="-2.36357">
        <ele>8.1999998092651</ele>
        <time>2022-09-22T08:07:14.000Z</time>
      </trkpt>
      <trkpt lat="47.33437" lon="-2.36368">
        <ele>7.8000001907349</ele>
        <time>2022-09-22T08:07:16.000Z</time>
      </trkpt>
      <trkpt lat="47.33439" lon="-2.36374">
        <ele>7.4000000953674</ele>
        <time>2022-09-22T08:07:17.000Z</time>
      </trkpt>
      <trkpt lat="47.33441" lon="-2.36381">
        <ele>7</ele>
        <time>2022-09-22T08:07:18.000Z</time>
      </trkpt>
      <trkpt lat="47.33443" lon="-2.36387">
        <ele>6.5999999046326</ele>
        <time>2022-09-22T08:07:19.000Z</time>
      </trkpt>
      <trkpt lat="47.33445" lon="-2.36392">
        <ele>6.1999998092651</ele>
        <time>2022-09-22T08:07:20.000Z</time>
      </trkpt>
      <trkpt lat="47.33446" lon="-2.364">
        <ele>6.1999998092651</ele>
        <time>2022-09-22T08:07:21.000Z</time>
      </trkpt>
      <trkpt lat="47.3345" lon="-2.3641">
        <ele>6.1999998092651</ele>
        <time>2022-09-22T08:07:23.000Z</time>
      </trkpt>
      <trkpt lat="47.33461" lon="-2.36415">
        <ele>6.1999998092651</ele>
        <time>2022-09-22T08:07:26.000Z</time>
      </trkpt>
      <trkpt lat="47.33469" lon="-2.36419">
        <ele>5.8000001907349</ele>
        <time>2022-09-22T08:07:28.000Z</time>
      </trkpt>
      <trkpt lat="47.33471" lon="-2.36422">
        <ele>5.4000000953674</ele>
        <time>2022-09-22T08:07:29.000Z</time>
      </trkpt>
      <trkpt lat="47.33471" lon="-2.36427">
        <ele>5</ele>
        <time>2022-09-22T08:07:30.000Z</time>
      </trkpt>
      <trkpt lat="47.3347" lon="-2.36433">
        <ele>4.5999999046326</ele>
        <time>2022-09-22T08:07:31.000Z</time>
      </trkpt>
      <trkpt lat="47.3347" lon="-2.3644">
        <ele>4.1999998092651</ele>
        <time>2022-09-22T08:07:32.000Z</time>
      </trkpt>
      <trkpt lat="47.3347" lon="-2.36448">
        <ele>4.1999998092651</ele>
        <time>2022-09-22T08:07:33.000Z</time>
      </trkpt>
      <trkpt lat="47.33472" lon="-2.36454">
        <ele>4.1999998092651</ele>
        <time>2022-09-22T08:07:34.000Z</time>
      </trkpt>
      <trkpt lat="47.33473" lon="-2.36484">
        <ele>4.1999998092651</ele>
        <time>2022-09-22T08:07:38.000Z</time>
      </trkpt>
      <trkpt lat="47.33472" lon="-2.36529">
        <ele>4.1999998092651</ele>
        <time>2022-09-22T08:07:44.000Z</time>
      </trkpt>
      <trkpt lat="47.3347" lon="-2.36578">
        <ele>4.1999998092651</ele>
        <time>2022-09-22T08:07:51.000Z</time>
      </trkpt>
      <trkpt lat="47.33478" lon="-2.36587">
        <ele>4.1999998092651</ele>
        <time>2022-09-22T08:07:54.000Z</time>
      </trkpt>
      <trkpt lat="47.33488" lon="-2.3659">
        <ele>3.7999999523163</ele>
        <time>2022-09-22T08:07:57.000Z</time>
      </trkpt>
      <trkpt lat="47.33491" lon="-2.36591">
        <ele>3.4000000953674</ele>
        <time>2022-09-22T08:07:58.000Z</time>
      </trkpt>
      <trkpt lat="47.33495" lon="-2.36592">
        <ele>3</ele>
        <time>2022-09-22T08:07:59.000Z</time>
      </trkpt>
      <trkpt lat="47.33498" lon="-2.36595">
        <ele>2.5999999046326</ele>
        <time>2022-09-22T08:08:00.000Z</time>
      </trkpt>
      <trkpt lat="47.33501" lon="-2.36598">
        <ele>2.2000000476837</ele>
        <time>2022-09-22T08:08:01.000Z</time>
      </trkpt>
      <trkpt lat="47.33516" lon="-2.36608">
        <ele>2.2000000476837</ele>
        <time>2022-09-22T08:08:05.000Z</time>
      </trkpt>
      <trkpt lat="47.3352" lon="-2.3661">
        <ele>2.2000000476837</ele>
        <time>2022-09-22T08:08:06.000Z</time>
      </trkpt>
      <trkpt lat="47.33527" lon="-2.36618">
        <ele>2.2000000476837</ele>
        <time>2022-09-22T08:08:10.000Z</time>
      </trkpt>
      <trkpt lat="47.33529" lon="-2.36621">
        <ele>1.7999999523163</ele>
        <time>2022-09-22T08:08:11.000Z</time>
      </trkpt>
      <trkpt lat="47.33531" lon="-2.36623">
        <ele>1.2000000476837</ele>
        <time>2022-09-22T08:08:12.000Z</time>
      </trkpt>
      <trkpt lat="47.33533" lon="-2.36626">
        <ele>0.80000001192093</ele>
        <time>2022-09-22T08:08:13.000Z</time>
      </trkpt>
      <trkpt lat="47.33536" lon="-2.36628">
        <ele>0.40000000596046</ele>
        <time>2022-09-22T08:08:14.000Z</time>
      </trkpt>
      <trkpt lat="47.33538" lon="-2.36631">
        <ele>-0.20000000298023</ele>
        <time>2022-09-22T08:08:15.000Z</time>
      </trkpt>
      <trkpt lat="47.3354" lon="-2.36635">
        <ele>-0.60000002384186</ele>
        <time>2022-09-22T08:08:16.000Z</time>
      </trkpt>
      <trkpt lat="47.33539" lon="-2.3664">
        <ele>-1.2000000476837</ele>
        <time>2022-09-22T08:08:17.000Z</time>
      </trkpt>
      <trkpt lat="47.33536" lon="-2.36645">
        <ele>-1.7999999523163</ele>
        <time>2022-09-22T08:08:18.000Z</time>
      </trkpt>
      <trkpt lat="47.33534" lon="-2.36651">
        <ele>-2.4000000953674</ele>
        <time>2022-09-22T08:08:19.000Z</time>
      </trkpt>
      <trkpt lat="47.33531" lon="-2.36656">
        <ele>-3</ele>
        <time>2022-09-22T08:08:20.000Z</time>
      </trkpt>
      <trkpt lat="47.33527" lon="-2.36661">
        <ele>-3.5999999046326</ele>
        <time>2022-09-22T08:08:21.000Z</time>
      </trkpt>
      <trkpt lat="47.33523" lon="-2.36665">
        <ele>-4.4000000953674</ele>
        <time>2022-09-22T08:08:22.000Z</time>
      </trkpt>
      <trkpt lat="47.33519" lon="-2.36669">
        <ele>-4.4000000953674</ele>
        <time>2022-09-22T08:08:23.000Z</time>
      </trkpt>
      <trkpt lat="47.3351" lon="-2.36685">
        <ele>-4.4000000953674</ele>
        <time>2022-09-22T08:08:26.000Z</time>
      </trkpt>
      <trkpt lat="47.33508" lon="-2.36689">
        <ele>-4.4000000953674</ele>
        <time>2022-09-22T08:08:27.000Z</time>
      </trkpt>
      <trkpt lat="47.33499" lon="-2.36706">
        <ele>-4.4000000953674</ele>
        <time>2022-09-22T08:08:31.000Z</time>
      </trkpt>
      <trkpt lat="47.33488" lon="-2.36733">
        <ele>-4.4000000953674</ele>
        <time>2022-09-22T08:08:36.000Z</time>
      </trkpt>
      <trkpt lat="47.33485" lon="-2.36738">
        <ele>-4.4000000953674</ele>
        <time>2022-09-22T08:08:37.000Z</time>
      </trkpt>
      <trkpt lat="47.33478" lon="-2.36755">
        <ele>-4.4000000953674</ele>
        <time>2022-09-22T08:08:40.000Z</time>
      </trkpt>
      <trkpt lat="47.33474" lon="-2.36767">
        <ele>-4.4000000953674</ele>
        <time>2022-09-22T08:08:42.000Z</time>
      </trkpt>
      <trkpt lat="47.33472" lon="-2.36774">
        <ele>-4.4000000953674</ele>
        <time>2022-09-22T08:08:43.000Z</time>
      </trkpt>
      <trkpt lat="47.33469" lon="-2.36788">
        <ele>-4.4000000953674</ele>
        <time>2022-09-22T08:08:45.000Z</time>
      </trkpt>
      <trkpt lat="47.33469" lon="-2.36795">
        <ele>-4.4000000953674</ele>
        <time>2022-09-22T08:08:46.000Z</time>
      </trkpt>
      <trkpt lat="47.33467" lon="-2.36815">
        <ele>-4.4000000953674</ele>
        <time>2022-09-22T08:08:49.000Z</time>
      </trkpt>
      <trkpt lat="47.33465" lon="-2.36828">
        <ele>-4.4000000953674</ele>
        <time>2022-09-22T08:08:51.000Z</time>
      </trkpt>
      <trkpt lat="47.33459" lon="-2.36847">
        <ele>-4.4000000953674</ele>
        <time>2022-09-22T08:08:55.000Z</time>
      </trkpt>
      <trkpt lat="47.33456" lon="-2.36849">
        <ele>-4.4000000953674</ele>
        <time>2022-09-22T08:08:56.000Z</time>
      </trkpt>
      <trkpt lat="47.3345" lon="-2.3686">
        <ele>-4.4000000953674</ele>
        <time>2022-09-22T08:09:00.000Z</time>
      </trkpt>
      <trkpt lat="47.33449" lon="-2.36861">
        <ele>-4.4000000953674</ele>
        <time>2022-09-22T08:09:02.000Z</time>
      </trkpt>
      <trkpt lat="47.33447" lon="-2.36872">
        <ele>-2.2000000476837</ele>
        <time>2022-09-22T08:09:18.000Z</time>
      </trkpt>
      <trkpt lat="47.33447" lon="-2.36876">
        <ele>-2.2000000476837</ele>
        <time>2022-09-22T08:09:19.000Z</time>
      </trkpt>
      <trkpt lat="47.33447" lon="-2.36884">
        <ele>-2.2000000476837</ele>
        <time>2022-09-22T08:09:21.000Z</time>
      </trkpt>
      <trkpt lat="47.33448" lon="-2.36893">
        <ele>-2.2000000476837</ele>
        <time>2022-09-22T08:09:23.000Z</time>
      </trkpt>
      <trkpt lat="47.3345" lon="-2.36917">
        <ele>-2.2000000476837</ele>
        <time>2022-09-22T08:09:28.000Z</time>
      </trkpt>
      <trkpt lat="47.33448" lon="-2.36943">
        <ele>-2.2000000476837</ele>
        <time>2022-09-22T08:09:33.000Z</time>
      </trkpt>
      <trkpt lat="47.33448" lon="-2.36948">
        <ele>-2.2000000476837</ele>
        <time>2022-09-22T08:09:34.000Z</time>
      </trkpt>
      <trkpt lat="47.33455" lon="-2.36962">
        <ele>-2.2000000476837</ele>
        <time>2022-09-22T08:09:37.000Z</time>
      </trkpt>
      <trkpt lat="47.33465" lon="-2.36984">
        <ele>-2.2000000476837</ele>
        <time>2022-09-22T08:09:41.000Z</time>
      </trkpt>
      <trkpt lat="47.3347" lon="-2.37006">
        <ele>-2.2000000476837</ele>
        <time>2022-09-22T08:09:45.000Z</time>
      </trkpt>
      <trkpt lat="47.33471" lon="-2.3702">
        <ele>-2.2000000476837</ele>
        <time>2022-09-22T08:09:47.000Z</time>
      </trkpt>
      <trkpt lat="47.3347" lon="-2.37059">
        <ele>-2.2000000476837</ele>
        <time>2022-09-22T08:09:52.000Z</time>
      </trkpt>
      <trkpt lat="47.3347" lon="-2.37066">
        <ele>-2.2000000476837</ele>
        <time>2022-09-22T08:09:53.000Z</time>
      </trkpt>
      <trkpt lat="47.33471" lon="-2.37102">
        <ele>-2.2000000476837</ele>
        <time>2022-09-22T08:09:58.000Z</time>
      </trkpt>
      <trkpt lat="47.33472" lon="-2.37108">
        <ele>-2.2000000476837</ele>
        <time>2022-09-22T08:09:59.000Z</time>
      </trkpt>
      <trkpt lat="47.33474" lon="-2.3712">
        <ele>-1.7999999523163</ele>
        <time>2022-09-22T08:10:01.000Z</time>
      </trkpt>
      <trkpt lat="47.33475" lon="-2.37126">
        <ele>-1.3999999761581</ele>
        <time>2022-09-22T08:10:02.000Z</time>
      </trkpt>
      <trkpt lat="47.33476" lon="-2.37133">
        <ele>-1</ele>
        <time>2022-09-22T08:10:03.000Z</time>
      </trkpt>
      <trkpt lat="47.33476" lon="-2.37139">
        <ele>-0.60000002384186</ele>
        <time>2022-09-22T08:10:04.000Z</time>
      </trkpt>
      <trkpt lat="47.33477" lon="-2.37145">
        <ele>-0.20000000298023</ele>
        <time>2022-09-22T08:10:05.000Z</time>
      </trkpt>
      <trkpt lat="47.33483" lon="-2.37174">
        <ele>-0.20000000298023</ele>
        <time>2022-09-22T08:10:10.000Z</time>
      </trkpt>
      <trkpt lat="47.33485" lon="-2.37186">
        <ele>0.20000000298023</ele>
        <time>2022-09-22T08:10:12.000Z</time>
      </trkpt>
      <trkpt lat="47.33486" lon="-2.37192">
        <ele>0.60000002384186</ele>
        <time>2022-09-22T08:10:13.000Z</time>
      </trkpt>
      <trkpt lat="47.33487" lon="-2.37198">
        <ele>1</ele>
        <time>2022-09-22T08:10:14.000Z</time>
      </trkpt>
      <trkpt lat="47.33488" lon="-2.37203">
        <ele>1.6000000238419</ele>
        <time>2022-09-22T08:10:15.000Z</time>
      </trkpt>
      <trkpt lat="47.3349" lon="-2.37209">
        <ele>2</ele>
        <time>2022-09-22T08:10:16.000Z</time>
      </trkpt>
      <trkpt lat="47.33493" lon="-2.37221">
        <ele>2</ele>
        <time>2022-09-22T08:10:18.000Z</time>
      </trkpt>
      <trkpt lat="47.335" lon="-2.37238">
        <ele>2</ele>
        <time>2022-09-22T08:10:21.000Z</time>
      </trkpt>
      <trkpt lat="47.33508" lon="-2.37262">
        <ele>2.4000000953674</ele>
        <time>2022-09-22T08:10:25.000Z</time>
      </trkpt>
      <trkpt lat="47.3351" lon="-2.37268">
        <ele>2.7999999523163</ele>
        <time>2022-09-22T08:10:26.000Z</time>
      </trkpt>
      <trkpt lat="47.33511" lon="-2.37274">
        <ele>3.4000000953674</ele>
        <time>2022-09-22T08:10:27.000Z</time>
      </trkpt>
      <trkpt lat="47.33512" lon="-2.3728">
        <ele>3.7999999523163</ele>
        <time>2022-09-22T08:10:28.000Z</time>
      </trkpt>
      <trkpt lat="47.33514" lon="-2.37286">
        <ele>4.1999998092651</ele>
        <time>2022-09-22T08:10:29.000Z</time>
      </trkpt>
      <trkpt lat="47.3352" lon="-2.37313">
        <ele>4.1999998092651</ele>
        <time>2022-09-22T08:10:34.000Z</time>
      </trkpt>
      <trkpt lat="47.33525" lon="-2.37329">
        <ele>4.5999999046326</ele>
        <time>2022-09-22T08:10:37.000Z</time>
      </trkpt>
      <trkpt lat="47.33526" lon="-2.37334">
        <ele>5.1999998092651</ele>
        <time>2022-09-22T08:10:38.000Z</time>
      </trkpt>
      <trkpt lat="47.33528" lon="-2.3734">
        <ele>5.5999999046326</ele>
        <time>2022-09-22T08:10:39.000Z</time>
      </trkpt>
      <trkpt lat="47.3353" lon="-2.37344">
        <ele>6</ele>
        <time>2022-09-22T08:10:40.000Z</time>
      </trkpt>
      <trkpt lat="47.33531" lon="-2.37349">
        <ele>6.4000000953674</ele>
        <time>2022-09-22T08:10:41.000Z</time>
      </trkpt>
      <trkpt lat="47.33535" lon="-2.37374">
        <ele>6.4000000953674</ele>
        <time>2022-09-22T08:10:46.000Z</time>
      </trkpt>
      <trkpt lat="47.33537" lon="-2.37385">
        <ele>6.8000001907349</ele>
        <time>2022-09-22T08:10:48.000Z</time>
      </trkpt>
      <trkpt lat="47.33537" lon="-2.37391">
        <ele>7.1999998092651</ele>
        <time>2022-09-22T08:10:49.000Z</time>
      </trkpt>
      <trkpt lat="47.33537" lon="-2.37396">
        <ele>7.5999999046326</ele>
        <time>2022-09-22T08:10:50.000Z</time>
      </trkpt>
      <trkpt lat="47.33537" lon="-2.37402">
        <ele>8</ele>
        <time>2022-09-22T08:10:51.000Z</time>
      </trkpt>
      <trkpt lat="47.33537" lon="-2.37408">
        <ele>8.3999996185303</ele>
        <time>2022-09-22T08:10:52.000Z</time>
      </trkpt>
      <trkpt lat="47.33534" lon="-2.37453">
        <ele>8.3999996185303</ele>
        <time>2022-09-22T08:11:00.000Z</time>
      </trkpt>
      <trkpt lat="47.33527" lon="-2.37481">
        <ele>8.8000001907349</ele>
        <time>2022-09-22T08:11:05.000Z</time>
      </trkpt>
      <trkpt lat="47.33525" lon="-2.37486">
        <ele>9.1999998092651</ele>
        <time>2022-09-22T08:11:06.000Z</time>
      </trkpt>
      <trkpt lat="47.33522" lon="-2.37491">
        <ele>9.6000003814697</ele>
        <time>2022-09-22T08:11:07.000Z</time>
      </trkpt>
      <trkpt lat="47.3352" lon="-2.37496">
        <ele>10</ele>
        <time>2022-09-22T08:11:08.000Z</time>
      </trkpt>
      <trkpt lat="47.33518" lon="-2.37501">
        <ele>10.39999961853</ele>
        <time>2022-09-22T08:11:09.000Z</time>
      </trkpt>
      <trkpt lat="47.33505" lon="-2.37525">
        <ele>10.39999961853</ele>
        <time>2022-09-22T08:11:14.000Z</time>
      </trkpt>
      <trkpt lat="47.33487" lon="-2.3755">
        <ele>10.39999961853</ele>
        <time>2022-09-22T08:11:20.000Z</time>
      </trkpt>
      <trkpt lat="47.33484" lon="-2.37554">
        <ele>10.800000190735</ele>
        <time>2022-09-22T08:11:21.000Z</time>
      </trkpt>
      <trkpt lat="47.33481" lon="-2.37558">
        <ele>11.199999809265</ele>
        <time>2022-09-22T08:11:22.000Z</time>
      </trkpt>
      <trkpt lat="47.33478" lon="-2.37563">
        <ele>11.800000190735</ele>
        <time>2022-09-22T08:11:23.000Z</time>
      </trkpt>
      <trkpt lat="47.33474" lon="-2.37567">
        <ele>12.199999809265</ele>
        <time>2022-09-22T08:11:24.000Z</time>
      </trkpt>
      <trkpt lat="47.33471" lon="-2.37572">
        <ele>12.60000038147</ele>
        <time>2022-09-22T08:11:25.000Z</time>
      </trkpt>
      <trkpt lat="47.33464" lon="-2.3758">
        <ele>12.60000038147</ele>
        <time>2022-09-22T08:11:27.000Z</time>
      </trkpt>
      <trkpt lat="47.33446" lon="-2.37598">
        <ele>12.60000038147</ele>
        <time>2022-09-22T08:11:32.000Z</time>
      </trkpt>
      <trkpt lat="47.33442" lon="-2.37601">
        <ele>12.60000038147</ele>
        <time>2022-09-22T08:11:33.000Z</time>
      </trkpt>
      <trkpt lat="47.33423" lon="-2.37615">
        <ele>12.60000038147</ele>
        <time>2022-09-22T08:11:38.000Z</time>
      </trkpt>
      <trkpt lat="47.33414" lon="-2.37623">
        <ele>12.60000038147</ele>
        <time>2022-09-22T08:11:40.000Z</time>
      </trkpt>
      <trkpt lat="47.33398" lon="-2.3764">
        <ele>12.60000038147</ele>
        <time>2022-09-22T08:11:44.000Z</time>
      </trkpt>
      <trkpt lat="47.33392" lon="-2.37652">
        <ele>12.60000038147</ele>
        <time>2022-09-22T08:11:46.000Z</time>
      </trkpt>
      <trkpt lat="47.33387" lon="-2.37679">
        <ele>12.60000038147</ele>
        <time>2022-09-22T08:11:50.000Z</time>
      </trkpt>
      <trkpt lat="47.33387" lon="-2.37686">
        <ele>12.60000038147</ele>
        <time>2022-09-22T08:11:51.000Z</time>
      </trkpt>
      <trkpt lat="47.33386" lon="-2.3772">
        <ele>13</ele>
        <time>2022-09-22T08:11:56.000Z</time>
      </trkpt>
      <trkpt lat="47.33385" lon="-2.37727">
        <ele>13.39999961853</ele>
        <time>2022-09-22T08:11:57.000Z</time>
      </trkpt>
      <trkpt lat="47.33385" lon="-2.37733">
        <ele>13.800000190735</ele>
        <time>2022-09-22T08:11:58.000Z</time>
      </trkpt>
      <trkpt lat="47.33386" lon="-2.3774">
        <ele>14.199999809265</ele>
        <time>2022-09-22T08:11:59.000Z</time>
      </trkpt>
      <trkpt lat="47.33386" lon="-2.37747">
        <ele>14.60000038147</ele>
        <time>2022-09-22T08:12:00.000Z</time>
      </trkpt>
      <trkpt lat="47.33386" lon="-2.37775">
        <ele>14.60000038147</ele>
        <time>2022-09-22T08:12:04.000Z</time>
      </trkpt>
      <trkpt lat="47.33379" lon="-2.37818">
        <ele>14.60000038147</ele>
        <time>2022-09-22T08:12:10.000Z</time>
      </trkpt>
      <trkpt lat="47.33365" lon="-2.3785">
        <ele>14.199999809265</ele>
        <time>2022-09-22T08:12:15.000Z</time>
      </trkpt>
      <trkpt lat="47.33362" lon="-2.37855">
        <ele>13.800000190735</ele>
        <time>2022-09-22T08:12:16.000Z</time>
      </trkpt>
      <trkpt lat="47.33358" lon="-2.37857">
        <ele>13.39999961853</ele>
        <time>2022-09-22T08:12:17.000Z</time>
      </trkpt>
      <trkpt lat="47.33354" lon="-2.37857">
        <ele>13</ele>
        <time>2022-09-22T08:12:18.000Z</time>
      </trkpt>
      <trkpt lat="47.3335" lon="-2.37857">
        <ele>12.60000038147</ele>
        <time>2022-09-22T08:12:19.000Z</time>
      </trkpt>
      <trkpt lat="47.33341" lon="-2.37856">
        <ele>12.60000038147</ele>
        <time>2022-09-22T08:12:21.000Z</time>
      </trkpt>
      <trkpt lat="47.33332" lon="-2.37858">
        <ele>12.60000038147</ele>
        <time>2022-09-22T08:12:23.000Z</time>
      </trkpt>
      <trkpt lat="47.3331" lon="-2.37866">
        <ele>12.60000038147</ele>
        <time>2022-09-22T08:12:27.000Z</time>
      </trkpt>
      <trkpt lat="47.33304" lon="-2.37868">
        <ele>12.199999809265</ele>
        <time>2022-09-22T08:12:28.000Z</time>
      </trkpt>
      <trkpt lat="47.33298" lon="-2.3787">
        <ele>11.800000190735</ele>
        <time>2022-09-22T08:12:29.000Z</time>
      </trkpt>
      <trkpt lat="47.33292" lon="-2.37872">
        <ele>11.199999809265</ele>
        <time>2022-09-22T08:12:30.000Z</time>
      </trkpt>
      <trkpt lat="47.33285" lon="-2.37873">
        <ele>10.800000190735</ele>
        <time>2022-09-22T08:12:31.000Z</time>
      </trkpt>
      <trkpt lat="47.33279" lon="-2.37875">
        <ele>10.39999961853</ele>
        <time>2022-09-22T08:12:32.000Z</time>
      </trkpt>
      <trkpt lat="47.33266" lon="-2.37879">
        <ele>10</ele>
        <time>2022-09-22T08:12:34.000Z</time>
      </trkpt>
      <trkpt lat="47.3326" lon="-2.37881">
        <ele>9.3999996185303</ele>
        <time>2022-09-22T08:12:35.000Z</time>
      </trkpt>
      <trkpt lat="47.33254" lon="-2.3788">
        <ele>8.6000003814697</ele>
        <time>2022-09-22T08:12:36.000Z</time>
      </trkpt>
      <trkpt lat="47.33248" lon="-2.37877">
        <ele>8.1999998092651</ele>
        <time>2022-09-22T08:12:37.000Z</time>
      </trkpt>
      <trkpt lat="47.33242" lon="-2.37871">
        <ele>7.5999999046326</ele>
        <time>2022-09-22T08:12:38.000Z</time>
      </trkpt>
      <trkpt lat="47.33237" lon="-2.37867">
        <ele>7.1999998092651</ele>
        <time>2022-09-22T08:12:39.000Z</time>
      </trkpt>
      <trkpt lat="47.33232" lon="-2.37861">
        <ele>6.8000001907349</ele>
        <time>2022-09-22T08:12:40.000Z</time>
      </trkpt>
      <trkpt lat="47.33226" lon="-2.37856">
        <ele>6.1999998092651</ele>
        <time>2022-09-22T08:12:41.000Z</time>
      </trkpt>
      <trkpt lat="47.33221" lon="-2.37849">
        <ele>5.8000001907349</ele>
        <time>2022-09-22T08:12:42.000Z</time>
      </trkpt>
      <trkpt lat="47.33212" lon="-2.37836">
        <ele>5.8000001907349</ele>
        <time>2022-09-22T08:12:44.000Z</time>
      </trkpt>
      <trkpt lat="47.33196" lon="-2.37809">
        <ele>5.4000000953674</ele>
        <time>2022-09-22T08:12:48.000Z</time>
      </trkpt>
      <trkpt lat="47.33191" lon="-2.37801">
        <ele>5</ele>
        <time>2022-09-22T08:12:49.000Z</time>
      </trkpt>
      <trkpt lat="47.33187" lon="-2.37794">
        <ele>4.5999999046326</ele>
        <time>2022-09-22T08:12:50.000Z</time>
      </trkpt>
      <trkpt lat="47.33182" lon="-2.37787">
        <ele>4</ele>
        <time>2022-09-22T08:12:51.000Z</time>
      </trkpt>
      <trkpt lat="47.33178" lon="-2.37779">
        <ele>3.5999999046326</ele>
        <time>2022-09-22T08:12:52.000Z</time>
      </trkpt>
      <trkpt lat="47.33166" lon="-2.37756">
        <ele>3.2000000476837</ele>
        <time>2022-09-22T08:12:55.000Z</time>
      </trkpt>
      <trkpt lat="47.33162" lon="-2.37748">
        <ele>2.7999999523163</ele>
        <time>2022-09-22T08:12:56.000Z</time>
      </trkpt>
      <trkpt lat="47.33156" lon="-2.37741">
        <ele>2.4000000953674</ele>
        <time>2022-09-22T08:12:57.000Z</time>
      </trkpt>
      <trkpt lat="47.3315" lon="-2.37737">
        <ele>2</ele>
        <time>2022-09-22T08:12:58.000Z</time>
      </trkpt>
      <trkpt lat="47.33145" lon="-2.37736">
        <ele>1.6000000238419</ele>
        <time>2022-09-22T08:12:59.000Z</time>
      </trkpt>
      <trkpt lat="47.33139" lon="-2.37738">
        <ele>1.6000000238419</ele>
        <time>2022-09-22T08:13:00.000Z</time>
      </trkpt>
      <trkpt lat="47.33119" lon="-2.37754">
        <ele>1.6000000238419</ele>
        <time>2022-09-22T08:13:04.000Z</time>
      </trkpt>
      <trkpt lat="47.33109" lon="-2.37763">
        <ele>1.6000000238419</ele>
        <time>2022-09-22T08:13:06.000Z</time>
      </trkpt>
      <trkpt lat="47.3309" lon="-2.37784">
        <ele>1.6000000238419</ele>
        <time>2022-09-22T08:13:10.000Z</time>
      </trkpt>
      <trkpt lat="47.33062" lon="-2.37812">
        <ele>1.6000000238419</ele>
        <time>2022-09-22T08:13:16.000Z</time>
      </trkpt>
      <trkpt lat="47.33044" lon="-2.3783">
        <ele>2</ele>
        <time>2022-09-22T08:13:20.000Z</time>
      </trkpt>
      <trkpt lat="47.3304" lon="-2.37835">
        <ele>2.4000000953674</ele>
        <time>2022-09-22T08:13:21.000Z</time>
      </trkpt>
      <trkpt lat="47.33036" lon="-2.3784">
        <ele>2.7999999523163</ele>
        <time>2022-09-22T08:13:22.000Z</time>
      </trkpt>
      <trkpt lat="47.33031" lon="-2.37845">
        <ele>3.2000000476837</ele>
        <time>2022-09-22T08:13:23.000Z</time>
      </trkpt>
      <trkpt lat="47.33027" lon="-2.3785">
        <ele>3.5999999046326</ele>
        <time>2022-09-22T08:13:24.000Z</time>
      </trkpt>
      <trkpt lat="47.33024" lon="-2.37856">
        <ele>3.5999999046326</ele>
        <time>2022-09-22T08:13:25.000Z</time>
      </trkpt>
      <trkpt lat="47.33019" lon="-2.37869">
        <ele>3.5999999046326</ele>
        <time>2022-09-22T08:13:27.000Z</time>
      </trkpt>
      <trkpt lat="47.33016" lon="-2.37875">
        <ele>3.5999999046326</ele>
        <time>2022-09-22T08:13:28.000Z</time>
      </trkpt>
      <trkpt lat="47.33002" lon="-2.379">
        <ele>3.5999999046326</ele>
        <time>2022-09-22T08:13:32.000Z</time>
      </trkpt>
      <trkpt lat="47.32997" lon="-2.37906">
        <ele>3.5999999046326</ele>
        <time>2022-09-22T08:13:33.000Z</time>
      </trkpt>
      <trkpt lat="47.32984" lon="-2.37931">
        <ele>3.5999999046326</ele>
        <time>2022-09-22T08:13:37.000Z</time>
      </trkpt>
      <trkpt lat="47.32962" lon="-2.37964">
        <ele>3.5999999046326</ele>
        <time>2022-09-22T08:13:43.000Z</time>
      </trkpt>
      <trkpt lat="47.32958" lon="-2.37969">
        <ele>4</ele>
        <time>2022-09-22T08:13:44.000Z</time>
      </trkpt>
      <trkpt lat="47.32954" lon="-2.37974">
        <ele>4.4000000953674</ele>
        <time>2022-09-22T08:13:45.000Z</time>
      </trkpt>
      <trkpt lat="47.3295" lon="-2.37979">
        <ele>4.8000001907349</ele>
        <time>2022-09-22T08:13:46.000Z</time>
      </trkpt>
      <trkpt lat="47.32947" lon="-2.37984">
        <ele>5.1999998092651</ele>
        <time>2022-09-22T08:13:47.000Z</time>
      </trkpt>
      <trkpt lat="47.32943" lon="-2.3799">
        <ele>5.5999999046326</ele>
        <time>2022-09-22T08:13:48.000Z</time>
      </trkpt>
      <trkpt lat="47.32939" lon="-2.37995">
        <ele>5.5999999046326</ele>
        <time>2022-09-22T08:13:49.000Z</time>
      </trkpt>
      <trkpt lat="47.32928" lon="-2.38012">
        <ele>5.5999999046326</ele>
        <time>2022-09-22T08:13:52.000Z</time>
      </trkpt>
      <trkpt lat="47.32921" lon="-2.38024">
        <ele>5.5999999046326</ele>
        <time>2022-09-22T08:13:54.000Z</time>
      </trkpt>
      <trkpt lat="47.32903" lon="-2.38054">
        <ele>5.5999999046326</ele>
        <time>2022-09-22T08:13:59.000Z</time>
      </trkpt>
      <trkpt lat="47.329" lon="-2.3806">
        <ele>5.5999999046326</ele>
        <time>2022-09-22T08:14:00.000Z</time>
      </trkpt>
      <trkpt lat="47.32879" lon="-2.38097">
        <ele>5.5999999046326</ele>
        <time>2022-09-22T08:14:06.000Z</time>
      </trkpt>
      <trkpt lat="47.32876" lon="-2.38103">
        <ele>5.5999999046326</ele>
        <time>2022-09-22T08:14:07.000Z</time>
      </trkpt>
      <trkpt lat="47.32859" lon="-2.3813">
        <ele>5.5999999046326</ele>
        <time>2022-09-22T08:14:12.000Z</time>
      </trkpt>
      <trkpt lat="47.32856" lon="-2.38136">
        <ele>6.1999998092651</ele>
        <time>2022-09-22T08:14:13.000Z</time>
      </trkpt>
      <trkpt lat="47.32854" lon="-2.38141">
        <ele>6.5999999046326</ele>
        <time>2022-09-22T08:14:14.000Z</time>
      </trkpt>
      <trkpt lat="47.3285" lon="-2.38146">
        <ele>7.4000000953674</ele>
        <time>2022-09-22T08:14:15.000Z</time>
      </trkpt>
      <trkpt lat="47.32847" lon="-2.38152">
        <ele>7.8000001907349</ele>
        <time>2022-09-22T08:14:16.000Z</time>
      </trkpt>
      <trkpt lat="47.32844" lon="-2.38158">
        <ele>7.8000001907349</ele>
        <time>2022-09-22T08:14:17.000Z</time>
      </trkpt>
      <trkpt lat="47.32838" lon="-2.38169">
        <ele>7.8000001907349</ele>
        <time>2022-09-22T08:14:19.000Z</time>
      </trkpt>
      <trkpt lat="47.3283" lon="-2.38187">
        <ele>7.8000001907349</ele>
        <time>2022-09-22T08:14:22.000Z</time>
      </trkpt>
      <trkpt lat="47.32828" lon="-2.38193">
        <ele>7.8000001907349</ele>
        <time>2022-09-22T08:14:23.000Z</time>
      </trkpt>
      <trkpt lat="47.32819" lon="-2.38217">
        <ele>7.8000001907349</ele>
        <time>2022-09-22T08:14:27.000Z</time>
      </trkpt>
      <trkpt lat="47.32817" lon="-2.38223">
        <ele>8.1999998092651</ele>
        <time>2022-09-22T08:14:28.000Z</time>
      </trkpt>
      <trkpt lat="47.32816" lon="-2.38229">
        <ele>8.6000003814697</ele>
        <time>2022-09-22T08:14:29.000Z</time>
      </trkpt>
      <trkpt lat="47.32814" lon="-2.38235">
        <ele>9</ele>
        <time>2022-09-22T08:14:30.000Z</time>
      </trkpt>
      <trkpt lat="47.32812" lon="-2.3824">
        <ele>9.3999996185303</ele>
        <time>2022-09-22T08:14:31.000Z</time>
      </trkpt>
      <trkpt lat="47.32811" lon="-2.38246">
        <ele>9.8000001907349</ele>
        <time>2022-09-22T08:14:32.000Z</time>
      </trkpt>
      <trkpt lat="47.32809" lon="-2.38251">
        <ele>9.8000001907349</ele>
        <time>2022-09-22T08:14:33.000Z</time>
      </trkpt>
      <trkpt lat="47.32805" lon="-2.38268">
        <ele>10.199999809265</ele>
        <time>2022-09-22T08:14:36.000Z</time>
      </trkpt>
      <trkpt lat="47.32804" lon="-2.38273">
        <ele>10.800000190735</ele>
        <time>2022-09-22T08:14:37.000Z</time>
      </trkpt>
      <trkpt lat="47.32802" lon="-2.38279">
        <ele>11.199999809265</ele>
        <time>2022-09-22T08:14:38.000Z</time>
      </trkpt>
      <trkpt lat="47.328" lon="-2.38284">
        <ele>12</ele>
        <time>2022-09-22T08:14:39.000Z</time>
      </trkpt>
      <trkpt lat="47.32794" lon="-2.38307">
        <ele>12</ele>
        <time>2022-09-22T08:14:43.000Z</time>
      </trkpt>
      <trkpt lat="47.32793" lon="-2.38313">
        <ele>12.39999961853</ele>
        <time>2022-09-22T08:14:44.000Z</time>
      </trkpt>
      <trkpt lat="47.32792" lon="-2.38318">
        <ele>12.800000190735</ele>
        <time>2022-09-22T08:14:45.000Z</time>
      </trkpt>
      <trkpt lat="47.32791" lon="-2.38323">
        <ele>13.199999809265</ele>
        <time>2022-09-22T08:14:46.000Z</time>
      </trkpt>
      <trkpt lat="47.3279" lon="-2.38328">
        <ele>13.800000190735</ele>
        <time>2022-09-22T08:14:47.000Z</time>
      </trkpt>
      <trkpt lat="47.32789" lon="-2.38333">
        <ele>14.199999809265</ele>
        <time>2022-09-22T08:14:48.000Z</time>
      </trkpt>
      <trkpt lat="47.32788" lon="-2.38339">
        <ele>14.199999809265</ele>
        <time>2022-09-22T08:14:49.000Z</time>
      </trkpt>
      <trkpt lat="47.32785" lon="-2.3835">
        <ele>14.199999809265</ele>
        <time>2022-09-22T08:14:51.000Z</time>
      </trkpt>
      <trkpt lat="47.32782" lon="-2.38367">
        <ele>14.60000038147</ele>
        <time>2022-09-22T08:14:54.000Z</time>
      </trkpt>
      <trkpt lat="47.32781" lon="-2.38371">
        <ele>15</ele>
        <time>2022-09-22T08:14:55.000Z</time>
      </trkpt>
      <trkpt lat="47.3278" lon="-2.38375">
        <ele>15.39999961853</ele>
        <time>2022-09-22T08:14:56.000Z</time>
      </trkpt>
      <trkpt lat="47.3278" lon="-2.38378">
        <ele>16</ele>
        <time>2022-09-22T08:14:57.000Z</time>
      </trkpt>
      <trkpt lat="47.32778" lon="-2.3838">
        <ele>16.39999961853</ele>
        <time>2022-09-22T08:14:58.000Z</time>
      </trkpt>
      <trkpt lat="47.32777" lon="-2.38385">
        <ele>16.39999961853</ele>
        <time>2022-09-22T08:15:00.000Z</time>
      </trkpt>
      <trkpt lat="47.32774" lon="-2.38391">
        <ele>16.39999961853</ele>
        <time>2022-09-22T08:15:06.000Z</time>
      </trkpt>
      <trkpt lat="47.3277" lon="-2.38393">
        <ele>16.39999961853</ele>
        <time>2022-09-22T08:16:25.000Z</time>
      </trkpt>
      <trkpt lat="47.32766" lon="-2.38395">
        <ele>16.39999961853</ele>
        <time>2022-09-22T08:16:27.000Z</time>
      </trkpt>
      <trkpt lat="47.32752" lon="-2.38397">
        <ele>16.39999961853</ele>
        <time>2022-09-22T08:16:31.000Z</time>
      </trkpt>
      <trkpt lat="47.32749" lon="-2.38398">
        <ele>16.39999961853</ele>
        <time>2022-09-22T08:16:32.000Z</time>
      </trkpt>
      <trkpt lat="47.3273" lon="-2.38404">
        <ele>16.39999961853</ele>
        <time>2022-09-22T08:16:37.000Z</time>
      </trkpt>
      <trkpt lat="47.32722" lon="-2.38406">
        <ele>16.39999961853</ele>
        <time>2022-09-22T08:16:39.000Z</time>
      </trkpt>
      <trkpt lat="47.32702" lon="-2.38406">
        <ele>16.39999961853</ele>
        <time>2022-09-22T08:16:43.000Z</time>
      </trkpt>
      <trkpt lat="47.32685" lon="-2.38392">
        <ele>16</ele>
        <time>2022-09-22T08:16:47.000Z</time>
      </trkpt>
      <trkpt lat="47.3268" lon="-2.38387">
        <ele>15.60000038147</ele>
        <time>2022-09-22T08:16:48.000Z</time>
      </trkpt>
      <trkpt lat="47.32676" lon="-2.38381">
        <ele>15.199999809265</ele>
        <time>2022-09-22T08:16:49.000Z</time>
      </trkpt>
      <trkpt lat="47.32671" lon="-2.38375">
        <ele>14.800000190735</ele>
        <time>2022-09-22T08:16:50.000Z</time>
      </trkpt>
      <trkpt lat="47.32666" lon="-2.38369">
        <ele>14.39999961853</ele>
        <time>2022-09-22T08:16:51.000Z</time>
      </trkpt>
      <trkpt lat="47.32656" lon="-2.38355">
        <ele>14.39999961853</ele>
        <time>2022-09-22T08:16:53.000Z</time>
      </trkpt>
      <trkpt lat="47.32651" lon="-2.38349">
        <ele>13.800000190735</ele>
        <time>2022-09-22T08:16:54.000Z</time>
      </trkpt>
      <trkpt lat="47.32646" lon="-2.38342">
        <ele>13.39999961853</ele>
        <time>2022-09-22T08:16:55.000Z</time>
      </trkpt>
      <trkpt lat="47.3264" lon="-2.38335">
        <ele>13</ele>
        <time>2022-09-22T08:16:56.000Z</time>
      </trkpt>
      <trkpt lat="47.32635" lon="-2.38327">
        <ele>12.60000038147</ele>
        <time>2022-09-22T08:16:57.000Z</time>
      </trkpt>
      <trkpt lat="47.32629" lon="-2.3832">
        <ele>12</ele>
        <time>2022-09-22T08:16:58.000Z</time>
      </trkpt>
      <trkpt lat="47.32617" lon="-2.38307">
        <ele>11.60000038147</ele>
        <time>2022-09-22T08:17:00.000Z</time>
      </trkpt>
      <trkpt lat="47.32611" lon="-2.38301">
        <ele>11.199999809265</ele>
        <time>2022-09-22T08:17:01.000Z</time>
      </trkpt>
      <trkpt lat="47.32604" lon="-2.38298">
        <ele>10.800000190735</ele>
        <time>2022-09-22T08:17:02.000Z</time>
      </trkpt>
      <trkpt lat="47.32598" lon="-2.38297">
        <ele>10.199999809265</ele>
        <time>2022-09-22T08:17:03.000Z</time>
      </trkpt>
      <trkpt lat="47.3259" lon="-2.38298">
        <ele>9.8000001907349</ele>
        <time>2022-09-22T08:17:04.000Z</time>
      </trkpt>
      <trkpt lat="47.32583" lon="-2.38299">
        <ele>9.3999996185303</ele>
        <time>2022-09-22T08:17:05.000Z</time>
      </trkpt>
      <trkpt lat="47.32577" lon="-2.38301">
        <ele>9</ele>
        <time>2022-09-22T08:17:06.000Z</time>
      </trkpt>
      <trkpt lat="47.32571" lon="-2.38304">
        <ele>8.1999998092651</ele>
        <time>2022-09-22T08:17:07.000Z</time>
      </trkpt>
      <trkpt lat="47.32565" lon="-2.38307">
        <ele>7.5999999046326</ele>
        <time>2022-09-22T08:17:08.000Z</time>
      </trkpt>
      <trkpt lat="47.32542" lon="-2.38316">
        <ele>7.5999999046326</ele>
        <time>2022-09-22T08:17:13.000Z</time>
      </trkpt>
      <trkpt lat="47.32531" lon="-2.38324">
        <ele>7.5999999046326</ele>
        <time>2022-09-22T08:17:17.000Z</time>
      </trkpt>
      <trkpt lat="47.32532" lon="-2.38328">
        <ele>8</ele>
        <time>2022-09-22T08:17:18.000Z</time>
      </trkpt>
      <trkpt lat="47.32532" lon="-2.38332">
        <ele>8.3999996185303</ele>
        <time>2022-09-22T08:17:19.000Z</time>
      </trkpt>
      <trkpt lat="47.32531" lon="-2.38337">
        <ele>9</ele>
        <time>2022-09-22T08:17:20.000Z</time>
      </trkpt>
      <trkpt lat="47.3253" lon="-2.38342">
        <ele>9.3999996185303</ele>
        <time>2022-09-22T08:17:21.000Z</time>
      </trkpt>
      <trkpt lat="47.32529" lon="-2.38348">
        <ele>9.8000001907349</ele>
        <time>2022-09-22T08:17:22.000Z</time>
      </trkpt>
      <trkpt lat="47.32528" lon="-2.3836">
        <ele>9.8000001907349</ele>
        <time>2022-09-22T08:17:24.000Z</time>
      </trkpt>
      <trkpt lat="47.32526" lon="-2.38378">
        <ele>9.8000001907349</ele>
        <time>2022-09-22T08:17:27.000Z</time>
      </trkpt>
      <trkpt lat="47.32519" lon="-2.38386">
        <ele>9.8000001907349</ele>
        <time>2022-09-22T08:17:29.000Z</time>
      </trkpt>
      <trkpt lat="47.32515" lon="-2.38386">
        <ele>9.8000001907349</ele>
        <time>2022-09-22T08:17:30.000Z</time>
      </trkpt>
      <trkpt lat="47.32494" lon="-2.3838">
        <ele>9.8000001907349</ele>
        <time>2022-09-22T08:17:34.000Z</time>
      </trkpt>
      <trkpt lat="47.3249" lon="-2.38378">
        <ele>9.8000001907349</ele>
        <time>2022-09-22T08:17:35.000Z</time>
      </trkpt>
      <trkpt lat="47.3248" lon="-2.38375">
        <ele>10.199999809265</ele>
        <time>2022-09-22T08:17:37.000Z</time>
      </trkpt>
      <trkpt lat="47.32476" lon="-2.38372">
        <ele>10.60000038147</ele>
        <time>2022-09-22T08:17:38.000Z</time>
      </trkpt>
      <trkpt lat="47.32472" lon="-2.38371">
        <ele>11</ele>
        <time>2022-09-22T08:17:39.000Z</time>
      </trkpt>
      <trkpt lat="47.32467" lon="-2.38369">
        <ele>11.39999961853</ele>
        <time>2022-09-22T08:17:40.000Z</time>
      </trkpt>
      <trkpt lat="47.32462" lon="-2.38366">
        <ele>11.800000190735</ele>
        <time>2022-09-22T08:17:41.000Z</time>
      </trkpt>
      <trkpt lat="47.32431" lon="-2.38352">
        <ele>11.800000190735</ele>
        <time>2022-09-22T08:17:47.000Z</time>
      </trkpt>
      <trkpt lat="47.32416" lon="-2.38346">
        <ele>11.800000190735</ele>
        <time>2022-09-22T08:17:50.000Z</time>
      </trkpt>
      <trkpt lat="47.32407" lon="-2.38341">
        <ele>11.800000190735</ele>
        <time>2022-09-22T08:17:52.000Z</time>
      </trkpt>
      <trkpt lat="47.32371" lon="-2.38323">
        <ele>11.800000190735</ele>
        <time>2022-09-22T08:17:59.000Z</time>
      </trkpt>
      <trkpt lat="47.3234" lon="-2.38308">
        <ele>11.39999961853</ele>
        <time>2022-09-22T08:18:04.000Z</time>
      </trkpt>
      <trkpt lat="47.32333" lon="-2.38305">
        <ele>10.800000190735</ele>
        <time>2022-09-22T08:18:05.000Z</time>
      </trkpt>
      <trkpt lat="47.32328" lon="-2.38302">
        <ele>10.39999961853</ele>
        <time>2022-09-22T08:18:06.000Z</time>
      </trkpt>
      <trkpt lat="47.32322" lon="-2.383">
        <ele>10</ele>
        <time>2022-09-22T08:18:07.000Z</time>
      </trkpt>
      <trkpt lat="47.32316" lon="-2.38298">
        <ele>9.6000003814697</ele>
        <time>2022-09-22T08:18:08.000Z</time>
      </trkpt>
      <trkpt lat="47.32304" lon="-2.38293">
        <ele>9.6000003814697</ele>
        <time>2022-09-22T08:18:10.000Z</time>
      </trkpt>
      <trkpt lat="47.32279" lon="-2.38285">
        <ele>9.1999998092651</ele>
        <time>2022-09-22T08:18:14.000Z</time>
      </trkpt>
      <trkpt lat="47.32273" lon="-2.38285">
        <ele>8.8000001907349</ele>
        <time>2022-09-22T08:18:15.000Z</time>
      </trkpt>
      <trkpt lat="47.32266" lon="-2.38285">
        <ele>8.3999996185303</ele>
        <time>2022-09-22T08:18:16.000Z</time>
      </trkpt>
      <trkpt lat="47.32258" lon="-2.38287">
        <ele>8</ele>
        <time>2022-09-22T08:18:17.000Z</time>
      </trkpt>
      <trkpt lat="47.32251" lon="-2.38288">
        <ele>7.5999999046326</ele>
        <time>2022-09-22T08:18:18.000Z</time>
      </trkpt>
      <trkpt lat="47.32232" lon="-2.38291">
        <ele>7.5999999046326</ele>
        <time>2022-09-22T08:18:21.000Z</time>
      </trkpt>
      <trkpt lat="47.32216" lon="-2.38294">
        <ele>7.5999999046326</ele>
        <time>2022-09-22T08:18:24.000Z</time>
      </trkpt>
      <trkpt lat="47.32212" lon="-2.38298">
        <ele>7.5999999046326</ele>
        <time>2022-09-22T08:18:25.000Z</time>
      </trkpt>
      <trkpt lat="47.32196" lon="-2.38321">
        <ele>7.5999999046326</ele>
        <time>2022-09-22T08:18:29.000Z</time>
      </trkpt>
      <trkpt lat="47.32175" lon="-2.38352">
        <ele>7.5999999046326</ele>
        <time>2022-09-22T08:18:35.000Z</time>
      </trkpt>
      <trkpt lat="47.32167" lon="-2.38363">
        <ele>7.5999999046326</ele>
        <time>2022-09-22T08:18:37.000Z</time>
      </trkpt>
      <trkpt lat="47.3216" lon="-2.38375">
        <ele>7.5999999046326</ele>
        <time>2022-09-22T08:18:39.000Z</time>
      </trkpt>
      <trkpt lat="47.32144" lon="-2.38399">
        <ele>7.5999999046326</ele>
        <time>2022-09-22T08:18:43.000Z</time>
      </trkpt>
      <trkpt lat="47.32136" lon="-2.38407">
        <ele>7.5999999046326</ele>
        <time>2022-09-22T08:18:45.000Z</time>
      </trkpt>
      <trkpt lat="47.32131" lon="-2.38411">
        <ele>7.5999999046326</ele>
        <time>2022-09-22T08:18:46.000Z</time>
      </trkpt>
      <trkpt lat="47.32114" lon="-2.38422">
        <ele>7.5999999046326</ele>
        <time>2022-09-22T08:18:49.000Z</time>
      </trkpt>
      <trkpt lat="47.32092" lon="-2.38433">
        <ele>7.5999999046326</ele>
        <time>2022-09-22T08:18:53.000Z</time>
      </trkpt>
      <trkpt lat="47.3208" lon="-2.38439">
        <ele>7.5999999046326</ele>
        <time>2022-09-22T08:18:55.000Z</time>
      </trkpt>
      <trkpt lat="47.32053" lon="-2.38452">
        <ele>8</ele>
        <time>2022-09-22T08:19:00.000Z</time>
      </trkpt>
      <trkpt lat="47.32048" lon="-2.38454">
        <ele>8.3999996185303</ele>
        <time>2022-09-22T08:19:01.000Z</time>
      </trkpt>
      <trkpt lat="47.32042" lon="-2.38456">
        <ele>8.8000001907349</ele>
        <time>2022-09-22T08:19:02.000Z</time>
      </trkpt>
      <trkpt lat="47.32037" lon="-2.38458">
        <ele>9.1999998092651</ele>
        <time>2022-09-22T08:19:03.000Z</time>
      </trkpt>
      <trkpt lat="47.32031" lon="-2.3846">
        <ele>9.6000003814697</ele>
        <time>2022-09-22T08:19:04.000Z</time>
      </trkpt>
      <trkpt lat="47.3202" lon="-2.38464">
        <ele>9.6000003814697</ele>
        <time>2022-09-22T08:19:06.000Z</time>
      </trkpt>
      <trkpt lat="47.31987" lon="-2.38477">
        <ele>9.6000003814697</ele>
        <time>2022-09-22T08:19:12.000Z</time>
      </trkpt>
      <trkpt lat="47.3197" lon="-2.38482">
        <ele>10</ele>
        <time>2022-09-22T08:19:15.000Z</time>
      </trkpt>
      <trkpt lat="47.31965" lon="-2.38485">
        <ele>10.39999961853</ele>
        <time>2022-09-22T08:19:16.000Z</time>
      </trkpt>
      <trkpt lat="47.31959" lon="-2.38486">
        <ele>10.800000190735</ele>
        <time>2022-09-22T08:19:17.000Z</time>
      </trkpt>
      <trkpt lat="47.31954" lon="-2.38488">
        <ele>11.199999809265</ele>
        <time>2022-09-22T08:19:18.000Z</time>
      </trkpt>
      <trkpt lat="47.31949" lon="-2.38489">
        <ele>11.800000190735</ele>
        <time>2022-09-22T08:19:19.000Z</time>
      </trkpt>
      <trkpt lat="47.31916" lon="-2.38498">
        <ele>11.800000190735</ele>
        <time>2022-09-22T08:19:25.000Z</time>
      </trkpt>
      <trkpt lat="47.31911" lon="-2.38502">
        <ele>11.800000190735</ele>
        <time>2022-09-22T08:19:26.000Z</time>
      </trkpt>
      <trkpt lat="47.31906" lon="-2.38504">
        <ele>12.199999809265</ele>
        <time>2022-09-22T08:19:27.000Z</time>
      </trkpt>
      <trkpt lat="47.31901" lon="-2.38507">
        <ele>12.60000038147</ele>
        <time>2022-09-22T08:19:28.000Z</time>
      </trkpt>
      <trkpt lat="47.31895" lon="-2.3851">
        <ele>13</ele>
        <time>2022-09-22T08:19:29.000Z</time>
      </trkpt>
      <trkpt lat="47.31891" lon="-2.38512">
        <ele>13.39999961853</ele>
        <time>2022-09-22T08:19:30.000Z</time>
      </trkpt>
      <trkpt lat="47.31885" lon="-2.38514">
        <ele>13.800000190735</ele>
        <time>2022-09-22T08:19:31.000Z</time>
      </trkpt>
      <trkpt lat="47.3187" lon="-2.38519">
        <ele>13.800000190735</ele>
        <time>2022-09-22T08:19:34.000Z</time>
      </trkpt>
      <trkpt lat="47.31861" lon="-2.38524">
        <ele>14.199999809265</ele>
        <time>2022-09-22T08:19:36.000Z</time>
      </trkpt>
      <trkpt lat="47.31857" lon="-2.38525">
        <ele>14.60000038147</ele>
        <time>2022-09-22T08:19:37.000Z</time>
      </trkpt>
      <trkpt lat="47.31853" lon="-2.38527">
        <ele>15.199999809265</ele>
        <time>2022-09-22T08:19:38.000Z</time>
      </trkpt>
      <trkpt lat="47.31848" lon="-2.38528">
        <ele>15.60000038147</ele>
        <time>2022-09-22T08:19:39.000Z</time>
      </trkpt>
      <trkpt lat="47.31844" lon="-2.3853">
        <ele>16</ele>
        <time>2022-09-22T08:19:40.000Z</time>
      </trkpt>
      <trkpt lat="47.31832" lon="-2.38533">
        <ele>16</ele>
        <time>2022-09-22T08:19:43.000Z</time>
      </trkpt>
      <trkpt lat="47.31817" lon="-2.38536">
        <ele>16.39999961853</ele>
        <time>2022-09-22T08:19:47.000Z</time>
      </trkpt>
      <trkpt lat="47.31813" lon="-2.38537">
        <ele>16.799999237061</ele>
        <time>2022-09-22T08:19:48.000Z</time>
      </trkpt>
      <trkpt lat="47.3181" lon="-2.38538">
        <ele>17.200000762939</ele>
        <time>2022-09-22T08:19:49.000Z</time>
      </trkpt>
      <trkpt lat="47.31807" lon="-2.38539">
        <ele>17.60000038147</ele>
        <time>2022-09-22T08:19:50.000Z</time>
      </trkpt>
      <trkpt lat="47.31803" lon="-2.38538">
        <ele>18</ele>
        <time>2022-09-22T08:19:51.000Z</time>
      </trkpt>
      <trkpt lat="47.31793" lon="-2.3854">
        <ele>18</ele>
        <time>2022-09-22T08:19:54.000Z</time>
      </trkpt>
      <trkpt lat="47.31785" lon="-2.38543">
        <ele>18</ele>
        <time>2022-09-22T08:19:56.000Z</time>
      </trkpt>
      <trkpt lat="47.31769" lon="-2.38553">
        <ele>18</ele>
        <time>2022-09-22T08:20:00.000Z</time>
      </trkpt>
      <trkpt lat="47.31742" lon="-2.38569">
        <ele>18</ele>
        <time>2022-09-22T08:20:06.000Z</time>
      </trkpt>
      <trkpt lat="47.31714" lon="-2.38587">
        <ele>18</ele>
        <time>2022-09-22T08:20:12.000Z</time>
      </trkpt>
      <trkpt lat="47.31688" lon="-2.38601">
        <ele>18</ele>
        <time>2022-09-22T08:20:17.000Z</time>
      </trkpt>
      <trkpt lat="47.31654" lon="-2.38627">
        <ele>18</ele>
        <time>2022-09-22T08:20:24.000Z</time>
      </trkpt>
      <trkpt lat="47.31628" lon="-2.38659">
        <ele>18</ele>
        <time>2022-09-22T08:20:30.000Z</time>
      </trkpt>
      <trkpt lat="47.31591" lon="-2.38717">
        <ele>18</ele>
        <time>2022-09-22T08:20:39.000Z</time>
      </trkpt>
      <trkpt lat="47.31561" lon="-2.38762">
        <ele>18</ele>
        <time>2022-09-22T08:20:46.000Z</time>
      </trkpt>
      <trkpt lat="47.31528" lon="-2.38819">
        <ele>18</ele>
        <time>2022-09-22T08:20:55.000Z</time>
      </trkpt>
      <trkpt lat="47.31504" lon="-2.38866">
        <ele>18</ele>
        <time>2022-09-22T08:21:02.000Z</time>
      </trkpt>
      <trkpt lat="47.31489" lon="-2.38893">
        <ele>18.60000038147</ele>
        <time>2022-09-22T08:21:06.000Z</time>
      </trkpt>
      <trkpt lat="47.31485" lon="-2.389">
        <ele>19</ele>
        <time>2022-09-22T08:21:07.000Z</time>
      </trkpt>
      <trkpt lat="47.31482" lon="-2.38906">
        <ele>19.39999961853</ele>
        <time>2022-09-22T08:21:08.000Z</time>
      </trkpt>
      <trkpt lat="47.31478" lon="-2.38913">
        <ele>19.799999237061</ele>
        <time>2022-09-22T08:21:09.000Z</time>
      </trkpt>
      <trkpt lat="47.31475" lon="-2.3892">
        <ele>20.200000762939</ele>
        <time>2022-09-22T08:21:10.000Z</time>
      </trkpt>
      <trkpt lat="47.31454" lon="-2.38961">
        <ele>20.200000762939</ele>
        <time>2022-09-22T08:21:16.000Z</time>
      </trkpt>
      <trkpt lat="47.31432" lon="-2.39009">
        <ele>20.200000762939</ele>
        <time>2022-09-22T08:21:23.000Z</time>
      </trkpt>
      <trkpt lat="47.31413" lon="-2.39053">
        <ele>20.200000762939</ele>
        <time>2022-09-22T08:21:29.000Z</time>
      </trkpt>
      <trkpt lat="47.31405" lon="-2.39065">
        <ele>20.200000762939</ele>
        <time>2022-09-22T08:21:31.000Z</time>
      </trkpt>
      <trkpt lat="47.31393" lon="-2.39082">
        <ele>20.60000038147</ele>
        <time>2022-09-22T08:21:34.000Z</time>
      </trkpt>
      <trkpt lat="47.31389" lon="-2.39087">
        <ele>21</ele>
        <time>2022-09-22T08:21:35.000Z</time>
      </trkpt>
      <trkpt lat="47.31385" lon="-2.39092">
        <ele>21.39999961853</ele>
        <time>2022-09-22T08:21:36.000Z</time>
      </trkpt>
      <trkpt lat="47.31381" lon="-2.39097">
        <ele>22.200000762939</ele>
        <time>2022-09-22T08:21:37.000Z</time>
      </trkpt>
      <trkpt lat="47.31364" lon="-2.39114">
        <ele>22.200000762939</ele>
        <time>2022-09-22T08:21:41.000Z</time>
      </trkpt>
      <trkpt lat="47.31328" lon="-2.39152">
        <ele>22.200000762939</ele>
        <time>2022-09-22T08:21:49.000Z</time>
      </trkpt>
      <trkpt lat="47.31298" lon="-2.39183">
        <ele>22.200000762939</ele>
        <time>2022-09-22T08:21:56.000Z</time>
      </trkpt>
      <trkpt lat="47.31294" lon="-2.39189">
        <ele>22.200000762939</ele>
        <time>2022-09-22T08:21:57.000Z</time>
      </trkpt>
      <trkpt lat="47.31274" lon="-2.39214">
        <ele>22.200000762939</ele>
        <time>2022-09-22T08:22:02.000Z</time>
      </trkpt>
      <trkpt lat="47.31254" lon="-2.39247">
        <ele>22.200000762939</ele>
        <time>2022-09-22T08:22:08.000Z</time>
      </trkpt>
      <trkpt lat="47.3123" lon="-2.3928">
        <ele>22.200000762939</ele>
        <time>2022-09-22T08:22:15.000Z</time>
      </trkpt>
      <trkpt lat="47.31225" lon="-2.39284">
        <ele>22.200000762939</ele>
        <time>2022-09-22T08:22:16.000Z</time>
      </trkpt>
      <trkpt lat="47.31195" lon="-2.3931">
        <ele>22.200000762939</ele>
        <time>2022-09-22T08:22:22.000Z</time>
      </trkpt>
      <trkpt lat="47.31149" lon="-2.39341">
        <ele>22.200000762939</ele>
        <time>2022-09-22T08:22:30.000Z</time>
      </trkpt>
      <trkpt lat="47.31129" lon="-2.39362">
        <ele>21.799999237061</ele>
        <time>2022-09-22T08:22:34.000Z</time>
      </trkpt>
      <trkpt lat="47.31125" lon="-2.39368">
        <ele>21.39999961853</ele>
        <time>2022-09-22T08:22:35.000Z</time>
      </trkpt>
      <trkpt lat="47.3112" lon="-2.39373">
        <ele>21</ele>
        <time>2022-09-22T08:22:36.000Z</time>
      </trkpt>
      <trkpt lat="47.31116" lon="-2.39379">
        <ele>20.60000038147</ele>
        <time>2022-09-22T08:22:37.000Z</time>
      </trkpt>
      <trkpt lat="47.31112" lon="-2.39384">
        <ele>20.200000762939</ele>
        <time>2022-09-22T08:22:38.000Z</time>
      </trkpt>
      <trkpt lat="47.31079" lon="-2.39429">
        <ele>20.200000762939</ele>
        <time>2022-09-22T08:22:46.000Z</time>
      </trkpt>
      <trkpt lat="47.31052" lon="-2.3946">
        <ele>20.200000762939</ele>
        <time>2022-09-22T08:22:53.000Z</time>
      </trkpt>
      <trkpt lat="47.31047" lon="-2.39474">
        <ele>20.200000762939</ele>
        <time>2022-09-22T08:22:58.000Z</time>
      </trkpt>
      <trkpt lat="47.31047" lon="-2.39479">
        <ele>20.200000762939</ele>
        <time>2022-09-22T08:22:59.000Z</time>
      </trkpt>
      <trkpt lat="47.3105" lon="-2.39488">
        <ele>20.200000762939</ele>
        <time>2022-09-22T08:23:01.000Z</time>
      </trkpt>
      <trkpt lat="47.3106" lon="-2.3952">
        <ele>20.200000762939</ele>
        <time>2022-09-22T08:23:07.000Z</time>
      </trkpt>
      <trkpt lat="47.31075" lon="-2.39562">
        <ele>20.200000762939</ele>
        <time>2022-09-22T08:23:15.000Z</time>
      </trkpt>
      <trkpt lat="47.31094" lon="-2.39616">
        <ele>20.200000762939</ele>
        <time>2022-09-22T08:23:25.000Z</time>
      </trkpt>
      <trkpt lat="47.3111" lon="-2.39664">
        <ele>20.200000762939</ele>
        <time>2022-09-22T08:23:33.000Z</time>
      </trkpt>
      <trkpt lat="47.31133" lon="-2.39728">
        <ele>20.200000762939</ele>
        <time>2022-09-22T08:23:43.000Z</time>
      </trkpt>
      <trkpt lat="47.31149" lon="-2.39774">
        <ele>20.200000762939</ele>
        <time>2022-09-22T08:23:49.000Z</time>
      </trkpt>
      <trkpt lat="47.31167" lon="-2.39826">
        <ele>20.200000762939</ele>
        <time>2022-09-22T08:23:56.000Z</time>
      </trkpt>
      <trkpt lat="47.3117" lon="-2.39832">
        <ele>20.200000762939</ele>
        <time>2022-09-22T08:23:57.000Z</time>
      </trkpt>
      <trkpt lat="47.31176" lon="-2.39844">
        <ele>19.799999237061</ele>
        <time>2022-09-22T08:23:59.000Z</time>
      </trkpt>
      <trkpt lat="47.31178" lon="-2.39851">
        <ele>19.39999961853</ele>
        <time>2022-09-22T08:24:00.000Z</time>
      </trkpt>
      <trkpt lat="47.3118" lon="-2.39857">
        <ele>19</ele>
        <time>2022-09-22T08:24:01.000Z</time>
      </trkpt>
      <trkpt lat="47.31181" lon="-2.39864">
        <ele>18.60000038147</ele>
        <time>2022-09-22T08:24:02.000Z</time>
      </trkpt>
      <trkpt lat="47.31182" lon="-2.3987">
        <ele>18.200000762939</ele>
        <time>2022-09-22T08:24:03.000Z</time>
      </trkpt>
      <trkpt lat="47.31184" lon="-2.39874">
        <ele>18.200000762939</ele>
        <time>2022-09-22T08:24:04.000Z</time>
      </trkpt>
      <trkpt lat="47.31185" lon="-2.39877">
        <ele>18.200000762939</ele>
        <time>2022-09-22T08:24:05.000Z</time>
      </trkpt>
      <trkpt lat="47.31189" lon="-2.39892">
        <ele>18.200000762939</ele>
        <time>2022-09-22T08:24:09.000Z</time>
      </trkpt>
      <trkpt lat="47.31201" lon="-2.39926">
        <ele>18.200000762939</ele>
        <time>2022-09-22T08:24:16.000Z</time>
      </trkpt>
      <trkpt lat="47.31205" lon="-2.39936">
        <ele>17.799999237061</ele>
        <time>2022-09-22T08:24:18.000Z</time>
      </trkpt>
      <trkpt lat="47.31207" lon="-2.3994">
        <ele>17.39999961853</ele>
        <time>2022-09-22T08:24:19.000Z</time>
      </trkpt>
      <trkpt lat="47.31208" lon="-2.39945">
        <ele>17</ele>
        <time>2022-09-22T08:24:20.000Z</time>
      </trkpt>
      <trkpt lat="47.3121" lon="-2.39949">
        <ele>16.39999961853</ele>
        <time>2022-09-22T08:24:21.000Z</time>
      </trkpt>
      <trkpt lat="47.31211" lon="-2.39953">
        <ele>16</ele>
        <time>2022-09-22T08:24:22.000Z</time>
      </trkpt>
      <trkpt lat="47.31219" lon="-2.39976">
        <ele>16</ele>
        <time>2022-09-22T08:24:27.000Z</time>
      </trkpt>
      <trkpt lat="47.31226" lon="-2.39995">
        <ele>15.199999809265</ele>
        <time>2022-09-22T08:24:31.000Z</time>
      </trkpt>
      <trkpt lat="47.31227" lon="-2.39999">
        <ele>14.800000190735</ele>
        <time>2022-09-22T08:24:32.000Z</time>
      </trkpt>
      <trkpt lat="47.31228" lon="-2.40004">
        <ele>14.199999809265</ele>
        <time>2022-09-22T08:24:33.000Z</time>
      </trkpt>
      <trkpt lat="47.3123" lon="-2.4001">
        <ele>13.800000190735</ele>
        <time>2022-09-22T08:24:34.000Z</time>
      </trkpt>
      <trkpt lat="47.31231" lon="-2.40016">
        <ele>13.800000190735</ele>
        <time>2022-09-22T08:24:35.000Z</time>
      </trkpt>
      <trkpt lat="47.31233" lon="-2.40022">
        <ele>13.800000190735</ele>
        <time>2022-09-22T08:24:36.000Z</time>
      </trkpt>
      <trkpt lat="47.31236" lon="-2.40037">
        <ele>13.800000190735</ele>
        <time>2022-09-22T08:24:39.000Z</time>
      </trkpt>
      <trkpt lat="47.31239" lon="-2.40038">
        <ele>13.800000190735</ele>
        <time>2022-09-22T08:24:40.000Z</time>
      </trkpt>
      <trkpt lat="47.31247" lon="-2.40045">
        <ele>13.800000190735</ele>
        <time>2022-09-22T08:24:45.000Z</time>
      </trkpt>
      <trkpt lat="47.3126" lon="-2.40053">
        <ele>13.800000190735</ele>
        <time>2022-09-22T08:24:48.000Z</time>
      </trkpt>
      <trkpt lat="47.31271" lon="-2.40056">
        <ele>13.39999961853</ele>
        <time>2022-09-22T08:24:50.000Z</time>
      </trkpt>
      <trkpt lat="47.31276" lon="-2.40057">
        <ele>13</ele>
        <time>2022-09-22T08:24:51.000Z</time>
      </trkpt>
      <trkpt lat="47.31279" lon="-2.40057">
        <ele>12.60000038147</ele>
        <time>2022-09-22T08:24:52.000Z</time>
      </trkpt>
      <trkpt lat="47.31282" lon="-2.40058">
        <ele>12.199999809265</ele>
        <time>2022-09-22T08:24:53.000Z</time>
      </trkpt>
      <trkpt lat="47.31287" lon="-2.40058">
        <ele>11.800000190735</ele>
        <time>2022-09-22T08:24:54.000Z</time>
      </trkpt>
      <trkpt lat="47.31311" lon="-2.40064">
        <ele>11.800000190735</ele>
        <time>2022-09-22T08:24:59.000Z</time>
      </trkpt>
      <trkpt lat="47.3134" lon="-2.40078">
        <ele>11.800000190735</ele>
        <time>2022-09-22T08:25:05.000Z</time>
      </trkpt>
      <trkpt lat="47.31368" lon="-2.40092">
        <ele>11.800000190735</ele>
        <time>2022-09-22T08:25:11.000Z</time>
      </trkpt>
      <trkpt lat="47.31385" lon="-2.40102">
        <ele>12.199999809265</ele>
        <time>2022-09-22T08:25:15.000Z</time>
      </trkpt>
      <trkpt lat="47.31389" lon="-2.40104">
        <ele>12.60000038147</ele>
        <time>2022-09-22T08:25:16.000Z</time>
      </trkpt>
      <trkpt lat="47.31393" lon="-2.40106">
        <ele>13</ele>
        <time>2022-09-22T08:25:17.000Z</time>
      </trkpt>
      <trkpt lat="47.31397" lon="-2.40109">
        <ele>13.39999961853</ele>
        <time>2022-09-22T08:25:18.000Z</time>
      </trkpt>
      <trkpt lat="47.31401" lon="-2.40111">
        <ele>13.800000190735</ele>
        <time>2022-09-22T08:25:19.000Z</time>
      </trkpt>
      <trkpt lat="47.31408" lon="-2.40116">
        <ele>13.800000190735</ele>
        <time>2022-09-22T08:25:21.000Z</time>
      </trkpt>
      <trkpt lat="47.31428" lon="-2.40132">
        <ele>13.800000190735</ele>
        <time>2022-09-22T08:25:26.000Z</time>
      </trkpt>
      <trkpt lat="47.31454" lon="-2.40151">
        <ele>13.800000190735</ele>
        <time>2022-09-22T08:25:33.000Z</time>
      </trkpt>
      <trkpt lat="47.31472" lon="-2.40165">
        <ele>13.800000190735</ele>
        <time>2022-09-22T08:25:38.000Z</time>
      </trkpt>
      <trkpt lat="47.31492" lon="-2.40179">
        <ele>13.800000190735</ele>
        <time>2022-09-22T08:25:44.000Z</time>
      </trkpt>
      <trkpt lat="47.3151" lon="-2.40191">
        <ele>14.199999809265</ele>
        <time>2022-09-22T08:25:49.000Z</time>
      </trkpt>
      <trkpt lat="47.31514" lon="-2.40194">
        <ele>14.60000038147</ele>
        <time>2022-09-22T08:25:50.000Z</time>
      </trkpt>
      <trkpt lat="47.31517" lon="-2.40198">
        <ele>15</ele>
        <time>2022-09-22T08:25:51.000Z</time>
      </trkpt>
      <trkpt lat="47.31521" lon="-2.40201">
        <ele>15.39999961853</ele>
        <time>2022-09-22T08:25:52.000Z</time>
      </trkpt>
      <trkpt lat="47.31525" lon="-2.40204">
        <ele>15.800000190735</ele>
        <time>2022-09-22T08:25:53.000Z</time>
      </trkpt>
      <trkpt lat="47.31529" lon="-2.40207">
        <ele>15.800000190735</ele>
        <time>2022-09-22T08:25:54.000Z</time>
      </trkpt>
      <trkpt lat="47.31533" lon="-2.4021">
        <ele>15.800000190735</ele>
        <time>2022-09-22T08:25:55.000Z</time>
      </trkpt>
      <trkpt lat="47.31558" lon="-2.40232">
        <ele>15.800000190735</ele>
        <time>2022-09-22T08:26:01.000Z</time>
      </trkpt>
      <trkpt lat="47.31578" lon="-2.4025">
        <ele>15.800000190735</ele>
        <time>2022-09-22T08:26:06.000Z</time>
      </trkpt>
      <trkpt lat="47.31586" lon="-2.40257">
        <ele>15.800000190735</ele>
        <time>2022-09-22T08:26:08.000Z</time>
      </trkpt>
      <trkpt lat="47.31608" lon="-2.40273">
        <ele>15.800000190735</ele>
        <time>2022-09-22T08:26:14.000Z</time>
      </trkpt>
      <trkpt lat="47.31626" lon="-2.40287">
        <ele>16.200000762939</ele>
        <time>2022-09-22T08:26:19.000Z</time>
      </trkpt>
      <trkpt lat="47.31629" lon="-2.4029">
        <ele>16.60000038147</ele>
        <time>2022-09-22T08:26:20.000Z</time>
      </trkpt>
      <trkpt lat="47.31633" lon="-2.40294">
        <ele>17</ele>
        <time>2022-09-22T08:26:21.000Z</time>
      </trkpt>
      <trkpt lat="47.31637" lon="-2.40297">
        <ele>17.60000038147</ele>
        <time>2022-09-22T08:26:22.000Z</time>
      </trkpt>
      <trkpt lat="47.31641" lon="-2.403">
        <ele>18</ele>
        <time>2022-09-22T08:26:23.000Z</time>
      </trkpt>
      <trkpt lat="47.31648" lon="-2.40304">
        <ele>18</ele>
        <time>2022-09-22T08:26:25.000Z</time>
      </trkpt>
      <trkpt lat="47.31668" lon="-2.40317">
        <ele>18</ele>
        <time>2022-09-22T08:26:31.000Z</time>
      </trkpt>
      <trkpt lat="47.3167" lon="-2.40319">
        <ele>18</ele>
        <time>2022-09-22T08:26:32.000Z</time>
      </trkpt>
      <trkpt lat="47.31675" lon="-2.40325">
        <ele>18.799999237061</ele>
        <time>2022-09-22T08:26:34.000Z</time>
      </trkpt>
      <trkpt lat="47.31679" lon="-2.40328">
        <ele>19.200000762939</ele>
        <time>2022-09-22T08:26:35.000Z</time>
      </trkpt>
      <trkpt lat="47.31683" lon="-2.40331">
        <ele>19.60000038147</ele>
        <time>2022-09-22T08:26:36.000Z</time>
      </trkpt>
      <trkpt lat="47.31687" lon="-2.40334">
        <ele>20</ele>
        <time>2022-09-22T08:26:37.000Z</time>
      </trkpt>
      <trkpt lat="47.31696" lon="-2.4034">
        <ele>20</ele>
        <time>2022-09-22T08:26:39.000Z</time>
      </trkpt>
      <trkpt lat="47.31723" lon="-2.40357">
        <ele>20</ele>
        <time>2022-09-22T08:26:45.000Z</time>
      </trkpt>
      <trkpt lat="47.31726" lon="-2.4036">
        <ele>20</ele>
        <time>2022-09-22T08:26:46.000Z</time>
      </trkpt>
      <trkpt lat="47.31738" lon="-2.40368">
        <ele>20</ele>
        <time>2022-09-22T08:26:49.000Z</time>
      </trkpt>
      <trkpt lat="47.31757" lon="-2.40378">
        <ele>20</ele>
        <time>2022-09-22T08:26:54.000Z</time>
      </trkpt>
      <trkpt lat="47.31781" lon="-2.40397">
        <ele>20</ele>
        <time>2022-09-22T08:27:00.000Z</time>
      </trkpt>
      <trkpt lat="47.31806" lon="-2.40419">
        <ele>20</ele>
        <time>2022-09-22T08:27:07.000Z</time>
      </trkpt>
      <trkpt lat="47.31821" lon="-2.40429">
        <ele>20</ele>
        <time>2022-09-22T08:27:11.000Z</time>
      </trkpt>
      <trkpt lat="47.31825" lon="-2.40432">
        <ele>20.39999961853</ele>
        <time>2022-09-22T08:27:12.000Z</time>
      </trkpt>
      <trkpt lat="47.31828" lon="-2.40435">
        <ele>20.799999237061</ele>
        <time>2022-09-22T08:27:13.000Z</time>
      </trkpt>
      <trkpt lat="47.31832" lon="-2.40438">
        <ele>21.200000762939</ele>
        <time>2022-09-22T08:27:14.000Z</time>
      </trkpt>
      <trkpt lat="47.31835" lon="-2.40441">
        <ele>21.60000038147</ele>
        <time>2022-09-22T08:27:15.000Z</time>
      </trkpt>
      <trkpt lat="47.3184" lon="-2.40445">
        <ele>22</ele>
        <time>2022-09-22T08:27:16.000Z</time>
      </trkpt>
      <trkpt lat="47.31848" lon="-2.40452">
        <ele>22</ele>
        <time>2022-09-22T08:27:18.000Z</time>
      </trkpt>
      <trkpt lat="47.31871" lon="-2.40471">
        <ele>22</ele>
        <time>2022-09-22T08:27:24.000Z</time>
      </trkpt>
      <trkpt lat="47.31887" lon="-2.40482">
        <ele>22</ele>
        <time>2022-09-22T08:27:28.000Z</time>
      </trkpt>
      <trkpt lat="47.31891" lon="-2.40484">
        <ele>22</ele>
        <time>2022-09-22T08:27:29.000Z</time>
      </trkpt>
      <trkpt lat="47.31913" lon="-2.40499">
        <ele>22</ele>
        <time>2022-09-22T08:27:34.000Z</time>
      </trkpt>
      <trkpt lat="47.31926" lon="-2.40508">
        <ele>22.39999961853</ele>
        <time>2022-09-22T08:27:37.000Z</time>
      </trkpt>
      <trkpt lat="47.3193" lon="-2.4051">
        <ele>22.799999237061</ele>
        <time>2022-09-22T08:27:38.000Z</time>
      </trkpt>
      <trkpt lat="47.31934" lon="-2.40513">
        <ele>23.200000762939</ele>
        <time>2022-09-22T08:27:39.000Z</time>
      </trkpt>
      <trkpt lat="47.31937" lon="-2.40515">
        <ele>23.799999237061</ele>
        <time>2022-09-22T08:27:40.000Z</time>
      </trkpt>
      <trkpt lat="47.31941" lon="-2.40518">
        <ele>24.200000762939</ele>
        <time>2022-09-22T08:27:41.000Z</time>
      </trkpt>
      <trkpt lat="47.31962" lon="-2.40539">
        <ele>24.200000762939</ele>
        <time>2022-09-22T08:27:46.000Z</time>
      </trkpt>
      <trkpt lat="47.31976" lon="-2.40551">
        <ele>24.200000762939</ele>
        <time>2022-09-22T08:27:49.000Z</time>
      </trkpt>
      <trkpt lat="47.31986" lon="-2.40559">
        <ele>24.200000762939</ele>
        <time>2022-09-22T08:27:51.000Z</time>
      </trkpt>
      <trkpt lat="47.32009" lon="-2.40579">
        <ele>24.200000762939</ele>
        <time>2022-09-22T08:27:56.000Z</time>
      </trkpt>
      <trkpt lat="47.32033" lon="-2.40599">
        <ele>24.60000038147</ele>
        <time>2022-09-22T08:28:01.000Z</time>
      </trkpt>
      <trkpt lat="47.32038" lon="-2.40602">
        <ele>25</ele>
        <time>2022-09-22T08:28:02.000Z</time>
      </trkpt>
      <trkpt lat="47.32042" lon="-2.40606">
        <ele>25.39999961853</ele>
        <time>2022-09-22T08:28:03.000Z</time>
      </trkpt>
      <trkpt lat="47.32046" lon="-2.4061">
        <ele>25.799999237061</ele>
        <time>2022-09-22T08:28:04.000Z</time>
      </trkpt>
      <trkpt lat="47.3205" lon="-2.40614">
        <ele>26.200000762939</ele>
        <time>2022-09-22T08:28:05.000Z</time>
      </trkpt>
      <trkpt lat="47.32059" lon="-2.40623">
        <ele>26.200000762939</ele>
        <time>2022-09-22T08:28:07.000Z</time>
      </trkpt>
      <trkpt lat="47.32087" lon="-2.4065">
        <ele>26.200000762939</ele>
        <time>2022-09-22T08:28:13.000Z</time>
      </trkpt>
      <trkpt lat="47.32118" lon="-2.40682">
        <ele>26.200000762939</ele>
        <time>2022-09-22T08:28:20.000Z</time>
      </trkpt>
      <trkpt lat="47.32132" lon="-2.407">
        <ele>26.200000762939</ele>
        <time>2022-09-22T08:28:24.000Z</time>
      </trkpt>
      <trkpt lat="47.3214" lon="-2.40708">
        <ele>26.200000762939</ele>
        <time>2022-09-22T08:28:26.000Z</time>
      </trkpt>
      <trkpt lat="47.32154" lon="-2.40725">
        <ele>26.60000038147</ele>
        <time>2022-09-22T08:28:30.000Z</time>
      </trkpt>
      <trkpt lat="47.32157" lon="-2.40728">
        <ele>27</ele>
        <time>2022-09-22T08:28:31.000Z</time>
      </trkpt>
      <trkpt lat="47.3216" lon="-2.40732">
        <ele>27.39999961853</ele>
        <time>2022-09-22T08:28:32.000Z</time>
      </trkpt>
      <trkpt lat="47.32163" lon="-2.40736">
        <ele>27.799999237061</ele>
        <time>2022-09-22T08:28:33.000Z</time>
      </trkpt>
      <trkpt lat="47.32166" lon="-2.4074">
        <ele>28.200000762939</ele>
        <time>2022-09-22T08:28:34.000Z</time>
      </trkpt>
      <trkpt lat="47.32178" lon="-2.40757">
        <ele>28.200000762939</ele>
        <time>2022-09-22T08:28:39.000Z</time>
      </trkpt>
      <trkpt lat="47.32195" lon="-2.40781">
        <ele>28.200000762939</ele>
        <time>2022-09-22T08:28:45.000Z</time>
      </trkpt>
      <trkpt lat="47.32204" lon="-2.40802">
        <ele>28.200000762939</ele>
        <time>2022-09-22T08:28:51.000Z</time>
      </trkpt>
      <trkpt lat="47.32206" lon="-2.40817">
        <ele>28.200000762939</ele>
        <time>2022-09-22T08:28:55.000Z</time>
      </trkpt>
      <trkpt lat="47.32205" lon="-2.40834">
        <ele>28.200000762939</ele>
        <time>2022-09-22T08:28:59.000Z</time>
      </trkpt>
      <trkpt lat="47.32202" lon="-2.40837">
        <ele>28.200000762939</ele>
        <time>2022-09-22T08:29:00.000Z</time>
      </trkpt>
      <trkpt lat="47.32196" lon="-2.40854">
        <ele>28.200000762939</ele>
        <time>2022-09-22T08:29:03.000Z</time>
      </trkpt>
      <trkpt lat="47.32197" lon="-2.40867">
        <ele>27.799999237061</ele>
        <time>2022-09-22T08:29:05.000Z</time>
      </trkpt>
      <trkpt lat="47.32198" lon="-2.40873">
        <ele>27.39999961853</ele>
        <time>2022-09-22T08:29:06.000Z</time>
      </trkpt>
      <trkpt lat="47.32199" lon="-2.4088">
        <ele>27</ele>
        <time>2022-09-22T08:29:07.000Z</time>
      </trkpt>
      <trkpt lat="47.322" lon="-2.40886">
        <ele>26.60000038147</ele>
        <time>2022-09-22T08:29:08.000Z</time>
      </trkpt>
      <trkpt lat="47.322" lon="-2.4089">
        <ele>26.200000762939</ele>
        <time>2022-09-22T08:29:09.000Z</time>
      </trkpt>
      <trkpt lat="47.32201" lon="-2.40898">
        <ele>26.200000762939</ele>
        <time>2022-09-22T08:29:11.000Z</time>
      </trkpt>
      <trkpt lat="47.32201" lon="-2.40909">
        <ele>26.200000762939</ele>
        <time>2022-09-22T08:29:16.000Z</time>
      </trkpt>
      <trkpt lat="47.32202" lon="-2.40921">
        <ele>26.200000762939</ele>
        <time>2022-09-22T08:40:47.000Z</time>
      </trkpt>
      <trkpt lat="47.32205" lon="-2.40926">
        <ele>26.200000762939</ele>
        <time>2022-09-22T08:40:49.000Z</time>
      </trkpt>
      <trkpt lat="47.32215" lon="-2.40927">
        <ele>26.200000762939</ele>
        <time>2022-09-22T08:40:53.000Z</time>
      </trkpt>
      <trkpt lat="47.32217" lon="-2.40915">
        <ele>26.200000762939</ele>
        <time>2022-09-22T08:40:57.000Z</time>
      </trkpt>
      <trkpt lat="47.32217" lon="-2.40911">
        <ele>26.200000762939</ele>
        <time>2022-09-22T08:40:58.000Z</time>
      </trkpt>
      <trkpt lat="47.32212" lon="-2.40896">
        <ele>26.60000038147</ele>
        <time>2022-09-22T08:41:01.000Z</time>
      </trkpt>
      <trkpt lat="47.32211" lon="-2.4089">
        <ele>27</ele>
        <time>2022-09-22T08:41:02.000Z</time>
      </trkpt>
      <trkpt lat="47.3221" lon="-2.40885">
        <ele>27.39999961853</ele>
        <time>2022-09-22T08:41:03.000Z</time>
      </trkpt>
      <trkpt lat="47.3221" lon="-2.4088">
        <ele>27.799999237061</ele>
        <time>2022-09-22T08:41:04.000Z</time>
      </trkpt>
      <trkpt lat="47.32209" lon="-2.40875">
        <ele>28.200000762939</ele>
        <time>2022-09-22T08:41:05.000Z</time>
      </trkpt>
      <trkpt lat="47.32208" lon="-2.40858">
        <ele>28.200000762939</ele>
        <time>2022-09-22T08:41:08.000Z</time>
      </trkpt>
      <trkpt lat="47.32209" lon="-2.40826">
        <ele>28.200000762939</ele>
        <time>2022-09-22T08:41:14.000Z</time>
      </trkpt>
      <trkpt lat="47.32215" lon="-2.40819">
        <ele>28.200000762939</ele>
        <time>2022-09-22T08:41:16.000Z</time>
      </trkpt>
      <trkpt lat="47.32217" lon="-2.40818">
        <ele>28.200000762939</ele>
        <time>2022-09-22T08:41:17.000Z</time>
      </trkpt>
      <trkpt lat="47.32221" lon="-2.40817">
        <ele>28.200000762939</ele>
        <time>2022-09-22T08:41:19.000Z</time>
      </trkpt>
      <trkpt lat="47.32225" lon="-2.40823">
        <ele>28.200000762939</ele>
        <time>2022-09-22T08:41:21.000Z</time>
      </trkpt>
      <trkpt lat="47.3223" lon="-2.40831">
        <ele>28.200000762939</ele>
        <time>2022-09-22T08:41:23.000Z</time>
      </trkpt>
      <trkpt lat="47.32241" lon="-2.4085">
        <ele>28.200000762939</ele>
        <time>2022-09-22T08:41:27.000Z</time>
      </trkpt>
      <trkpt lat="47.3226" lon="-2.40883">
        <ele>28.200000762939</ele>
        <time>2022-09-22T08:41:34.000Z</time>
      </trkpt>
      <trkpt lat="47.32281" lon="-2.40919">
        <ele>28.200000762939</ele>
        <time>2022-09-22T08:41:41.000Z</time>
      </trkpt>
      <trkpt lat="47.32292" lon="-2.40941">
        <ele>28.60000038147</ele>
        <time>2022-09-22T08:41:45.000Z</time>
      </trkpt>
      <trkpt lat="47.32296" lon="-2.40947">
        <ele>29</ele>
        <time>2022-09-22T08:41:46.000Z</time>
      </trkpt>
      <trkpt lat="47.32298" lon="-2.40952">
        <ele>29.799999237061</ele>
        <time>2022-09-22T08:41:47.000Z</time>
      </trkpt>
      <trkpt lat="47.32301" lon="-2.40957">
        <ele>30.200000762939</ele>
        <time>2022-09-22T08:41:48.000Z</time>
      </trkpt>
      <trkpt lat="47.32306" lon="-2.40968">
        <ele>30.200000762939</ele>
        <time>2022-09-22T08:41:50.000Z</time>
      </trkpt>
      <trkpt lat="47.32327" lon="-2.41007">
        <ele>30.200000762939</ele>
        <time>2022-09-22T08:41:58.000Z</time>
      </trkpt>
      <trkpt lat="47.32347" lon="-2.41045">
        <ele>30.200000762939</ele>
        <time>2022-09-22T08:42:06.000Z</time>
      </trkpt>
      <trkpt lat="47.32361" lon="-2.41072">
        <ele>30.200000762939</ele>
        <time>2022-09-22T08:42:12.000Z</time>
      </trkpt>
      <trkpt lat="47.3237" lon="-2.41088">
        <ele>30.200000762939</ele>
        <time>2022-09-22T08:42:16.000Z</time>
      </trkpt>
      <trkpt lat="47.32386" lon="-2.4112">
        <ele>30.200000762939</ele>
        <time>2022-09-22T08:42:23.000Z</time>
      </trkpt>
      <trkpt lat="47.324" lon="-2.41144">
        <ele>30.200000762939</ele>
        <time>2022-09-22T08:42:30.000Z</time>
      </trkpt>
      <trkpt lat="47.32408" lon="-2.4116">
        <ele>30.200000762939</ele>
        <time>2022-09-22T08:42:35.000Z</time>
      </trkpt>
      <trkpt lat="47.32411" lon="-2.41166">
        <ele>30.200000762939</ele>
        <time>2022-09-22T08:42:41.000Z</time>
      </trkpt>
      <trkpt lat="47.32412" lon="-2.41168">
        <ele>30.200000762939</ele>
        <time>2022-09-22T08:42:44.000Z</time>
      </trkpt>
      <trkpt lat="47.32416" lon="-2.41175">
        <ele>30.200000762939</ele>
        <time>2022-09-22T08:42:46.000Z</time>
      </trkpt>
      <trkpt lat="47.32426" lon="-2.41195">
        <ele>30.200000762939</ele>
        <time>2022-09-22T08:42:50.000Z</time>
      </trkpt>
      <trkpt lat="47.32432" lon="-2.41207">
        <ele>30.60000038147</ele>
        <time>2022-09-22T08:42:52.000Z</time>
      </trkpt>
      <trkpt lat="47.32435" lon="-2.41213">
        <ele>31</ele>
        <time>2022-09-22T08:42:53.000Z</time>
      </trkpt>
      <trkpt lat="47.32439" lon="-2.41218">
        <ele>31.39999961853</ele>
        <time>2022-09-22T08:42:54.000Z</time>
      </trkpt>
      <trkpt lat="47.32442" lon="-2.41225">
        <ele>31.799999237061</ele>
        <time>2022-09-22T08:42:55.000Z</time>
      </trkpt>
      <trkpt lat="47.32445" lon="-2.41231">
        <ele>32.200000762939</ele>
        <time>2022-09-22T08:42:56.000Z</time>
      </trkpt>
      <trkpt lat="47.32459" lon="-2.41256">
        <ele>32.200000762939</ele>
        <time>2022-09-22T08:43:00.000Z</time>
      </trkpt>
      <trkpt lat="47.32486" lon="-2.41309">
        <ele>32.200000762939</ele>
        <time>2022-09-22T08:43:08.000Z</time>
      </trkpt>
      <trkpt lat="47.32513" lon="-2.41361">
        <ele>32.200000762939</ele>
        <time>2022-09-22T08:43:16.000Z</time>
      </trkpt>
      <trkpt lat="47.32524" lon="-2.41381">
        <ele>32.200000762939</ele>
        <time>2022-09-22T08:43:19.000Z</time>
      </trkpt>
      <trkpt lat="47.32534" lon="-2.41399">
        <ele>32.200000762939</ele>
        <time>2022-09-22T08:43:22.000Z</time>
      </trkpt>
      <trkpt lat="47.3256" lon="-2.41453">
        <ele>32.200000762939</ele>
        <time>2022-09-22T08:43:31.000Z</time>
      </trkpt>
      <trkpt lat="47.32563" lon="-2.41457">
        <ele>32.200000762939</ele>
        <time>2022-09-22T08:43:32.000Z</time>
      </trkpt>
      <trkpt lat="47.3257" lon="-2.41472">
        <ele>32.200000762939</ele>
        <time>2022-09-22T08:43:35.000Z</time>
      </trkpt>
      <trkpt lat="47.32571" lon="-2.41477">
        <ele>31.799999237061</ele>
        <time>2022-09-22T08:43:36.000Z</time>
      </trkpt>
      <trkpt lat="47.32571" lon="-2.41483">
        <ele>31.39999961853</ele>
        <time>2022-09-22T08:43:37.000Z</time>
      </trkpt>
      <trkpt lat="47.32571" lon="-2.41489">
        <ele>31</ele>
        <time>2022-09-22T08:43:38.000Z</time>
      </trkpt>
      <trkpt lat="47.32572" lon="-2.41496">
        <ele>30.60000038147</ele>
        <time>2022-09-22T08:43:39.000Z</time>
      </trkpt>
      <trkpt lat="47.32572" lon="-2.41503">
        <ele>30.200000762939</ele>
        <time>2022-09-22T08:43:40.000Z</time>
      </trkpt>
      <trkpt lat="47.32573" lon="-2.41509">
        <ele>30.200000762939</ele>
        <time>2022-09-22T08:43:41.000Z</time>
      </trkpt>
      <trkpt lat="47.3258" lon="-2.41517">
        <ele>30.200000762939</ele>
        <time>2022-09-22T08:43:43.000Z</time>
      </trkpt>
      <trkpt lat="47.32589" lon="-2.41518">
        <ele>30.200000762939</ele>
        <time>2022-09-22T08:43:45.000Z</time>
      </trkpt>
      <trkpt lat="47.32598" lon="-2.41519">
        <ele>30.200000762939</ele>
        <time>2022-09-22T08:43:47.000Z</time>
      </trkpt>
      <trkpt lat="47.32638" lon="-2.41526">
        <ele>30.200000762939</ele>
        <time>2022-09-22T08:43:56.000Z</time>
      </trkpt>
      <trkpt lat="47.32669" lon="-2.41534">
        <ele>30.200000762939</ele>
        <time>2022-09-22T08:44:03.000Z</time>
      </trkpt>
      <trkpt lat="47.32674" lon="-2.41535">
        <ele>29.799999237061</ele>
        <time>2022-09-22T08:44:04.000Z</time>
      </trkpt>
      <trkpt lat="47.32679" lon="-2.41537">
        <ele>29.200000762939</ele>
        <time>2022-09-22T08:44:05.000Z</time>
      </trkpt>
      <trkpt lat="47.32684" lon="-2.41538">
        <ele>28.799999237061</ele>
        <time>2022-09-22T08:44:06.000Z</time>
      </trkpt>
      <trkpt lat="47.32689" lon="-2.41538">
        <ele>28.39999961853</ele>
        <time>2022-09-22T08:44:07.000Z</time>
      </trkpt>
      <trkpt lat="47.32693" lon="-2.41539">
        <ele>28</ele>
        <time>2022-09-22T08:44:08.000Z</time>
      </trkpt>
      <trkpt lat="47.32699" lon="-2.41544">
        <ele>28</ele>
        <time>2022-09-22T08:44:11.000Z</time>
      </trkpt>
      <trkpt lat="47.327" lon="-2.4156">
        <ele>28</ele>
        <time>2022-09-22T08:44:14.000Z</time>
      </trkpt>
      <trkpt lat="47.32699" lon="-2.41564">
        <ele>28</ele>
        <time>2022-09-22T08:44:15.000Z</time>
      </trkpt>
      <trkpt lat="47.32699" lon="-2.41571">
        <ele>28</ele>
        <time>2022-09-22T08:44:18.000Z</time>
      </trkpt>
      <trkpt lat="47.32699" lon="-2.41576">
        <ele>28</ele>
        <time>2022-09-22T08:44:21.000Z</time>
      </trkpt>
      <trkpt lat="47.32703" lon="-2.41578">
        <ele>28</ele>
        <time>2022-09-22T08:44:23.000Z</time>
      </trkpt>
      <trkpt lat="47.32704" lon="-2.41582">
        <ele>27.60000038147</ele>
        <time>2022-09-22T08:44:24.000Z</time>
      </trkpt>
      <trkpt lat="47.32704" lon="-2.41586">
        <ele>27.200000762939</ele>
        <time>2022-09-22T08:44:25.000Z</time>
      </trkpt>
      <trkpt lat="47.32703" lon="-2.4159">
        <ele>26.799999237061</ele>
        <time>2022-09-22T08:44:26.000Z</time>
      </trkpt>
      <trkpt lat="47.327" lon="-2.41593">
        <ele>26.39999961853</ele>
        <time>2022-09-22T08:44:27.000Z</time>
      </trkpt>
      <trkpt lat="47.32698" lon="-2.41595">
        <ele>26</ele>
        <time>2022-09-22T08:44:28.000Z</time>
      </trkpt>
      <trkpt lat="47.32696" lon="-2.416">
        <ele>26</ele>
        <time>2022-09-22T08:44:29.000Z</time>
      </trkpt>
      <trkpt lat="47.32695" lon="-2.41607">
        <ele>26</ele>
        <time>2022-09-22T08:44:31.000Z</time>
      </trkpt>
      <trkpt lat="47.32691" lon="-2.41616">
        <ele>26</ele>
        <time>2022-09-22T08:44:33.000Z</time>
      </trkpt>
      <trkpt lat="47.3268" lon="-2.41625">
        <ele>26</ele>
        <time>2022-09-22T08:44:37.000Z</time>
      </trkpt>
      <trkpt lat="47.32665" lon="-2.4162">
        <ele>26</ele>
        <time>2022-09-22T08:44:41.000Z</time>
      </trkpt>
      <trkpt lat="47.32657" lon="-2.41617">
        <ele>26.39999961853</ele>
        <time>2022-09-22T08:44:43.000Z</time>
      </trkpt>
      <trkpt lat="47.32653" lon="-2.41616">
        <ele>26.799999237061</ele>
        <time>2022-09-22T08:44:44.000Z</time>
      </trkpt>
      <trkpt lat="47.32649" lon="-2.41615">
        <ele>27.200000762939</ele>
        <time>2022-09-22T08:44:45.000Z</time>
      </trkpt>
      <trkpt lat="47.32645" lon="-2.41614">
        <ele>27.799999237061</ele>
        <time>2022-09-22T08:44:46.000Z</time>
      </trkpt>
      <trkpt lat="47.32641" lon="-2.41613">
        <ele>28.200000762939</ele>
        <time>2022-09-22T08:44:47.000Z</time>
      </trkpt>
      <trkpt lat="47.32633" lon="-2.4161">
        <ele>28.200000762939</ele>
        <time>2022-09-22T08:44:49.000Z</time>
      </trkpt>
      <trkpt lat="47.32611" lon="-2.41602">
        <ele>28.200000762939</ele>
        <time>2022-09-22T08:44:55.000Z</time>
      </trkpt>
      <trkpt lat="47.32607" lon="-2.41603">
        <ele>28.60000038147</ele>
        <time>2022-09-22T08:44:56.000Z</time>
      </trkpt>
      <trkpt lat="47.32602" lon="-2.41605">
        <ele>29</ele>
        <time>2022-09-22T08:44:57.000Z</time>
      </trkpt>
      <trkpt lat="47.32598" lon="-2.41606">
        <ele>29.39999961853</ele>
        <time>2022-09-22T08:44:58.000Z</time>
      </trkpt>
      <trkpt lat="47.32593" lon="-2.41606">
        <ele>29.799999237061</ele>
        <time>2022-09-22T08:44:59.000Z</time>
      </trkpt>
      <trkpt lat="47.32589" lon="-2.41607">
        <ele>30.200000762939</ele>
        <time>2022-09-22T08:45:00.000Z</time>
      </trkpt>
      <trkpt lat="47.32576" lon="-2.41597">
        <ele>30.200000762939</ele>
        <time>2022-09-22T08:45:03.000Z</time>
      </trkpt>
      <trkpt lat="47.32571" lon="-2.41593">
        <ele>30.200000762939</ele>
        <time>2022-09-22T08:45:04.000Z</time>
      </trkpt>
      <trkpt lat="47.3255" lon="-2.41577">
        <ele>30.200000762939</ele>
        <time>2022-09-22T08:45:09.000Z</time>
      </trkpt>
      <trkpt lat="47.32545" lon="-2.41577">
        <ele>30.200000762939</ele>
        <time>2022-09-22T08:45:10.000Z</time>
      </trkpt>
      <trkpt lat="47.32532" lon="-2.41579">
        <ele>30.200000762939</ele>
        <time>2022-09-22T08:45:13.000Z</time>
      </trkpt>
      <trkpt lat="47.32527" lon="-2.41581">
        <ele>30.200000762939</ele>
        <time>2022-09-22T08:45:14.000Z</time>
      </trkpt>
      <trkpt lat="47.32523" lon="-2.41583">
        <ele>30.200000762939</ele>
        <time>2022-09-22T08:45:15.000Z</time>
      </trkpt>
      <trkpt lat="47.32507" lon="-2.41588">
        <ele>30.200000762939</ele>
        <time>2022-09-22T08:45:18.000Z</time>
      </trkpt>
      <trkpt lat="47.32496" lon="-2.41588">
        <ele>30.200000762939</ele>
        <time>2022-09-22T08:45:20.000Z</time>
      </trkpt>
      <trkpt lat="47.32479" lon="-2.41581">
        <ele>30.200000762939</ele>
        <time>2022-09-22T08:45:23.000Z</time>
      </trkpt>
      <trkpt lat="47.32469" lon="-2.41576">
        <ele>30.200000762939</ele>
        <time>2022-09-22T08:45:25.000Z</time>
      </trkpt>
      <trkpt lat="47.3243" lon="-2.41565">
        <ele>30.200000762939</ele>
        <time>2022-09-22T08:45:32.000Z</time>
      </trkpt>
      <trkpt lat="47.32403" lon="-2.41565">
        <ele>30.200000762939</ele>
        <time>2022-09-22T08:45:37.000Z</time>
      </trkpt>
      <trkpt lat="47.32397" lon="-2.41563">
        <ele>30.200000762939</ele>
        <time>2022-09-22T08:45:38.000Z</time>
      </trkpt>
      <trkpt lat="47.3237" lon="-2.41548">
        <ele>30.200000762939</ele>
        <time>2022-09-22T08:45:43.000Z</time>
      </trkpt>
      <trkpt lat="47.32346" lon="-2.41548">
        <ele>30.200000762939</ele>
        <time>2022-09-22T08:45:47.000Z</time>
      </trkpt>
      <trkpt lat="47.32325" lon="-2.41567">
        <ele>30.200000762939</ele>
        <time>2022-09-22T08:45:51.000Z</time>
      </trkpt>
      <trkpt lat="47.32316" lon="-2.41592">
        <ele>30.200000762939</ele>
        <time>2022-09-22T08:45:54.000Z</time>
      </trkpt>
      <trkpt lat="47.32314" lon="-2.416">
        <ele>30.200000762939</ele>
        <time>2022-09-22T08:45:55.000Z</time>
      </trkpt>
      <trkpt lat="47.32307" lon="-2.41627">
        <ele>30.200000762939</ele>
        <time>2022-09-22T08:45:58.000Z</time>
      </trkpt>
      <trkpt lat="47.32301" lon="-2.41641">
        <ele>30.200000762939</ele>
        <time>2022-09-22T08:46:00.000Z</time>
      </trkpt>
      <trkpt lat="47.32298" lon="-2.41649">
        <ele>30.200000762939</ele>
        <time>2022-09-22T08:46:01.000Z</time>
      </trkpt>
      <trkpt lat="47.32297" lon="-2.41664">
        <ele>30.200000762939</ele>
        <time>2022-09-22T08:46:03.000Z</time>
      </trkpt>
      <trkpt lat="47.32298" lon="-2.41681">
        <ele>30.200000762939</ele>
        <time>2022-09-22T08:46:05.000Z</time>
      </trkpt>
      <trkpt lat="47.32298" lon="-2.4171">
        <ele>30.200000762939</ele>
        <time>2022-09-22T08:46:08.000Z</time>
      </trkpt>
      <trkpt lat="47.32289" lon="-2.41737">
        <ele>30.200000762939</ele>
        <time>2022-09-22T08:46:11.000Z</time>
      </trkpt>
      <trkpt lat="47.32285" lon="-2.41745">
        <ele>30.200000762939</ele>
        <time>2022-09-22T08:46:12.000Z</time>
      </trkpt>
      <trkpt lat="47.32282" lon="-2.41753">
        <ele>30.200000762939</ele>
        <time>2022-09-22T08:46:13.000Z</time>
      </trkpt>
      <trkpt lat="47.32281" lon="-2.4177">
        <ele>30.200000762939</ele>
        <time>2022-09-22T08:46:15.000Z</time>
      </trkpt>
      <trkpt lat="47.32278" lon="-2.41787">
        <ele>29.799999237061</ele>
        <time>2022-09-22T08:46:17.000Z</time>
      </trkpt>
      <trkpt lat="47.32275" lon="-2.41794">
        <ele>29.39999961853</ele>
        <time>2022-09-22T08:46:18.000Z</time>
      </trkpt>
      <trkpt lat="47.32271" lon="-2.41802">
        <ele>28.799999237061</ele>
        <time>2022-09-22T08:46:19.000Z</time>
      </trkpt>
      <trkpt lat="47.32267" lon="-2.41809">
        <ele>28</ele>
        <time>2022-09-22T08:46:20.000Z</time>
      </trkpt>
      <trkpt lat="47.32263" lon="-2.41816">
        <ele>28</ele>
        <time>2022-09-22T08:46:21.000Z</time>
      </trkpt>
      <trkpt lat="47.32249" lon="-2.41845">
        <ele>28</ele>
        <time>2022-09-22T08:46:25.000Z</time>
      </trkpt>
      <trkpt lat="47.32244" lon="-2.41859">
        <ele>28</ele>
        <time>2022-09-22T08:46:27.000Z</time>
      </trkpt>
      <trkpt lat="47.32247" lon="-2.41866">
        <ele>28</ele>
        <time>2022-09-22T08:46:29.000Z</time>
      </trkpt>
      <trkpt lat="47.32254" lon="-2.41885">
        <ele>28</ele>
        <time>2022-09-22T08:46:33.000Z</time>
      </trkpt>
      <trkpt lat="47.3226" lon="-2.41893">
        <ele>28</ele>
        <time>2022-09-22T08:46:35.000Z</time>
      </trkpt>
      <trkpt lat="47.32268" lon="-2.41906">
        <ele>28</ele>
        <time>2022-09-22T08:46:38.000Z</time>
      </trkpt>
      <trkpt lat="47.32275" lon="-2.41915">
        <ele>28</ele>
        <time>2022-09-22T08:46:40.000Z</time>
      </trkpt>
      <trkpt lat="47.32287" lon="-2.41934">
        <ele>28</ele>
        <time>2022-09-22T08:46:44.000Z</time>
      </trkpt>
      <trkpt lat="47.32293" lon="-2.41945">
        <ele>28</ele>
        <time>2022-09-22T08:46:46.000Z</time>
      </trkpt>
      <trkpt lat="47.32304" lon="-2.41962">
        <ele>28</ele>
        <time>2022-09-22T08:46:49.000Z</time>
      </trkpt>
      <trkpt lat="47.32312" lon="-2.41971">
        <ele>28</ele>
        <time>2022-09-22T08:46:51.000Z</time>
      </trkpt>
      <trkpt lat="47.32321" lon="-2.41979">
        <ele>28</ele>
        <time>2022-09-22T08:46:53.000Z</time>
      </trkpt>
      <trkpt lat="47.32329" lon="-2.41987">
        <ele>28</ele>
        <time>2022-09-22T08:46:55.000Z</time>
      </trkpt>
      <trkpt lat="47.32351" lon="-2.42008">
        <ele>28</ele>
        <time>2022-09-22T08:47:00.000Z</time>
      </trkpt>
      <trkpt lat="47.3236" lon="-2.42017">
        <ele>28</ele>
        <time>2022-09-22T08:47:02.000Z</time>
      </trkpt>
      <trkpt lat="47.32392" lon="-2.42052">
        <ele>28</ele>
        <time>2022-09-22T08:47:10.000Z</time>
      </trkpt>
      <trkpt lat="47.32396" lon="-2.42057">
        <ele>28.39999961853</ele>
        <time>2022-09-22T08:47:11.000Z</time>
      </trkpt>
      <trkpt lat="47.324" lon="-2.42061">
        <ele>28.799999237061</ele>
        <time>2022-09-22T08:47:12.000Z</time>
      </trkpt>
      <trkpt lat="47.32404" lon="-2.42065">
        <ele>29.39999961853</ele>
        <time>2022-09-22T08:47:13.000Z</time>
      </trkpt>
      <trkpt lat="47.32408" lon="-2.4207">
        <ele>29.799999237061</ele>
        <time>2022-09-22T08:47:14.000Z</time>
      </trkpt>
      <trkpt lat="47.32412" lon="-2.42074">
        <ele>30.200000762939</ele>
        <time>2022-09-22T08:47:15.000Z</time>
      </trkpt>
      <trkpt lat="47.32419" lon="-2.42084">
        <ele>30.200000762939</ele>
        <time>2022-09-22T08:47:17.000Z</time>
      </trkpt>
      <trkpt lat="47.32437" lon="-2.42106">
        <ele>30.200000762939</ele>
        <time>2022-09-22T08:47:23.000Z</time>
      </trkpt>
      <trkpt lat="47.32441" lon="-2.42116">
        <ele>30.60000038147</ele>
        <time>2022-09-22T08:47:25.000Z</time>
      </trkpt>
      <trkpt lat="47.3244" lon="-2.42122">
        <ele>31</ele>
        <time>2022-09-22T08:47:26.000Z</time>
      </trkpt>
      <trkpt lat="47.32438" lon="-2.42128">
        <ele>31.39999961853</ele>
        <time>2022-09-22T08:47:27.000Z</time>
      </trkpt>
      <trkpt lat="47.32435" lon="-2.42133">
        <ele>31.799999237061</ele>
        <time>2022-09-22T08:47:28.000Z</time>
      </trkpt>
      <trkpt lat="47.32433" lon="-2.42139">
        <ele>32.200000762939</ele>
        <time>2022-09-22T08:47:29.000Z</time>
      </trkpt>
      <trkpt lat="47.3243" lon="-2.42144">
        <ele>32.200000762939</ele>
        <time>2022-09-22T08:47:30.000Z</time>
      </trkpt>
      <trkpt lat="47.32417" lon="-2.42164">
        <ele>32.200000762939</ele>
        <time>2022-09-22T08:47:34.000Z</time>
      </trkpt>
      <trkpt lat="47.32412" lon="-2.4217">
        <ele>32.200000762939</ele>
        <time>2022-09-22T08:47:35.000Z</time>
      </trkpt>
      <trkpt lat="47.32394" lon="-2.42191">
        <ele>32.200000762939</ele>
        <time>2022-09-22T08:47:39.000Z</time>
      </trkpt>
      <trkpt lat="47.32385" lon="-2.42201">
        <ele>32.200000762939</ele>
        <time>2022-09-22T08:47:41.000Z</time>
      </trkpt>
      <trkpt lat="47.32354" lon="-2.42238">
        <ele>32.200000762939</ele>
        <time>2022-09-22T08:47:48.000Z</time>
      </trkpt>
      <trkpt lat="47.32325" lon="-2.42284">
        <ele>32.200000762939</ele>
        <time>2022-09-22T08:47:56.000Z</time>
      </trkpt>
      <trkpt lat="47.32317" lon="-2.42305">
        <ele>32.200000762939</ele>
        <time>2022-09-22T08:47:59.000Z</time>
      </trkpt>
      <trkpt lat="47.32318" lon="-2.42314">
        <ele>32.200000762939</ele>
        <time>2022-09-22T08:48:00.000Z</time>
      </trkpt>
      <trkpt lat="47.32319" lon="-2.42324">
        <ele>31.799999237061</ele>
        <time>2022-09-22T08:48:01.000Z</time>
      </trkpt>
      <trkpt lat="47.3232" lon="-2.42333">
        <ele>31.39999961853</ele>
        <time>2022-09-22T08:48:02.000Z</time>
      </trkpt>
      <trkpt lat="47.32321" lon="-2.42343">
        <ele>31</ele>
        <time>2022-09-22T08:48:03.000Z</time>
      </trkpt>
      <trkpt lat="47.32322" lon="-2.42352">
        <ele>30.39999961853</ele>
        <time>2022-09-22T08:48:04.000Z</time>
      </trkpt>
      <trkpt lat="47.32323" lon="-2.42362">
        <ele>30</ele>
        <time>2022-09-22T08:48:05.000Z</time>
      </trkpt>
      <trkpt lat="47.32325" lon="-2.4239">
        <ele>30</ele>
        <time>2022-09-22T08:48:08.000Z</time>
      </trkpt>
      <trkpt lat="47.32327" lon="-2.42418">
        <ele>30</ele>
        <time>2022-09-22T08:48:11.000Z</time>
      </trkpt>
      <trkpt lat="47.32331" lon="-2.42446">
        <ele>30</ele>
        <time>2022-09-22T08:48:14.000Z</time>
      </trkpt>
      <trkpt lat="47.32333" lon="-2.42455">
        <ele>29.60000038147</ele>
        <time>2022-09-22T08:48:15.000Z</time>
      </trkpt>
      <trkpt lat="47.32336" lon="-2.42464">
        <ele>29.200000762939</ele>
        <time>2022-09-22T08:48:16.000Z</time>
      </trkpt>
      <trkpt lat="47.32337" lon="-2.42474">
        <ele>28.799999237061</ele>
        <time>2022-09-22T08:48:17.000Z</time>
      </trkpt>
      <trkpt lat="47.32339" lon="-2.42484">
        <ele>28.39999961853</ele>
        <time>2022-09-22T08:48:18.000Z</time>
      </trkpt>
      <trkpt lat="47.32341" lon="-2.42493">
        <ele>28</ele>
        <time>2022-09-22T08:48:19.000Z</time>
      </trkpt>
      <trkpt lat="47.3235" lon="-2.42546">
        <ele>27</ele>
        <time>2022-09-22T08:48:24.000Z</time>
      </trkpt>
      <trkpt lat="47.32351" lon="-2.42554">
        <ele>26.60000038147</ele>
        <time>2022-09-22T08:48:25.000Z</time>
      </trkpt>
      <trkpt lat="47.32353" lon="-2.42562">
        <ele>26.200000762939</ele>
        <time>2022-09-22T08:48:26.000Z</time>
      </trkpt>
      <trkpt lat="47.32357" lon="-2.42569">
        <ele>25.799999237061</ele>
        <time>2022-09-22T08:48:27.000Z</time>
      </trkpt>
      <trkpt lat="47.32366" lon="-2.42579">
        <ele>25.799999237061</ele>
        <time>2022-09-22T08:48:29.000Z</time>
      </trkpt>
      <trkpt lat="47.32381" lon="-2.4258">
        <ele>25.799999237061</ele>
        <time>2022-09-22T08:48:32.000Z</time>
      </trkpt>
      <trkpt lat="47.32396" lon="-2.42568">
        <ele>25.799999237061</ele>
        <time>2022-09-22T08:48:36.000Z</time>
      </trkpt>
      <trkpt lat="47.32405" lon="-2.42578">
        <ele>25.799999237061</ele>
        <time>2022-09-22T08:48:39.000Z</time>
      </trkpt>
      <trkpt lat="47.32409" lon="-2.42591">
        <ele>25.799999237061</ele>
        <time>2022-09-22T08:48:41.000Z</time>
      </trkpt>
      <trkpt lat="47.32413" lon="-2.42606">
        <ele>25.799999237061</ele>
        <time>2022-09-22T08:48:43.000Z</time>
      </trkpt>
      <trkpt lat="47.32415" lon="-2.42614">
        <ele>25.799999237061</ele>
        <time>2022-09-22T08:48:44.000Z</time>
      </trkpt>
      <trkpt lat="47.32419" lon="-2.42631">
        <ele>25.39999961853</ele>
        <time>2022-09-22T08:48:46.000Z</time>
      </trkpt>
      <trkpt lat="47.32421" lon="-2.42639">
        <ele>24.799999237061</ele>
        <time>2022-09-22T08:48:47.000Z</time>
      </trkpt>
      <trkpt lat="47.32423" lon="-2.42648">
        <ele>24</ele>
        <time>2022-09-22T08:48:48.000Z</time>
      </trkpt>
      <trkpt lat="47.32425" lon="-2.42657">
        <ele>23.60000038147</ele>
        <time>2022-09-22T08:48:49.000Z</time>
      </trkpt>
      <trkpt lat="47.32435" lon="-2.42717">
        <ele>23.200000762939</ele>
        <time>2022-09-22T08:48:55.000Z</time>
      </trkpt>
      <trkpt lat="47.32434" lon="-2.42728">
        <ele>22.799999237061</ele>
        <time>2022-09-22T08:48:56.000Z</time>
      </trkpt>
      <trkpt lat="47.32434" lon="-2.42738">
        <ele>22.39999961853</ele>
        <time>2022-09-22T08:48:57.000Z</time>
      </trkpt>
      <trkpt lat="47.32433" lon="-2.42749">
        <ele>22</ele>
        <time>2022-09-22T08:48:58.000Z</time>
      </trkpt>
      <trkpt lat="47.32433" lon="-2.4276">
        <ele>21.60000038147</ele>
        <time>2022-09-22T08:48:59.000Z</time>
      </trkpt>
      <trkpt lat="47.32433" lon="-2.42771">
        <ele>21.60000038147</ele>
        <time>2022-09-22T08:49:00.000Z</time>
      </trkpt>
      <trkpt lat="47.32432" lon="-2.42792">
        <ele>21.200000762939</ele>
        <time>2022-09-22T08:49:02.000Z</time>
      </trkpt>
      <trkpt lat="47.32431" lon="-2.42803">
        <ele>20.799999237061</ele>
        <time>2022-09-22T08:49:03.000Z</time>
      </trkpt>
      <trkpt lat="47.3243" lon="-2.42814">
        <ele>20.39999961853</ele>
        <time>2022-09-22T08:49:04.000Z</time>
      </trkpt>
      <trkpt lat="47.3243" lon="-2.42824">
        <ele>19.799999237061</ele>
        <time>2022-09-22T08:49:05.000Z</time>
      </trkpt>
      <trkpt lat="47.3243" lon="-2.42833">
        <ele>19.39999961853</ele>
        <time>2022-09-22T08:49:06.000Z</time>
      </trkpt>
      <trkpt lat="47.3243" lon="-2.4284">
        <ele>19.39999961853</ele>
        <time>2022-09-22T08:49:07.000Z</time>
      </trkpt>
      <trkpt lat="47.32431" lon="-2.42853">
        <ele>19.39999961853</ele>
        <time>2022-09-22T08:49:09.000Z</time>
      </trkpt>
      <trkpt lat="47.32428" lon="-2.42866">
        <ele>19.39999961853</ele>
        <time>2022-09-22T08:49:11.000Z</time>
      </trkpt>
      <trkpt lat="47.3242" lon="-2.42894">
        <ele>19.39999961853</ele>
        <time>2022-09-22T08:49:15.000Z</time>
      </trkpt>
      <trkpt lat="47.32416" lon="-2.42899">
        <ele>19.39999961853</ele>
        <time>2022-09-22T08:49:16.000Z</time>
      </trkpt>
      <trkpt lat="47.32398" lon="-2.429">
        <ele>19.39999961853</ele>
        <time>2022-09-22T08:49:19.000Z</time>
      </trkpt>
      <trkpt lat="47.32392" lon="-2.429">
        <ele>19.39999961853</ele>
        <time>2022-09-22T08:49:20.000Z</time>
      </trkpt>
      <trkpt lat="47.32361" lon="-2.42902">
        <ele>19.39999961853</ele>
        <time>2022-09-22T08:49:25.000Z</time>
      </trkpt>
      <trkpt lat="47.32326" lon="-2.42899">
        <ele>19.39999961853</ele>
        <time>2022-09-22T08:49:31.000Z</time>
      </trkpt>
      <trkpt lat="47.32286" lon="-2.42886">
        <ele>19.39999961853</ele>
        <time>2022-09-22T08:49:38.000Z</time>
      </trkpt>
      <trkpt lat="47.32236" lon="-2.42868">
        <ele>19.39999961853</ele>
        <time>2022-09-22T08:49:47.000Z</time>
      </trkpt>
      <trkpt lat="47.3222" lon="-2.42862">
        <ele>19</ele>
        <time>2022-09-22T08:49:50.000Z</time>
      </trkpt>
      <trkpt lat="47.32215" lon="-2.42861">
        <ele>18.60000038147</ele>
        <time>2022-09-22T08:49:51.000Z</time>
      </trkpt>
      <trkpt lat="47.32209" lon="-2.4286">
        <ele>18.200000762939</ele>
        <time>2022-09-22T08:49:52.000Z</time>
      </trkpt>
      <trkpt lat="47.32204" lon="-2.42858">
        <ele>17.799999237061</ele>
        <time>2022-09-22T08:49:53.000Z</time>
      </trkpt>
      <trkpt lat="47.32197" lon="-2.42857">
        <ele>17.39999961853</ele>
        <time>2022-09-22T08:49:54.000Z</time>
      </trkpt>
      <trkpt lat="47.32191" lon="-2.42856">
        <ele>17.39999961853</ele>
        <time>2022-09-22T08:49:55.000Z</time>
      </trkpt>
      <trkpt lat="47.32146" lon="-2.42848">
        <ele>17</ele>
        <time>2022-09-22T08:50:02.000Z</time>
      </trkpt>
      <trkpt lat="47.32139" lon="-2.42847">
        <ele>16.60000038147</ele>
        <time>2022-09-22T08:50:03.000Z</time>
      </trkpt>
      <trkpt lat="47.32132" lon="-2.42845">
        <ele>16.200000762939</ele>
        <time>2022-09-22T08:50:04.000Z</time>
      </trkpt>
      <trkpt lat="47.32125" lon="-2.42843">
        <ele>15.800000190735</ele>
        <time>2022-09-22T08:50:05.000Z</time>
      </trkpt>
      <trkpt lat="47.32117" lon="-2.42842">
        <ele>15.39999961853</ele>
        <time>2022-09-22T08:50:06.000Z</time>
      </trkpt>
      <trkpt lat="47.32109" lon="-2.42841">
        <ele>15.39999961853</ele>
        <time>2022-09-22T08:50:07.000Z</time>
      </trkpt>
      <trkpt lat="47.32085" lon="-2.42838">
        <ele>15</ele>
        <time>2022-09-22T08:50:10.000Z</time>
      </trkpt>
      <trkpt lat="47.32078" lon="-2.42836">
        <ele>14.60000038147</ele>
        <time>2022-09-22T08:50:11.000Z</time>
      </trkpt>
      <trkpt lat="47.3207" lon="-2.42835">
        <ele>14.199999809265</ele>
        <time>2022-09-22T08:50:12.000Z</time>
      </trkpt>
      <trkpt lat="47.32061" lon="-2.42833">
        <ele>13.800000190735</ele>
        <time>2022-09-22T08:50:13.000Z</time>
      </trkpt>
      <trkpt lat="47.32053" lon="-2.42833">
        <ele>13.39999961853</ele>
        <time>2022-09-22T08:50:14.000Z</time>
      </trkpt>
      <trkpt lat="47.32029" lon="-2.42835">
        <ele>12.800000190735</ele>
        <time>2022-09-22T08:50:17.000Z</time>
      </trkpt>
      <trkpt lat="47.32022" lon="-2.4284">
        <ele>12.39999961853</ele>
        <time>2022-09-22T08:50:18.000Z</time>
      </trkpt>
      <trkpt lat="47.32015" lon="-2.42847">
        <ele>12</ele>
        <time>2022-09-22T08:50:19.000Z</time>
      </trkpt>
      <trkpt lat="47.32009" lon="-2.42857">
        <ele>11.60000038147</ele>
        <time>2022-09-22T08:50:20.000Z</time>
      </trkpt>
      <trkpt lat="47.32005" lon="-2.42868">
        <ele>11.199999809265</ele>
        <time>2022-09-22T08:50:21.000Z</time>
      </trkpt>
      <trkpt lat="47.32003" lon="-2.42879">
        <ele>11.199999809265</ele>
        <time>2022-09-22T08:50:22.000Z</time>
      </trkpt>
      <trkpt lat="47.32" lon="-2.42911">
        <ele>11.199999809265</ele>
        <time>2022-09-22T08:50:25.000Z</time>
      </trkpt>
      <trkpt lat="47.31999" lon="-2.42922">
        <ele>11.199999809265</ele>
        <time>2022-09-22T08:50:26.000Z</time>
      </trkpt>
      <trkpt lat="47.31996" lon="-2.42972">
        <ele>11.199999809265</ele>
        <time>2022-09-22T08:50:31.000Z</time>
      </trkpt>
      <trkpt lat="47.32" lon="-2.43032">
        <ele>11.199999809265</ele>
        <time>2022-09-22T08:50:37.000Z</time>
      </trkpt>
      <trkpt lat="47.32007" lon="-2.43065">
        <ele>10.800000190735</ele>
        <time>2022-09-22T08:50:40.000Z</time>
      </trkpt>
      <trkpt lat="47.32009" lon="-2.43076">
        <ele>10.39999961853</ele>
        <time>2022-09-22T08:50:41.000Z</time>
      </trkpt>
      <trkpt lat="47.32012" lon="-2.43087">
        <ele>10</ele>
        <time>2022-09-22T08:50:42.000Z</time>
      </trkpt>
      <trkpt lat="47.32013" lon="-2.43098">
        <ele>9.3999996185303</ele>
        <time>2022-09-22T08:50:43.000Z</time>
      </trkpt>
      <trkpt lat="47.32016" lon="-2.4311">
        <ele>9</ele>
        <time>2022-09-22T08:50:44.000Z</time>
      </trkpt>
      <trkpt lat="47.32024" lon="-2.43141">
        <ele>8.6000003814697</ele>
        <time>2022-09-22T08:50:47.000Z</time>
      </trkpt>
      <trkpt lat="47.32025" lon="-2.43151">
        <ele>8.1999998092651</ele>
        <time>2022-09-22T08:50:48.000Z</time>
      </trkpt>
      <trkpt lat="47.32027" lon="-2.43161">
        <ele>7.8000001907349</ele>
        <time>2022-09-22T08:50:49.000Z</time>
      </trkpt>
      <trkpt lat="47.32029" lon="-2.43171">
        <ele>7.4000000953674</ele>
        <time>2022-09-22T08:50:50.000Z</time>
      </trkpt>
      <trkpt lat="47.3203" lon="-2.43179">
        <ele>6.8000001907349</ele>
        <time>2022-09-22T08:50:51.000Z</time>
      </trkpt>
      <trkpt lat="47.32034" lon="-2.43196">
        <ele>6.8000001907349</ele>
        <time>2022-09-22T08:50:53.000Z</time>
      </trkpt>
      <trkpt lat="47.32042" lon="-2.43219">
        <ele>6.8000001907349</ele>
        <time>2022-09-22T08:50:58.000Z</time>
      </trkpt>
      <trkpt lat="47.32044" lon="-2.43229">
        <ele>6.8000001907349</ele>
        <time>2022-09-22T08:51:01.000Z</time>
      </trkpt>
      <trkpt lat="47.32043" lon="-2.43233">
        <ele>6.8000001907349</ele>
        <time>2022-09-22T08:51:02.000Z</time>
      </trkpt>
      <trkpt lat="47.32032" lon="-2.43245">
        <ele>6.8000001907349</ele>
        <time>2022-09-22T08:51:05.000Z</time>
      </trkpt>
      <trkpt lat="47.32028" lon="-2.43249">
        <ele>6.8000001907349</ele>
        <time>2022-09-22T08:51:06.000Z</time>
      </trkpt>
      <trkpt lat="47.32017" lon="-2.43255">
        <ele>6.4000000953674</ele>
        <time>2022-09-22T08:51:08.000Z</time>
      </trkpt>
      <trkpt lat="47.32012" lon="-2.43259">
        <ele>6</ele>
        <time>2022-09-22T08:51:09.000Z</time>
      </trkpt>
      <trkpt lat="47.32006" lon="-2.43262">
        <ele>5.5999999046326</ele>
        <time>2022-09-22T08:51:10.000Z</time>
      </trkpt>
      <trkpt lat="47.32001" lon="-2.43266">
        <ele>5.1999998092651</ele>
        <time>2022-09-22T08:51:11.000Z</time>
      </trkpt>
      <trkpt lat="47.31995" lon="-2.43269">
        <ele>4.8000001907349</ele>
        <time>2022-09-22T08:51:12.000Z</time>
      </trkpt>
      <trkpt lat="47.31979" lon="-2.43282">
        <ele>4.4000000953674</ele>
        <time>2022-09-22T08:51:15.000Z</time>
      </trkpt>
      <trkpt lat="47.31977" lon="-2.43289">
        <ele>3.4000000953674</ele>
        <time>2022-09-22T08:51:16.000Z</time>
      </trkpt>
      <trkpt lat="47.31976" lon="-2.43298">
        <ele>3</ele>
        <time>2022-09-22T08:51:17.000Z</time>
      </trkpt>
      <trkpt lat="47.31975" lon="-2.43307">
        <ele>2.5999999046326</ele>
        <time>2022-09-22T08:51:18.000Z</time>
      </trkpt>
      <trkpt lat="47.31974" lon="-2.43326">
        <ele>2.5999999046326</ele>
        <time>2022-09-22T08:51:20.000Z</time>
      </trkpt>
      <trkpt lat="47.31969" lon="-2.43357">
        <ele>2.2000000476837</ele>
        <time>2022-09-22T08:51:23.000Z</time>
      </trkpt>
      <trkpt lat="47.31966" lon="-2.43368">
        <ele>1.7999999523163</ele>
        <time>2022-09-22T08:51:24.000Z</time>
      </trkpt>
      <trkpt lat="47.31963" lon="-2.43378">
        <ele>1.3999999761581</ele>
        <time>2022-09-22T08:51:25.000Z</time>
      </trkpt>
      <trkpt lat="47.3196" lon="-2.43389">
        <ele>1</ele>
        <time>2022-09-22T08:51:26.000Z</time>
      </trkpt>
      <trkpt lat="47.31956" lon="-2.43399">
        <ele>0.60000002384186</ele>
        <time>2022-09-22T08:51:27.000Z</time>
      </trkpt>
      <trkpt lat="47.31953" lon="-2.4341">
        <ele>0.60000002384186</ele>
        <time>2022-09-22T08:51:28.000Z</time>
      </trkpt>
      <trkpt lat="47.31945" lon="-2.43432">
        <ele>20.1</ele>
        <time>2022-09-22T08:51:30.000Z</time>
      </trkpt>
      <trkpt lat="47.31941" lon="-2.43442">
        <ele>-0.40000000596046</ele>
        <time>2022-09-22T08:51:31.000Z</time>
      </trkpt>
      <trkpt lat="47.31938" lon="-2.43453">
        <ele>-0.80000001192093</ele>
        <time>2022-09-22T08:51:32.000Z</time>
      </trkpt>
      <trkpt lat="47.31934" lon="-2.43464">
        <ele>-1.3999999761581</ele>
        <time>2022-09-22T08:51:33.000Z</time>
      </trkpt>
      <trkpt lat="47.31931" lon="-2.43476">
        <ele>-1.7999999523163</ele>
        <time>2022-09-22T08:51:34.000Z</time>
      </trkpt>
      <trkpt lat="47.31928" lon="-2.43488">
        <ele>-1.7999999523163</ele>
        <time>2022-09-22T08:51:35.000Z</time>
      </trkpt>
      <trkpt lat="47.31926" lon="-2.43501">
        <ele>-2.2000000476837</ele>
        <time>2022-09-22T08:51:36.000Z</time>
      </trkpt>
      <trkpt lat="47.31925" lon="-2.43513">
        <ele>-2.5999999046326</ele>
        <time>2022-09-22T08:51:37.000Z</time>
      </trkpt>
      <trkpt lat="47.31925" lon="-2.43525">
        <ele>-3.2000000476837</ele>
        <time>2022-09-22T08:51:38.000Z</time>
      </trkpt>
      <trkpt lat="47.31926" lon="-2.43537">
        <ele>-3.5999999046326</ele>
        <time>2022-09-22T08:51:39.000Z</time>
      </trkpt>
      <trkpt lat="47.31928" lon="-2.43547">
        <ele>-4</ele>
        <time>2022-09-22T08:51:40.000Z</time>
      </trkpt>
      <trkpt lat="47.31929" lon="-2.4357">
        <ele>-4</ele>
        <time>2022-09-22T08:51:42.000Z</time>
      </trkpt>
      <trkpt lat="47.31928" lon="-2.43581">
        <ele>-4.5999999046326</ele>
        <time>2022-09-22T08:51:43.000Z</time>
      </trkpt>
      <trkpt lat="47.31925" lon="-2.43591">
        <ele>-5</ele>
        <time>2022-09-22T08:51:44.000Z</time>
      </trkpt>
      <trkpt lat="47.31921" lon="-2.436">
        <ele>-5.4000000953674</ele>
        <time>2022-09-22T08:51:45.000Z</time>
      </trkpt>
      <trkpt lat="47.31916" lon="-2.43606">
        <ele>-5.8000001907349</ele>
        <time>2022-09-22T08:51:46.000Z</time>
      </trkpt>
      <trkpt lat="47.3191" lon="-2.43611">
        <ele>-6.1999998092651</ele>
        <time>2022-09-22T08:51:47.000Z</time>
      </trkpt>
      <trkpt lat="47.31898" lon="-2.43618">
        <ele>-6.5999999046326</ele>
        <time>2022-09-22T08:51:49.000Z</time>
      </trkpt>
      <trkpt lat="47.31893" lon="-2.43624">
        <ele>-7.1999998092651</ele>
        <time>2022-09-22T08:51:50.000Z</time>
      </trkpt>
      <trkpt lat="47.31889" lon="-2.43629">
        <ele>-7.5999999046326</ele>
        <time>2022-09-22T08:51:51.000Z</time>
      </trkpt>
      <trkpt lat="47.31886" lon="-2.43638">
        <ele>-8</ele>
        <time>2022-09-22T08:51:52.000Z</time>
      </trkpt>
      <trkpt lat="47.31887" lon="-2.43647">
        <ele>-8.3999996185303</ele>
        <time>2022-09-22T08:51:53.000Z</time>
      </trkpt>
      <trkpt lat="47.31892" lon="-2.43662">
        <ele>-8.8000001907349</ele>
        <time>2022-09-22T08:51:55.000Z</time>
      </trkpt>
      <trkpt lat="47.31896" lon="-2.4367">
        <ele>-9.1999998092651</ele>
        <time>2022-09-22T08:51:56.000Z</time>
      </trkpt>
      <trkpt lat="47.319" lon="-2.43677">
        <ele>-9.6000003814697</ele>
        <time>2022-09-22T08:51:57.000Z</time>
      </trkpt>
      <trkpt lat="47.31904" lon="-2.43684">
        <ele>-10</ele>
        <time>2022-09-22T08:51:58.000Z</time>
      </trkpt>
      <trkpt lat="47.31909" lon="-2.43691">
        <ele>-10.39999961853</ele>
        <time>2022-09-22T08:51:59.000Z</time>
      </trkpt>
      <trkpt lat="47.31922" lon="-2.43722">
        <ele>-10.39999961853</ele>
        <time>2022-09-22T08:52:03.000Z</time>
      </trkpt>
      <trkpt lat="47.31925" lon="-2.4373">
        <ele>-10.39999961853</ele>
        <time>2022-09-22T08:52:04.000Z</time>
      </trkpt>
      <trkpt lat="47.31945" lon="-2.43784">
        <ele>-10.39999961853</ele>
        <time>2022-09-22T08:52:11.000Z</time>
      </trkpt>
      <trkpt lat="47.31965" lon="-2.43823">
        <ele>-10.39999961853</ele>
        <time>2022-09-22T08:52:17.000Z</time>
      </trkpt>
      <trkpt lat="47.31969" lon="-2.43829">
        <ele>-10</ele>
        <time>2022-09-22T08:52:18.000Z</time>
      </trkpt>
      <trkpt lat="47.31973" lon="-2.43833">
        <ele>-9.6000003814697</ele>
        <time>2022-09-22T08:52:19.000Z</time>
      </trkpt>
      <trkpt lat="47.31978" lon="-2.43838">
        <ele>-9.1999998092651</ele>
        <time>2022-09-22T08:52:20.000Z</time>
      </trkpt>
      <trkpt lat="47.31983" lon="-2.43838">
        <ele>-8.8000001907349</ele>
        <time>2022-09-22T08:52:21.000Z</time>
      </trkpt>
      <trkpt lat="47.31987" lon="-2.43836">
        <ele>-8.3999996185303</ele>
        <time>2022-09-22T08:52:22.000Z</time>
      </trkpt>
      <trkpt lat="47.31999" lon="-2.43825">
        <ele>-8.3999996185303</ele>
        <time>2022-09-22T08:52:25.000Z</time>
      </trkpt>
      <trkpt lat="47.32006" lon="-2.43817">
        <ele>-8</ele>
        <time>2022-09-22T08:52:27.000Z</time>
      </trkpt>
      <trkpt lat="47.32009" lon="-2.43814">
        <ele>-7.4000000953674</ele>
        <time>2022-09-22T08:52:28.000Z</time>
      </trkpt>
      <trkpt lat="47.32013" lon="-2.43811">
        <ele>-7</ele>
        <time>2022-09-22T08:52:29.000Z</time>
      </trkpt>
      <trkpt lat="47.32016" lon="-2.43808">
        <ele>-6.5999999046326</ele>
        <time>2022-09-22T08:52:30.000Z</time>
      </trkpt>
      <trkpt lat="47.3202" lon="-2.43805">
        <ele>-6.1999998092651</ele>
        <time>2022-09-22T08:52:31.000Z</time>
      </trkpt>
      <trkpt lat="47.32023" lon="-2.43803">
        <ele>-5.8000001907349</ele>
        <time>2022-09-22T08:52:32.000Z</time>
      </trkpt>
      <trkpt lat="47.32026" lon="-2.438">
        <ele>-5.1999998092651</ele>
        <time>2022-09-22T08:52:33.000Z</time>
      </trkpt>
      <trkpt lat="47.3203" lon="-2.43799">
        <ele>-4.8000001907349</ele>
        <time>2022-09-22T08:52:34.000Z</time>
      </trkpt>
      <trkpt lat="47.32033" lon="-2.43802">
        <ele>-4.4000000953674</ele>
        <time>2022-09-22T08:52:35.000Z</time>
      </trkpt>
      <trkpt lat="47.32035" lon="-2.43807">
        <ele>-4</ele>
        <time>2022-09-22T08:52:36.000Z</time>
      </trkpt>
      <trkpt lat="47.32043" lon="-2.43823">
        <ele>-3.5999999046326</ele>
        <time>2022-09-22T08:52:40.000Z</time>
      </trkpt>
      <trkpt lat="47.32046" lon="-2.43828">
        <ele>-3.2000000476837</ele>
        <time>2022-09-22T08:52:41.000Z</time>
      </trkpt>
      <trkpt lat="47.32049" lon="-2.43833">
        <ele>-2.5999999046326</ele>
        <time>2022-09-22T08:52:42.000Z</time>
      </trkpt>
      <trkpt lat="47.32052" lon="-2.43838">
        <ele>-2.2000000476837</ele>
        <time>2022-09-22T08:52:43.000Z</time>
      </trkpt>
      <trkpt lat="47.32054" lon="-2.43843">
        <ele>-1.7999999523163</ele>
        <time>2022-09-22T08:52:44.000Z</time>
      </trkpt>
      <trkpt lat="47.32063" lon="-2.43861">
        <ele>-1.7999999523163</ele>
        <time>2022-09-22T08:52:47.000Z</time>
      </trkpt>
      <trkpt lat="47.32066" lon="-2.43866">
        <ele>-1.7999999523163</ele>
        <time>2022-09-22T08:52:48.000Z</time>
      </trkpt>
      <trkpt lat="47.32083" lon="-2.43891">
        <ele>-1.7999999523163</ele>
        <time>2022-09-22T08:52:53.000Z</time>
      </trkpt>
      <trkpt lat="47.32087" lon="-2.43895">
        <ele>-1.7999999523163</ele>
        <time>2022-09-22T08:52:54.000Z</time>
      </trkpt>
      <trkpt lat="47.32099" lon="-2.43903">
        <ele>-1.3999999761581</ele>
        <time>2022-09-22T08:52:57.000Z</time>
      </trkpt>
      <trkpt lat="47.32103" lon="-2.43905">
        <ele>-1</ele>
        <time>2022-09-22T08:52:58.000Z</time>
      </trkpt>
      <trkpt lat="47.32107" lon="-2.43906">
        <ele>-0.60000002384186</ele>
        <time>2022-09-22T08:52:59.000Z</time>
      </trkpt>
      <trkpt lat="47.32112" lon="-2.43908">
        <ele>-0.20000000298023</ele>
        <time>2022-09-22T08:53:00.000Z</time>
      </trkpt>
      <trkpt lat="47.32116" lon="-2.4391">
        <ele>0.20000000298023</ele>
        <time>2022-09-22T08:53:01.000Z</time>
      </trkpt>
      <trkpt lat="47.32123" lon="-2.43915">
        <ele>0.20000000298023</ele>
        <time>2022-09-22T08:53:03.000Z</time>
      </trkpt>
      <trkpt lat="47.32136" lon="-2.43929">
        <ele>0.60000002384186</ele>
        <time>2022-09-22T08:53:07.000Z</time>
      </trkpt>
      <trkpt lat="47.32138" lon="-2.43933">
        <ele>1.2000000476837</ele>
        <time>2022-09-22T08:53:08.000Z</time>
      </trkpt>
      <trkpt lat="47.32141" lon="-2.43937">
        <ele>1.6000000238419</ele>
        <time>2022-09-22T08:53:09.000Z</time>
      </trkpt>
      <trkpt lat="47.32143" lon="-2.43941">
        <ele>2</ele>
        <time>2022-09-22T08:53:10.000Z</time>
      </trkpt>
      <trkpt lat="47.32146" lon="-2.43945">
        <ele>2.4000000953674</ele>
        <time>2022-09-22T08:53:11.000Z</time>
      </trkpt>
      <trkpt lat="47.32157" lon="-2.4396">
        <ele>3.2000000476837</ele>
        <time>2022-09-22T08:53:15.000Z</time>
      </trkpt>
      <trkpt lat="47.32159" lon="-2.43965">
        <ele>3.5999999046326</ele>
        <time>2022-09-22T08:53:16.000Z</time>
      </trkpt>
      <trkpt lat="47.32162" lon="-2.43969">
        <ele>4</ele>
        <time>2022-09-22T08:53:17.000Z</time>
      </trkpt>
      <trkpt lat="47.32165" lon="-2.43972">
        <ele>4.4000000953674</ele>
        <time>2022-09-22T08:53:18.000Z</time>
      </trkpt>
      <trkpt lat="47.32174" lon="-2.43983">
        <ele>4.4000000953674</ele>
        <time>2022-09-22T08:53:21.000Z</time>
      </trkpt>
      <trkpt lat="47.32185" lon="-2.43998">
        <ele>4.8000001907349</ele>
        <time>2022-09-22T08:53:25.000Z</time>
      </trkpt>
      <trkpt lat="47.32188" lon="-2.44003">
        <ele>5.1999998092651</ele>
        <time>2022-09-22T08:53:26.000Z</time>
      </trkpt>
      <trkpt lat="47.32191" lon="-2.44006">
        <ele>5.5999999046326</ele>
        <time>2022-09-22T08:53:27.000Z</time>
      </trkpt>
      <trkpt lat="47.32194" lon="-2.4401">
        <ele>6</ele>
        <time>2022-09-22T08:53:28.000Z</time>
      </trkpt>
      <trkpt lat="47.32197" lon="-2.44013">
        <ele>6.4000000953674</ele>
        <time>2022-09-22T08:53:29.000Z</time>
      </trkpt>
      <trkpt lat="47.32217" lon="-2.44032">
        <ele>6.4000000953674</ele>
        <time>2022-09-22T08:53:35.000Z</time>
      </trkpt>
      <trkpt lat="47.32235" lon="-2.44044">
        <ele>6.4000000953674</ele>
        <time>2022-09-22T08:53:40.000Z</time>
      </trkpt>
      <trkpt lat="47.32247" lon="-2.44044">
        <ele>6.8000001907349</ele>
        <time>2022-09-22T08:53:43.000Z</time>
      </trkpt>
      <trkpt lat="47.32251" lon="-2.44044">
        <ele>7.1999998092651</ele>
        <time>2022-09-22T08:53:44.000Z</time>
      </trkpt>
      <trkpt lat="47.32255" lon="-2.44045">
        <ele>7.5999999046326</ele>
        <time>2022-09-22T08:53:45.000Z</time>
      </trkpt>
      <trkpt lat="47.32259" lon="-2.44046">
        <ele>8</ele>
        <time>2022-09-22T08:53:46.000Z</time>
      </trkpt>
      <trkpt lat="47.32263" lon="-2.44046">
        <ele>8.6000003814697</ele>
        <time>2022-09-22T08:53:47.000Z</time>
      </trkpt>
      <trkpt lat="47.32278" lon="-2.4405">
        <ele>8.6000003814697</ele>
        <time>2022-09-22T08:53:51.000Z</time>
      </trkpt>
      <trkpt lat="47.32296" lon="-2.44055">
        <ele>8.6000003814697</ele>
        <time>2022-09-22T08:53:56.000Z</time>
      </trkpt>
      <trkpt lat="47.32314" lon="-2.44064">
        <ele>8.6000003814697</ele>
        <time>2022-09-22T08:54:01.000Z</time>
      </trkpt>
      <trkpt lat="47.32326" lon="-2.44068">
        <ele>9</ele>
        <time>2022-09-22T08:54:04.000Z</time>
      </trkpt>
      <trkpt lat="47.3233" lon="-2.44068">
        <ele>9.3999996185303</ele>
        <time>2022-09-22T08:54:05.000Z</time>
      </trkpt>
      <trkpt lat="47.32333" lon="-2.44069">
        <ele>9.8000001907349</ele>
        <time>2022-09-22T08:54:06.000Z</time>
      </trkpt>
      <trkpt lat="47.32338" lon="-2.4407">
        <ele>10.199999809265</ele>
        <time>2022-09-22T08:54:07.000Z</time>
      </trkpt>
      <trkpt lat="47.32341" lon="-2.44071">
        <ele>10.60000038147</ele>
        <time>2022-09-22T08:54:08.000Z</time>
      </trkpt>
      <trkpt lat="47.32364" lon="-2.4407">
        <ele>10.60000038147</ele>
        <time>2022-09-22T08:54:14.000Z</time>
      </trkpt>
      <trkpt lat="47.32375" lon="-2.44065">
        <ele>11</ele>
        <time>2022-09-22T08:54:17.000Z</time>
      </trkpt>
      <trkpt lat="47.32378" lon="-2.44064">
        <ele>11.39999961853</ele>
        <time>2022-09-22T08:54:18.000Z</time>
      </trkpt>
      <trkpt lat="47.32382" lon="-2.44062">
        <ele>11.800000190735</ele>
        <time>2022-09-22T08:54:19.000Z</time>
      </trkpt>
      <trkpt lat="47.32385" lon="-2.4406">
        <ele>12.199999809265</ele>
        <time>2022-09-22T08:54:20.000Z</time>
      </trkpt>
      <trkpt lat="47.32388" lon="-2.44058">
        <ele>12.60000038147</ele>
        <time>2022-09-22T08:54:21.000Z</time>
      </trkpt>
      <trkpt lat="47.3241" lon="-2.44046">
        <ele>12.60000038147</ele>
        <time>2022-09-22T08:54:27.000Z</time>
      </trkpt>
      <trkpt lat="47.32417" lon="-2.44041">
        <ele>13.39999961853</ele>
        <time>2022-09-22T08:54:29.000Z</time>
      </trkpt>
      <trkpt lat="47.3242" lon="-2.44038">
        <ele>13.800000190735</ele>
        <time>2022-09-22T08:54:30.000Z</time>
      </trkpt>
      <trkpt lat="47.32423" lon="-2.44036">
        <ele>14.199999809265</ele>
        <time>2022-09-22T08:54:31.000Z</time>
      </trkpt>
      <trkpt lat="47.32427" lon="-2.44033">
        <ele>14.60000038147</ele>
        <time>2022-09-22T08:54:32.000Z</time>
      </trkpt>
      <trkpt lat="47.32452" lon="-2.44016">
        <ele>14.60000038147</ele>
        <time>2022-09-22T08:54:39.000Z</time>
      </trkpt>
      <trkpt lat="47.32473" lon="-2.44001">
        <ele>15</ele>
        <time>2022-09-22T08:54:45.000Z</time>
      </trkpt>
      <trkpt lat="47.32477" lon="-2.43999">
        <ele>15.39999961853</ele>
        <time>2022-09-22T08:54:46.000Z</time>
      </trkpt>
      <trkpt lat="47.3248" lon="-2.43997">
        <ele>15.800000190735</ele>
        <time>2022-09-22T08:54:47.000Z</time>
      </trkpt>
      <trkpt lat="47.32484" lon="-2.43994">
        <ele>16.39999961853</ele>
        <time>2022-09-22T08:54:48.000Z</time>
      </trkpt>
      <trkpt lat="47.32487" lon="-2.43992">
        <ele>16.799999237061</ele>
        <time>2022-09-22T08:54:49.000Z</time>
      </trkpt>
      <trkpt lat="47.325" lon="-2.43986">
        <ele>16.799999237061</ele>
        <time>2022-09-22T08:54:53.000Z</time>
      </trkpt>
      <trkpt lat="47.32508" lon="-2.4399">
        <ele>16.799999237061</ele>
        <time>2022-09-22T08:54:56.000Z</time>
      </trkpt>
      <trkpt lat="47.32511" lon="-2.43994">
        <ele>16.799999237061</ele>
        <time>2022-09-22T08:54:57.000Z</time>
      </trkpt>
      <trkpt lat="47.32529" lon="-2.44015">
        <ele>16.799999237061</ele>
        <time>2022-09-22T08:55:02.000Z</time>
      </trkpt>
      <trkpt lat="47.32533" lon="-2.44018">
        <ele>16.799999237061</ele>
        <time>2022-09-22T08:55:03.000Z</time>
      </trkpt>
      <trkpt lat="47.32547" lon="-2.44029">
        <ele>16.799999237061</ele>
        <time>2022-09-22T08:55:07.000Z</time>
      </trkpt>
      <trkpt lat="47.32565" lon="-2.44035">
        <ele>16.799999237061</ele>
        <time>2022-09-22T08:55:12.000Z</time>
      </trkpt>
      <trkpt lat="47.3257" lon="-2.44038">
        <ele>16.799999237061</ele>
        <time>2022-09-22T08:55:14.000Z</time>
      </trkpt>
      <trkpt lat="47.3257" lon="-2.44044">
        <ele>16.799999237061</ele>
        <time>2022-09-22T08:55:16.000Z</time>
      </trkpt>
      <trkpt lat="47.32564" lon="-2.44054">
        <ele>16.799999237061</ele>
        <time>2022-09-22T08:55:19.000Z</time>
      </trkpt>
      <trkpt lat="47.3256" lon="-2.44061">
        <ele>16.799999237061</ele>
        <time>2022-09-22T08:55:21.000Z</time>
      </trkpt>
      <trkpt lat="47.32558" lon="-2.44065">
        <ele>17.200000762939</ele>
        <time>2022-09-22T08:55:23.000Z</time>
      </trkpt>
      <trkpt lat="47.32557" lon="-2.44066">
        <ele>17.60000038147</ele>
        <time>2022-09-22T08:55:24.000Z</time>
      </trkpt>
      <trkpt lat="47.32557" lon="-2.44067">
        <ele>18</ele>
        <time>2022-09-22T08:55:25.000Z</time>
      </trkpt>
      <trkpt lat="47.32556" lon="-2.44072">
        <ele>18.799999237061</ele>
        <time>2022-09-22T08:55:29.000Z</time>
      </trkpt>
      <trkpt lat="47.32554" lon="-2.44079">
        <ele>18.799999237061</ele>
        <time>2022-09-22T08:55:32.000Z</time>
      </trkpt>
      <trkpt lat="47.32552" lon="-2.44096">
        <ele>18.799999237061</ele>
        <time>2022-09-22T08:55:39.000Z</time>
      </trkpt>
      <trkpt lat="47.32547" lon="-2.44106">
        <ele>18.799999237061</ele>
        <time>2022-09-22T08:55:44.000Z</time>
      </trkpt>
      <trkpt lat="47.32542" lon="-2.44124">
        <ele>18.799999237061</ele>
        <time>2022-09-22T08:55:51.000Z</time>
      </trkpt>
      <trkpt lat="47.32534" lon="-2.44149">
        <ele>18.799999237061</ele>
        <time>2022-09-22T08:55:57.000Z</time>
      </trkpt>
      <trkpt lat="47.32527" lon="-2.44174">
        <ele>18.799999237061</ele>
        <time>2022-09-22T08:56:02.000Z</time>
      </trkpt>
      <trkpt lat="47.32525" lon="-2.44194">
        <ele>18.799999237061</ele>
        <time>2022-09-22T08:56:06.000Z</time>
      </trkpt>
      <trkpt lat="47.32532" lon="-2.44213">
        <ele>18.799999237061</ele>
        <time>2022-09-22T08:56:10.000Z</time>
      </trkpt>
      <trkpt lat="47.32545" lon="-2.44239">
        <ele>18.799999237061</ele>
        <time>2022-09-22T08:56:16.000Z</time>
      </trkpt>
      <trkpt lat="47.32557" lon="-2.44262">
        <ele>18.799999237061</ele>
        <time>2022-09-22T08:56:21.000Z</time>
      </trkpt>
      <trkpt lat="47.32558" lon="-2.44268">
        <ele>18.799999237061</ele>
        <time>2022-09-22T08:56:22.000Z</time>
      </trkpt>
      <trkpt lat="47.32562" lon="-2.44294">
        <ele>18.799999237061</ele>
        <time>2022-09-22T08:56:26.000Z</time>
      </trkpt>
      <trkpt lat="47.32563" lon="-2.443">
        <ele>18.799999237061</ele>
        <time>2022-09-22T08:56:27.000Z</time>
      </trkpt>
      <trkpt lat="47.32566" lon="-2.44306">
        <ele>18.200000762939</ele>
        <time>2022-09-22T08:56:28.000Z</time>
      </trkpt>
      <trkpt lat="47.32568" lon="-2.4431">
        <ele>17.799999237061</ele>
        <time>2022-09-22T08:56:29.000Z</time>
      </trkpt>
      <trkpt lat="47.3257" lon="-2.44315">
        <ele>17.39999961853</ele>
        <time>2022-09-22T08:56:30.000Z</time>
      </trkpt>
      <trkpt lat="47.32572" lon="-2.4432">
        <ele>17</ele>
        <time>2022-09-22T08:56:31.000Z</time>
      </trkpt>
      <trkpt lat="47.32574" lon="-2.44326">
        <ele>16.60000038147</ele>
        <time>2022-09-22T08:56:32.000Z</time>
      </trkpt>
      <trkpt lat="47.32575" lon="-2.44331">
        <ele>16.60000038147</ele>
        <time>2022-09-22T08:56:33.000Z</time>
      </trkpt>
      <trkpt lat="47.32582" lon="-2.44348">
        <ele>16.60000038147</ele>
        <time>2022-09-22T08:56:36.000Z</time>
      </trkpt>
      <trkpt lat="47.32584" lon="-2.44354">
        <ele>16.60000038147</ele>
        <time>2022-09-22T08:56:37.000Z</time>
      </trkpt>
      <trkpt lat="47.32588" lon="-2.44365">
        <ele>16.60000038147</ele>
        <time>2022-09-22T08:56:39.000Z</time>
      </trkpt>
      <trkpt lat="47.32596" lon="-2.44375">
        <ele>16.60000038147</ele>
        <time>2022-09-22T08:56:41.000Z</time>
      </trkpt>
      <trkpt lat="47.32603" lon="-2.44383">
        <ele>16.60000038147</ele>
        <time>2022-09-22T08:56:43.000Z</time>
      </trkpt>
      <trkpt lat="47.3261" lon="-2.44387">
        <ele>16.60000038147</ele>
        <time>2022-09-22T08:56:45.000Z</time>
      </trkpt>
      <trkpt lat="47.32614" lon="-2.44393">
        <ele>16.60000038147</ele>
        <time>2022-09-22T08:56:47.000Z</time>
      </trkpt>
      <trkpt lat="47.32616" lon="-2.44397">
        <ele>16.60000038147</ele>
        <time>2022-09-22T08:56:48.000Z</time>
      </trkpt>
      <trkpt lat="47.32628" lon="-2.44422">
        <ele>16.60000038147</ele>
        <time>2022-09-22T08:56:53.000Z</time>
      </trkpt>
      <trkpt lat="47.32641" lon="-2.44453">
        <ele>17.39999961853</ele>
        <time>2022-09-22T08:56:58.000Z</time>
      </trkpt>
      <trkpt lat="47.32644" lon="-2.44461">
        <ele>17.799999237061</ele>
        <time>2022-09-22T08:56:59.000Z</time>
      </trkpt>
      <trkpt lat="47.32646" lon="-2.44468">
        <ele>18.200000762939</ele>
        <time>2022-09-22T08:57:00.000Z</time>
      </trkpt>
      <trkpt lat="47.32648" lon="-2.44475">
        <ele>18.60000038147</ele>
        <time>2022-09-22T08:57:01.000Z</time>
      </trkpt>
      <trkpt lat="47.32654" lon="-2.44487">
        <ele>18.60000038147</ele>
        <time>2022-09-22T08:57:03.000Z</time>
      </trkpt>
      <trkpt lat="47.32665" lon="-2.44497">
        <ele>18.60000038147</ele>
        <time>2022-09-22T08:57:06.000Z</time>
      </trkpt>
      <trkpt lat="47.32665" lon="-2.44506">
        <ele>18.60000038147</ele>
        <time>2022-09-22T08:57:08.000Z</time>
      </trkpt>
      <trkpt lat="47.32663" lon="-2.44511">
        <ele>18.60000038147</ele>
        <time>2022-09-22T08:57:09.000Z</time>
      </trkpt>
      <trkpt lat="47.32656" lon="-2.44526">
        <ele>18.60000038147</ele>
        <time>2022-09-22T08:57:12.000Z</time>
      </trkpt>
      <trkpt lat="47.3265" lon="-2.44538">
        <ele>18.60000038147</ele>
        <time>2022-09-22T08:57:14.000Z</time>
      </trkpt>
      <trkpt lat="47.32629" lon="-2.44575">
        <ele>18.60000038147</ele>
        <time>2022-09-22T08:57:20.000Z</time>
      </trkpt>
      <trkpt lat="47.32604" lon="-2.44619">
        <ele>18.200000762939</ele>
        <time>2022-09-22T08:57:27.000Z</time>
      </trkpt>
      <trkpt lat="47.326" lon="-2.44626">
        <ele>17.799999237061</ele>
        <time>2022-09-22T08:57:28.000Z</time>
      </trkpt>
      <trkpt lat="47.32596" lon="-2.44632">
        <ele>17.39999961853</ele>
        <time>2022-09-22T08:57:29.000Z</time>
      </trkpt>
      <trkpt lat="47.32592" lon="-2.44638">
        <ele>16.799999237061</ele>
        <time>2022-09-22T08:57:30.000Z</time>
      </trkpt>
      <trkpt lat="47.32587" lon="-2.44644">
        <ele>16.39999961853</ele>
        <time>2022-09-22T08:57:31.000Z</time>
      </trkpt>
      <trkpt lat="47.32569" lon="-2.44666">
        <ele>16</ele>
        <time>2022-09-22T08:57:35.000Z</time>
      </trkpt>
      <trkpt lat="47.32566" lon="-2.44672">
        <ele>15.39999961853</ele>
        <time>2022-09-22T08:57:36.000Z</time>
      </trkpt>
      <trkpt lat="47.32562" lon="-2.44678">
        <ele>15</ele>
        <time>2022-09-22T08:57:37.000Z</time>
      </trkpt>
      <trkpt lat="47.32558" lon="-2.44683">
        <ele>14.60000038147</ele>
        <time>2022-09-22T08:57:38.000Z</time>
      </trkpt>
      <trkpt lat="47.32554" lon="-2.44688">
        <ele>14</ele>
        <time>2022-09-22T08:57:39.000Z</time>
      </trkpt>
      <trkpt lat="47.3255" lon="-2.44693">
        <ele>14</ele>
        <time>2022-09-22T08:57:40.000Z</time>
      </trkpt>
      <trkpt lat="47.32546" lon="-2.44699">
        <ele>13.60000038147</ele>
        <time>2022-09-22T08:57:41.000Z</time>
      </trkpt>
      <trkpt lat="47.32541" lon="-2.44705">
        <ele>13.199999809265</ele>
        <time>2022-09-22T08:57:42.000Z</time>
      </trkpt>
      <trkpt lat="47.32537" lon="-2.44711">
        <ele>12.800000190735</ele>
        <time>2022-09-22T08:57:43.000Z</time>
      </trkpt>
      <trkpt lat="47.32534" lon="-2.44717">
        <ele>12.39999961853</ele>
        <time>2022-09-22T08:57:44.000Z</time>
      </trkpt>
      <trkpt lat="47.32531" lon="-2.44723">
        <ele>12</ele>
        <time>2022-09-22T08:57:45.000Z</time>
      </trkpt>
      <trkpt lat="47.3253" lon="-2.4473">
        <ele>12</ele>
        <time>2022-09-22T08:57:46.000Z</time>
      </trkpt>
      <trkpt lat="47.32528" lon="-2.44742">
        <ele>11.199999809265</ele>
        <time>2022-09-22T08:57:48.000Z</time>
      </trkpt>
      <trkpt lat="47.32525" lon="-2.44745">
        <ele>10.800000190735</ele>
        <time>2022-09-22T08:57:49.000Z</time>
      </trkpt>
      <trkpt lat="47.32521" lon="-2.44747">
        <ele>10.199999809265</ele>
        <time>2022-09-22T08:57:50.000Z</time>
      </trkpt>
      <trkpt lat="47.32516" lon="-2.44749">
        <ele>9.8000001907349</ele>
        <time>2022-09-22T08:57:51.000Z</time>
      </trkpt>
      <trkpt lat="47.32512" lon="-2.44753">
        <ele>9.8000001907349</ele>
        <time>2022-09-22T08:57:52.000Z</time>
      </trkpt>
      <trkpt lat="47.32503" lon="-2.44761">
        <ele>9.3999996185303</ele>
        <time>2022-09-22T08:57:54.000Z</time>
      </trkpt>
      <trkpt lat="47.32498" lon="-2.44766">
        <ele>9</ele>
        <time>2022-09-22T08:57:55.000Z</time>
      </trkpt>
      <trkpt lat="47.32492" lon="-2.4477">
        <ele>8.6000003814697</ele>
        <time>2022-09-22T08:57:56.000Z</time>
      </trkpt>
      <trkpt lat="47.32487" lon="-2.44774">
        <ele>8</ele>
        <time>2022-09-22T08:57:57.000Z</time>
      </trkpt>
      <trkpt lat="47.32481" lon="-2.44778">
        <ele>7.5999999046326</ele>
        <time>2022-09-22T08:57:58.000Z</time>
      </trkpt>
      <trkpt lat="47.3247" lon="-2.44788">
        <ele>7.1999998092651</ele>
        <time>2022-09-22T08:58:00.000Z</time>
      </trkpt>
      <trkpt lat="47.32463" lon="-2.44792">
        <ele>6.8000001907349</ele>
        <time>2022-09-22T08:58:01.000Z</time>
      </trkpt>
      <trkpt lat="47.32457" lon="-2.44796">
        <ele>6.4000000953674</ele>
        <time>2022-09-22T08:58:02.000Z</time>
      </trkpt>
      <trkpt lat="47.3245" lon="-2.448">
        <ele>5.8000001907349</ele>
        <time>2022-09-22T08:58:03.000Z</time>
      </trkpt>
      <trkpt lat="47.32444" lon="-2.44805">
        <ele>5.4000000953674</ele>
        <time>2022-09-22T08:58:04.000Z</time>
      </trkpt>
      <trkpt lat="47.32423" lon="-2.44818">
        <ele>5</ele>
        <time>2022-09-22T08:58:07.000Z</time>
      </trkpt>
      <trkpt lat="47.32416" lon="-2.44822">
        <ele>4.5999999046326</ele>
        <time>2022-09-22T08:58:08.000Z</time>
      </trkpt>
      <trkpt lat="47.32409" lon="-2.44827">
        <ele>4.1999998092651</ele>
        <time>2022-09-22T08:58:09.000Z</time>
      </trkpt>
      <trkpt lat="47.32402" lon="-2.44832">
        <ele>3.7999999523163</ele>
        <time>2022-09-22T08:58:10.000Z</time>
      </trkpt>
      <trkpt lat="47.32396" lon="-2.44836">
        <ele>3.2000000476837</ele>
        <time>2022-09-22T08:58:11.000Z</time>
      </trkpt>
      <trkpt lat="47.32375" lon="-2.44852">
        <ele>3.2000000476837</ele>
        <time>2022-09-22T08:58:14.000Z</time>
      </trkpt>
      <trkpt lat="47.32354" lon="-2.44869">
        <ele>3.2000000476837</ele>
        <time>2022-09-22T08:58:17.000Z</time>
      </trkpt>
      <trkpt lat="47.32343" lon="-2.44883">
        <ele>2.7999999523163</ele>
        <time>2022-09-22T08:58:19.000Z</time>
      </trkpt>
      <trkpt lat="47.32337" lon="-2.4489">
        <ele>2.4000000953674</ele>
        <time>2022-09-22T08:58:20.000Z</time>
      </trkpt>
      <trkpt lat="47.32331" lon="-2.44898">
        <ele>2</ele>
        <time>2022-09-22T08:58:21.000Z</time>
      </trkpt>
      <trkpt lat="47.32325" lon="-2.44905">
        <ele>1.6000000238419</ele>
        <time>2022-09-22T08:58:22.000Z</time>
      </trkpt>
      <trkpt lat="47.3232" lon="-2.44912">
        <ele>1.2000000476837</ele>
        <time>2022-09-22T08:58:23.000Z</time>
      </trkpt>
      <trkpt lat="47.32309" lon="-2.44925">
        <ele>1.2000000476837</ele>
        <time>2022-09-22T08:58:25.000Z</time>
      </trkpt>
      <trkpt lat="47.32272" lon="-2.44968">
        <ele>1.2000000476837</ele>
        <time>2022-09-22T08:58:32.000Z</time>
      </trkpt>
      <trkpt lat="47.32261" lon="-2.4498">
        <ele>0.80000001192093</ele>
        <time>2022-09-22T08:58:34.000Z</time>
      </trkpt>
      <trkpt lat="47.32255" lon="-2.44986">
        <ele>0.40000000596046</ele>
        <time>2022-09-22T08:58:35.000Z</time>
      </trkpt>
      <trkpt lat="47.3225" lon="-2.44992">
        <ele>19.5</ele>
        <time>2022-09-22T08:58:36.000Z</time>
      </trkpt>
      <trkpt lat="47.32244" lon="-2.44999">
        <ele>-1</ele>
        <time>2022-09-22T08:58:37.000Z</time>
      </trkpt>
      <trkpt lat="47.32238" lon="-2.45005">
        <ele>-1.6000000238419</ele>
        <time>2022-09-22T08:58:38.000Z</time>
      </trkpt>
      <trkpt lat="47.32233" lon="-2.45011">
        <ele>-2</ele>
        <time>2022-09-22T08:58:39.000Z</time>
      </trkpt>
      <trkpt lat="47.32228" lon="-2.45016">
        <ele>-2.7999999523163</ele>
        <time>2022-09-22T08:58:40.000Z</time>
      </trkpt>
      <trkpt lat="47.32224" lon="-2.45021">
        <ele>-3.5999999046326</ele>
        <time>2022-09-22T08:58:41.000Z</time>
      </trkpt>
      <trkpt lat="47.3222" lon="-2.45025">
        <ele>-4.1999998092651</ele>
        <time>2022-09-22T08:58:42.000Z</time>
      </trkpt>
      <trkpt lat="47.32218" lon="-2.4503">
        <ele>-5</ele>
        <time>2022-09-22T08:58:43.000Z</time>
      </trkpt>
      <trkpt lat="47.32217" lon="-2.45035">
        <ele>-5.5999999046326</ele>
        <time>2022-09-22T08:58:44.000Z</time>
      </trkpt>
      <trkpt lat="47.32218" lon="-2.45041">
        <ele>-6</ele>
        <time>2022-09-22T08:58:45.000Z</time>
      </trkpt>
      <trkpt lat="47.32221" lon="-2.45046">
        <ele>-6.5999999046326</ele>
        <time>2022-09-22T08:58:46.000Z</time>
      </trkpt>
      <trkpt lat="47.32224" lon="-2.45052">
        <ele>-7.1999998092651</ele>
        <time>2022-09-22T08:58:47.000Z</time>
      </trkpt>
      <trkpt lat="47.32227" lon="-2.45057">
        <ele>-7.8000001907349</ele>
        <time>2022-09-22T08:58:48.000Z</time>
      </trkpt>
      <trkpt lat="47.3223" lon="-2.45064">
        <ele>-7.8000001907349</ele>
        <time>2022-09-22T08:58:49.000Z</time>
      </trkpt>
      <trkpt lat="47.32239" lon="-2.45084">
        <ele>-7.8000001907349</ele>
        <time>2022-09-22T08:58:52.000Z</time>
      </trkpt>
      <trkpt lat="47.32259" lon="-2.45139">
        <ele>-7.8000001907349</ele>
        <time>2022-09-22T08:58:59.000Z</time>
      </trkpt>
      <trkpt lat="47.32265" lon="-2.45166">
        <ele>-8.1999998092651</ele>
        <time>2022-09-22T08:59:02.000Z</time>
      </trkpt>
      <trkpt lat="47.32268" lon="-2.45176">
        <ele>-8.6000003814697</ele>
        <time>2022-09-22T08:59:03.000Z</time>
      </trkpt>
      <trkpt lat="47.32271" lon="-2.45186">
        <ele>-9</ele>
        <time>2022-09-22T08:59:04.000Z</time>
      </trkpt>
      <trkpt lat="47.32275" lon="-2.45197">
        <ele>-9.3999996185303</ele>
        <time>2022-09-22T08:59:05.000Z</time>
      </trkpt>
      <trkpt lat="47.32279" lon="-2.45208">
        <ele>-9.8000001907349</ele>
        <time>2022-09-22T08:59:06.000Z</time>
      </trkpt>
      <trkpt lat="47.32284" lon="-2.45217">
        <ele>-10.39999961853</ele>
        <time>2022-09-22T08:59:07.000Z</time>
      </trkpt>
      <trkpt lat="47.32289" lon="-2.45226">
        <ele>-11</ele>
        <time>2022-09-22T08:59:08.000Z</time>
      </trkpt>
      <trkpt lat="47.32293" lon="-2.45234">
        <ele>-11.60000038147</ele>
        <time>2022-09-22T08:59:09.000Z</time>
      </trkpt>
      <trkpt lat="47.32297" lon="-2.45242">
        <ele>-12</ele>
        <time>2022-09-22T08:59:10.000Z</time>
      </trkpt>
      <trkpt lat="47.32302" lon="-2.45258">
        <ele>-12</ele>
        <time>2022-09-22T08:59:12.000Z</time>
      </trkpt>
      <trkpt lat="47.32306" lon="-2.45271">
        <ele>-12</ele>
        <time>2022-09-22T08:59:14.000Z</time>
      </trkpt>
      <trkpt lat="47.3231" lon="-2.4529">
        <ele>-12</ele>
        <time>2022-09-22T08:59:17.000Z</time>
      </trkpt>
      <trkpt lat="47.32313" lon="-2.45302">
        <ele>-11.60000038147</ele>
        <time>2022-09-22T08:59:19.000Z</time>
      </trkpt>
      <trkpt lat="47.32314" lon="-2.45308">
        <ele>-11.199999809265</ele>
        <time>2022-09-22T08:59:20.000Z</time>
      </trkpt>
      <trkpt lat="47.32315" lon="-2.45314">
        <ele>-10.800000190735</ele>
        <time>2022-09-22T08:59:21.000Z</time>
      </trkpt>
      <trkpt lat="47.32315" lon="-2.45319">
        <ele>-10.39999961853</ele>
        <time>2022-09-22T08:59:22.000Z</time>
      </trkpt>
      <trkpt lat="47.32315" lon="-2.45325">
        <ele>-10</ele>
        <time>2022-09-22T08:59:23.000Z</time>
      </trkpt>
      <trkpt lat="47.32316" lon="-2.45359">
        <ele>-10</ele>
        <time>2022-09-22T08:59:28.000Z</time>
      </trkpt>
      <trkpt lat="47.32319" lon="-2.45384">
        <ele>-10.39999961853</ele>
        <time>2022-09-22T08:59:31.000Z</time>
      </trkpt>
      <trkpt lat="47.32319" lon="-2.4539">
        <ele>-10.800000190735</ele>
        <time>2022-09-22T08:59:32.000Z</time>
      </trkpt>
      <trkpt lat="47.32318" lon="-2.45395">
        <ele>-11.199999809265</ele>
        <time>2022-09-22T08:59:33.000Z</time>
      </trkpt>
      <trkpt lat="47.32316" lon="-2.45401">
        <ele>-11.60000038147</ele>
        <time>2022-09-22T08:59:34.000Z</time>
      </trkpt>
      <trkpt lat="47.32315" lon="-2.45407">
        <ele>-12</ele>
        <time>2022-09-22T08:59:35.000Z</time>
      </trkpt>
      <trkpt lat="47.32314" lon="-2.45415">
        <ele>-12</ele>
        <time>2022-09-22T08:59:36.000Z</time>
      </trkpt>
      <trkpt lat="47.32316" lon="-2.45422">
        <ele>-12.60000038147</ele>
        <time>2022-09-22T08:59:37.000Z</time>
      </trkpt>
      <trkpt lat="47.32319" lon="-2.4543">
        <ele>-13</ele>
        <time>2022-09-22T08:59:38.000Z</time>
      </trkpt>
      <trkpt lat="47.32322" lon="-2.45437">
        <ele>-13.39999961853</ele>
        <time>2022-09-22T08:59:39.000Z</time>
      </trkpt>
      <trkpt lat="47.32326" lon="-2.45444">
        <ele>-13.800000190735</ele>
        <time>2022-09-22T08:59:40.000Z</time>
      </trkpt>
      <trkpt lat="47.3233" lon="-2.4545">
        <ele>-14.39999961853</ele>
        <time>2022-09-22T08:59:41.000Z</time>
      </trkpt>
      <trkpt lat="47.32346" lon="-2.45475">
        <ele>-14.39999961853</ele>
        <time>2022-09-22T08:59:45.000Z</time>
      </trkpt>
      <trkpt lat="47.32373" lon="-2.45517">
        <ele>-14.39999961853</ele>
        <time>2022-09-22T08:59:52.000Z</time>
      </trkpt>
      <trkpt lat="47.32386" lon="-2.45544">
        <ele>-14.39999961853</ele>
        <time>2022-09-22T08:59:57.000Z</time>
      </trkpt>
      <trkpt lat="47.32401" lon="-2.45568">
        <ele>-14.39999961853</ele>
        <time>2022-09-22T09:00:03.000Z</time>
      </trkpt>
      <trkpt lat="47.32408" lon="-2.45582">
        <ele>-14.39999961853</ele>
        <time>2022-09-22T09:00:08.000Z</time>
      </trkpt>
      <trkpt lat="47.32415" lon="-2.45601">
        <ele>-14.39999961853</ele>
        <time>2022-09-22T09:00:12.000Z</time>
      </trkpt>
      <trkpt lat="47.32431" lon="-2.45633">
        <ele>-14.39999961853</ele>
        <time>2022-09-22T09:00:18.000Z</time>
      </trkpt>
      <trkpt lat="47.3245" lon="-2.45663">
        <ele>-14.39999961853</ele>
        <time>2022-09-22T09:00:24.000Z</time>
      </trkpt>
      <trkpt lat="47.32454" lon="-2.45668">
        <ele>-14.39999961853</ele>
        <time>2022-09-22T09:00:25.000Z</time>
      </trkpt>
      <trkpt lat="47.32477" lon="-2.45704">
        <ele>-14.39999961853</ele>
        <time>2022-09-22T09:00:32.000Z</time>
      </trkpt>
      <trkpt lat="47.32481" lon="-2.45709">
        <ele>-14.39999961853</ele>
        <time>2022-09-22T09:00:33.000Z</time>
      </trkpt>
      <trkpt lat="47.32494" lon="-2.45734">
        <ele>-14.39999961853</ele>
        <time>2022-09-22T09:00:37.000Z</time>
      </trkpt>
      <trkpt lat="47.32497" lon="-2.45739">
        <ele>-14.39999961853</ele>
        <time>2022-09-22T09:00:38.000Z</time>
      </trkpt>
      <trkpt lat="47.32504" lon="-2.45752">
        <ele>-14.39999961853</ele>
        <time>2022-09-22T09:00:40.000Z</time>
      </trkpt>
      <trkpt lat="47.3251" lon="-2.45766">
        <ele>-14.39999961853</ele>
        <time>2022-09-22T09:00:42.000Z</time>
      </trkpt>
      <trkpt lat="47.32533" lon="-2.45805">
        <ele>-14.39999961853</ele>
        <time>2022-09-22T09:00:48.000Z</time>
      </trkpt>
      <trkpt lat="47.32544" lon="-2.45822">
        <ele>-14.39999961853</ele>
        <time>2022-09-22T09:00:51.000Z</time>
      </trkpt>
      <trkpt lat="47.32552" lon="-2.45832">
        <ele>-14.39999961853</ele>
        <time>2022-09-22T09:00:53.000Z</time>
      </trkpt>
      <trkpt lat="47.32555" lon="-2.45837">
        <ele>-14.39999961853</ele>
        <time>2022-09-22T09:00:54.000Z</time>
      </trkpt>
      <trkpt lat="47.32569" lon="-2.45862">
        <ele>-14.39999961853</ele>
        <time>2022-09-22T09:00:58.000Z</time>
      </trkpt>
      <trkpt lat="47.32588" lon="-2.45888">
        <ele>-14.39999961853</ele>
        <time>2022-09-22T09:01:03.000Z</time>
      </trkpt>
      <trkpt lat="47.32606" lon="-2.45913">
        <ele>-14.39999961853</ele>
        <time>2022-09-22T09:01:08.000Z</time>
      </trkpt>
      <trkpt lat="47.3261" lon="-2.45918">
        <ele>-14.39999961853</ele>
        <time>2022-09-22T09:01:09.000Z</time>
      </trkpt>
      <trkpt lat="47.32632" lon="-2.45955">
        <ele>-14.39999961853</ele>
        <time>2022-09-22T09:01:16.000Z</time>
      </trkpt>
      <trkpt lat="47.32636" lon="-2.4596">
        <ele>-14.39999961853</ele>
        <time>2022-09-22T09:01:17.000Z</time>
      </trkpt>
      <trkpt lat="47.32649" lon="-2.45972">
        <ele>-14.39999961853</ele>
        <time>2022-09-22T09:01:20.000Z</time>
      </trkpt>
      <trkpt lat="47.32665" lon="-2.45987">
        <ele>-14.39999961853</ele>
        <time>2022-09-22T09:01:24.000Z</time>
      </trkpt>
      <trkpt lat="47.32668" lon="-2.4599">
        <ele>-14.39999961853</ele>
        <time>2022-09-22T09:01:25.000Z</time>
      </trkpt>
      <trkpt lat="47.32675" lon="-2.45998">
        <ele>-14.39999961853</ele>
        <time>2022-09-22T09:01:27.000Z</time>
      </trkpt>
      <trkpt lat="47.32681" lon="-2.46007">
        <ele>-14.39999961853</ele>
        <time>2022-09-22T09:01:29.000Z</time>
      </trkpt>
      <trkpt lat="47.32694" lon="-2.46026">
        <ele>-14.39999961853</ele>
        <time>2022-09-22T09:01:33.000Z</time>
      </trkpt>
      <trkpt lat="47.32705" lon="-2.46038">
        <ele>-14</ele>
        <time>2022-09-22T09:01:36.000Z</time>
      </trkpt>
      <trkpt lat="47.32708" lon="-2.46041">
        <ele>-13.60000038147</ele>
        <time>2022-09-22T09:01:37.000Z</time>
      </trkpt>
      <trkpt lat="47.32711" lon="-2.46043">
        <ele>-13.199999809265</ele>
        <time>2022-09-22T09:01:38.000Z</time>
      </trkpt>
      <trkpt lat="47.32714" lon="-2.46046">
        <ele>-12.800000190735</ele>
        <time>2022-09-22T09:01:39.000Z</time>
      </trkpt>
      <trkpt lat="47.32717" lon="-2.46049">
        <ele>-12.39999961853</ele>
        <time>2022-09-22T09:01:40.000Z</time>
      </trkpt>
      <trkpt lat="47.32723" lon="-2.46059">
        <ele>-12.39999961853</ele>
        <time>2022-09-22T09:01:43.000Z</time>
      </trkpt>
      <trkpt lat="47.32733" lon="-2.46069">
        <ele>-12.39999961853</ele>
        <time>2022-09-22T09:01:47.000Z</time>
      </trkpt>
      <trkpt lat="47.32748" lon="-2.46093">
        <ele>-12.39999961853</ele>
        <time>2022-09-22T09:01:52.000Z</time>
      </trkpt>
      <trkpt lat="47.32751" lon="-2.46098">
        <ele>-12</ele>
        <time>2022-09-22T09:01:53.000Z</time>
      </trkpt>
      <trkpt lat="47.32754" lon="-2.46102">
        <ele>-11.60000038147</ele>
        <time>2022-09-22T09:01:54.000Z</time>
      </trkpt>
      <trkpt lat="47.32756" lon="-2.46106">
        <ele>-10.800000190735</ele>
        <time>2022-09-22T09:01:55.000Z</time>
      </trkpt>
      <trkpt lat="47.32756" lon="-2.46112">
        <ele>-10.39999961853</ele>
        <time>2022-09-22T09:01:56.000Z</time>
      </trkpt>
      <trkpt lat="47.32763" lon="-2.46134">
        <ele>-10.39999961853</ele>
        <time>2022-09-22T09:02:00.000Z</time>
      </trkpt>
      <trkpt lat="47.32765" lon="-2.4614">
        <ele>-9.8000001907349</ele>
        <time>2022-09-22T09:02:01.000Z</time>
      </trkpt>
      <trkpt lat="47.32767" lon="-2.46144">
        <ele>-9.3999996185303</ele>
        <time>2022-09-22T09:02:02.000Z</time>
      </trkpt>
      <trkpt lat="47.32768" lon="-2.46149">
        <ele>-9</ele>
        <time>2022-09-22T09:02:03.000Z</time>
      </trkpt>
      <trkpt lat="47.32771" lon="-2.46152">
        <ele>-8.6000003814697</ele>
        <time>2022-09-22T09:02:04.000Z</time>
      </trkpt>
      <trkpt lat="47.32773" lon="-2.46156">
        <ele>-8.1999998092651</ele>
        <time>2022-09-22T09:02:05.000Z</time>
      </trkpt>
      <trkpt lat="47.32787" lon="-2.46169">
        <ele>-8.1999998092651</ele>
        <time>2022-09-22T09:02:10.000Z</time>
      </trkpt>
      <trkpt lat="47.32799" lon="-2.46178">
        <ele>-8.1999998092651</ele>
        <time>2022-09-22T09:02:13.000Z</time>
      </trkpt>
      <trkpt lat="47.32812" lon="-2.46184">
        <ele>-8.1999998092651</ele>
        <time>2022-09-22T09:02:16.000Z</time>
      </trkpt>
      <trkpt lat="47.32817" lon="-2.46184">
        <ele>-7.8000001907349</ele>
        <time>2022-09-22T09:02:17.000Z</time>
      </trkpt>
      <trkpt lat="47.32822" lon="-2.46184">
        <ele>-7.4000000953674</ele>
        <time>2022-09-22T09:02:18.000Z</time>
      </trkpt>
      <trkpt lat="47.32826" lon="-2.46184">
        <ele>-7</ele>
        <time>2022-09-22T09:02:19.000Z</time>
      </trkpt>
      <trkpt lat="47.3283" lon="-2.46183">
        <ele>-6</ele>
        <time>2022-09-22T09:02:20.000Z</time>
      </trkpt>
      <trkpt lat="47.32837" lon="-2.46179">
        <ele>-6</ele>
        <time>2022-09-22T09:02:22.000Z</time>
      </trkpt>
      <trkpt lat="47.32847" lon="-2.46174">
        <ele>-5.5999999046326</ele>
        <time>2022-09-22T09:02:25.000Z</time>
      </trkpt>
      <trkpt lat="47.3285" lon="-2.46173">
        <ele>-5.1999998092651</ele>
        <time>2022-09-22T09:02:26.000Z</time>
      </trkpt>
      <trkpt lat="47.32853" lon="-2.46171">
        <ele>-4.8000001907349</ele>
        <time>2022-09-22T09:02:27.000Z</time>
      </trkpt>
      <trkpt lat="47.32857" lon="-2.46169">
        <ele>-4.4000000953674</ele>
        <time>2022-09-22T09:02:28.000Z</time>
      </trkpt>
      <trkpt lat="47.3286" lon="-2.46168">
        <ele>-4</ele>
        <time>2022-09-22T09:02:29.000Z</time>
      </trkpt>
      <trkpt lat="47.32866" lon="-2.46164">
        <ele>-4</ele>
        <time>2022-09-22T09:02:31.000Z</time>
      </trkpt>
      <trkpt lat="47.32872" lon="-2.46162">
        <ele>-3.5999999046326</ele>
        <time>2022-09-22T09:02:33.000Z</time>
      </trkpt>
      <trkpt lat="47.32875" lon="-2.46161">
        <ele>-3.2000000476837</ele>
        <time>2022-09-22T09:02:34.000Z</time>
      </trkpt>
      <trkpt lat="47.32878" lon="-2.46159">
        <ele>-2.5999999046326</ele>
        <time>2022-09-22T09:02:35.000Z</time>
      </trkpt>
      <trkpt lat="47.32881" lon="-2.46157">
        <ele>-2.2000000476837</ele>
        <time>2022-09-22T09:02:36.000Z</time>
      </trkpt>
      <trkpt lat="47.32884" lon="-2.46155">
        <ele>-1.7999999523163</ele>
        <time>2022-09-22T09:02:37.000Z</time>
      </trkpt>
      <trkpt lat="47.32886" lon="-2.46153">
        <ele>-1.7999999523163</ele>
        <time>2022-09-22T09:02:38.000Z</time>
      </trkpt>
      <trkpt lat="47.32898" lon="-2.46152">
        <ele>-1.7999999523163</ele>
        <time>2022-09-22T09:02:43.000Z</time>
      </trkpt>
      <trkpt lat="47.329" lon="-2.46155">
        <ele>-1.3999999761581</ele>
        <time>2022-09-22T09:02:44.000Z</time>
      </trkpt>
      <trkpt lat="47.32902" lon="-2.46158">
        <ele>-1</ele>
        <time>2022-09-22T09:02:45.000Z</time>
      </trkpt>
      <trkpt lat="47.32905" lon="-2.46161">
        <ele>-0.60000002384186</ele>
        <time>2022-09-22T09:02:46.000Z</time>
      </trkpt>
      <trkpt lat="47.32906" lon="-2.46165">
        <ele>-0.20000000298023</ele>
        <time>2022-09-22T09:02:47.000Z</time>
      </trkpt>
      <trkpt lat="47.32908" lon="-2.46168">
        <ele>0.40000000596046</ele>
        <time>2022-09-22T09:02:48.000Z</time>
      </trkpt>
      <trkpt lat="47.32917" lon="-2.462">
        <ele>0.40000000596046</ele>
        <time>2022-09-22T09:02:55.000Z</time>
      </trkpt>
      <trkpt lat="47.32925" lon="-2.46228">
        <ele>0.40000000596046</ele>
        <time>2022-09-22T09:03:01.000Z</time>
      </trkpt>
      <trkpt lat="47.32934" lon="-2.46267">
        <ele>0.40000000596046</ele>
        <time>2022-09-22T09:03:09.000Z</time>
      </trkpt>
      <trkpt lat="47.32946" lon="-2.46309">
        <ele>0.40000000596046</ele>
        <time>2022-09-22T09:03:17.000Z</time>
      </trkpt>
      <trkpt lat="47.32952" lon="-2.46329">
        <ele>-0.20000000298023</ele>
        <time>2022-09-22T09:03:20.000Z</time>
      </trkpt>
      <trkpt lat="47.32955" lon="-2.46338">
        <ele>-0.60000002384186</ele>
        <time>2022-09-22T09:03:21.000Z</time>
      </trkpt>
      <trkpt lat="47.32957" lon="-2.46348">
        <ele>-1</ele>
        <time>2022-09-22T09:03:22.000Z</time>
      </trkpt>
      <trkpt lat="47.3296" lon="-2.46358">
        <ele>-1.6000000238419</ele>
        <time>2022-09-22T09:03:23.000Z</time>
      </trkpt>
      <trkpt lat="47.32962" lon="-2.46369">
        <ele>-2</ele>
        <time>2022-09-22T09:03:24.000Z</time>
      </trkpt>
      <trkpt lat="47.32963" lon="-2.4638">
        <ele>-2.4000000953674</ele>
        <time>2022-09-22T09:03:25.000Z</time>
      </trkpt>
      <trkpt lat="47.32965" lon="-2.46393">
        <ele>-3</ele>
        <time>2022-09-22T09:03:26.000Z</time>
      </trkpt>
      <trkpt lat="47.32965" lon="-2.46407">
        <ele>-3.4000000953674</ele>
        <time>2022-09-22T09:03:27.000Z</time>
      </trkpt>
      <trkpt lat="47.32965" lon="-2.46421">
        <ele>-4</ele>
        <time>2022-09-22T09:03:28.000Z</time>
      </trkpt>
      <trkpt lat="47.32965" lon="-2.46436">
        <ele>-4.5999999046326</ele>
        <time>2022-09-22T09:03:29.000Z</time>
      </trkpt>
      <trkpt lat="47.32964" lon="-2.46452">
        <ele>-5.1999998092651</ele>
        <time>2022-09-22T09:03:30.000Z</time>
      </trkpt>
      <trkpt lat="47.32963" lon="-2.46467">
        <ele>-6</ele>
        <time>2022-09-22T09:03:31.000Z</time>
      </trkpt>
      <trkpt lat="47.32963" lon="-2.46483">
        <ele>-6.5999999046326</ele>
        <time>2022-09-22T09:03:32.000Z</time>
      </trkpt>
      <trkpt lat="47.32962" lon="-2.465">
        <ele>-7.1999998092651</ele>
        <time>2022-09-22T09:03:33.000Z</time>
      </trkpt>
      <trkpt lat="47.32961" lon="-2.46515">
        <ele>-9</ele>
        <time>2022-09-22T09:03:34.000Z</time>
      </trkpt>
      <trkpt lat="47.32959" lon="-2.4653">
        <ele>-9.8000001907349</ele>
        <time>2022-09-22T09:03:35.000Z</time>
      </trkpt>
      <trkpt lat="47.32958" lon="-2.46541">
        <ele>-10.60000038147</ele>
        <time>2022-09-22T09:03:36.000Z</time>
      </trkpt>
      <trkpt lat="47.32958" lon="-2.4655">
        <ele>-11.39999961853</ele>
        <time>2022-09-22T09:03:37.000Z</time>
      </trkpt>
      <trkpt lat="47.3296" lon="-2.46557">
        <ele>-12.199999809265</ele>
        <time>2022-09-22T09:03:38.000Z</time>
      </trkpt>
      <trkpt lat="47.32963" lon="-2.46562">
        <ele>-13</ele>
        <time>2022-09-22T09:03:39.000Z</time>
      </trkpt>
      <trkpt lat="47.32967" lon="-2.46564">
        <ele>-13.800000190735</ele>
        <time>2022-09-22T09:03:40.000Z</time>
      </trkpt>
      <trkpt lat="47.32979" lon="-2.4656">
        <ele>-13.800000190735</ele>
        <time>2022-09-22T09:03:43.000Z</time>
      </trkpt>
      <trkpt lat="47.3299" lon="-2.46554">
        <ele>-13.199999809265</ele>
        <time>2022-09-22T09:03:46.000Z</time>
      </trkpt>
      <trkpt lat="47.32993" lon="-2.46552">
        <ele>-12.800000190735</ele>
        <time>2022-09-22T09:03:47.000Z</time>
      </trkpt>
      <trkpt lat="47.32996" lon="-2.46551">
        <ele>-12.39999961853</ele>
        <time>2022-09-22T09:03:48.000Z</time>
      </trkpt>
      <trkpt lat="47.33" lon="-2.46549">
        <ele>-12</ele>
        <time>2022-09-22T09:03:49.000Z</time>
      </trkpt>
      <trkpt lat="47.33003" lon="-2.46547">
        <ele>-11.60000038147</ele>
        <time>2022-09-22T09:03:50.000Z</time>
      </trkpt>
      <trkpt lat="47.33016" lon="-2.46541">
        <ele>-11.199999809265</ele>
        <time>2022-09-22T09:03:54.000Z</time>
      </trkpt>
      <trkpt lat="47.3302" lon="-2.46539">
        <ele>-10.800000190735</ele>
        <time>2022-09-22T09:03:55.000Z</time>
      </trkpt>
      <trkpt lat="47.33024" lon="-2.46538">
        <ele>-10.39999961853</ele>
        <time>2022-09-22T09:03:56.000Z</time>
      </trkpt>
      <trkpt lat="47.33028" lon="-2.46538">
        <ele>-10</ele>
        <time>2022-09-22T09:03:57.000Z</time>
      </trkpt>
      <trkpt lat="47.33031" lon="-2.46537">
        <ele>-9.3999996185303</ele>
        <time>2022-09-22T09:03:58.000Z</time>
      </trkpt>
      <trkpt lat="47.33058" lon="-2.46531">
        <ele>-9.3999996185303</ele>
        <time>2022-09-22T09:04:05.000Z</time>
      </trkpt>
      <trkpt lat="47.33066" lon="-2.46528">
        <ele>-9</ele>
        <time>2022-09-22T09:04:07.000Z</time>
      </trkpt>
      <trkpt lat="47.3307" lon="-2.46526">
        <ele>-8.6000003814697</ele>
        <time>2022-09-22T09:04:08.000Z</time>
      </trkpt>
      <trkpt lat="47.33073" lon="-2.46525">
        <ele>-8.1999998092651</ele>
        <time>2022-09-22T09:04:09.000Z</time>
      </trkpt>
      <trkpt lat="47.33076" lon="-2.46524">
        <ele>-7.8000001907349</ele>
        <time>2022-09-22T09:04:10.000Z</time>
      </trkpt>
      <trkpt lat="47.33079" lon="-2.46523">
        <ele>-7.4000000953674</ele>
        <time>2022-09-22T09:04:11.000Z</time>
      </trkpt>
      <trkpt lat="47.33095" lon="-2.46515">
        <ele>-6.8000001907349</ele>
        <time>2022-09-22T09:04:16.000Z</time>
      </trkpt>
      <trkpt lat="47.33097" lon="-2.46514">
        <ele>-6.4000000953674</ele>
        <time>2022-09-22T09:04:17.000Z</time>
      </trkpt>
      <trkpt lat="47.331" lon="-2.46513">
        <ele>-6</ele>
        <time>2022-09-22T09:04:18.000Z</time>
      </trkpt>
      <trkpt lat="47.33103" lon="-2.46511">
        <ele>-5.4000000953674</ele>
        <time>2022-09-22T09:04:19.000Z</time>
      </trkpt>
      <trkpt lat="47.33105" lon="-2.46509">
        <ele>-5</ele>
        <time>2022-09-22T09:04:20.000Z</time>
      </trkpt>
      <trkpt lat="47.33107" lon="-2.46507">
        <ele>-5</ele>
        <time>2022-09-22T09:04:21.000Z</time>
      </trkpt>
      <trkpt lat="47.33112" lon="-2.46503">
        <ele>-4.5999999046326</ele>
        <time>2022-09-22T09:04:23.000Z</time>
      </trkpt>
      <trkpt lat="47.33115" lon="-2.46502">
        <ele>-4.1999998092651</ele>
        <time>2022-09-22T09:04:24.000Z</time>
      </trkpt>
      <trkpt lat="47.33118" lon="-2.46501">
        <ele>-3.7999999523163</ele>
        <time>2022-09-22T09:04:25.000Z</time>
      </trkpt>
      <trkpt lat="47.33122" lon="-2.465">
        <ele>-3.2000000476837</ele>
        <time>2022-09-22T09:04:26.000Z</time>
      </trkpt>
      <trkpt lat="47.33125" lon="-2.46499">
        <ele>-2.7999999523163</ele>
        <time>2022-09-22T09:04:27.000Z</time>
      </trkpt>
      <trkpt lat="47.33141" lon="-2.46495">
        <ele>-2.7999999523163</ele>
        <time>2022-09-22T09:04:32.000Z</time>
      </trkpt>
      <trkpt lat="47.3315" lon="-2.46495">
        <ele>-2.4000000953674</ele>
        <time>2022-09-22T09:04:35.000Z</time>
      </trkpt>
      <trkpt lat="47.33153" lon="-2.46494">
        <ele>-2</ele>
        <time>2022-09-22T09:04:36.000Z</time>
      </trkpt>
      <trkpt lat="47.33156" lon="-2.46493">
        <ele>-1.6000000238419</ele>
        <time>2022-09-22T09:04:37.000Z</time>
      </trkpt>
      <trkpt lat="47.33159" lon="-2.46492">
        <ele>-1.2000000476837</ele>
        <time>2022-09-22T09:04:38.000Z</time>
      </trkpt>
      <trkpt lat="47.33162" lon="-2.4649">
        <ele>-0.80000001192093</ele>
        <time>2022-09-22T09:04:39.000Z</time>
      </trkpt>
      <trkpt lat="47.33175" lon="-2.46483">
        <ele>-0.80000001192093</ele>
        <time>2022-09-22T09:04:44.000Z</time>
      </trkpt>
      <trkpt lat="47.33184" lon="-2.46477">
        <ele>0.20000000298023</ele>
        <time>2022-09-22T09:04:48.000Z</time>
      </trkpt>
      <trkpt lat="47.33187" lon="-2.46476">
        <ele>0.60000002384186</ele>
        <time>2022-09-22T09:04:49.000Z</time>
      </trkpt>
      <trkpt lat="47.3319" lon="-2.46475">
        <ele>1</ele>
        <time>2022-09-22T09:04:50.000Z</time>
      </trkpt>
      <trkpt lat="47.33193" lon="-2.46474">
        <ele>1.3999999761581</ele>
        <time>2022-09-22T09:04:51.000Z</time>
      </trkpt>
      <trkpt lat="47.33202" lon="-2.46472">
        <ele>1.7999999523163</ele>
        <time>2022-09-22T09:04:55.000Z</time>
      </trkpt>
      <trkpt lat="47.33205" lon="-2.46473">
        <ele>2.4000000953674</ele>
        <time>2022-09-22T09:04:56.000Z</time>
      </trkpt>
      <trkpt lat="47.33208" lon="-2.46473">
        <ele>2.7999999523163</ele>
        <time>2022-09-22T09:04:57.000Z</time>
      </trkpt>
      <trkpt lat="47.3321" lon="-2.46472">
        <ele>3.2000000476837</ele>
        <time>2022-09-22T09:04:58.000Z</time>
      </trkpt>
      <trkpt lat="47.33212" lon="-2.4647">
        <ele>3.5999999046326</ele>
        <time>2022-09-22T09:04:59.000Z</time>
      </trkpt>
      <trkpt lat="47.33221" lon="-2.46466">
        <ele>4</ele>
        <time>2022-09-22T09:05:03.000Z</time>
      </trkpt>
      <trkpt lat="47.33224" lon="-2.46464">
        <ele>4.5999999046326</ele>
        <time>2022-09-22T09:05:04.000Z</time>
      </trkpt>
      <trkpt lat="47.33226" lon="-2.46461">
        <ele>5</ele>
        <time>2022-09-22T09:05:05.000Z</time>
      </trkpt>
      <trkpt lat="47.33227" lon="-2.46457">
        <ele>5.4000000953674</ele>
        <time>2022-09-22T09:05:06.000Z</time>
      </trkpt>
      <trkpt lat="47.33229" lon="-2.46454">
        <ele>5.8000001907349</ele>
        <time>2022-09-22T09:05:07.000Z</time>
      </trkpt>
      <trkpt lat="47.33236" lon="-2.46441">
        <ele>5.8000001907349</ele>
        <time>2022-09-22T09:05:11.000Z</time>
      </trkpt>
      <trkpt lat="47.33243" lon="-2.46435">
        <ele>6.1999998092651</ele>
        <time>2022-09-22T09:05:14.000Z</time>
      </trkpt>
      <trkpt lat="47.33245" lon="-2.46433">
        <ele>6.5999999046326</ele>
        <time>2022-09-22T09:05:15.000Z</time>
      </trkpt>
      <trkpt lat="47.33248" lon="-2.46431">
        <ele>7</ele>
        <time>2022-09-22T09:05:16.000Z</time>
      </trkpt>
      <trkpt lat="47.33251" lon="-2.46431">
        <ele>7.4000000953674</ele>
        <time>2022-09-22T09:05:17.000Z</time>
      </trkpt>
      <trkpt lat="47.33253" lon="-2.46431">
        <ele>7.8000001907349</ele>
        <time>2022-09-22T09:05:18.000Z</time>
      </trkpt>
      <trkpt lat="47.33265" lon="-2.46431">
        <ele>7.8000001907349</ele>
        <time>2022-09-22T09:05:22.000Z</time>
      </trkpt>
      <trkpt lat="47.3327" lon="-2.46434">
        <ele>7.8000001907349</ele>
        <time>2022-09-22T09:05:24.000Z</time>
      </trkpt>
      <trkpt lat="47.33278" lon="-2.46448">
        <ele>7.8000001907349</ele>
        <time>2022-09-22T09:05:28.000Z</time>
      </trkpt>
      <trkpt lat="47.33283" lon="-2.46472">
        <ele>7.8000001907349</ele>
        <time>2022-09-22T09:05:34.000Z</time>
      </trkpt>
      <trkpt lat="47.33285" lon="-2.46504">
        <ele>7.8000001907349</ele>
        <time>2022-09-22T09:05:39.000Z</time>
      </trkpt>
      <trkpt lat="47.33292" lon="-2.46557">
        <ele>7.8000001907349</ele>
        <time>2022-09-22T09:05:45.000Z</time>
      </trkpt>
      <trkpt lat="47.333" lon="-2.46591">
        <ele>7.4000000953674</ele>
        <time>2022-09-22T09:05:49.000Z</time>
      </trkpt>
      <trkpt lat="47.33304" lon="-2.46597">
        <ele>7</ele>
        <time>2022-09-22T09:05:50.000Z</time>
      </trkpt>
      <trkpt lat="47.33308" lon="-2.46603">
        <ele>6.5999999046326</ele>
        <time>2022-09-22T09:05:51.000Z</time>
      </trkpt>
      <trkpt lat="47.33312" lon="-2.46608">
        <ele>6.1999998092651</ele>
        <time>2022-09-22T09:05:52.000Z</time>
      </trkpt>
      <trkpt lat="47.33315" lon="-2.46611">
        <ele>5.8000001907349</ele>
        <time>2022-09-22T09:05:53.000Z</time>
      </trkpt>
      <trkpt lat="47.33318" lon="-2.46615">
        <ele>5.8000001907349</ele>
        <time>2022-09-22T09:05:54.000Z</time>
      </trkpt>
      <trkpt lat="47.33328" lon="-2.46631">
        <ele>5.8000001907349</ele>
        <time>2022-09-22T09:05:59.000Z</time>
      </trkpt>
      <trkpt lat="47.33326" lon="-2.46644">
        <ele>5.8000001907349</ele>
        <time>2022-09-22T09:06:03.000Z</time>
      </trkpt>
      <trkpt lat="47.33327" lon="-2.46653">
        <ele>5.8000001907349</ele>
        <time>2022-09-22T09:06:07.000Z</time>
      </trkpt>
      <trkpt lat="47.33334" lon="-2.46654">
        <ele>5.8000001907349</ele>
        <time>2022-09-22T09:06:11.000Z</time>
      </trkpt>
      <trkpt lat="47.3334" lon="-2.46654">
        <ele>5.8000001907349</ele>
        <time>2022-09-22T09:06:14.000Z</time>
      </trkpt>
      <trkpt lat="47.33344" lon="-2.46652">
        <ele>5.8000001907349</ele>
        <time>2022-09-22T09:06:16.000Z</time>
      </trkpt>
      <trkpt lat="47.33362" lon="-2.46645">
        <ele>5.8000001907349</ele>
        <time>2022-09-22T09:06:22.000Z</time>
      </trkpt>
      <trkpt lat="47.33377" lon="-2.46632">
        <ele>5.8000001907349</ele>
        <time>2022-09-22T09:06:28.000Z</time>
      </trkpt>
      <trkpt lat="47.33391" lon="-2.46616">
        <ele>5.8000001907349</ele>
        <time>2022-09-22T09:06:33.000Z</time>
      </trkpt>
      <trkpt lat="47.33399" lon="-2.46609">
        <ele>6.1999998092651</ele>
        <time>2022-09-22T09:06:36.000Z</time>
      </trkpt>
      <trkpt lat="47.33401" lon="-2.46606">
        <ele>6.5999999046326</ele>
        <time>2022-09-22T09:06:37.000Z</time>
      </trkpt>
      <trkpt lat="47.33404" lon="-2.46604">
        <ele>7.1999998092651</ele>
        <time>2022-09-22T09:06:38.000Z</time>
      </trkpt>
      <trkpt lat="47.33405" lon="-2.46601">
        <ele>7.5999999046326</ele>
        <time>2022-09-22T09:06:39.000Z</time>
      </trkpt>
      <trkpt lat="47.33407" lon="-2.46599">
        <ele>8</ele>
        <time>2022-09-22T09:06:40.000Z</time>
      </trkpt>
      <trkpt lat="47.33415" lon="-2.46592">
        <ele>8</ele>
        <time>2022-09-22T09:06:43.000Z</time>
      </trkpt>
      <trkpt lat="47.33423" lon="-2.46587">
        <ele>8.3999996185303</ele>
        <time>2022-09-22T09:06:46.000Z</time>
      </trkpt>
      <trkpt lat="47.33426" lon="-2.46585">
        <ele>8.8000001907349</ele>
        <time>2022-09-22T09:06:47.000Z</time>
      </trkpt>
      <trkpt lat="47.33428" lon="-2.46584">
        <ele>9.1999998092651</ele>
        <time>2022-09-22T09:06:48.000Z</time>
      </trkpt>
      <trkpt lat="47.33431" lon="-2.46583">
        <ele>9.6000003814697</ele>
        <time>2022-09-22T09:06:49.000Z</time>
      </trkpt>
      <trkpt lat="47.33433" lon="-2.46581">
        <ele>10.199999809265</ele>
        <time>2022-09-22T09:06:50.000Z</time>
      </trkpt>
      <trkpt lat="47.33443" lon="-2.46571">
        <ele>10.60000038147</ele>
        <time>2022-09-22T09:06:54.000Z</time>
      </trkpt>
      <trkpt lat="47.33445" lon="-2.4657">
        <ele>11</ele>
        <time>2022-09-22T09:06:55.000Z</time>
      </trkpt>
      <trkpt lat="47.33448" lon="-2.46568">
        <ele>11.39999961853</ele>
        <time>2022-09-22T09:06:56.000Z</time>
      </trkpt>
      <trkpt lat="47.3345" lon="-2.46566">
        <ele>11.800000190735</ele>
        <time>2022-09-22T09:06:57.000Z</time>
      </trkpt>
      <trkpt lat="47.33452" lon="-2.46563">
        <ele>12.199999809265</ele>
        <time>2022-09-22T09:06:58.000Z</time>
      </trkpt>
      <trkpt lat="47.33455" lon="-2.46561">
        <ele>12.199999809265</ele>
        <time>2022-09-22T09:06:59.000Z</time>
      </trkpt>
      <trkpt lat="47.33465" lon="-2.46548">
        <ele>12.60000038147</ele>
        <time>2022-09-22T09:07:04.000Z</time>
      </trkpt>
      <trkpt lat="47.33467" lon="-2.46545">
        <ele>13</ele>
        <time>2022-09-22T09:07:05.000Z</time>
      </trkpt>
      <trkpt lat="47.33468" lon="-2.46542">
        <ele>13.39999961853</ele>
        <time>2022-09-22T09:07:06.000Z</time>
      </trkpt>
      <trkpt lat="47.3347" lon="-2.46539">
        <ele>13.800000190735</ele>
        <time>2022-09-22T09:07:07.000Z</time>
      </trkpt>
      <trkpt lat="47.33473" lon="-2.46536">
        <ele>14.199999809265</ele>
        <time>2022-09-22T09:07:08.000Z</time>
      </trkpt>
      <trkpt lat="47.33475" lon="-2.46533">
        <ele>14.199999809265</ele>
        <time>2022-09-22T09:07:09.000Z</time>
      </trkpt>
      <trkpt lat="47.33488" lon="-2.46519">
        <ele>14.199999809265</ele>
        <time>2022-09-22T09:07:14.000Z</time>
      </trkpt>
      <trkpt lat="47.33503" lon="-2.46501">
        <ele>14.60000038147</ele>
        <time>2022-09-22T09:07:20.000Z</time>
      </trkpt>
      <trkpt lat="47.33505" lon="-2.46498">
        <ele>15</ele>
        <time>2022-09-22T09:07:21.000Z</time>
      </trkpt>
      <trkpt lat="47.33507" lon="-2.46495">
        <ele>15.39999961853</ele>
        <time>2022-09-22T09:07:22.000Z</time>
      </trkpt>
      <trkpt lat="47.33509" lon="-2.46493">
        <ele>15.800000190735</ele>
        <time>2022-09-22T09:07:23.000Z</time>
      </trkpt>
      <trkpt lat="47.33511" lon="-2.46491">
        <ele>16.200000762939</ele>
        <time>2022-09-22T09:07:24.000Z</time>
      </trkpt>
      <trkpt lat="47.33515" lon="-2.46488">
        <ele>16.200000762939</ele>
        <time>2022-09-22T09:07:26.000Z</time>
      </trkpt>
      <trkpt lat="47.33518" lon="-2.46484">
        <ele>16.60000038147</ele>
        <time>2022-09-22T09:07:28.000Z</time>
      </trkpt>
      <trkpt lat="47.33519" lon="-2.46482">
        <ele>17</ele>
        <time>2022-09-22T09:07:29.000Z</time>
      </trkpt>
      <trkpt lat="47.3352" lon="-2.46481">
        <ele>17.60000038147</ele>
        <time>2022-09-22T09:07:30.000Z</time>
      </trkpt>
      <trkpt lat="47.33522" lon="-2.46482">
        <ele>18</ele>
        <time>2022-09-22T09:07:31.000Z</time>
      </trkpt>
      <trkpt lat="47.33522" lon="-2.46484">
        <ele>18.39999961853</ele>
        <time>2022-09-22T09:07:32.000Z</time>
      </trkpt>
      <trkpt lat="47.33525" lon="-2.46489">
        <ele>18.39999961853</ele>
        <time>2022-09-22T09:07:35.000Z</time>
      </trkpt>
      <trkpt lat="47.33527" lon="-2.4649">
        <ele>18.39999961853</ele>
        <time>2022-09-22T09:07:36.000Z</time>
      </trkpt>
      <trkpt lat="47.33528" lon="-2.46491">
        <ele>18.39999961853</ele>
        <time>2022-09-22T09:07:37.000Z</time>
      </trkpt>
      <trkpt lat="47.33533" lon="-2.4649">
        <ele>18.39999961853</ele>
        <time>2022-09-22T09:07:40.000Z</time>
      </trkpt>
      <trkpt lat="47.33539" lon="-2.46507">
        <ele>18.39999961853</ele>
        <time>2022-09-22T09:07:44.000Z</time>
      </trkpt>
      <trkpt lat="47.33541" lon="-2.46514">
        <ele>18.39999961853</ele>
        <time>2022-09-22T09:07:45.000Z</time>
      </trkpt>
      <trkpt lat="47.33543" lon="-2.46519">
        <ele>18</ele>
        <time>2022-09-22T09:07:46.000Z</time>
      </trkpt>
      <trkpt lat="47.33544" lon="-2.46525">
        <ele>17.60000038147</ele>
        <time>2022-09-22T09:07:47.000Z</time>
      </trkpt>
      <trkpt lat="47.33545" lon="-2.4653">
        <ele>17.200000762939</ele>
        <time>2022-09-22T09:07:48.000Z</time>
      </trkpt>
      <trkpt lat="47.33546" lon="-2.46535">
        <ele>16.799999237061</ele>
        <time>2022-09-22T09:07:49.000Z</time>
      </trkpt>
      <trkpt lat="47.33547" lon="-2.4654">
        <ele>16.39999961853</ele>
        <time>2022-09-22T09:07:50.000Z</time>
      </trkpt>
      <trkpt lat="47.3355" lon="-2.46556">
        <ele>16.39999961853</ele>
        <time>2022-09-22T09:07:53.000Z</time>
      </trkpt>
      <trkpt lat="47.33563" lon="-2.46587">
        <ele>16.39999961853</ele>
        <time>2022-09-22T09:08:00.000Z</time>
      </trkpt>
      <trkpt lat="47.33569" lon="-2.46593">
        <ele>16.39999961853</ele>
        <time>2022-09-22T09:08:03.000Z</time>
      </trkpt>
      <trkpt lat="47.3357" lon="-2.46597">
        <ele>16.39999961853</ele>
        <time>2022-09-22T09:08:04.000Z</time>
      </trkpt>
      <trkpt lat="47.33578" lon="-2.46617">
        <ele>16.39999961853</ele>
        <time>2022-09-22T09:08:10.000Z</time>
      </trkpt>
      <trkpt lat="47.33588" lon="-2.46647">
        <ele>16.39999961853</ele>
        <time>2022-09-22T09:08:17.000Z</time>
      </trkpt>
      <trkpt lat="47.33599" lon="-2.46674">
        <ele>16.39999961853</ele>
        <time>2022-09-22T09:08:23.000Z</time>
      </trkpt>
      <trkpt lat="47.33612" lon="-2.4671">
        <ele>16.39999961853</ele>
        <time>2022-09-22T09:08:31.000Z</time>
      </trkpt>
      <trkpt lat="47.3362" lon="-2.46737">
        <ele>16.39999961853</ele>
        <time>2022-09-22T09:08:38.000Z</time>
      </trkpt>
      <trkpt lat="47.33619" lon="-2.46752">
        <ele>16.39999961853</ele>
        <time>2022-09-22T09:08:42.000Z</time>
      </trkpt>
      <trkpt lat="47.33616" lon="-2.46755">
        <ele>16.39999961853</ele>
        <time>2022-09-22T09:08:43.000Z</time>
      </trkpt>
      <trkpt lat="47.336" lon="-2.46766">
        <ele>16.39999961853</ele>
        <time>2022-09-22T09:08:47.000Z</time>
      </trkpt>
      <trkpt lat="47.33596" lon="-2.46771">
        <ele>16</ele>
        <time>2022-09-22T09:08:48.000Z</time>
      </trkpt>
      <trkpt lat="47.33591" lon="-2.46775">
        <ele>15.60000038147</ele>
        <time>2022-09-22T09:08:49.000Z</time>
      </trkpt>
      <trkpt lat="47.33587" lon="-2.4678">
        <ele>15</ele>
        <time>2022-09-22T09:08:50.000Z</time>
      </trkpt>
      <trkpt lat="47.33582" lon="-2.46785">
        <ele>14.60000038147</ele>
        <time>2022-09-22T09:08:51.000Z</time>
      </trkpt>
      <trkpt lat="47.33576" lon="-2.46791">
        <ele>14.199999809265</ele>
        <time>2022-09-22T09:08:52.000Z</time>
      </trkpt>
      <trkpt lat="47.33571" lon="-2.46798">
        <ele>13.800000190735</ele>
        <time>2022-09-22T09:08:53.000Z</time>
      </trkpt>
      <trkpt lat="47.33566" lon="-2.46805">
        <ele>13.199999809265</ele>
        <time>2022-09-22T09:08:54.000Z</time>
      </trkpt>
      <trkpt lat="47.3356" lon="-2.46811">
        <ele>12.199999809265</ele>
        <time>2022-09-22T09:08:55.000Z</time>
      </trkpt>
      <trkpt lat="47.33553" lon="-2.46818">
        <ele>11.60000038147</ele>
        <time>2022-09-22T09:08:56.000Z</time>
      </trkpt>
      <trkpt lat="47.33547" lon="-2.46824">
        <ele>11</ele>
        <time>2022-09-22T09:08:57.000Z</time>
      </trkpt>
      <trkpt lat="47.33541" lon="-2.46831">
        <ele>10.39999961853</ele>
        <time>2022-09-22T09:08:58.000Z</time>
      </trkpt>
      <trkpt lat="47.33535" lon="-2.46838">
        <ele>9.8000001907349</ele>
        <time>2022-09-22T09:08:59.000Z</time>
      </trkpt>
      <trkpt lat="47.33532" lon="-2.46843">
        <ele>9.3999996185303</ele>
        <time>2022-09-22T09:09:00.000Z</time>
      </trkpt>
      <trkpt lat="47.3353" lon="-2.4685">
        <ele>8.8000001907349</ele>
        <time>2022-09-22T09:09:01.000Z</time>
      </trkpt>
      <trkpt lat="47.33531" lon="-2.46857">
        <ele>8.3999996185303</ele>
        <time>2022-09-22T09:09:02.000Z</time>
      </trkpt>
      <trkpt lat="47.33532" lon="-2.46865">
        <ele>7.8000001907349</ele>
        <time>2022-09-22T09:09:03.000Z</time>
      </trkpt>
      <trkpt lat="47.33532" lon="-2.46871">
        <ele>7.4000000953674</ele>
        <time>2022-09-22T09:09:04.000Z</time>
      </trkpt>
      <trkpt lat="47.3353" lon="-2.46877">
        <ele>7</ele>
        <time>2022-09-22T09:09:05.000Z</time>
      </trkpt>
      <trkpt lat="47.33526" lon="-2.46883">
        <ele>6.5999999046326</ele>
        <time>2022-09-22T09:09:06.000Z</time>
      </trkpt>
      <trkpt lat="47.33521" lon="-2.46888">
        <ele>6.1999998092651</ele>
        <time>2022-09-22T09:09:07.000Z</time>
      </trkpt>
      <trkpt lat="47.33516" lon="-2.46893">
        <ele>5.8000001907349</ele>
        <time>2022-09-22T09:09:08.000Z</time>
      </trkpt>
      <trkpt lat="47.33512" lon="-2.46898">
        <ele>5.4000000953674</ele>
        <time>2022-09-22T09:09:09.000Z</time>
      </trkpt>
      <trkpt lat="47.33499" lon="-2.46912">
        <ele>4.8000001907349</ele>
        <time>2022-09-22T09:09:12.000Z</time>
      </trkpt>
      <trkpt lat="47.33494" lon="-2.46917">
        <ele>4.4000000953674</ele>
        <time>2022-09-22T09:09:13.000Z</time>
      </trkpt>
      <trkpt lat="47.33488" lon="-2.4692">
        <ele>4</ele>
        <time>2022-09-22T09:09:14.000Z</time>
      </trkpt>
      <trkpt lat="47.33483" lon="-2.46925">
        <ele>3.4000000953674</ele>
        <time>2022-09-22T09:09:15.000Z</time>
      </trkpt>
      <trkpt lat="47.33478" lon="-2.46931">
        <ele>3</ele>
        <time>2022-09-22T09:09:16.000Z</time>
      </trkpt>
      <trkpt lat="47.33469" lon="-2.46946">
        <ele>3</ele>
        <time>2022-09-22T09:09:18.000Z</time>
      </trkpt>
      <trkpt lat="47.3346" lon="-2.4696">
        <ele>2.2000000476837</ele>
        <time>2022-09-22T09:09:20.000Z</time>
      </trkpt>
      <trkpt lat="47.33456" lon="-2.46968">
        <ele>1.7999999523163</ele>
        <time>2022-09-22T09:09:21.000Z</time>
      </trkpt>
      <trkpt lat="47.33452" lon="-2.46975">
        <ele>1.3999999761581</ele>
        <time>2022-09-22T09:09:22.000Z</time>
      </trkpt>
      <trkpt lat="47.33447" lon="-2.46981">
        <ele>1</ele>
        <time>2022-09-22T09:09:23.000Z</time>
      </trkpt>
      <trkpt lat="47.33437" lon="-2.46993">
        <ele>1</ele>
        <time>2022-09-22T09:09:25.000Z</time>
      </trkpt>
      <trkpt lat="47.33427" lon="-2.47006">
        <ele>1</ele>
        <time>2022-09-22T09:09:27.000Z</time>
      </trkpt>
      <trkpt lat="47.33413" lon="-2.47028">
        <ele>1</ele>
        <time>2022-09-22T09:09:30.000Z</time>
      </trkpt>
      <trkpt lat="47.3341" lon="-2.47036">
        <ele>1</ele>
        <time>2022-09-22T09:09:31.000Z</time>
      </trkpt>
      <trkpt lat="47.33397" lon="-2.47071">
        <ele>0.60000002384186</ele>
        <time>2022-09-22T09:09:35.000Z</time>
      </trkpt>
      <trkpt lat="47.33395" lon="-2.4708">
        <ele>0.20000000298023</ele>
        <time>2022-09-22T09:09:36.000Z</time>
      </trkpt>
      <trkpt lat="47.33392" lon="-2.47089">
        <ele>-0.20000000298023</ele>
        <time>2022-09-22T09:09:37.000Z</time>
      </trkpt>
      <trkpt lat="47.33391" lon="-2.47098">
        <ele>-0.80000001192093</ele>
        <time>2022-09-22T09:09:38.000Z</time>
      </trkpt>
      <trkpt lat="47.33389" lon="-2.47107">
        <ele>-1.2000000476837</ele>
        <time>2022-09-22T09:09:39.000Z</time>
      </trkpt>
      <trkpt lat="47.33387" lon="-2.47125">
        <ele>-1.2000000476837</ele>
        <time>2022-09-22T09:09:41.000Z</time>
      </trkpt>
      <trkpt lat="47.33384" lon="-2.47133">
        <ele>-1.2000000476837</ele>
        <time>2022-09-22T09:09:42.000Z</time>
      </trkpt>
      <trkpt lat="47.33378" lon="-2.47144">
        <ele>-1.2000000476837</ele>
        <time>2022-09-22T09:09:44.000Z</time>
      </trkpt>
      <trkpt lat="47.3337" lon="-2.4715">
        <ele>-1.2000000476837</ele>
        <time>2022-09-22T09:09:48.000Z</time>
      </trkpt>
      <trkpt lat="47.33363" lon="-2.47145">
        <ele>-1.6000000238419</ele>
        <time>2022-09-22T09:09:51.000Z</time>
      </trkpt>
      <trkpt lat="47.33362" lon="-2.4714">
        <ele>-2</ele>
        <time>2022-09-22T09:09:52.000Z</time>
      </trkpt>
      <trkpt lat="47.33361" lon="-2.47133">
        <ele>-2.4000000953674</ele>
        <time>2022-09-22T09:09:53.000Z</time>
      </trkpt>
      <trkpt lat="47.3336" lon="-2.47126">
        <ele>-2.7999999523163</ele>
        <time>2022-09-22T09:09:54.000Z</time>
      </trkpt>
      <trkpt lat="47.33358" lon="-2.47119">
        <ele>-3.2000000476837</ele>
        <time>2022-09-22T09:09:55.000Z</time>
      </trkpt>
      <trkpt lat="47.33356" lon="-2.47111">
        <ele>-3.2000000476837</ele>
        <time>2022-09-22T09:09:56.000Z</time>
      </trkpt>
      <trkpt lat="47.33348" lon="-2.4707">
        <ele>-3.5999999046326</ele>
        <time>2022-09-22T09:10:01.000Z</time>
      </trkpt>
      <trkpt lat="47.33346" lon="-2.47061">
        <ele>-4</ele>
        <time>2022-09-22T09:10:02.000Z</time>
      </trkpt>
      <trkpt lat="47.33345" lon="-2.47051">
        <ele>-4.4000000953674</ele>
        <time>2022-09-22T09:10:03.000Z</time>
      </trkpt>
      <trkpt lat="47.33344" lon="-2.47043">
        <ele>-5</ele>
        <time>2022-09-22T09:10:04.000Z</time>
      </trkpt>
      <trkpt lat="47.33343" lon="-2.47034">
        <ele>-5.4000000953674</ele>
        <time>2022-09-22T09:10:05.000Z</time>
      </trkpt>
      <trkpt lat="47.33335" lon="-2.46991">
        <ele>-5.4000000953674</ele>
        <time>2022-09-22T09:10:10.000Z</time>
      </trkpt>
      <trkpt lat="47.33325" lon="-2.4695">
        <ele>-5.4000000953674</ele>
        <time>2022-09-22T09:10:16.000Z</time>
      </trkpt>
      <trkpt lat="47.33323" lon="-2.46943">
        <ele>-5</ele>
        <time>2022-09-22T09:10:17.000Z</time>
      </trkpt>
      <trkpt lat="47.33322" lon="-2.46936">
        <ele>-4.5999999046326</ele>
        <time>2022-09-22T09:10:18.000Z</time>
      </trkpt>
      <trkpt lat="47.3332" lon="-2.4693">
        <ele>-4.1999998092651</ele>
        <time>2022-09-22T09:10:19.000Z</time>
      </trkpt>
      <trkpt lat="47.33318" lon="-2.46924">
        <ele>-3.7999999523163</ele>
        <time>2022-09-22T09:10:20.000Z</time>
      </trkpt>
      <trkpt lat="47.33317" lon="-2.46917">
        <ele>-3.4000000953674</ele>
        <time>2022-09-22T09:10:21.000Z</time>
      </trkpt>
      <trkpt lat="47.33316" lon="-2.4691">
        <ele>-3.4000000953674</ele>
        <time>2022-09-22T09:10:22.000Z</time>
      </trkpt>
      <trkpt lat="47.33312" lon="-2.46897">
        <ele>-3.4000000953674</ele>
        <time>2022-09-22T09:10:24.000Z</time>
      </trkpt>
      <trkpt lat="47.33302" lon="-2.46863">
        <ele>-3</ele>
        <time>2022-09-22T09:10:30.000Z</time>
      </trkpt>
      <trkpt lat="47.333" lon="-2.46857">
        <ele>-2.5999999046326</ele>
        <time>2022-09-22T09:10:31.000Z</time>
      </trkpt>
      <trkpt lat="47.33298" lon="-2.46852">
        <ele>-2.2000000476837</ele>
        <time>2022-09-22T09:10:32.000Z</time>
      </trkpt>
      <trkpt lat="47.33297" lon="-2.46846">
        <ele>-1.6000000238419</ele>
        <time>2022-09-22T09:10:33.000Z</time>
      </trkpt>
      <trkpt lat="47.33294" lon="-2.4684">
        <ele>-1.2000000476837</ele>
        <time>2022-09-22T09:10:34.000Z</time>
      </trkpt>
      <trkpt lat="47.33291" lon="-2.46829">
        <ele>-1.2000000476837</ele>
        <time>2022-09-22T09:10:36.000Z</time>
      </trkpt>
      <trkpt lat="47.33286" lon="-2.46817">
        <ele>-0.80000001192093</ele>
        <time>2022-09-22T09:10:38.000Z</time>
      </trkpt>
      <trkpt lat="47.33284" lon="-2.46812">
        <ele>-0.40000000596046</ele>
        <time>2022-09-22T09:10:39.000Z</time>
      </trkpt>
      <trkpt lat="47.33282" lon="-2.46807">
        <ele>23.1</ele>
        <time>2022-09-22T09:10:40.000Z</time>
      </trkpt>
      <trkpt lat="47.3328" lon="-2.46803">
        <ele>0.40000000596046</ele>
        <time>2022-09-22T09:10:41.000Z</time>
      </trkpt>
      <trkpt lat="47.33278" lon="-2.46798">
        <ele>0.80000001192093</ele>
        <time>2022-09-22T09:10:42.000Z</time>
      </trkpt>
      <trkpt lat="47.33276" lon="-2.46794">
        <ele>0.80000001192093</ele>
        <time>2022-09-22T09:10:43.000Z</time>
      </trkpt>
      <trkpt lat="47.33264" lon="-2.46781">
        <ele>0.80000001192093</ele>
        <time>2022-09-22T09:10:47.000Z</time>
      </trkpt>
      <trkpt lat="47.33259" lon="-2.4678">
        <ele>0.80000001192093</ele>
        <time>2022-09-22T09:10:48.000Z</time>
      </trkpt>
      <trkpt lat="47.33245" lon="-2.46784">
        <ele>0.80000001192093</ele>
        <time>2022-09-22T09:10:51.000Z</time>
      </trkpt>
      <trkpt lat="47.33223" lon="-2.46791">
        <ele>0.40000000596046</ele>
        <time>2022-09-22T09:10:55.000Z</time>
      </trkpt>
      <trkpt lat="47.33217" lon="-2.46789">
        <ele>21.2</ele>
        <time>2022-09-22T09:10:56.000Z</time>
      </trkpt>
      <trkpt lat="47.33211" lon="-2.46787">
        <ele>-0.40000000596046</ele>
        <time>2022-09-22T09:10:57.000Z</time>
      </trkpt>
      <trkpt lat="47.33206" lon="-2.46783">
        <ele>-1</ele>
        <time>2022-09-22T09:10:58.000Z</time>
      </trkpt>
      <trkpt lat="47.33201" lon="-2.46778">
        <ele>-1.3999999761581</ele>
        <time>2022-09-22T09:10:59.000Z</time>
      </trkpt>
      <trkpt lat="47.33197" lon="-2.46773">
        <ele>-1.3999999761581</ele>
        <time>2022-09-22T09:11:00.000Z</time>
      </trkpt>
      <trkpt lat="47.33192" lon="-2.46767">
        <ele>-1.3999999761581</ele>
        <time>2022-09-22T09:11:01.000Z</time>
      </trkpt>
      <trkpt lat="47.33166" lon="-2.46733">
        <ele>-1.3999999761581</ele>
        <time>2022-09-22T09:11:07.000Z</time>
      </trkpt>
      <trkpt lat="47.33135" lon="-2.46686">
        <ele>-1.3999999761581</ele>
        <time>2022-09-22T09:11:14.000Z</time>
      </trkpt>
      <trkpt lat="47.33132" lon="-2.46679">
        <ele>-1.7999999523163</ele>
        <time>2022-09-22T09:11:15.000Z</time>
      </trkpt>
      <trkpt lat="47.33128" lon="-2.46672">
        <ele>-2.2000000476837</ele>
        <time>2022-09-22T09:11:16.000Z</time>
      </trkpt>
      <trkpt lat="47.33124" lon="-2.46666">
        <ele>-2.5999999046326</ele>
        <time>2022-09-22T09:11:17.000Z</time>
      </trkpt>
      <trkpt lat="47.33121" lon="-2.4666">
        <ele>-3</ele>
        <time>2022-09-22T09:11:18.000Z</time>
      </trkpt>
      <trkpt lat="47.33117" lon="-2.46654">
        <ele>-3.4000000953674</ele>
        <time>2022-09-22T09:11:19.000Z</time>
      </trkpt>
      <trkpt lat="47.33113" lon="-2.46648">
        <ele>-3.4000000953674</ele>
        <time>2022-09-22T09:11:20.000Z</time>
      </trkpt>
      <trkpt lat="47.33096" lon="-2.4661">
        <ele>-3.4000000953674</ele>
        <time>2022-09-22T09:11:26.000Z</time>
      </trkpt>
      <trkpt lat="47.33082" lon="-2.46561">
        <ele>-3.4000000953674</ele>
        <time>2022-09-22T09:11:33.000Z</time>
      </trkpt>
      <trkpt lat="47.33076" lon="-2.4653">
        <ele>-3.7999999523163</ele>
        <time>2022-09-22T09:11:38.000Z</time>
      </trkpt>
      <trkpt lat="47.33072" lon="-2.46527">
        <ele>-4.1999998092651</ele>
        <time>2022-09-22T09:11:39.000Z</time>
      </trkpt>
      <trkpt lat="47.33068" lon="-2.46526">
        <ele>-4.5999999046326</ele>
        <time>2022-09-22T09:11:40.000Z</time>
      </trkpt>
      <trkpt lat="47.33063" lon="-2.46529">
        <ele>-5</ele>
        <time>2022-09-22T09:11:41.000Z</time>
      </trkpt>
      <trkpt lat="47.33058" lon="-2.46532">
        <ele>-5.4000000953674</ele>
        <time>2022-09-22T09:11:42.000Z</time>
      </trkpt>
      <trkpt lat="47.33053" lon="-2.46534">
        <ele>-5.4000000953674</ele>
        <time>2022-09-22T09:11:43.000Z</time>
      </trkpt>
      <trkpt lat="47.33037" lon="-2.46539">
        <ele>-5.8000001907349</ele>
        <time>2022-09-22T09:11:46.000Z</time>
      </trkpt>
      <trkpt lat="47.33031" lon="-2.4654">
        <ele>-6.4000000953674</ele>
        <time>2022-09-22T09:11:47.000Z</time>
      </trkpt>
      <trkpt lat="47.33025" lon="-2.46539">
        <ele>-7.1999998092651</ele>
        <time>2022-09-22T09:11:48.000Z</time>
      </trkpt>
      <trkpt lat="47.33019" lon="-2.4654">
        <ele>-7.5999999046326</ele>
        <time>2022-09-22T09:11:49.000Z</time>
      </trkpt>
      <trkpt lat="47.33002" lon="-2.46549">
        <ele>-7.5999999046326</ele>
        <time>2022-09-22T09:11:52.000Z</time>
      </trkpt>
      <trkpt lat="47.32996" lon="-2.46552">
        <ele>-7.5999999046326</ele>
        <time>2022-09-22T09:11:53.000Z</time>
      </trkpt>
      <trkpt lat="47.32991" lon="-2.46554">
        <ele>-8.1999998092651</ele>
        <time>2022-09-22T09:11:54.000Z</time>
      </trkpt>
      <trkpt lat="47.32986" lon="-2.46557">
        <ele>-8.6000003814697</ele>
        <time>2022-09-22T09:11:55.000Z</time>
      </trkpt>
      <trkpt lat="47.32981" lon="-2.4656">
        <ele>-9</ele>
        <time>2022-09-22T09:11:56.000Z</time>
      </trkpt>
      <trkpt lat="47.32975" lon="-2.46562">
        <ele>-9.6000003814697</ele>
        <time>2022-09-22T09:11:57.000Z</time>
      </trkpt>
      <trkpt lat="47.32971" lon="-2.46564">
        <ele>-10</ele>
        <time>2022-09-22T09:11:58.000Z</time>
      </trkpt>
      <trkpt lat="47.32967" lon="-2.46565">
        <ele>-10.60000038147</ele>
        <time>2022-09-22T09:11:59.000Z</time>
      </trkpt>
      <trkpt lat="47.32963" lon="-2.46564">
        <ele>-11</ele>
        <time>2022-09-22T09:12:00.000Z</time>
      </trkpt>
      <trkpt lat="47.3296" lon="-2.46559">
        <ele>-11.60000038147</ele>
        <time>2022-09-22T09:12:01.000Z</time>
      </trkpt>
      <trkpt lat="47.32958" lon="-2.46554">
        <ele>-12</ele>
        <time>2022-09-22T09:12:02.000Z</time>
      </trkpt>
      <trkpt lat="47.32956" lon="-2.46523">
        <ele>-12</ele>
        <time>2022-09-22T09:12:06.000Z</time>
      </trkpt>
      <trkpt lat="47.32958" lon="-2.46466">
        <ele>-12</ele>
        <time>2022-09-22T09:12:14.000Z</time>
      </trkpt>
      <trkpt lat="47.32958" lon="-2.46436">
        <ele>-11.60000038147</ele>
        <time>2022-09-22T09:12:19.000Z</time>
      </trkpt>
      <trkpt lat="47.32959" lon="-2.4643">
        <ele>-11.199999809265</ele>
        <time>2022-09-22T09:12:20.000Z</time>
      </trkpt>
      <trkpt lat="47.32959" lon="-2.46424">
        <ele>-10.800000190735</ele>
        <time>2022-09-22T09:12:21.000Z</time>
      </trkpt>
      <trkpt lat="47.32959" lon="-2.46418">
        <ele>-10.39999961853</ele>
        <time>2022-09-22T09:12:22.000Z</time>
      </trkpt>
      <trkpt lat="47.3296" lon="-2.46412">
        <ele>-10</ele>
        <time>2022-09-22T09:12:23.000Z</time>
      </trkpt>
      <trkpt lat="47.3296" lon="-2.464">
        <ele>-9.6000003814697</ele>
        <time>2022-09-22T09:12:25.000Z</time>
      </trkpt>
      <trkpt lat="47.3296" lon="-2.46395">
        <ele>-9.1999998092651</ele>
        <time>2022-09-22T09:12:26.000Z</time>
      </trkpt>
      <trkpt lat="47.3296" lon="-2.46389">
        <ele>-8.8000001907349</ele>
        <time>2022-09-22T09:12:27.000Z</time>
      </trkpt>
      <trkpt lat="47.3296" lon="-2.46384">
        <ele>-8.1999998092651</ele>
        <time>2022-09-22T09:12:28.000Z</time>
      </trkpt>
      <trkpt lat="47.32959" lon="-2.46379">
        <ele>-7.8000001907349</ele>
        <time>2022-09-22T09:12:29.000Z</time>
      </trkpt>
      <trkpt lat="47.32958" lon="-2.46368">
        <ele>-7.4000000953674</ele>
        <time>2022-09-22T09:12:31.000Z</time>
      </trkpt>
      <trkpt lat="47.32957" lon="-2.46363">
        <ele>-6.8000001907349</ele>
        <time>2022-09-22T09:12:32.000Z</time>
      </trkpt>
      <trkpt lat="47.32957" lon="-2.46357">
        <ele>-6.4000000953674</ele>
        <time>2022-09-22T09:12:33.000Z</time>
      </trkpt>
      <trkpt lat="47.32955" lon="-2.46351">
        <ele>-6</ele>
        <time>2022-09-22T09:12:34.000Z</time>
      </trkpt>
      <trkpt lat="47.32954" lon="-2.46346">
        <ele>-5.4000000953674</ele>
        <time>2022-09-22T09:12:35.000Z</time>
      </trkpt>
      <trkpt lat="47.32953" lon="-2.46341">
        <ele>-5</ele>
        <time>2022-09-22T09:12:36.000Z</time>
      </trkpt>
      <trkpt lat="47.32952" lon="-2.46336">
        <ele>-4.5999999046326</ele>
        <time>2022-09-22T09:12:37.000Z</time>
      </trkpt>
      <trkpt lat="47.3295" lon="-2.46332">
        <ele>-3.7999999523163</ele>
        <time>2022-09-22T09:12:38.000Z</time>
      </trkpt>
      <trkpt lat="47.32949" lon="-2.46327">
        <ele>-3.4000000953674</ele>
        <time>2022-09-22T09:12:39.000Z</time>
      </trkpt>
      <trkpt lat="47.32947" lon="-2.46322">
        <ele>-3.4000000953674</ele>
        <time>2022-09-22T09:12:40.000Z</time>
      </trkpt>
      <trkpt lat="47.32945" lon="-2.46311">
        <ele>-2.7999999523163</ele>
        <time>2022-09-22T09:12:42.000Z</time>
      </trkpt>
      <trkpt lat="47.32943" lon="-2.46306">
        <ele>-2.4000000953674</ele>
        <time>2022-09-22T09:12:43.000Z</time>
      </trkpt>
      <trkpt lat="47.32942" lon="-2.46301">
        <ele>-2</ele>
        <time>2022-09-22T09:12:44.000Z</time>
      </trkpt>
      <trkpt lat="47.3294" lon="-2.46296">
        <ele>-1.6000000238419</ele>
        <time>2022-09-22T09:12:45.000Z</time>
      </trkpt>
      <trkpt lat="47.32938" lon="-2.4629">
        <ele>-1.2000000476837</ele>
        <time>2022-09-22T09:12:46.000Z</time>
      </trkpt>
      <trkpt lat="47.32933" lon="-2.46267">
        <ele>-1.2000000476837</ele>
        <time>2022-09-22T09:12:50.000Z</time>
      </trkpt>
      <trkpt lat="47.32931" lon="-2.46261">
        <ele>-1.2000000476837</ele>
        <time>2022-09-22T09:12:51.000Z</time>
      </trkpt>
      <trkpt lat="47.3292" lon="-2.46219">
        <ele>-1.2000000476837</ele>
        <time>2022-09-22T09:12:58.000Z</time>
      </trkpt>
      <trkpt lat="47.32908" lon="-2.46175">
        <ele>-1.2000000476837</ele>
        <time>2022-09-22T09:13:06.000Z</time>
      </trkpt>
      <trkpt lat="47.32899" lon="-2.46151">
        <ele>-1.2000000476837</ele>
        <time>2022-09-22T09:13:11.000Z</time>
      </trkpt>
      <trkpt lat="47.32895" lon="-2.4615">
        <ele>-1.2000000476837</ele>
        <time>2022-09-22T09:13:12.000Z</time>
      </trkpt>
      <trkpt lat="47.32882" lon="-2.46156">
        <ele>-1.2000000476837</ele>
        <time>2022-09-22T09:13:15.000Z</time>
      </trkpt>
      <trkpt lat="47.32877" lon="-2.46159">
        <ele>-1.2000000476837</ele>
        <time>2022-09-22T09:13:16.000Z</time>
      </trkpt>
      <trkpt lat="47.32856" lon="-2.46173">
        <ele>-1.2000000476837</ele>
        <time>2022-09-22T09:13:20.000Z</time>
      </trkpt>
      <trkpt lat="47.32838" lon="-2.46184">
        <ele>-1.6000000238419</ele>
        <time>2022-09-22T09:13:23.000Z</time>
      </trkpt>
      <trkpt lat="47.32832" lon="-2.46188">
        <ele>-2</ele>
        <time>2022-09-22T09:13:24.000Z</time>
      </trkpt>
      <trkpt lat="47.32827" lon="-2.4619">
        <ele>-2.5999999046326</ele>
        <time>2022-09-22T09:13:25.000Z</time>
      </trkpt>
      <trkpt lat="47.32822" lon="-2.46191">
        <ele>-3</ele>
        <time>2022-09-22T09:13:26.000Z</time>
      </trkpt>
      <trkpt lat="47.32816" lon="-2.46191">
        <ele>-3.7999999523163</ele>
        <time>2022-09-22T09:13:27.000Z</time>
      </trkpt>
      <trkpt lat="47.3281" lon="-2.46189">
        <ele>-4.1999998092651</ele>
        <time>2022-09-22T09:13:28.000Z</time>
      </trkpt>
      <trkpt lat="47.32805" lon="-2.46186">
        <ele>-4.5999999046326</ele>
        <time>2022-09-22T09:13:29.000Z</time>
      </trkpt>
      <trkpt lat="47.328" lon="-2.46183">
        <ele>-5</ele>
        <time>2022-09-22T09:13:30.000Z</time>
      </trkpt>
      <trkpt lat="47.32796" lon="-2.46179">
        <ele>-5.4000000953674</ele>
        <time>2022-09-22T09:13:31.000Z</time>
      </trkpt>
      <trkpt lat="47.32791" lon="-2.46177">
        <ele>-5.4000000953674</ele>
        <time>2022-09-22T09:13:32.000Z</time>
      </trkpt>
      <trkpt lat="47.32777" lon="-2.46162">
        <ele>-5.4000000953674</ele>
        <time>2022-09-22T09:13:35.000Z</time>
      </trkpt>
      <trkpt lat="47.32772" lon="-2.46156">
        <ele>-5.4000000953674</ele>
        <time>2022-09-22T09:13:36.000Z</time>
      </trkpt>
      <trkpt lat="47.32768" lon="-2.4615">
        <ele>-5.4000000953674</ele>
        <time>2022-09-22T09:13:37.000Z</time>
      </trkpt>
      <trkpt lat="47.32764" lon="-2.46137">
        <ele>-6</ele>
        <time>2022-09-22T09:13:39.000Z</time>
      </trkpt>
      <trkpt lat="47.32763" lon="-2.46133">
        <ele>-6.4000000953674</ele>
        <time>2022-09-22T09:13:40.000Z</time>
      </trkpt>
      <trkpt lat="47.32761" lon="-2.46129">
        <ele>-6.8000001907349</ele>
        <time>2022-09-22T09:13:41.000Z</time>
      </trkpt>
      <trkpt lat="47.32761" lon="-2.46123">
        <ele>-7.1999998092651</ele>
        <time>2022-09-22T09:13:42.000Z</time>
      </trkpt>
      <trkpt lat="47.32759" lon="-2.46117">
        <ele>-7.5999999046326</ele>
        <time>2022-09-22T09:13:43.000Z</time>
      </trkpt>
      <trkpt lat="47.32756" lon="-2.4611">
        <ele>-7.5999999046326</ele>
        <time>2022-09-22T09:13:44.000Z</time>
      </trkpt>
      <trkpt lat="47.32743" lon="-2.46089">
        <ele>-8.1999998092651</ele>
        <time>2022-09-22T09:13:48.000Z</time>
      </trkpt>
      <trkpt lat="47.3274" lon="-2.46085">
        <ele>-8.6000003814697</ele>
        <time>2022-09-22T09:13:49.000Z</time>
      </trkpt>
      <trkpt lat="47.32736" lon="-2.46081">
        <ele>-9</ele>
        <time>2022-09-22T09:13:50.000Z</time>
      </trkpt>
      <trkpt lat="47.32732" lon="-2.46078">
        <ele>-9.6000003814697</ele>
        <time>2022-09-22T09:13:51.000Z</time>
      </trkpt>
      <trkpt lat="47.32729" lon="-2.46074">
        <ele>-10</ele>
        <time>2022-09-22T09:13:52.000Z</time>
      </trkpt>
      <trkpt lat="47.32726" lon="-2.46072">
        <ele>-10</ele>
        <time>2022-09-22T09:13:53.000Z</time>
      </trkpt>
      <trkpt lat="47.32723" lon="-2.46067">
        <ele>-10</ele>
        <time>2022-09-22T09:13:54.000Z</time>
      </trkpt>
      <trkpt lat="47.32713" lon="-2.46056">
        <ele>-10</ele>
        <time>2022-09-22T09:13:57.000Z</time>
      </trkpt>
      <trkpt lat="47.32706" lon="-2.46045">
        <ele>-10</ele>
        <time>2022-09-22T09:13:59.000Z</time>
      </trkpt>
      <trkpt lat="47.32699" lon="-2.46034">
        <ele>-10</ele>
        <time>2022-09-22T09:14:01.000Z</time>
      </trkpt>
      <trkpt lat="47.32688" lon="-2.46019">
        <ele>-10.39999961853</ele>
        <time>2022-09-22T09:14:04.000Z</time>
      </trkpt>
      <trkpt lat="47.32686" lon="-2.46012">
        <ele>-10.800000190735</ele>
        <time>2022-09-22T09:14:05.000Z</time>
      </trkpt>
      <trkpt lat="47.32682" lon="-2.46006">
        <ele>-11.39999961853</ele>
        <time>2022-09-22T09:14:06.000Z</time>
      </trkpt>
      <trkpt lat="47.32678" lon="-2.46003">
        <ele>-11.800000190735</ele>
        <time>2022-09-22T09:14:07.000Z</time>
      </trkpt>
      <trkpt lat="47.32675" lon="-2.46001">
        <ele>-12.199999809265</ele>
        <time>2022-09-22T09:14:08.000Z</time>
      </trkpt>
      <trkpt lat="47.32673" lon="-2.45998">
        <ele>-12.199999809265</ele>
        <time>2022-09-22T09:14:09.000Z</time>
      </trkpt>
      <trkpt lat="47.32656" lon="-2.45981">
        <ele>-12.199999809265</ele>
        <time>2022-09-22T09:14:13.000Z</time>
      </trkpt>
      <trkpt lat="47.32634" lon="-2.45958">
        <ele>-12.199999809265</ele>
        <time>2022-09-22T09:14:17.000Z</time>
      </trkpt>
      <trkpt lat="47.3263" lon="-2.45952">
        <ele>-12.199999809265</ele>
        <time>2022-09-22T09:14:18.000Z</time>
      </trkpt>
      <trkpt lat="47.32608" lon="-2.45916">
        <ele>-12.199999809265</ele>
        <time>2022-09-22T09:14:23.000Z</time>
      </trkpt>
      <trkpt lat="47.32591" lon="-2.45892">
        <ele>-12.199999809265</ele>
        <time>2022-09-22T09:14:27.000Z</time>
      </trkpt>
      <trkpt lat="47.32582" lon="-2.45881">
        <ele>-12.199999809265</ele>
        <time>2022-09-22T09:14:29.000Z</time>
      </trkpt>
      <trkpt lat="47.32569" lon="-2.4586">
        <ele>-12.199999809265</ele>
        <time>2022-09-22T09:14:32.000Z</time>
      </trkpt>
      <trkpt lat="47.32557" lon="-2.45838">
        <ele>-12.199999809265</ele>
        <time>2022-09-22T09:14:35.000Z</time>
      </trkpt>
      <trkpt lat="47.32532" lon="-2.45804">
        <ele>-12.199999809265</ele>
        <time>2022-09-22T09:14:40.000Z</time>
      </trkpt>
      <trkpt lat="47.32528" lon="-2.45796">
        <ele>-12.199999809265</ele>
        <time>2022-09-22T09:14:41.000Z</time>
      </trkpt>
      <trkpt lat="47.32509" lon="-2.45764">
        <ele>-12.199999809265</ele>
        <time>2022-09-22T09:14:45.000Z</time>
      </trkpt>
      <trkpt lat="47.32478" lon="-2.45708">
        <ele>-12.199999809265</ele>
        <time>2022-09-22T09:14:52.000Z</time>
      </trkpt>
      <trkpt lat="47.32444" lon="-2.45653">
        <ele>-12.199999809265</ele>
        <time>2022-09-22T09:15:00.000Z</time>
      </trkpt>
      <trkpt lat="47.32422" lon="-2.45618">
        <ele>-12.199999809265</ele>
        <time>2022-09-22T09:15:06.000Z</time>
      </trkpt>
      <trkpt lat="47.32407" lon="-2.45584">
        <ele>-12.199999809265</ele>
        <time>2022-09-22T09:15:12.000Z</time>
      </trkpt>
      <trkpt lat="47.32399" lon="-2.45566">
        <ele>-12.199999809265</ele>
        <time>2022-09-22T09:15:15.000Z</time>
      </trkpt>
      <trkpt lat="47.32392" lon="-2.4555">
        <ele>-12.199999809265</ele>
        <time>2022-09-22T09:15:18.000Z</time>
      </trkpt>
      <trkpt lat="47.32389" lon="-2.45545">
        <ele>-12.199999809265</ele>
        <time>2022-09-22T09:15:19.000Z</time>
      </trkpt>
      <trkpt lat="47.32378" lon="-2.45524">
        <ele>-12.199999809265</ele>
        <time>2022-09-22T09:15:23.000Z</time>
      </trkpt>
      <trkpt lat="47.32372" lon="-2.45513">
        <ele>-12.199999809265</ele>
        <time>2022-09-22T09:15:25.000Z</time>
      </trkpt>
      <trkpt lat="47.32355" lon="-2.45489">
        <ele>-12.199999809265</ele>
        <time>2022-09-22T09:15:30.000Z</time>
      </trkpt>
      <trkpt lat="47.32344" lon="-2.45474">
        <ele>-12.199999809265</ele>
        <time>2022-09-22T09:15:33.000Z</time>
      </trkpt>
      <trkpt lat="47.32334" lon="-2.45458">
        <ele>-12.199999809265</ele>
        <time>2022-09-22T09:15:36.000Z</time>
      </trkpt>
      <trkpt lat="47.32311" lon="-2.45421">
        <ele>-12.199999809265</ele>
        <time>2022-09-22T09:15:43.000Z</time>
      </trkpt>
      <trkpt lat="47.32311" lon="-2.45421">
        <ele>-12.60000038147</ele>
        <time>2022-09-22T09:15:44.000Z</time>
      </trkpt>
      <trkpt lat="47.3231" lon="-2.45419">
        <ele>-13</ele>
        <time>2022-09-22T09:15:45.000Z</time>
      </trkpt>
      <trkpt lat="47.32309" lon="-2.45417">
        <ele>-13.39999961853</ele>
        <time>2022-09-22T09:15:46.000Z</time>
      </trkpt>
      <trkpt lat="47.32309" lon="-2.45412">
        <ele>-13.800000190735</ele>
        <time>2022-09-22T09:15:47.000Z</time>
      </trkpt>
      <trkpt lat="47.3231" lon="-2.45407">
        <ele>-14.199999809265</ele>
        <time>2022-09-22T09:15:48.000Z</time>
      </trkpt>
      <trkpt lat="47.32312" lon="-2.45402">
        <ele>-14.199999809265</ele>
        <time>2022-09-22T09:15:49.000Z</time>
      </trkpt>
      <trkpt lat="47.32317" lon="-2.45383">
        <ele>-14.199999809265</ele>
        <time>2022-09-22T09:15:53.000Z</time>
      </trkpt>
      <trkpt lat="47.32317" lon="-2.45374">
        <ele>-13.800000190735</ele>
        <time>2022-09-22T09:15:55.000Z</time>
      </trkpt>
      <trkpt lat="47.32317" lon="-2.45369">
        <ele>-13.39999961853</ele>
        <time>2022-09-22T09:15:56.000Z</time>
      </trkpt>
      <trkpt lat="47.32316" lon="-2.45364">
        <ele>-13</ele>
        <time>2022-09-22T09:15:57.000Z</time>
      </trkpt>
      <trkpt lat="47.32315" lon="-2.45359">
        <ele>-12.60000038147</ele>
        <time>2022-09-22T09:15:58.000Z</time>
      </trkpt>
      <trkpt lat="47.32314" lon="-2.45354">
        <ele>-12.199999809265</ele>
        <time>2022-09-22T09:15:59.000Z</time>
      </trkpt>
      <trkpt lat="47.32313" lon="-2.45337">
        <ele>-11.800000190735</ele>
        <time>2022-09-22T09:16:02.000Z</time>
      </trkpt>
      <trkpt lat="47.32314" lon="-2.45332">
        <ele>-11.39999961853</ele>
        <time>2022-09-22T09:16:03.000Z</time>
      </trkpt>
      <trkpt lat="47.32314" lon="-2.45326">
        <ele>-11</ele>
        <time>2022-09-22T09:16:04.000Z</time>
      </trkpt>
      <trkpt lat="47.32314" lon="-2.4532">
        <ele>-10.60000038147</ele>
        <time>2022-09-22T09:16:05.000Z</time>
      </trkpt>
      <trkpt lat="47.32314" lon="-2.45313">
        <ele>-10.199999809265</ele>
        <time>2022-09-22T09:16:06.000Z</time>
      </trkpt>
      <trkpt lat="47.32313" lon="-2.45306">
        <ele>-10.199999809265</ele>
        <time>2022-09-22T09:16:07.000Z</time>
      </trkpt>
      <trkpt lat="47.32312" lon="-2.453">
        <ele>-10.199999809265</ele>
        <time>2022-09-22T09:16:08.000Z</time>
      </trkpt>
      <trkpt lat="47.32306" lon="-2.45278">
        <ele>-10.199999809265</ele>
        <time>2022-09-22T09:16:11.000Z</time>
      </trkpt>
      <trkpt lat="47.32299" lon="-2.45255">
        <ele>-10.199999809265</ele>
        <time>2022-09-22T09:16:14.000Z</time>
      </trkpt>
      <trkpt lat="47.32285" lon="-2.4522">
        <ele>-10.199999809265</ele>
        <time>2022-09-22T09:16:18.000Z</time>
      </trkpt>
      <trkpt lat="47.32281" lon="-2.45212">
        <ele>-10.60000038147</ele>
        <time>2022-09-22T09:16:19.000Z</time>
      </trkpt>
      <trkpt lat="47.32277" lon="-2.45204">
        <ele>-11.60000038147</ele>
        <time>2022-09-22T09:16:20.000Z</time>
      </trkpt>
      <trkpt lat="47.32274" lon="-2.45196">
        <ele>-12</ele>
        <time>2022-09-22T09:16:21.000Z</time>
      </trkpt>
      <trkpt lat="47.32271" lon="-2.45189">
        <ele>-12.60000038147</ele>
        <time>2022-09-22T09:16:22.000Z</time>
      </trkpt>
      <trkpt lat="47.32269" lon="-2.45182">
        <ele>-12.60000038147</ele>
        <time>2022-09-22T09:16:23.000Z</time>
      </trkpt>
      <trkpt lat="47.32266" lon="-2.4517">
        <ele>-12.60000038147</ele>
        <time>2022-09-22T09:16:25.000Z</time>
      </trkpt>
      <trkpt lat="47.32265" lon="-2.45164">
        <ele>-12</ele>
        <time>2022-09-22T09:16:26.000Z</time>
      </trkpt>
      <trkpt lat="47.32263" lon="-2.45157">
        <ele>-11.60000038147</ele>
        <time>2022-09-22T09:16:27.000Z</time>
      </trkpt>
      <trkpt lat="47.32262" lon="-2.45151">
        <ele>-11.199999809265</ele>
        <time>2022-09-22T09:16:28.000Z</time>
      </trkpt>
      <trkpt lat="47.3226" lon="-2.45144">
        <ele>-10.60000038147</ele>
        <time>2022-09-22T09:16:29.000Z</time>
      </trkpt>
      <trkpt lat="47.32258" lon="-2.45139">
        <ele>-10.199999809265</ele>
        <time>2022-09-22T09:16:30.000Z</time>
      </trkpt>
      <trkpt lat="47.32252" lon="-2.4512">
        <ele>-10.199999809265</ele>
        <time>2022-09-22T09:16:33.000Z</time>
      </trkpt>
      <trkpt lat="47.3225" lon="-2.45115">
        <ele>-9.8000001907349</ele>
        <time>2022-09-22T09:16:34.000Z</time>
      </trkpt>
      <trkpt lat="47.32248" lon="-2.45109">
        <ele>-9.3999996185303</ele>
        <time>2022-09-22T09:16:35.000Z</time>
      </trkpt>
      <trkpt lat="47.32246" lon="-2.45103">
        <ele>-9</ele>
        <time>2022-09-22T09:16:36.000Z</time>
      </trkpt>
      <trkpt lat="47.32244" lon="-2.45097">
        <ele>-8.6000003814697</ele>
        <time>2022-09-22T09:16:37.000Z</time>
      </trkpt>
      <trkpt lat="47.32241" lon="-2.45092">
        <ele>-8.1999998092651</ele>
        <time>2022-09-22T09:16:38.000Z</time>
      </trkpt>
      <trkpt lat="47.32239" lon="-2.45087">
        <ele>-8.1999998092651</ele>
        <time>2022-09-22T09:16:39.000Z</time>
      </trkpt>
      <trkpt lat="47.32221" lon="-2.45048">
        <ele>-8.1999998092651</ele>
        <time>2022-09-22T09:16:46.000Z</time>
      </trkpt>
      <trkpt lat="47.3221" lon="-2.45026">
        <ele>-8.1999998092651</ele>
        <time>2022-09-22T09:16:50.000Z</time>
      </trkpt>
      <trkpt lat="47.32204" lon="-2.45014">
        <ele>-8.1999998092651</ele>
        <time>2022-09-22T09:16:52.000Z</time>
      </trkpt>
      <trkpt lat="47.32199" lon="-2.45002">
        <ele>-8.1999998092651</ele>
        <time>2022-09-22T09:16:54.000Z</time>
      </trkpt>
      <trkpt lat="47.32196" lon="-2.44995">
        <ele>-8.1999998092651</ele>
        <time>2022-09-22T09:16:55.000Z</time>
      </trkpt>
      <trkpt lat="47.3219" lon="-2.44983">
        <ele>-8.1999998092651</ele>
        <time>2022-09-22T09:16:57.000Z</time>
      </trkpt>
      <trkpt lat="47.32186" lon="-2.44977">
        <ele>-8.1999998092651</ele>
        <time>2022-09-22T09:16:58.000Z</time>
      </trkpt>
      <trkpt lat="47.32176" lon="-2.44967">
        <ele>-8.1999998092651</ele>
        <time>2022-09-22T09:17:00.000Z</time>
      </trkpt>
      <trkpt lat="47.3216" lon="-2.44955">
        <ele>-8.1999998092651</ele>
        <time>2022-09-22T09:17:03.000Z</time>
      </trkpt>
      <trkpt lat="47.32138" lon="-2.44935">
        <ele>-8.1999998092651</ele>
        <time>2022-09-22T09:17:07.000Z</time>
      </trkpt>
      <trkpt lat="47.32129" lon="-2.44922">
        <ele>-8.6000003814697</ele>
        <time>2022-09-22T09:17:09.000Z</time>
      </trkpt>
      <trkpt lat="47.32124" lon="-2.44914">
        <ele>-9.3999996185303</ele>
        <time>2022-09-22T09:17:10.000Z</time>
      </trkpt>
      <trkpt lat="47.32121" lon="-2.44906">
        <ele>-9.8000001907349</ele>
        <time>2022-09-22T09:17:11.000Z</time>
      </trkpt>
      <trkpt lat="47.32117" lon="-2.44898">
        <ele>-10.199999809265</ele>
        <time>2022-09-22T09:17:12.000Z</time>
      </trkpt>
      <trkpt lat="47.32106" lon="-2.44872">
        <ele>-10.199999809265</ele>
        <time>2022-09-22T09:17:15.000Z</time>
      </trkpt>
      <trkpt lat="47.32075" lon="-2.44797">
        <ele>-10.199999809265</ele>
        <time>2022-09-22T09:17:24.000Z</time>
      </trkpt>
      <trkpt lat="47.32071" lon="-2.4479">
        <ele>-10.199999809265</ele>
        <time>2022-09-22T09:17:25.000Z</time>
      </trkpt>
      <trkpt lat="47.32047" lon="-2.44748">
        <ele>-10.199999809265</ele>
        <time>2022-09-22T09:17:31.000Z</time>
      </trkpt>
      <trkpt lat="47.32038" lon="-2.44735">
        <ele>-10.199999809265</ele>
        <time>2022-09-22T09:17:33.000Z</time>
      </trkpt>
      <trkpt lat="47.32034" lon="-2.44729">
        <ele>-10.60000038147</ele>
        <time>2022-09-22T09:17:34.000Z</time>
      </trkpt>
      <trkpt lat="47.3203" lon="-2.44723">
        <ele>-11</ele>
        <time>2022-09-22T09:17:35.000Z</time>
      </trkpt>
      <trkpt lat="47.32025" lon="-2.44717">
        <ele>-11.39999961853</ele>
        <time>2022-09-22T09:17:36.000Z</time>
      </trkpt>
      <trkpt lat="47.32021" lon="-2.4471">
        <ele>-11.800000190735</ele>
        <time>2022-09-22T09:17:37.000Z</time>
      </trkpt>
      <trkpt lat="47.32016" lon="-2.44703">
        <ele>-12.199999809265</ele>
        <time>2022-09-22T09:17:38.000Z</time>
      </trkpt>
      <trkpt lat="47.31988" lon="-2.44664">
        <ele>-12.199999809265</ele>
        <time>2022-09-22T09:17:44.000Z</time>
      </trkpt>
      <trkpt lat="47.31948" lon="-2.44619">
        <ele>-12.199999809265</ele>
        <time>2022-09-22T09:17:52.000Z</time>
      </trkpt>
      <trkpt lat="47.31917" lon="-2.44582">
        <ele>-12.199999809265</ele>
        <time>2022-09-22T09:17:59.000Z</time>
      </trkpt>
      <trkpt lat="47.31908" lon="-2.4457">
        <ele>-12.60000038147</ele>
        <time>2022-09-22T09:18:02.000Z</time>
      </trkpt>
      <trkpt lat="47.31904" lon="-2.44568">
        <ele>-13</ele>
        <time>2022-09-22T09:18:03.000Z</time>
      </trkpt>
      <trkpt lat="47.31901" lon="-2.44567">
        <ele>-13.39999961853</ele>
        <time>2022-09-22T09:18:04.000Z</time>
      </trkpt>
      <trkpt lat="47.31898" lon="-2.44568">
        <ele>-13.800000190735</ele>
        <time>2022-09-22T09:18:05.000Z</time>
      </trkpt>
      <trkpt lat="47.31895" lon="-2.4457">
        <ele>-14.199999809265</ele>
        <time>2022-09-22T09:18:06.000Z</time>
      </trkpt>
      <trkpt lat="47.31893" lon="-2.44575">
        <ele>-14.199999809265</ele>
        <time>2022-09-22T09:18:07.000Z</time>
      </trkpt>
      <trkpt lat="47.31884" lon="-2.44596">
        <ele>-14.199999809265</ele>
        <time>2022-09-22T09:18:12.000Z</time>
      </trkpt>
      <trkpt lat="47.31877" lon="-2.44618">
        <ele>-14.199999809265</ele>
        <time>2022-09-22T09:18:16.000Z</time>
      </trkpt>
      <trkpt lat="47.31874" lon="-2.44624">
        <ele>-14.199999809265</ele>
        <time>2022-09-22T09:18:17.000Z</time>
      </trkpt>
      <trkpt lat="47.3186" lon="-2.44659">
        <ele>-14.199999809265</ele>
        <time>2022-09-22T09:18:23.000Z</time>
      </trkpt>
      <trkpt lat="47.31848" lon="-2.44682">
        <ele>-14.199999809265</ele>
        <time>2022-09-22T09:18:28.000Z</time>
      </trkpt>
      <trkpt lat="47.31831" lon="-2.44709">
        <ele>-14.199999809265</ele>
        <time>2022-09-22T09:18:35.000Z</time>
      </trkpt>
      <trkpt lat="47.31817" lon="-2.44723">
        <ele>-14.60000038147</ele>
        <time>2022-09-22T09:18:39.000Z</time>
      </trkpt>
      <trkpt lat="47.31813" lon="-2.44726">
        <ele>-15</ele>
        <time>2022-09-22T09:18:40.000Z</time>
      </trkpt>
      <trkpt lat="47.31809" lon="-2.44729">
        <ele>-15.39999961853</ele>
        <time>2022-09-22T09:18:41.000Z</time>
      </trkpt>
      <trkpt lat="47.31805" lon="-2.44731">
        <ele>-15.800000190735</ele>
        <time>2022-09-22T09:18:42.000Z</time>
      </trkpt>
      <trkpt lat="47.31801" lon="-2.44733">
        <ele>-16.200000762939</ele>
        <time>2022-09-22T09:18:43.000Z</time>
      </trkpt>
      <trkpt lat="47.31784" lon="-2.44742">
        <ele>-16.200000762939</ele>
        <time>2022-09-22T09:18:47.000Z</time>
      </trkpt>
      <trkpt lat="47.31762" lon="-2.44757">
        <ele>-16.200000762939</ele>
        <time>2022-09-22T09:18:53.000Z</time>
      </trkpt>
      <trkpt lat="47.31742" lon="-2.44773">
        <ele>-16.200000762939</ele>
        <time>2022-09-22T09:18:59.000Z</time>
      </trkpt>
      <trkpt lat="47.3173" lon="-2.44783">
        <ele>-16.200000762939</ele>
        <time>2022-09-22T09:19:04.000Z</time>
      </trkpt>
      <trkpt lat="47.3173" lon="-2.44783">
        <ele>-16.200000762939</ele>
        <time>2022-09-22T09:19:05.000Z</time>
      </trkpt>
      <trkpt lat="47.31729" lon="-2.44783">
        <ele>-16.200000762939</ele>
        <time>2022-09-22T09:19:41.000Z</time>
      </trkpt>
      <trkpt lat="47.31723" lon="-2.44781">
        <ele>-16.200000762939</ele>
        <time>2022-09-22T09:19:44.000Z</time>
      </trkpt>
      <trkpt lat="47.31716" lon="-2.44771">
        <ele>-16.200000762939</ele>
        <time>2022-09-22T09:19:47.000Z</time>
      </trkpt>
      <trkpt lat="47.31704" lon="-2.44745">
        <ele>-16.200000762939</ele>
        <time>2022-09-22T09:19:51.000Z</time>
      </trkpt>
      <trkpt lat="47.31678" lon="-2.44681">
        <ele>-16.200000762939</ele>
        <time>2022-09-22T09:20:00.000Z</time>
      </trkpt>
      <trkpt lat="47.31654" lon="-2.44623">
        <ele>-16.200000762939</ele>
        <time>2022-09-22T09:20:08.000Z</time>
      </trkpt>
      <trkpt lat="47.31628" lon="-2.44573">
        <ele>-16.200000762939</ele>
        <time>2022-09-22T09:20:15.000Z</time>
      </trkpt>
      <trkpt lat="47.31599" lon="-2.44524">
        <ele>-16.200000762939</ele>
        <time>2022-09-22T09:20:22.000Z</time>
      </trkpt>
      <trkpt lat="47.31584" lon="-2.44483">
        <ele>-16.200000762939</ele>
        <time>2022-09-22T09:20:27.000Z</time>
      </trkpt>
      <trkpt lat="47.31575" lon="-2.44438">
        <ele>-16.60000038147</ele>
        <time>2022-09-22T09:20:32.000Z</time>
      </trkpt>
      <trkpt lat="47.31574" lon="-2.44429">
        <ele>-17</ele>
        <time>2022-09-22T09:20:33.000Z</time>
      </trkpt>
      <trkpt lat="47.31572" lon="-2.4442">
        <ele>-17.39999961853</ele>
        <time>2022-09-22T09:20:34.000Z</time>
      </trkpt>
      <trkpt lat="47.31571" lon="-2.44411">
        <ele>-17.799999237061</ele>
        <time>2022-09-22T09:20:35.000Z</time>
      </trkpt>
      <trkpt lat="47.3157" lon="-2.44401">
        <ele>-18.200000762939</ele>
        <time>2022-09-22T09:20:36.000Z</time>
      </trkpt>
      <trkpt lat="47.31561" lon="-2.44344">
        <ele>-18.200000762939</ele>
        <time>2022-09-22T09:20:42.000Z</time>
      </trkpt>
      <trkpt lat="47.31551" lon="-2.44274">
        <ele>-18.200000762939</ele>
        <time>2022-09-22T09:20:50.000Z</time>
      </trkpt>
      <trkpt lat="47.31539" lon="-2.44212">
        <ele>-18.200000762939</ele>
        <time>2022-09-22T09:20:57.000Z</time>
      </trkpt>
      <trkpt lat="47.31522" lon="-2.44165">
        <ele>-18.200000762939</ele>
        <time>2022-09-22T09:21:03.000Z</time>
      </trkpt>
      <trkpt lat="47.31495" lon="-2.44124">
        <ele>-18.200000762939</ele>
        <time>2022-09-22T09:21:09.000Z</time>
      </trkpt>
      <trkpt lat="47.31457" lon="-2.44073">
        <ele>-18.200000762939</ele>
        <time>2022-09-22T09:21:17.000Z</time>
      </trkpt>
      <trkpt lat="47.31424" lon="-2.44031">
        <ele>-18.200000762939</ele>
        <time>2022-09-22T09:21:24.000Z</time>
      </trkpt>
      <trkpt lat="47.31387" lon="-2.43982">
        <ele>-18.200000762939</ele>
        <time>2022-09-22T09:21:32.000Z</time>
      </trkpt>
      <trkpt lat="47.31358" lon="-2.43933">
        <ele>-18.200000762939</ele>
        <time>2022-09-22T09:21:39.000Z</time>
      </trkpt>
      <trkpt lat="47.3133" lon="-2.4386">
        <ele>-18.200000762939</ele>
        <time>2022-09-22T09:21:48.000Z</time>
      </trkpt>
      <trkpt lat="47.31326" lon="-2.43852">
        <ele>-18.200000762939</ele>
        <time>2022-09-22T09:21:49.000Z</time>
      </trkpt>
      <trkpt lat="47.31319" lon="-2.43837">
        <ele>-18.200000762939</ele>
        <time>2022-09-22T09:21:51.000Z</time>
      </trkpt>
      <trkpt lat="47.31306" lon="-2.43818">
        <ele>-18.200000762939</ele>
        <time>2022-09-22T09:21:54.000Z</time>
      </trkpt>
      <trkpt lat="47.31302" lon="-2.43813">
        <ele>-18.200000762939</ele>
        <time>2022-09-22T09:21:55.000Z</time>
      </trkpt>
      <trkpt lat="47.3129" lon="-2.43793">
        <ele>-18.200000762939</ele>
        <time>2022-09-22T09:21:58.000Z</time>
      </trkpt>
      <trkpt lat="47.31283" lon="-2.43778">
        <ele>-18.200000762939</ele>
        <time>2022-09-22T09:22:00.000Z</time>
      </trkpt>
      <trkpt lat="47.31256" lon="-2.43708">
        <ele>-18.200000762939</ele>
        <time>2022-09-22T09:22:09.000Z</time>
      </trkpt>
      <trkpt lat="47.31238" lon="-2.4364">
        <ele>-18.200000762939</ele>
        <time>2022-09-22T09:22:17.000Z</time>
      </trkpt>
      <trkpt lat="47.31227" lon="-2.4357">
        <ele>-18.200000762939</ele>
        <time>2022-09-22T09:22:25.000Z</time>
      </trkpt>
      <trkpt lat="47.31215" lon="-2.43492">
        <ele>-18.200000762939</ele>
        <time>2022-09-22T09:22:34.000Z</time>
      </trkpt>
      <trkpt lat="47.31205" lon="-2.43422">
        <ele>-18.200000762939</ele>
        <time>2022-09-22T09:22:42.000Z</time>
      </trkpt>
      <trkpt lat="47.31192" lon="-2.43344">
        <ele>-18.200000762939</ele>
        <time>2022-09-22T09:22:51.000Z</time>
      </trkpt>
      <trkpt lat="47.3119" lon="-2.43335">
        <ele>-18.200000762939</ele>
        <time>2022-09-22T09:22:52.000Z</time>
      </trkpt>
      <trkpt lat="47.31175" lon="-2.43296">
        <ele>-18.200000762939</ele>
        <time>2022-09-22T09:22:57.000Z</time>
      </trkpt>
      <trkpt lat="47.31171" lon="-2.43289">
        <ele>-17.799999237061</ele>
        <time>2022-09-22T09:22:58.000Z</time>
      </trkpt>
      <trkpt lat="47.31167" lon="-2.43282">
        <ele>-17.39999961853</ele>
        <time>2022-09-22T09:22:59.000Z</time>
      </trkpt>
      <trkpt lat="47.31162" lon="-2.43275">
        <ele>-17</ele>
        <time>2022-09-22T09:23:00.000Z</time>
      </trkpt>
      <trkpt lat="47.31158" lon="-2.43268">
        <ele>-16.60000038147</ele>
        <time>2022-09-22T09:23:01.000Z</time>
      </trkpt>
      <trkpt lat="47.31154" lon="-2.43261">
        <ele>-16.200000762939</ele>
        <time>2022-09-22T09:23:02.000Z</time>
      </trkpt>
      <trkpt lat="47.31137" lon="-2.43235">
        <ele>-16.200000762939</ele>
        <time>2022-09-22T09:23:06.000Z</time>
      </trkpt>
      <trkpt lat="47.31112" lon="-2.43197">
        <ele>-16.200000762939</ele>
        <time>2022-09-22T09:23:12.000Z</time>
      </trkpt>
      <trkpt lat="47.31101" lon="-2.43196">
        <ele>-16.200000762939</ele>
        <time>2022-09-22T09:23:14.000Z</time>
      </trkpt>
      <trkpt lat="47.31084" lon="-2.43209">
        <ele>-16.200000762939</ele>
        <time>2022-09-22T09:23:17.000Z</time>
      </trkpt>
      <trkpt lat="47.31055" lon="-2.43234">
        <ele>-16.200000762939</ele>
        <time>2022-09-22T09:23:22.000Z</time>
      </trkpt>
      <trkpt lat="47.3105" lon="-2.4324">
        <ele>-16.200000762939</ele>
        <time>2022-09-22T09:23:23.000Z</time>
      </trkpt>
      <trkpt lat="47.31011" lon="-2.43291">
        <ele>-16.200000762939</ele>
        <time>2022-09-22T09:23:30.000Z</time>
      </trkpt>
      <trkpt lat="47.30999" lon="-2.43303">
        <ele>-16.200000762939</ele>
        <time>2022-09-22T09:23:32.000Z</time>
      </trkpt>
      <trkpt lat="47.30986" lon="-2.43313">
        <ele>-16.200000762939</ele>
        <time>2022-09-22T09:23:34.000Z</time>
      </trkpt>
      <trkpt lat="47.30972" lon="-2.4332">
        <ele>-16.200000762939</ele>
        <time>2022-09-22T09:23:36.000Z</time>
      </trkpt>
      <trkpt lat="47.30943" lon="-2.43331">
        <ele>-16.200000762939</ele>
        <time>2022-09-22T09:23:40.000Z</time>
      </trkpt>
      <trkpt lat="47.30908" lon="-2.43346">
        <ele>-17</ele>
        <time>2022-09-22T09:23:45.000Z</time>
      </trkpt>
      <trkpt lat="47.30901" lon="-2.43349">
        <ele>-17.39999961853</ele>
        <time>2022-09-22T09:23:46.000Z</time>
      </trkpt>
      <trkpt lat="47.30894" lon="-2.43352">
        <ele>-17.799999237061</ele>
        <time>2022-09-22T09:23:47.000Z</time>
      </trkpt>
      <trkpt lat="47.30887" lon="-2.43355">
        <ele>-18.200000762939</ele>
        <time>2022-09-22T09:23:48.000Z</time>
      </trkpt>
      <trkpt lat="47.30851" lon="-2.4337">
        <ele>-18.200000762939</ele>
        <time>2022-09-22T09:23:53.000Z</time>
      </trkpt>
      <trkpt lat="47.30808" lon="-2.43387">
        <ele>-18.200000762939</ele>
        <time>2022-09-22T09:23:59.000Z</time>
      </trkpt>
      <trkpt lat="47.30801" lon="-2.43389">
        <ele>-18.200000762939</ele>
        <time>2022-09-22T09:24:00.000Z</time>
      </trkpt>
      <trkpt lat="47.30779" lon="-2.43389">
        <ele>-18.200000762939</ele>
        <time>2022-09-22T09:24:03.000Z</time>
      </trkpt>
      <trkpt lat="47.30737" lon="-2.4339">
        <ele>-18.200000762939</ele>
        <time>2022-09-22T09:24:09.000Z</time>
      </trkpt>
      <trkpt lat="47.30692" lon="-2.43393">
        <ele>-18.200000762939</ele>
        <time>2022-09-22T09:24:16.000Z</time>
      </trkpt>
      <trkpt lat="47.30654" lon="-2.43403">
        <ele>-18.200000762939</ele>
        <time>2022-09-22T09:24:22.000Z</time>
      </trkpt>
      <trkpt lat="47.30616" lon="-2.43412">
        <ele>-18.200000762939</ele>
        <time>2022-09-22T09:24:28.000Z</time>
      </trkpt>
      <trkpt lat="47.30562" lon="-2.43424">
        <ele>-18.200000762939</ele>
        <time>2022-09-22T09:24:36.000Z</time>
      </trkpt>
      <trkpt lat="47.30549" lon="-2.43423">
        <ele>-18.200000762939</ele>
        <time>2022-09-22T09:24:38.000Z</time>
      </trkpt>
      <trkpt lat="47.30528" lon="-2.4342">
        <ele>-18.200000762939</ele>
        <time>2022-09-22T09:24:41.000Z</time>
      </trkpt>
      <trkpt lat="47.30481" lon="-2.43414">
        <ele>-18.200000762939</ele>
        <time>2022-09-22T09:24:48.000Z</time>
      </trkpt>
      <trkpt lat="47.30468" lon="-2.43414">
        <ele>-18.200000762939</ele>
        <time>2022-09-22T09:24:50.000Z</time>
      </trkpt>
      <trkpt lat="47.30455" lon="-2.43419">
        <ele>-18.200000762939</ele>
        <time>2022-09-22T09:24:52.000Z</time>
      </trkpt>
      <trkpt lat="47.30442" lon="-2.43423">
        <ele>-18.200000762939</ele>
        <time>2022-09-22T09:24:54.000Z</time>
      </trkpt>
      <trkpt lat="47.30435" lon="-2.4342">
        <ele>-18.200000762939</ele>
        <time>2022-09-22T09:24:55.000Z</time>
      </trkpt>
      <trkpt lat="47.30426" lon="-2.43407">
        <ele>-18.200000762939</ele>
        <time>2022-09-22T09:24:57.000Z</time>
      </trkpt>
      <trkpt lat="47.3042" lon="-2.4338">
        <ele>-18.200000762939</ele>
        <time>2022-09-22T09:25:00.000Z</time>
      </trkpt>
      <trkpt lat="47.30418" lon="-2.43371">
        <ele>-18.200000762939</ele>
        <time>2022-09-22T09:25:01.000Z</time>
      </trkpt>
      <trkpt lat="47.30409" lon="-2.43323">
        <ele>-18.200000762939</ele>
        <time>2022-09-22T09:25:07.000Z</time>
      </trkpt>
      <trkpt lat="47.30395" lon="-2.43266">
        <ele>-18.200000762939</ele>
        <time>2022-09-22T09:25:14.000Z</time>
      </trkpt>
      <trkpt lat="47.3039" lon="-2.43251">
        <ele>-18.200000762939</ele>
        <time>2022-09-22T09:25:16.000Z</time>
      </trkpt>
      <trkpt lat="47.30381" lon="-2.43241">
        <ele>-18.200000762939</ele>
        <time>2022-09-22T09:25:18.000Z</time>
      </trkpt>
      <trkpt lat="47.30363" lon="-2.43238">
        <ele>-18.200000762939</ele>
        <time>2022-09-22T09:25:21.000Z</time>
      </trkpt>
      <trkpt lat="47.30331" lon="-2.43246">
        <ele>-18.200000762939</ele>
        <time>2022-09-22T09:25:26.000Z</time>
      </trkpt>
      <trkpt lat="47.30325" lon="-2.43247">
        <ele>-18.200000762939</ele>
        <time>2022-09-22T09:25:27.000Z</time>
      </trkpt>
      <trkpt lat="47.30305" lon="-2.43251">
        <ele>-18.200000762939</ele>
        <time>2022-09-22T09:25:30.000Z</time>
      </trkpt>
      <trkpt lat="47.30291" lon="-2.43254">
        <ele>-18.200000762939</ele>
        <time>2022-09-22T09:25:32.000Z</time>
      </trkpt>
      <trkpt lat="47.30258" lon="-2.43265">
        <ele>-18.200000762939</ele>
        <time>2022-09-22T09:25:37.000Z</time>
      </trkpt>
      <trkpt lat="47.30245" lon="-2.43271">
        <ele>-18.200000762939</ele>
        <time>2022-09-22T09:25:39.000Z</time>
      </trkpt>
      <trkpt lat="47.30192" lon="-2.43294">
        <ele>-18.200000762939</ele>
        <time>2022-09-22T09:25:47.000Z</time>
      </trkpt>
      <trkpt lat="47.3015" lon="-2.43312">
        <ele>-18.200000762939</ele>
        <time>2022-09-22T09:25:53.000Z</time>
      </trkpt>
      <trkpt lat="47.30107" lon="-2.43323">
        <ele>-18.200000762939</ele>
        <time>2022-09-22T09:25:59.000Z</time>
      </trkpt>
      <trkpt lat="47.30073" lon="-2.43332">
        <ele>-18.200000762939</ele>
        <time>2022-09-22T09:26:04.000Z</time>
      </trkpt>
      <trkpt lat="47.30032" lon="-2.43335">
        <ele>-18.200000762939</ele>
        <time>2022-09-22T09:26:10.000Z</time>
      </trkpt>
      <trkpt lat="47.3002" lon="-2.43332">
        <ele>-18.200000762939</ele>
        <time>2022-09-22T09:26:12.000Z</time>
      </trkpt>
      <trkpt lat="47.30002" lon="-2.43322">
        <ele>-18.200000762939</ele>
        <time>2022-09-22T09:26:15.000Z</time>
      </trkpt>
      <trkpt lat="47.29991" lon="-2.43312">
        <ele>-18.200000762939</ele>
        <time>2022-09-22T09:26:17.000Z</time>
      </trkpt>
      <trkpt lat="47.29981" lon="-2.43302">
        <ele>-18.200000762939</ele>
        <time>2022-09-22T09:26:19.000Z</time>
      </trkpt>
      <trkpt lat="47.29976" lon="-2.43298">
        <ele>-18.200000762939</ele>
        <time>2022-09-22T09:26:20.000Z</time>
      </trkpt>
      <trkpt lat="47.29951" lon="-2.43298">
        <ele>-18.200000762939</ele>
        <time>2022-09-22T09:26:24.000Z</time>
      </trkpt>
      <trkpt lat="47.29935" lon="-2.43305">
        <ele>-18.200000762939</ele>
        <time>2022-09-22T09:26:27.000Z</time>
      </trkpt>
      <trkpt lat="47.29919" lon="-2.43311">
        <ele>-18.200000762939</ele>
        <time>2022-09-22T09:26:30.000Z</time>
      </trkpt>
      <trkpt lat="47.29914" lon="-2.43312">
        <ele>-18.200000762939</ele>
        <time>2022-09-22T09:26:31.000Z</time>
      </trkpt>
      <trkpt lat="47.29902" lon="-2.43312">
        <ele>-18.200000762939</ele>
        <time>2022-09-22T09:26:34.000Z</time>
      </trkpt>
      <trkpt lat="47.29895" lon="-2.43315">
        <ele>-18.200000762939</ele>
        <time>2022-09-22T09:26:36.000Z</time>
      </trkpt>
      <trkpt lat="47.29889" lon="-2.43318">
        <ele>-18.200000762939</ele>
        <time>2022-09-22T09:26:38.000Z</time>
      </trkpt>
      <trkpt lat="47.29879" lon="-2.43318">
        <ele>-18.200000762939</ele>
        <time>2022-09-22T09:26:43.000Z</time>
      </trkpt>
      <trkpt lat="47.29874" lon="-2.43305">
        <ele>-18.200000762939</ele>
        <time>2022-09-22T09:26:48.000Z</time>
      </trkpt>
      <trkpt lat="47.29868" lon="-2.43292">
        <ele>-18.200000762939</ele>
        <time>2022-09-22T09:26:51.000Z</time>
      </trkpt>
      <trkpt lat="47.29862" lon="-2.4328">
        <ele>-18.200000762939</ele>
        <time>2022-09-22T09:26:53.000Z</time>
      </trkpt>
      <trkpt lat="47.29843" lon="-2.43239">
        <ele>-18.200000762939</ele>
        <time>2022-09-22T09:27:00.000Z</time>
      </trkpt>
      <trkpt lat="47.29832" lon="-2.43216">
        <ele>-18.200000762939</ele>
        <time>2022-09-22T09:27:04.000Z</time>
      </trkpt>
      <trkpt lat="47.2982" lon="-2.43203">
        <ele>-18.200000762939</ele>
        <time>2022-09-22T09:27:07.000Z</time>
      </trkpt>
      <trkpt lat="47.29804" lon="-2.43187">
        <ele>-18.200000762939</ele>
        <time>2022-09-22T09:27:11.000Z</time>
      </trkpt>
      <trkpt lat="47.298" lon="-2.43186">
        <ele>-18.200000762939</ele>
        <time>2022-09-22T09:27:12.000Z</time>
      </trkpt>
      <trkpt lat="47.29786" lon="-2.43187">
        <ele>-18.200000762939</ele>
        <time>2022-09-22T09:27:15.000Z</time>
      </trkpt>
      <trkpt lat="47.29781" lon="-2.43188">
        <ele>-18.200000762939</ele>
        <time>2022-09-22T09:27:16.000Z</time>
      </trkpt>
      <trkpt lat="47.29742" lon="-2.43199">
        <ele>-18.200000762939</ele>
        <time>2022-09-22T09:27:23.000Z</time>
      </trkpt>
      <trkpt lat="47.29696" lon="-2.43213">
        <ele>-18.200000762939</ele>
        <time>2022-09-22T09:27:31.000Z</time>
      </trkpt>
      <trkpt lat="47.29653" lon="-2.43226">
        <ele>-18.200000762939</ele>
        <time>2022-09-22T09:27:38.000Z</time>
      </trkpt>
      <trkpt lat="47.29612" lon="-2.4324">
        <ele>-18.200000762939</ele>
        <time>2022-09-22T09:27:45.000Z</time>
      </trkpt>
      <trkpt lat="47.29582" lon="-2.43256">
        <ele>-18.200000762939</ele>
        <time>2022-09-22T09:27:51.000Z</time>
      </trkpt>
      <trkpt lat="47.29569" lon="-2.43268">
        <ele>-18.200000762939</ele>
        <time>2022-09-22T09:27:54.000Z</time>
      </trkpt>
      <trkpt lat="47.29566" lon="-2.43274">
        <ele>-17.799999237061</ele>
        <time>2022-09-22T09:27:55.000Z</time>
      </trkpt>
      <trkpt lat="47.29563" lon="-2.43279">
        <ele>-17.39999961853</ele>
        <time>2022-09-22T09:27:56.000Z</time>
      </trkpt>
      <trkpt lat="47.29559" lon="-2.43284">
        <ele>-17</ele>
        <time>2022-09-22T09:27:57.000Z</time>
      </trkpt>
      <trkpt lat="47.29555" lon="-2.43289">
        <ele>-16.60000038147</ele>
        <time>2022-09-22T09:27:58.000Z</time>
      </trkpt>
      <trkpt lat="47.29552" lon="-2.43295">
        <ele>-16.200000762939</ele>
        <time>2022-09-22T09:27:59.000Z</time>
      </trkpt>
      <trkpt lat="47.29535" lon="-2.43324">
        <ele>-16.200000762939</ele>
        <time>2022-09-22T09:28:04.000Z</time>
      </trkpt>
      <trkpt lat="47.29515" lon="-2.43359">
        <ele>-16.200000762939</ele>
        <time>2022-09-22T09:28:11.000Z</time>
      </trkpt>
      <trkpt lat="47.29495" lon="-2.43396">
        <ele>-16.200000762939</ele>
        <time>2022-09-22T09:28:18.000Z</time>
      </trkpt>
      <trkpt lat="47.29471" lon="-2.43442">
        <ele>-16.200000762939</ele>
        <time>2022-09-22T09:28:26.000Z</time>
      </trkpt>
      <trkpt lat="47.29458" lon="-2.43466">
        <ele>-16.200000762939</ele>
        <time>2022-09-22T09:28:31.000Z</time>
      </trkpt>
      <trkpt lat="47.29457" lon="-2.43466">
        <ele>-16.200000762939</ele>
        <time>2022-09-22T09:28:32.000Z</time>
      </trkpt>
      <trkpt lat="47.29448" lon="-2.43463">
        <ele>-16.200000762939</ele>
        <time>2022-09-22T09:28:39.000Z</time>
      </trkpt>
      <trkpt lat="47.29443" lon="-2.43447">
        <ele>-16.200000762939</ele>
        <time>2022-09-22T09:28:46.000Z</time>
      </trkpt>
      <trkpt lat="47.29442" lon="-2.43444">
        <ele>-16.200000762939</ele>
        <time>2022-09-22T09:28:47.000Z</time>
      </trkpt>
      <trkpt lat="47.29438" lon="-2.43433">
        <ele>-16.200000762939</ele>
        <time>2022-09-22T09:28:50.000Z</time>
      </trkpt>
      <trkpt lat="47.29437" lon="-2.43428">
        <ele>-16.200000762939</ele>
        <time>2022-09-22T09:28:51.000Z</time>
      </trkpt>
      <trkpt lat="47.29436" lon="-2.43416">
        <ele>-16.200000762939</ele>
        <time>2022-09-22T09:28:53.000Z</time>
      </trkpt>
      <trkpt lat="47.29434" lon="-2.43402">
        <ele>-16.200000762939</ele>
        <time>2022-09-22T09:28:55.000Z</time>
      </trkpt>
      <trkpt lat="47.29424" lon="-2.43389">
        <ele>-16.200000762939</ele>
        <time>2022-09-22T09:28:58.000Z</time>
      </trkpt>
      <trkpt lat="47.29416" lon="-2.43388">
        <ele>-16.200000762939</ele>
        <time>2022-09-22T09:29:00.000Z</time>
      </trkpt>
      <trkpt lat="47.29412" lon="-2.43385">
        <ele>-16.200000762939</ele>
        <time>2022-09-22T09:29:01.000Z</time>
      </trkpt>
      <trkpt lat="47.29409" lon="-2.43369">
        <ele>-16.200000762939</ele>
        <time>2022-09-22T09:29:04.000Z</time>
      </trkpt>
      <trkpt lat="47.29408" lon="-2.43363">
        <ele>-16.200000762939</ele>
        <time>2022-09-22T09:29:05.000Z</time>
      </trkpt>
      <trkpt lat="47.29407" lon="-2.43356">
        <ele>-16.200000762939</ele>
        <time>2022-09-22T09:29:06.000Z</time>
      </trkpt>
      <trkpt lat="47.29402" lon="-2.43347">
        <ele>-16.200000762939</ele>
        <time>2022-09-22T09:29:08.000Z</time>
      </trkpt>
      <trkpt lat="47.29386" lon="-2.43324">
        <ele>-16.200000762939</ele>
        <time>2022-09-22T09:29:14.000Z</time>
      </trkpt>
      <trkpt lat="47.2937" lon="-2.43304">
        <ele>-16.200000762939</ele>
        <time>2022-09-22T09:29:19.000Z</time>
      </trkpt>
      <trkpt lat="47.2936" lon="-2.43277">
        <ele>-16.200000762939</ele>
        <time>2022-09-22T09:29:24.000Z</time>
      </trkpt>
      <trkpt lat="47.2936" lon="-2.43264">
        <ele>-16.200000762939</ele>
        <time>2022-09-22T09:29:26.000Z</time>
      </trkpt>
      <trkpt lat="47.29359" lon="-2.43251">
        <ele>-16.200000762939</ele>
        <time>2022-09-22T09:29:28.000Z</time>
      </trkpt>
      <trkpt lat="47.29362" lon="-2.43237">
        <ele>-16.200000762939</ele>
        <time>2022-09-22T09:29:30.000Z</time>
      </trkpt>
      <trkpt lat="47.29372" lon="-2.43213">
        <ele>-16.200000762939</ele>
        <time>2022-09-22T09:29:34.000Z</time>
      </trkpt>
      <trkpt lat="47.29373" lon="-2.43183">
        <ele>-16.200000762939</ele>
        <time>2022-09-22T09:29:38.000Z</time>
      </trkpt>
      <trkpt lat="47.2937" lon="-2.43167">
        <ele>-16.200000762939</ele>
        <time>2022-09-22T09:29:40.000Z</time>
      </trkpt>
      <trkpt lat="47.29368" lon="-2.43159">
        <ele>-16.200000762939</ele>
        <time>2022-09-22T09:29:41.000Z</time>
      </trkpt>
      <trkpt lat="47.29364" lon="-2.43143">
        <ele>-16.200000762939</ele>
        <time>2022-09-22T09:29:43.000Z</time>
      </trkpt>
      <trkpt lat="47.29358" lon="-2.43129">
        <ele>-16.200000762939</ele>
        <time>2022-09-22T09:29:45.000Z</time>
      </trkpt>
      <trkpt lat="47.29346" lon="-2.43103">
        <ele>-16.200000762939</ele>
        <time>2022-09-22T09:29:49.000Z</time>
      </trkpt>
      <trkpt lat="47.29343" lon="-2.43096">
        <ele>-16.200000762939</ele>
        <time>2022-09-22T09:29:50.000Z</time>
      </trkpt>
      <trkpt lat="47.29329" lon="-2.43083">
        <ele>-16.200000762939</ele>
        <time>2022-09-22T09:29:53.000Z</time>
      </trkpt>
      <trkpt lat="47.29314" lon="-2.43073">
        <ele>-16.200000762939</ele>
        <time>2022-09-22T09:29:56.000Z</time>
      </trkpt>
      <trkpt lat="47.29306" lon="-2.43064">
        <ele>-16.200000762939</ele>
        <time>2022-09-22T09:29:58.000Z</time>
      </trkpt>
      <trkpt lat="47.29304" lon="-2.43041">
        <ele>-16.200000762939</ele>
        <time>2022-09-22T09:30:01.000Z</time>
      </trkpt>
      <trkpt lat="47.29306" lon="-2.43025">
        <ele>-16.200000762939</ele>
        <time>2022-09-22T09:30:03.000Z</time>
      </trkpt>
      <trkpt lat="47.29308" lon="-2.4301">
        <ele>-16.200000762939</ele>
        <time>2022-09-22T09:30:05.000Z</time>
      </trkpt>
      <trkpt lat="47.2931" lon="-2.43002">
        <ele>-16.200000762939</ele>
        <time>2022-09-22T09:30:06.000Z</time>
      </trkpt>
      <trkpt lat="47.29312" lon="-2.42964">
        <ele>-16.200000762939</ele>
        <time>2022-09-22T09:30:11.000Z</time>
      </trkpt>
      <trkpt lat="47.29312" lon="-2.42955">
        <ele>-16.200000762939</ele>
        <time>2022-09-22T09:30:12.000Z</time>
      </trkpt>
      <trkpt lat="47.29311" lon="-2.42938">
        <ele>-16.200000762939</ele>
        <time>2022-09-22T09:30:14.000Z</time>
      </trkpt>
      <trkpt lat="47.29312" lon="-2.4293">
        <ele>-16.200000762939</ele>
        <time>2022-09-22T09:30:15.000Z</time>
      </trkpt>
      <trkpt lat="47.29322" lon="-2.42881">
        <ele>-16.200000762939</ele>
        <time>2022-09-22T09:30:21.000Z</time>
      </trkpt>
      <trkpt lat="47.29327" lon="-2.42866">
        <ele>-16.200000762939</ele>
        <time>2022-09-22T09:30:23.000Z</time>
      </trkpt>
      <trkpt lat="47.29333" lon="-2.42851">
        <ele>-16.200000762939</ele>
        <time>2022-09-22T09:30:25.000Z</time>
      </trkpt>
      <trkpt lat="47.29337" lon="-2.42844">
        <ele>-16.200000762939</ele>
        <time>2022-09-22T09:30:26.000Z</time>
      </trkpt>
      <trkpt lat="47.29353" lon="-2.42819">
        <ele>-16.200000762939</ele>
        <time>2022-09-22T09:30:30.000Z</time>
      </trkpt>
      <trkpt lat="47.29358" lon="-2.42815">
        <ele>-16.200000762939</ele>
        <time>2022-09-22T09:30:31.000Z</time>
      </trkpt>
      <trkpt lat="47.29374" lon="-2.42794">
        <ele>-16.200000762939</ele>
        <time>2022-09-22T09:30:35.000Z</time>
      </trkpt>
      <trkpt lat="47.29378" lon="-2.42778">
        <ele>-16.200000762939</ele>
        <time>2022-09-22T09:30:37.000Z</time>
      </trkpt>
      <trkpt lat="47.29381" lon="-2.42762">
        <ele>-16.200000762939</ele>
        <time>2022-09-22T09:30:39.000Z</time>
      </trkpt>
      <trkpt lat="47.29386" lon="-2.42747">
        <ele>-16.200000762939</ele>
        <time>2022-09-22T09:30:41.000Z</time>
      </trkpt>
      <trkpt lat="47.29394" lon="-2.42724">
        <ele>-16.200000762939</ele>
        <time>2022-09-22T09:30:44.000Z</time>
      </trkpt>
      <trkpt lat="47.29399" lon="-2.42708">
        <ele>-16.200000762939</ele>
        <time>2022-09-22T09:30:46.000Z</time>
      </trkpt>
      <trkpt lat="47.29408" lon="-2.42687">
        <ele>-16.200000762939</ele>
        <time>2022-09-22T09:30:49.000Z</time>
      </trkpt>
      <trkpt lat="47.29411" lon="-2.42679">
        <ele>-16.200000762939</ele>
        <time>2022-09-22T09:30:50.000Z</time>
      </trkpt>
      <trkpt lat="47.29415" lon="-2.42653">
        <ele>-16.200000762939</ele>
        <time>2022-09-22T09:30:53.000Z</time>
      </trkpt>
      <trkpt lat="47.29419" lon="-2.42608">
        <ele>-16.200000762939</ele>
        <time>2022-09-22T09:30:58.000Z</time>
      </trkpt>
      <trkpt lat="47.29419" lon="-2.42599">
        <ele>-16.200000762939</ele>
        <time>2022-09-22T09:30:59.000Z</time>
      </trkpt>
      <trkpt lat="47.29428" lon="-2.42576">
        <ele>-16.200000762939</ele>
        <time>2022-09-22T09:31:02.000Z</time>
      </trkpt>
      <trkpt lat="47.29443" lon="-2.4256">
        <ele>-16.200000762939</ele>
        <time>2022-09-22T09:31:05.000Z</time>
      </trkpt>
      <trkpt lat="47.29452" lon="-2.42551">
        <ele>-16.200000762939</ele>
        <time>2022-09-22T09:31:07.000Z</time>
      </trkpt>
      <trkpt lat="47.29466" lon="-2.42537">
        <ele>-16.200000762939</ele>
        <time>2022-09-22T09:31:10.000Z</time>
      </trkpt>
      <trkpt lat="47.29475" lon="-2.42527">
        <ele>-16.200000762939</ele>
        <time>2022-09-22T09:31:12.000Z</time>
      </trkpt>
      <trkpt lat="47.29493" lon="-2.42508">
        <ele>-16.200000762939</ele>
        <time>2022-09-22T09:31:16.000Z</time>
      </trkpt>
      <trkpt lat="47.29502" lon="-2.42498">
        <ele>-16.200000762939</ele>
        <time>2022-09-22T09:31:18.000Z</time>
      </trkpt>
      <trkpt lat="47.29516" lon="-2.42483">
        <ele>-16.200000762939</ele>
        <time>2022-09-22T09:31:21.000Z</time>
      </trkpt>
      <trkpt lat="47.29539" lon="-2.42461">
        <ele>-16.200000762939</ele>
        <time>2022-09-22T09:31:26.000Z</time>
      </trkpt>
      <trkpt lat="47.29542" lon="-2.42454">
        <ele>-16.200000762939</ele>
        <time>2022-09-22T09:31:27.000Z</time>
      </trkpt>
      <trkpt lat="47.29552" lon="-2.42437">
        <ele>-16.200000762939</ele>
        <time>2022-09-22T09:31:30.000Z</time>
      </trkpt>
      <trkpt lat="47.29556" lon="-2.42433">
        <ele>-16.200000762939</ele>
        <time>2022-09-22T09:31:31.000Z</time>
      </trkpt>
      <trkpt lat="47.2957" lon="-2.42425">
        <ele>-16.200000762939</ele>
        <time>2022-09-22T09:31:34.000Z</time>
      </trkpt>
      <trkpt lat="47.2958" lon="-2.42424">
        <ele>-16.200000762939</ele>
        <time>2022-09-22T09:31:36.000Z</time>
      </trkpt>
      <trkpt lat="47.29585" lon="-2.42425">
        <ele>-16.60000038147</ele>
        <time>2022-09-22T09:31:37.000Z</time>
      </trkpt>
      <trkpt lat="47.2959" lon="-2.42426">
        <ele>-17</ele>
        <time>2022-09-22T09:31:38.000Z</time>
      </trkpt>
      <trkpt lat="47.29594" lon="-2.42428">
        <ele>-17.39999961853</ele>
        <time>2022-09-22T09:31:39.000Z</time>
      </trkpt>
      <trkpt lat="47.29599" lon="-2.42429">
        <ele>-17.799999237061</ele>
        <time>2022-09-22T09:31:40.000Z</time>
      </trkpt>
      <trkpt lat="47.29603" lon="-2.42431">
        <ele>-18.200000762939</ele>
        <time>2022-09-22T09:31:41.000Z</time>
      </trkpt>
      <trkpt lat="47.29608" lon="-2.42433">
        <ele>-18.200000762939</ele>
        <time>2022-09-22T09:31:42.000Z</time>
      </trkpt>
      <trkpt lat="47.29622" lon="-2.42433">
        <ele>-18.200000762939</ele>
        <time>2022-09-22T09:31:46.000Z</time>
      </trkpt>
      <trkpt lat="47.29627" lon="-2.42415">
        <ele>-18.200000762939</ele>
        <time>2022-09-22T09:31:49.000Z</time>
      </trkpt>
      <trkpt lat="47.29628" lon="-2.42407">
        <ele>-18.200000762939</ele>
        <time>2022-09-22T09:31:50.000Z</time>
      </trkpt>
      <trkpt lat="47.29637" lon="-2.42367">
        <ele>-18.200000762939</ele>
        <time>2022-09-22T09:31:55.000Z</time>
      </trkpt>
      <trkpt lat="47.29651" lon="-2.42303">
        <ele>-18.200000762939</ele>
        <time>2022-09-22T09:32:03.000Z</time>
      </trkpt>
      <trkpt lat="47.29667" lon="-2.42237">
        <ele>-18.200000762939</ele>
        <time>2022-09-22T09:32:12.000Z</time>
      </trkpt>
      <trkpt lat="47.29683" lon="-2.42204">
        <ele>-18.200000762939</ele>
        <time>2022-09-22T09:32:17.000Z</time>
      </trkpt>
      <trkpt lat="47.29705" lon="-2.42163">
        <ele>-18.200000762939</ele>
        <time>2022-09-22T09:32:23.000Z</time>
      </trkpt>
      <trkpt lat="47.29742" lon="-2.42098">
        <ele>-18.200000762939</ele>
        <time>2022-09-22T09:32:33.000Z</time>
      </trkpt>
      <trkpt lat="47.29772" lon="-2.42044">
        <ele>-18.200000762939</ele>
        <time>2022-09-22T09:32:41.000Z</time>
      </trkpt>
      <trkpt lat="47.29783" lon="-2.42021">
        <ele>-18.200000762939</ele>
        <time>2022-09-22T09:32:44.000Z</time>
      </trkpt>
      <trkpt lat="47.29786" lon="-2.42002">
        <ele>-18.200000762939</ele>
        <time>2022-09-22T09:32:46.000Z</time>
      </trkpt>
      <trkpt lat="47.29782" lon="-2.41972">
        <ele>-18.200000762939</ele>
        <time>2022-09-22T09:32:49.000Z</time>
      </trkpt>
      <trkpt lat="47.2978" lon="-2.41963">
        <ele>-18.200000762939</ele>
        <time>2022-09-22T09:32:50.000Z</time>
      </trkpt>
      <trkpt lat="47.2977" lon="-2.41912">
        <ele>-18.200000762939</ele>
        <time>2022-09-22T09:32:56.000Z</time>
      </trkpt>
      <trkpt lat="47.29769" lon="-2.41904">
        <ele>-18.200000762939</ele>
        <time>2022-09-22T09:32:57.000Z</time>
      </trkpt>
      <trkpt lat="47.29766" lon="-2.41867">
        <ele>-18.200000762939</ele>
        <time>2022-09-22T09:33:02.000Z</time>
      </trkpt>
      <trkpt lat="47.29769" lon="-2.41817">
        <ele>-18.200000762939</ele>
        <time>2022-09-22T09:33:09.000Z</time>
      </trkpt>
      <trkpt lat="47.29768" lon="-2.41778">
        <ele>-18.200000762939</ele>
        <time>2022-09-22T09:33:15.000Z</time>
      </trkpt>
      <trkpt lat="47.29764" lon="-2.41753">
        <ele>-18.200000762939</ele>
        <time>2022-09-22T09:33:19.000Z</time>
      </trkpt>
      <trkpt lat="47.2976" lon="-2.41749">
        <ele>-18.200000762939</ele>
        <time>2022-09-22T09:33:20.000Z</time>
      </trkpt>
      <trkpt lat="47.29746" lon="-2.41752">
        <ele>-18.200000762939</ele>
        <time>2022-09-22T09:33:23.000Z</time>
      </trkpt>
      <trkpt lat="47.29741" lon="-2.41755">
        <ele>-18.200000762939</ele>
        <time>2022-09-22T09:33:24.000Z</time>
      </trkpt>
      <trkpt lat="47.29736" lon="-2.4176">
        <ele>-18.200000762939</ele>
        <time>2022-09-22T09:33:25.000Z</time>
      </trkpt>
      <trkpt lat="47.29728" lon="-2.4177">
        <ele>-18.200000762939</ele>
        <time>2022-09-22T09:33:27.000Z</time>
      </trkpt>
      <trkpt lat="47.29703" lon="-2.41808">
        <ele>-18.200000762939</ele>
        <time>2022-09-22T09:33:33.000Z</time>
      </trkpt>
      <trkpt lat="47.29698" lon="-2.41814">
        <ele>-18.200000762939</ele>
        <time>2022-09-22T09:33:34.000Z</time>
      </trkpt>
      <trkpt lat="47.29686" lon="-2.41822">
        <ele>-18.200000762939</ele>
        <time>2022-09-22T09:33:36.000Z</time>
      </trkpt>
      <trkpt lat="47.29668" lon="-2.41824">
        <ele>-18.200000762939</ele>
        <time>2022-09-22T09:33:39.000Z</time>
      </trkpt>
      <trkpt lat="47.29662" lon="-2.41826">
        <ele>-18.200000762939</ele>
        <time>2022-09-22T09:33:40.000Z</time>
      </trkpt>
      <trkpt lat="47.2965" lon="-2.41826">
        <ele>-18.200000762939</ele>
        <time>2022-09-22T09:33:42.000Z</time>
      </trkpt>
      <trkpt lat="47.29645" lon="-2.41823">
        <ele>-18.200000762939</ele>
        <time>2022-09-22T09:33:43.000Z</time>
      </trkpt>
      <trkpt lat="47.29637" lon="-2.41801">
        <ele>-18.200000762939</ele>
        <time>2022-09-22T09:33:46.000Z</time>
      </trkpt>
      <trkpt lat="47.29636" lon="-2.41792">
        <ele>-18.200000762939</ele>
        <time>2022-09-22T09:33:47.000Z</time>
      </trkpt>
      <trkpt lat="47.29631" lon="-2.41776">
        <ele>-18.200000762939</ele>
        <time>2022-09-22T09:33:49.000Z</time>
      </trkpt>
      <trkpt lat="47.29623" lon="-2.41761">
        <ele>-18.200000762939</ele>
        <time>2022-09-22T09:33:51.000Z</time>
      </trkpt>
      <trkpt lat="47.29608" lon="-2.41742">
        <ele>-18.200000762939</ele>
        <time>2022-09-22T09:33:54.000Z</time>
      </trkpt>
      <trkpt lat="47.29598" lon="-2.41732">
        <ele>-18.200000762939</ele>
        <time>2022-09-22T09:33:56.000Z</time>
      </trkpt>
      <trkpt lat="47.29569" lon="-2.41713">
        <ele>-18.200000762939</ele>
        <time>2022-09-22T09:34:01.000Z</time>
      </trkpt>
      <trkpt lat="47.29563" lon="-2.41711">
        <ele>-18.200000762939</ele>
        <time>2022-09-22T09:34:02.000Z</time>
      </trkpt>
      <trkpt lat="47.29558" lon="-2.41706">
        <ele>-18.200000762939</ele>
        <time>2022-09-22T09:34:03.000Z</time>
      </trkpt>
      <trkpt lat="47.2955" lon="-2.41695">
        <ele>-18.200000762939</ele>
        <time>2022-09-22T09:34:05.000Z</time>
      </trkpt>
      <trkpt lat="47.2954" lon="-2.41674">
        <ele>-17.799999237061</ele>
        <time>2022-09-22T09:34:08.000Z</time>
      </trkpt>
      <trkpt lat="47.29537" lon="-2.41667">
        <ele>-17.39999961853</ele>
        <time>2022-09-22T09:34:09.000Z</time>
      </trkpt>
      <trkpt lat="47.29534" lon="-2.4166">
        <ele>-17</ele>
        <time>2022-09-22T09:34:10.000Z</time>
      </trkpt>
      <trkpt lat="47.29532" lon="-2.41651">
        <ele>-16.60000038147</ele>
        <time>2022-09-22T09:34:11.000Z</time>
      </trkpt>
      <trkpt lat="47.2953" lon="-2.41643">
        <ele>-16.200000762939</ele>
        <time>2022-09-22T09:34:12.000Z</time>
      </trkpt>
      <trkpt lat="47.29525" lon="-2.41616">
        <ele>-16.200000762939</ele>
        <time>2022-09-22T09:34:15.000Z</time>
      </trkpt>
      <trkpt lat="47.29525" lon="-2.41607">
        <ele>-16.200000762939</ele>
        <time>2022-09-22T09:34:16.000Z</time>
      </trkpt>
      <trkpt lat="47.29528" lon="-2.4158">
        <ele>-16.200000762939</ele>
        <time>2022-09-22T09:34:19.000Z</time>
      </trkpt>
      <trkpt lat="47.29534" lon="-2.41563">
        <ele>-16.200000762939</ele>
        <time>2022-09-22T09:34:21.000Z</time>
      </trkpt>
      <trkpt lat="47.29539" lon="-2.41539">
        <ele>-16.200000762939</ele>
        <time>2022-09-22T09:34:24.000Z</time>
      </trkpt>
      <trkpt lat="47.29533" lon="-2.41508">
        <ele>-16.200000762939</ele>
        <time>2022-09-22T09:34:28.000Z</time>
      </trkpt>
      <trkpt lat="47.29526" lon="-2.41494">
        <ele>-16.200000762939</ele>
        <time>2022-09-22T09:34:30.000Z</time>
      </trkpt>
      <trkpt lat="47.29517" lon="-2.41482">
        <ele>-16.200000762939</ele>
        <time>2022-09-22T09:34:32.000Z</time>
      </trkpt>
      <trkpt lat="47.29512" lon="-2.41478">
        <ele>-16.200000762939</ele>
        <time>2022-09-22T09:34:33.000Z</time>
      </trkpt>
      <trkpt lat="47.295" lon="-2.41479">
        <ele>-16.60000038147</ele>
        <time>2022-09-22T09:34:35.000Z</time>
      </trkpt>
      <trkpt lat="47.29495" lon="-2.41483">
        <ele>-17</ele>
        <time>2022-09-22T09:34:36.000Z</time>
      </trkpt>
      <trkpt lat="47.2949" lon="-2.41487">
        <ele>-17.39999961853</ele>
        <time>2022-09-22T09:34:37.000Z</time>
      </trkpt>
      <trkpt lat="47.29484" lon="-2.41489">
        <ele>-17.799999237061</ele>
        <time>2022-09-22T09:34:38.000Z</time>
      </trkpt>
      <trkpt lat="47.29478" lon="-2.41488">
        <ele>-18.39999961853</ele>
        <time>2022-09-22T09:34:39.000Z</time>
      </trkpt>
      <trkpt lat="47.2946" lon="-2.41485">
        <ele>-18.39999961853</ele>
        <time>2022-09-22T09:34:42.000Z</time>
      </trkpt>
      <trkpt lat="47.29453" lon="-2.41487">
        <ele>-18.39999961853</ele>
        <time>2022-09-22T09:34:43.000Z</time>
      </trkpt>
      <trkpt lat="47.29434" lon="-2.41487">
        <ele>-18.39999961853</ele>
        <time>2022-09-22T09:34:46.000Z</time>
      </trkpt>
      <trkpt lat="47.29428" lon="-2.41483">
        <ele>-18.39999961853</ele>
        <time>2022-09-22T09:34:47.000Z</time>
      </trkpt>
      <trkpt lat="47.29408" lon="-2.41459">
        <ele>-18.39999961853</ele>
        <time>2022-09-22T09:34:51.000Z</time>
      </trkpt>
      <trkpt lat="47.29389" lon="-2.4142">
        <ele>-18.39999961853</ele>
        <time>2022-09-22T09:34:56.000Z</time>
      </trkpt>
      <trkpt lat="47.29367" lon="-2.41376">
        <ele>-18.39999961853</ele>
        <time>2022-09-22T09:35:02.000Z</time>
      </trkpt>
      <trkpt lat="47.2935" lon="-2.41352">
        <ele>-18.39999961853</ele>
        <time>2022-09-22T09:35:06.000Z</time>
      </trkpt>
      <trkpt lat="47.29348" lon="-2.41345">
        <ele>-18.39999961853</ele>
        <time>2022-09-22T09:35:07.000Z</time>
      </trkpt>
      <trkpt lat="47.2935" lon="-2.41322">
        <ele>-18.39999961853</ele>
        <time>2022-09-22T09:35:10.000Z</time>
      </trkpt>
      <trkpt lat="47.29358" lon="-2.41303">
        <ele>-18.39999961853</ele>
        <time>2022-09-22T09:35:13.000Z</time>
      </trkpt>
      <trkpt lat="47.29357" lon="-2.41279">
        <ele>-18.39999961853</ele>
        <time>2022-09-22T09:35:16.000Z</time>
      </trkpt>
      <trkpt lat="47.29347" lon="-2.4124">
        <ele>-18.39999961853</ele>
        <time>2022-09-22T09:35:22.000Z</time>
      </trkpt>
      <trkpt lat="47.29332" lon="-2.41222">
        <ele>-18.39999961853</ele>
        <time>2022-09-22T09:35:25.000Z</time>
      </trkpt>
      <trkpt lat="47.29327" lon="-2.41216">
        <ele>-18.39999961853</ele>
        <time>2022-09-22T09:35:26.000Z</time>
      </trkpt>
      <trkpt lat="47.29304" lon="-2.41188">
        <ele>-18.39999961853</ele>
        <time>2022-09-22T09:35:31.000Z</time>
      </trkpt>
      <trkpt lat="47.29301" lon="-2.41181">
        <ele>-18.39999961853</ele>
        <time>2022-09-22T09:35:32.000Z</time>
      </trkpt>
      <trkpt lat="47.29294" lon="-2.4116">
        <ele>-18.39999961853</ele>
        <time>2022-09-22T09:35:35.000Z</time>
      </trkpt>
      <trkpt lat="47.2929" lon="-2.41153">
        <ele>-18.39999961853</ele>
        <time>2022-09-22T09:35:36.000Z</time>
      </trkpt>
      <trkpt lat="47.29274" lon="-2.41127">
        <ele>-18.39999961853</ele>
        <time>2022-09-22T09:35:40.000Z</time>
      </trkpt>
      <trkpt lat="47.29265" lon="-2.41115">
        <ele>-18.39999961853</ele>
        <time>2022-09-22T09:35:42.000Z</time>
      </trkpt>
      <trkpt lat="47.29256" lon="-2.41104">
        <ele>-18.39999961853</ele>
        <time>2022-09-22T09:35:44.000Z</time>
      </trkpt>
      <trkpt lat="47.29246" lon="-2.41084">
        <ele>-18.39999961853</ele>
        <time>2022-09-22T09:35:47.000Z</time>
      </trkpt>
      <trkpt lat="47.29247" lon="-2.41069">
        <ele>-18.39999961853</ele>
        <time>2022-09-22T09:35:49.000Z</time>
      </trkpt>
      <trkpt lat="47.29255" lon="-2.41048">
        <ele>-18.39999961853</ele>
        <time>2022-09-22T09:35:52.000Z</time>
      </trkpt>
      <trkpt lat="47.2925" lon="-2.41034">
        <ele>-18.39999961853</ele>
        <time>2022-09-22T09:35:54.000Z</time>
      </trkpt>
      <trkpt lat="47.29241" lon="-2.41023">
        <ele>-18.39999961853</ele>
        <time>2022-09-22T09:35:56.000Z</time>
      </trkpt>
      <trkpt lat="47.29237" lon="-2.41017">
        <ele>-18.39999961853</ele>
        <time>2022-09-22T09:35:57.000Z</time>
      </trkpt>
      <trkpt lat="47.29233" lon="-2.4101">
        <ele>-18.39999961853</ele>
        <time>2022-09-22T09:35:58.000Z</time>
      </trkpt>
      <trkpt lat="47.29222" lon="-2.40986">
        <ele>-18.39999961853</ele>
        <time>2022-09-22T09:36:01.000Z</time>
      </trkpt>
      <trkpt lat="47.29212" lon="-2.40962">
        <ele>-18.39999961853</ele>
        <time>2022-09-22T09:36:04.000Z</time>
      </trkpt>
      <trkpt lat="47.29195" lon="-2.40949">
        <ele>-18.39999961853</ele>
        <time>2022-09-22T09:36:07.000Z</time>
      </trkpt>
      <trkpt lat="47.29169" lon="-2.40939">
        <ele>-18.39999961853</ele>
        <time>2022-09-22T09:36:11.000Z</time>
      </trkpt>
      <trkpt lat="47.29162" lon="-2.40924">
        <ele>-18.39999961853</ele>
        <time>2022-09-22T09:36:13.000Z</time>
      </trkpt>
      <trkpt lat="47.29164" lon="-2.40899">
        <ele>-18.39999961853</ele>
        <time>2022-09-22T09:36:16.000Z</time>
      </trkpt>
      <trkpt lat="47.29169" lon="-2.40882">
        <ele>-18.39999961853</ele>
        <time>2022-09-22T09:36:18.000Z</time>
      </trkpt>
      <trkpt lat="47.29172" lon="-2.40864">
        <ele>-18.39999961853</ele>
        <time>2022-09-22T09:36:20.000Z</time>
      </trkpt>
      <trkpt lat="47.29172" lon="-2.40854">
        <ele>-18.39999961853</ele>
        <time>2022-09-22T09:36:21.000Z</time>
      </trkpt>
      <trkpt lat="47.29172" lon="-2.40815">
        <ele>-18.39999961853</ele>
        <time>2022-09-22T09:36:25.000Z</time>
      </trkpt>
      <trkpt lat="47.29179" lon="-2.4079">
        <ele>-18.39999961853</ele>
        <time>2022-09-22T09:36:28.000Z</time>
      </trkpt>
      <trkpt lat="47.29189" lon="-2.40767">
        <ele>-18.39999961853</ele>
        <time>2022-09-22T09:36:31.000Z</time>
      </trkpt>
      <trkpt lat="47.29195" lon="-2.40752">
        <ele>-18.39999961853</ele>
        <time>2022-09-22T09:36:33.000Z</time>
      </trkpt>
      <trkpt lat="47.29213" lon="-2.40725">
        <ele>-18.39999961853</ele>
        <time>2022-09-22T09:36:37.000Z</time>
      </trkpt>
      <trkpt lat="47.29228" lon="-2.40697">
        <ele>-18.39999961853</ele>
        <time>2022-09-22T09:36:41.000Z</time>
      </trkpt>
      <trkpt lat="47.29233" lon="-2.4068">
        <ele>-18.39999961853</ele>
        <time>2022-09-22T09:36:43.000Z</time>
      </trkpt>
      <trkpt lat="47.29229" lon="-2.4065">
        <ele>-18.39999961853</ele>
        <time>2022-09-22T09:36:46.000Z</time>
      </trkpt>
      <trkpt lat="47.29216" lon="-2.40625">
        <ele>-18.39999961853</ele>
        <time>2022-09-22T09:36:49.000Z</time>
      </trkpt>
      <trkpt lat="47.29211" lon="-2.40618">
        <ele>-18.39999961853</ele>
        <time>2022-09-22T09:36:50.000Z</time>
      </trkpt>
      <trkpt lat="47.29193" lon="-2.40612">
        <ele>-18.39999961853</ele>
        <time>2022-09-22T09:36:53.000Z</time>
      </trkpt>
      <trkpt lat="47.29182" lon="-2.40621">
        <ele>-18.39999961853</ele>
        <time>2022-09-22T09:36:55.000Z</time>
      </trkpt>
      <trkpt lat="47.29177" lon="-2.40625">
        <ele>-18.39999961853</ele>
        <time>2022-09-22T09:36:56.000Z</time>
      </trkpt>
      <trkpt lat="47.29149" lon="-2.40643">
        <ele>-18.39999961853</ele>
        <time>2022-09-22T09:37:01.000Z</time>
      </trkpt>
      <trkpt lat="47.29142" lon="-2.40635">
        <ele>-18.39999961853</ele>
        <time>2022-09-22T09:37:03.000Z</time>
      </trkpt>
      <trkpt lat="47.29141" lon="-2.40621">
        <ele>-18.39999961853</ele>
        <time>2022-09-22T09:37:05.000Z</time>
      </trkpt>
      <trkpt lat="47.2914" lon="-2.40612">
        <ele>-18.39999961853</ele>
        <time>2022-09-22T09:37:06.000Z</time>
      </trkpt>
      <trkpt lat="47.29129" lon="-2.40582">
        <ele>-18.39999961853</ele>
        <time>2022-09-22T09:37:10.000Z</time>
      </trkpt>
      <trkpt lat="47.29112" lon="-2.40559">
        <ele>-18.39999961853</ele>
        <time>2022-09-22T09:37:14.000Z</time>
      </trkpt>
      <trkpt lat="47.29107" lon="-2.40553">
        <ele>-18.39999961853</ele>
        <time>2022-09-22T09:37:15.000Z</time>
      </trkpt>
      <trkpt lat="47.291" lon="-2.40542">
        <ele>-18.39999961853</ele>
        <time>2022-09-22T09:37:17.000Z</time>
      </trkpt>
      <trkpt lat="47.29098" lon="-2.40533">
        <ele>-18.39999961853</ele>
        <time>2022-09-22T09:37:18.000Z</time>
      </trkpt>
      <trkpt lat="47.29106" lon="-2.4051">
        <ele>-18.39999961853</ele>
        <time>2022-09-22T09:37:21.000Z</time>
      </trkpt>
      <trkpt lat="47.2912" lon="-2.40498">
        <ele>-18.39999961853</ele>
        <time>2022-09-22T09:37:24.000Z</time>
      </trkpt>
      <trkpt lat="47.29132" lon="-2.40492">
        <ele>-18.39999961853</ele>
        <time>2022-09-22T09:37:26.000Z</time>
      </trkpt>
      <trkpt lat="47.29144" lon="-2.40487">
        <ele>-18.39999961853</ele>
        <time>2022-09-22T09:37:28.000Z</time>
      </trkpt>
      <trkpt lat="47.29149" lon="-2.40487">
        <ele>-18.39999961853</ele>
        <time>2022-09-22T09:37:29.000Z</time>
      </trkpt>
      <trkpt lat="47.29164" lon="-2.405">
        <ele>-18.39999961853</ele>
        <time>2022-09-22T09:37:32.000Z</time>
      </trkpt>
      <trkpt lat="47.29173" lon="-2.4052">
        <ele>-18.39999961853</ele>
        <time>2022-09-22T09:37:35.000Z</time>
      </trkpt>
      <trkpt lat="47.29183" lon="-2.40519">
        <ele>-18.39999961853</ele>
        <time>2022-09-22T09:37:37.000Z</time>
      </trkpt>
      <trkpt lat="47.29195" lon="-2.40513">
        <ele>-18.39999961853</ele>
        <time>2022-09-22T09:37:39.000Z</time>
      </trkpt>
      <trkpt lat="47.29212" lon="-2.40504">
        <ele>-18.39999961853</ele>
        <time>2022-09-22T09:37:42.000Z</time>
      </trkpt>
      <trkpt lat="47.29242" lon="-2.40486">
        <ele>-18.39999961853</ele>
        <time>2022-09-22T09:37:47.000Z</time>
      </trkpt>
      <trkpt lat="47.29254" lon="-2.4048">
        <ele>-18.39999961853</ele>
        <time>2022-09-22T09:37:49.000Z</time>
      </trkpt>
      <trkpt lat="47.29265" lon="-2.40474">
        <ele>-18.39999961853</ele>
        <time>2022-09-22T09:37:51.000Z</time>
      </trkpt>
      <trkpt lat="47.29271" lon="-2.40472">
        <ele>-18.39999961853</ele>
        <time>2022-09-22T09:37:52.000Z</time>
      </trkpt>
      <trkpt lat="47.29292" lon="-2.40456">
        <ele>-18.39999961853</ele>
        <time>2022-09-22T09:37:56.000Z</time>
      </trkpt>
      <trkpt lat="47.29297" lon="-2.40439">
        <ele>-18.39999961853</ele>
        <time>2022-09-22T09:37:58.000Z</time>
      </trkpt>
      <trkpt lat="47.29303" lon="-2.40423">
        <ele>-18.39999961853</ele>
        <time>2022-09-22T09:38:00.000Z</time>
      </trkpt>
      <trkpt lat="47.29305" lon="-2.40397">
        <ele>-18.39999961853</ele>
        <time>2022-09-22T09:38:03.000Z</time>
      </trkpt>
      <trkpt lat="47.29293" lon="-2.40375">
        <ele>-18.39999961853</ele>
        <time>2022-09-22T09:38:06.000Z</time>
      </trkpt>
      <trkpt lat="47.2929" lon="-2.40368">
        <ele>-18.39999961853</ele>
        <time>2022-09-22T09:38:07.000Z</time>
      </trkpt>
      <trkpt lat="47.29287" lon="-2.4036">
        <ele>-18.39999961853</ele>
        <time>2022-09-22T09:38:08.000Z</time>
      </trkpt>
      <trkpt lat="47.29287" lon="-2.40344">
        <ele>-18.39999961853</ele>
        <time>2022-09-22T09:38:10.000Z</time>
      </trkpt>
      <trkpt lat="47.29298" lon="-2.40327">
        <ele>-18.39999961853</ele>
        <time>2022-09-22T09:38:13.000Z</time>
      </trkpt>
      <trkpt lat="47.29313" lon="-2.40312">
        <ele>-18.39999961853</ele>
        <time>2022-09-22T09:38:16.000Z</time>
      </trkpt>
      <trkpt lat="47.29323" lon="-2.40301">
        <ele>-18.39999961853</ele>
        <time>2022-09-22T09:38:18.000Z</time>
      </trkpt>
      <trkpt lat="47.29352" lon="-2.4027">
        <ele>-18.39999961853</ele>
        <time>2022-09-22T09:38:24.000Z</time>
      </trkpt>
      <trkpt lat="47.29363" lon="-2.4026">
        <ele>-18.39999961853</ele>
        <time>2022-09-22T09:38:26.000Z</time>
      </trkpt>
      <trkpt lat="47.29376" lon="-2.40246">
        <ele>-18.39999961853</ele>
        <time>2022-09-22T09:38:29.000Z</time>
      </trkpt>
      <trkpt lat="47.29402" lon="-2.4023">
        <ele>-18.39999961853</ele>
        <time>2022-09-22T09:38:34.000Z</time>
      </trkpt>
      <trkpt lat="47.29429" lon="-2.40217">
        <ele>-18.39999961853</ele>
        <time>2022-09-22T09:38:39.000Z</time>
      </trkpt>
      <trkpt lat="47.29435" lon="-2.40218">
        <ele>-18.39999961853</ele>
        <time>2022-09-22T09:38:40.000Z</time>
      </trkpt>
      <trkpt lat="47.29448" lon="-2.40204">
        <ele>-18.39999961853</ele>
        <time>2022-09-22T09:38:43.000Z</time>
      </trkpt>
      <trkpt lat="47.2945" lon="-2.40186">
        <ele>-18.39999961853</ele>
        <time>2022-09-22T09:38:45.000Z</time>
      </trkpt>
      <trkpt lat="47.29453" lon="-2.40169">
        <ele>-18.39999961853</ele>
        <time>2022-09-22T09:38:47.000Z</time>
      </trkpt>
      <trkpt lat="47.29455" lon="-2.40153">
        <ele>-18.39999961853</ele>
        <time>2022-09-22T09:38:49.000Z</time>
      </trkpt>
      <trkpt lat="47.29456" lon="-2.40126">
        <ele>-18.39999961853</ele>
        <time>2022-09-22T09:38:52.000Z</time>
      </trkpt>
      <trkpt lat="47.29457" lon="-2.40116">
        <ele>-18.39999961853</ele>
        <time>2022-09-22T09:38:53.000Z</time>
      </trkpt>
      <trkpt lat="47.29462" lon="-2.40081">
        <ele>-18.39999961853</ele>
        <time>2022-09-22T09:38:57.000Z</time>
      </trkpt>
      <trkpt lat="47.29463" lon="-2.40063">
        <ele>-18.39999961853</ele>
        <time>2022-09-22T09:38:59.000Z</time>
      </trkpt>
      <trkpt lat="47.29462" lon="-2.40044">
        <ele>-18.39999961853</ele>
        <time>2022-09-22T09:39:01.000Z</time>
      </trkpt>
      <trkpt lat="47.29462" lon="-2.40036">
        <ele>-18.39999961853</ele>
        <time>2022-09-22T09:39:02.000Z</time>
      </trkpt>
      <trkpt lat="47.29463" lon="-2.39984">
        <ele>-18.39999961853</ele>
        <time>2022-09-22T09:39:08.000Z</time>
      </trkpt>
      <trkpt lat="47.29465" lon="-2.39976">
        <ele>-18.39999961853</ele>
        <time>2022-09-22T09:39:09.000Z</time>
      </trkpt>
      <trkpt lat="47.29471" lon="-2.39955">
        <ele>-18.39999961853</ele>
        <time>2022-09-22T09:39:12.000Z</time>
      </trkpt>
      <trkpt lat="47.29477" lon="-2.39943">
        <ele>-18.39999961853</ele>
        <time>2022-09-22T09:39:14.000Z</time>
      </trkpt>
      <trkpt lat="47.29484" lon="-2.39921">
        <ele>-18.39999961853</ele>
        <time>2022-09-22T09:39:19.000Z</time>
      </trkpt>
      <trkpt lat="47.29492" lon="-2.39901">
        <ele>-18.39999961853</ele>
        <time>2022-09-22T09:39:24.000Z</time>
      </trkpt>
      <trkpt lat="47.29508" lon="-2.39882">
        <ele>-18.39999961853</ele>
        <time>2022-09-22T09:39:29.000Z</time>
      </trkpt>
      <trkpt lat="47.2952" lon="-2.39857">
        <ele>-18.39999961853</ele>
        <time>2022-09-22T09:39:35.000Z</time>
      </trkpt>
      <trkpt lat="47.29531" lon="-2.3983">
        <ele>-18.39999961853</ele>
        <time>2022-09-22T09:39:43.000Z</time>
      </trkpt>
      <trkpt lat="47.29542" lon="-2.3981">
        <ele>-18.39999961853</ele>
        <time>2022-09-22T09:39:49.000Z</time>
      </trkpt>
      <trkpt lat="47.29556" lon="-2.39781">
        <ele>-18.39999961853</ele>
        <time>2022-09-22T09:39:57.000Z</time>
      </trkpt>
      <trkpt lat="47.29569" lon="-2.39751">
        <ele>-18.39999961853</ele>
        <time>2022-09-22T09:40:05.000Z</time>
      </trkpt>
      <trkpt lat="47.29589" lon="-2.39717">
        <ele>-18.39999961853</ele>
        <time>2022-09-22T09:40:13.000Z</time>
      </trkpt>
      <trkpt lat="47.29594" lon="-2.39707">
        <ele>-18.39999961853</ele>
        <time>2022-09-22T09:40:15.000Z</time>
      </trkpt>
      <trkpt lat="47.29604" lon="-2.3969">
        <ele>-18.39999961853</ele>
        <time>2022-09-22T09:40:19.000Z</time>
      </trkpt>
      <trkpt lat="47.29624" lon="-2.39651">
        <ele>-18.39999961853</ele>
        <time>2022-09-22T09:40:28.000Z</time>
      </trkpt>
      <trkpt lat="47.29626" lon="-2.39639">
        <ele>-18.39999961853</ele>
        <time>2022-09-22T09:40:30.000Z</time>
      </trkpt>
      <trkpt lat="47.29628" lon="-2.39617">
        <ele>-18.39999961853</ele>
        <time>2022-09-22T09:40:34.000Z</time>
      </trkpt>
      <trkpt lat="47.29628" lon="-2.3959">
        <ele>-18.39999961853</ele>
        <time>2022-09-22T09:40:40.000Z</time>
      </trkpt>
      <trkpt lat="47.29629" lon="-2.3958">
        <ele>-18.39999961853</ele>
        <time>2022-09-22T09:40:42.000Z</time>
      </trkpt>
      <trkpt lat="47.29626" lon="-2.39575">
        <ele>-18.39999961853</ele>
        <time>2022-09-22T09:40:44.000Z</time>
      </trkpt>
      <trkpt lat="47.29619" lon="-2.39577">
        <ele>-17.799999237061</ele>
        <time>2022-09-22T09:40:47.000Z</time>
      </trkpt>
      <trkpt lat="47.29616" lon="-2.39577">
        <ele>-17.39999961853</ele>
        <time>2022-09-22T09:40:48.000Z</time>
      </trkpt>
      <trkpt lat="47.29614" lon="-2.39577">
        <ele>-17</ele>
        <time>2022-09-22T09:40:49.000Z</time>
      </trkpt>
      <trkpt lat="47.29612" lon="-2.39577">
        <ele>-16.60000038147</ele>
        <time>2022-09-22T09:40:50.000Z</time>
      </trkpt>
      <trkpt lat="47.2961" lon="-2.39576">
        <ele>-16.200000762939</ele>
        <time>2022-09-22T09:40:51.000Z</time>
      </trkpt>
      <trkpt lat="47.29611" lon="-2.39571">
        <ele>-16.200000762939</ele>
        <time>2022-09-22T09:40:53.000Z</time>
      </trkpt>
      <trkpt lat="47.29615" lon="-2.39569">
        <ele>-15.800000190735</ele>
        <time>2022-09-22T09:40:55.000Z</time>
      </trkpt>
      <trkpt lat="47.29616" lon="-2.39568">
        <ele>-15.39999961853</ele>
        <time>2022-09-22T09:40:56.000Z</time>
      </trkpt>
      <trkpt lat="47.29617" lon="-2.39568">
        <ele>-15</ele>
        <time>2022-09-22T09:40:57.000Z</time>
      </trkpt>
      <trkpt lat="47.29618" lon="-2.39567">
        <ele>-14.60000038147</ele>
        <time>2022-09-22T09:40:58.000Z</time>
      </trkpt>
      <trkpt lat="47.29619" lon="-2.39567">
        <ele>-14.199999809265</ele>
        <time>2022-09-22T09:40:59.000Z</time>
      </trkpt>
      <trkpt lat="47.29621" lon="-2.39563">
        <ele>-14.199999809265</ele>
        <time>2022-09-22T09:41:02.000Z</time>
      </trkpt>
      <trkpt lat="47.29621" lon="-2.39555">
        <ele>-14.199999809265</ele>
        <time>2022-09-22T09:41:06.000Z</time>
      </trkpt>
      <trkpt lat="47.29613" lon="-2.39554">
        <ele>-13.800000190735</ele>
        <time>2022-09-22T09:41:09.000Z</time>
      </trkpt>
      <trkpt lat="47.29611" lon="-2.39554">
        <ele>-13.39999961853</ele>
        <time>2022-09-22T09:41:10.000Z</time>
      </trkpt>
      <trkpt lat="47.29608" lon="-2.39553">
        <ele>-13</ele>
        <time>2022-09-22T09:41:11.000Z</time>
      </trkpt>
      <trkpt lat="47.29605" lon="-2.39553">
        <ele>-12.60000038147</ele>
        <time>2022-09-22T09:41:12.000Z</time>
      </trkpt>
      <trkpt lat="47.29602" lon="-2.39552">
        <ele>-12.199999809265</ele>
        <time>2022-09-22T09:41:13.000Z</time>
      </trkpt>
      <trkpt lat="47.29595" lon="-2.39551">
        <ele>-12.199999809265</ele>
        <time>2022-09-22T09:41:16.000Z</time>
      </trkpt>
      <trkpt lat="47.29589" lon="-2.39549">
        <ele>-11.800000190735</ele>
        <time>2022-09-22T09:41:19.000Z</time>
      </trkpt>
      <trkpt lat="47.29586" lon="-2.39549">
        <ele>-11.39999961853</ele>
        <time>2022-09-22T09:41:20.000Z</time>
      </trkpt>
      <trkpt lat="47.29584" lon="-2.39549">
        <ele>-11</ele>
        <time>2022-09-22T09:41:21.000Z</time>
      </trkpt>
      <trkpt lat="47.29581" lon="-2.39548">
        <ele>-10.60000038147</ele>
        <time>2022-09-22T09:41:22.000Z</time>
      </trkpt>
      <trkpt lat="47.29578" lon="-2.39547">
        <ele>-10.199999809265</ele>
        <time>2022-09-22T09:41:23.000Z</time>
      </trkpt>
      <trkpt lat="47.29562" lon="-2.39544">
        <ele>-10.199999809265</ele>
        <time>2022-09-22T09:41:27.000Z</time>
      </trkpt>
      <trkpt lat="47.29558" lon="-2.39543">
        <ele>-10.199999809265</ele>
        <time>2022-09-22T09:41:29.000Z</time>
      </trkpt>
      <trkpt lat="47.29557" lon="-2.39541">
        <ele>-11</ele>
        <time>2022-09-22T09:41:30.000Z</time>
      </trkpt>
      <trkpt lat="47.29556" lon="-2.3954">
        <ele>-11.39999961853</ele>
        <time>2022-09-22T09:41:31.000Z</time>
      </trkpt>
      <trkpt lat="47.29556" lon="-2.3954">
        <ele>-12</ele>
        <time>2022-09-22T09:41:32.000Z</time>
      </trkpt>
      <trkpt lat="47.29556" lon="-2.39539">
        <ele>-12.39999961853</ele>
        <time>2022-09-22T09:41:33.000Z</time>
      </trkpt>
      <trkpt lat="47.29556" lon="-2.39536">
        <ele>-12.39999961853</ele>
        <time>2022-09-22T09:42:00.000Z</time>
      </trkpt>
      <trkpt lat="47.29555" lon="-2.39533">
        <ele>-12.39999961853</ele>
        <time>2022-09-22T09:42:01.000Z</time>
      </trkpt>
      <trkpt lat="47.29554" lon="-2.39513">
        <ele>-12.39999961853</ele>
        <time>2022-09-22T09:42:05.000Z</time>
      </trkpt>
      <trkpt lat="47.29555" lon="-2.39506">
        <ele>-12.800000190735</ele>
        <time>2022-09-22T09:42:06.000Z</time>
      </trkpt>
      <trkpt lat="47.29555" lon="-2.39501">
        <ele>-13.199999809265</ele>
        <time>2022-09-22T09:42:07.000Z</time>
      </trkpt>
      <trkpt lat="47.29557" lon="-2.39495">
        <ele>-13.800000190735</ele>
        <time>2022-09-22T09:42:08.000Z</time>
      </trkpt>
      <trkpt lat="47.29559" lon="-2.39491">
        <ele>-14.199999809265</ele>
        <time>2022-09-22T09:42:09.000Z</time>
      </trkpt>
      <trkpt lat="47.29559" lon="-2.39489">
        <ele>-14.60000038147</ele>
        <time>2022-09-22T09:42:10.000Z</time>
      </trkpt>
      <trkpt lat="47.29559" lon="-2.3949">
        <ele>-15.199999809265</ele>
        <time>2022-09-22T09:42:11.000Z</time>
      </trkpt>
      <trkpt lat="47.29559" lon="-2.3949">
        <ele>-15.60000038147</ele>
        <time>2022-09-22T09:42:12.000Z</time>
      </trkpt>
      <trkpt lat="47.29562" lon="-2.3949">
        <ele>-16.60000038147</ele>
        <time>2022-09-22T09:42:34.000Z</time>
      </trkpt>
      <trkpt lat="47.29574" lon="-2.39494">
        <ele>-16.60000038147</ele>
        <time>2022-09-22T09:42:40.000Z</time>
      </trkpt>
      <trkpt lat="47.29589" lon="-2.39497">
        <ele>-16.60000038147</ele>
        <time>2022-09-22T09:42:45.000Z</time>
      </trkpt>
      <trkpt lat="47.29603" lon="-2.39481">
        <ele>-16.60000038147</ele>
        <time>2022-09-22T09:42:50.000Z</time>
      </trkpt>
      <trkpt lat="47.29618" lon="-2.39454">
        <ele>-16.60000038147</ele>
        <time>2022-09-22T09:42:57.000Z</time>
      </trkpt>
      <trkpt lat="47.29631" lon="-2.39426">
        <ele>-16.60000038147</ele>
        <time>2022-09-22T09:43:04.000Z</time>
      </trkpt>
      <trkpt lat="47.29634" lon="-2.39397">
        <ele>-16.60000038147</ele>
        <time>2022-09-22T09:43:09.000Z</time>
      </trkpt>
      <trkpt lat="47.29636" lon="-2.39391">
        <ele>-16.60000038147</ele>
        <time>2022-09-22T09:43:10.000Z</time>
      </trkpt>
      <trkpt lat="47.29641" lon="-2.39374">
        <ele>-16.60000038147</ele>
        <time>2022-09-22T09:43:13.000Z</time>
      </trkpt>
      <trkpt lat="47.29642" lon="-2.3936">
        <ele>-16.60000038147</ele>
        <time>2022-09-22T09:43:15.000Z</time>
      </trkpt>
      <trkpt lat="47.29644" lon="-2.39332">
        <ele>-16.60000038147</ele>
        <time>2022-09-22T09:43:19.000Z</time>
      </trkpt>
      <trkpt lat="47.29648" lon="-2.39292">
        <ele>-16.60000038147</ele>
        <time>2022-09-22T09:43:26.000Z</time>
      </trkpt>
      <trkpt lat="47.29648" lon="-2.39269">
        <ele>-16.60000038147</ele>
        <time>2022-09-22T09:43:30.000Z</time>
      </trkpt>
      <trkpt lat="47.29649" lon="-2.39263">
        <ele>-16.60000038147</ele>
        <time>2022-09-22T09:43:31.000Z</time>
      </trkpt>
      <trkpt lat="47.29656" lon="-2.39225">
        <ele>-16.60000038147</ele>
        <time>2022-09-22T09:43:38.000Z</time>
      </trkpt>
      <trkpt lat="47.29665" lon="-2.392">
        <ele>-16.60000038147</ele>
        <time>2022-09-22T09:43:44.000Z</time>
      </trkpt>
      <trkpt lat="47.29665" lon="-2.3919">
        <ele>-16.60000038147</ele>
        <time>2022-09-22T09:43:46.000Z</time>
      </trkpt>
      <trkpt lat="47.29662" lon="-2.39186">
        <ele>-16.60000038147</ele>
        <time>2022-09-22T09:43:47.000Z</time>
      </trkpt>
      <trkpt lat="47.29651" lon="-2.39179">
        <ele>-16.60000038147</ele>
        <time>2022-09-22T09:43:50.000Z</time>
      </trkpt>
      <trkpt lat="47.29637" lon="-2.39167">
        <ele>-16.60000038147</ele>
        <time>2022-09-22T09:43:54.000Z</time>
      </trkpt>
      <trkpt lat="47.29633" lon="-2.39156">
        <ele>-16.60000038147</ele>
        <time>2022-09-22T09:43:56.000Z</time>
      </trkpt>
      <trkpt lat="47.2963" lon="-2.39138">
        <ele>-16.60000038147</ele>
        <time>2022-09-22T09:43:59.000Z</time>
      </trkpt>
      <trkpt lat="47.29628" lon="-2.39127">
        <ele>-16.60000038147</ele>
        <time>2022-09-22T09:44:01.000Z</time>
      </trkpt>
      <trkpt lat="47.29627" lon="-2.39121">
        <ele>-16.200000762939</ele>
        <time>2022-09-22T09:44:02.000Z</time>
      </trkpt>
      <trkpt lat="47.29627" lon="-2.39115">
        <ele>-15.800000190735</ele>
        <time>2022-09-22T09:44:03.000Z</time>
      </trkpt>
      <trkpt lat="47.29627" lon="-2.39109">
        <ele>-15.39999961853</ele>
        <time>2022-09-22T09:44:04.000Z</time>
      </trkpt>
      <trkpt lat="47.29627" lon="-2.39103">
        <ele>-15</ele>
        <time>2022-09-22T09:44:05.000Z</time>
      </trkpt>
      <trkpt lat="47.29626" lon="-2.39097">
        <ele>-14.60000038147</ele>
        <time>2022-09-22T09:44:06.000Z</time>
      </trkpt>
      <trkpt lat="47.29626" lon="-2.3909">
        <ele>-14.60000038147</ele>
        <time>2022-09-22T09:44:07.000Z</time>
      </trkpt>
      <trkpt lat="47.29626" lon="-2.39084">
        <ele>-14.60000038147</ele>
        <time>2022-09-22T09:44:08.000Z</time>
      </trkpt>
      <trkpt lat="47.29625" lon="-2.39048">
        <ele>-14.60000038147</ele>
        <time>2022-09-22T09:44:13.000Z</time>
      </trkpt>
      <trkpt lat="47.29622" lon="-2.39027">
        <ele>-14.60000038147</ele>
        <time>2022-09-22T09:44:16.000Z</time>
      </trkpt>
      <trkpt lat="47.29615" lon="-2.39016">
        <ele>-14.60000038147</ele>
        <time>2022-09-22T09:44:18.000Z</time>
      </trkpt>
      <trkpt lat="47.29606" lon="-2.3901">
        <ele>-14.60000038147</ele>
        <time>2022-09-22T09:44:20.000Z</time>
      </trkpt>
      <trkpt lat="47.29601" lon="-2.39008">
        <ele>-14.60000038147</ele>
        <time>2022-09-22T09:44:21.000Z</time>
      </trkpt>
      <trkpt lat="47.29577" lon="-2.38997">
        <ele>-14.199999809265</ele>
        <time>2022-09-22T09:44:26.000Z</time>
      </trkpt>
      <trkpt lat="47.29572" lon="-2.38994">
        <ele>-13.800000190735</ele>
        <time>2022-09-22T09:44:27.000Z</time>
      </trkpt>
      <trkpt lat="47.29568" lon="-2.38992">
        <ele>-13.39999961853</ele>
        <time>2022-09-22T09:44:28.000Z</time>
      </trkpt>
      <trkpt lat="47.29563" lon="-2.3899">
        <ele>-13</ele>
        <time>2022-09-22T09:44:29.000Z</time>
      </trkpt>
      <trkpt lat="47.29558" lon="-2.38987">
        <ele>-12.60000038147</ele>
        <time>2022-09-22T09:44:30.000Z</time>
      </trkpt>
      <trkpt lat="47.29534" lon="-2.3897">
        <ele>-12.60000038147</ele>
        <time>2022-09-22T09:44:35.000Z</time>
      </trkpt>
      <trkpt lat="47.29517" lon="-2.38954">
        <ele>-12.60000038147</ele>
        <time>2022-09-22T09:44:39.000Z</time>
      </trkpt>
      <trkpt lat="47.29509" lon="-2.38945">
        <ele>-12.60000038147</ele>
        <time>2022-09-22T09:44:41.000Z</time>
      </trkpt>
      <trkpt lat="47.29505" lon="-2.38939">
        <ele>-12.60000038147</ele>
        <time>2022-09-22T09:44:42.000Z</time>
      </trkpt>
      <trkpt lat="47.29496" lon="-2.38921">
        <ele>-12.60000038147</ele>
        <time>2022-09-22T09:44:45.000Z</time>
      </trkpt>
      <trkpt lat="47.29493" lon="-2.38914">
        <ele>-12.60000038147</ele>
        <time>2022-09-22T09:44:46.000Z</time>
      </trkpt>
      <trkpt lat="47.29486" lon="-2.38894">
        <ele>-12.60000038147</ele>
        <time>2022-09-22T09:44:49.000Z</time>
      </trkpt>
      <trkpt lat="47.29484" lon="-2.38887">
        <ele>-12.60000038147</ele>
        <time>2022-09-22T09:44:50.000Z</time>
      </trkpt>
      <trkpt lat="47.29476" lon="-2.38863">
        <ele>-12.60000038147</ele>
        <time>2022-09-22T09:44:55.000Z</time>
      </trkpt>
      <trkpt lat="47.29471" lon="-2.38855">
        <ele>-12.60000038147</ele>
        <time>2022-09-22T09:45:00.000Z</time>
      </trkpt>
      <trkpt lat="47.29469" lon="-2.38845">
        <ele>-12.60000038147</ele>
        <time>2022-09-22T09:45:02.000Z</time>
      </trkpt>
      <trkpt lat="47.2947" lon="-2.38839">
        <ele>-12.60000038147</ele>
        <time>2022-09-22T09:45:03.000Z</time>
      </trkpt>
      <trkpt lat="47.2947" lon="-2.38825">
        <ele>-12.60000038147</ele>
        <time>2022-09-22T09:45:05.000Z</time>
      </trkpt>
      <trkpt lat="47.2947" lon="-2.38801">
        <ele>-12.60000038147</ele>
        <time>2022-09-22T09:45:08.000Z</time>
      </trkpt>
      <trkpt lat="47.29469" lon="-2.38729">
        <ele>-12.60000038147</ele>
        <time>2022-09-22T09:45:16.000Z</time>
      </trkpt>
      <trkpt lat="47.29463" lon="-2.38676">
        <ele>-12.60000038147</ele>
        <time>2022-09-22T09:45:22.000Z</time>
      </trkpt>
      <trkpt lat="47.2946" lon="-2.3867">
        <ele>-12.60000038147</ele>
        <time>2022-09-22T09:45:23.000Z</time>
      </trkpt>
      <trkpt lat="47.29445" lon="-2.38663">
        <ele>-13</ele>
        <time>2022-09-22T09:45:26.000Z</time>
      </trkpt>
      <trkpt lat="47.2944" lon="-2.38666">
        <ele>-13.39999961853</ele>
        <time>2022-09-22T09:45:27.000Z</time>
      </trkpt>
      <trkpt lat="47.29435" lon="-2.3867">
        <ele>-13.800000190735</ele>
        <time>2022-09-22T09:45:28.000Z</time>
      </trkpt>
      <trkpt lat="47.2943" lon="-2.38675">
        <ele>-14.39999961853</ele>
        <time>2022-09-22T09:45:29.000Z</time>
      </trkpt>
      <trkpt lat="47.29426" lon="-2.38679">
        <ele>-14.800000190735</ele>
        <time>2022-09-22T09:45:30.000Z</time>
      </trkpt>
      <trkpt lat="47.29416" lon="-2.38687">
        <ele>-14.800000190735</ele>
        <time>2022-09-22T09:45:32.000Z</time>
      </trkpt>
      <trkpt lat="47.29406" lon="-2.38694">
        <ele>-14.800000190735</ele>
        <time>2022-09-22T09:45:34.000Z</time>
      </trkpt>
      <trkpt lat="47.29389" lon="-2.38714">
        <ele>-14.800000190735</ele>
        <time>2022-09-22T09:45:38.000Z</time>
      </trkpt>
      <trkpt lat="47.29383" lon="-2.38731">
        <ele>-14.800000190735</ele>
        <time>2022-09-22T09:45:40.000Z</time>
      </trkpt>
      <trkpt lat="47.29379" lon="-2.38759">
        <ele>-14.800000190735</ele>
        <time>2022-09-22T09:45:43.000Z</time>
      </trkpt>
      <trkpt lat="47.29378" lon="-2.38768">
        <ele>-14.800000190735</ele>
        <time>2022-09-22T09:45:44.000Z</time>
      </trkpt>
      <trkpt lat="47.29372" lon="-2.3883">
        <ele>-14.800000190735</ele>
        <time>2022-09-22T09:45:51.000Z</time>
      </trkpt>
      <trkpt lat="47.29368" lon="-2.38857">
        <ele>-14.800000190735</ele>
        <time>2022-09-22T09:45:54.000Z</time>
      </trkpt>
      <trkpt lat="47.29361" lon="-2.38874">
        <ele>-14.800000190735</ele>
        <time>2022-09-22T09:45:56.000Z</time>
      </trkpt>
      <trkpt lat="47.29347" lon="-2.38894">
        <ele>-15.199999809265</ele>
        <time>2022-09-22T09:45:59.000Z</time>
      </trkpt>
      <trkpt lat="47.29341" lon="-2.389">
        <ele>-15.60000038147</ele>
        <time>2022-09-22T09:46:00.000Z</time>
      </trkpt>
      <trkpt lat="47.29336" lon="-2.38906">
        <ele>-16</ele>
        <time>2022-09-22T09:46:01.000Z</time>
      </trkpt>
      <trkpt lat="47.2933" lon="-2.38912">
        <ele>-16.39999961853</ele>
        <time>2022-09-22T09:46:02.000Z</time>
      </trkpt>
      <trkpt lat="47.29324" lon="-2.38918">
        <ele>-16.799999237061</ele>
        <time>2022-09-22T09:46:03.000Z</time>
      </trkpt>
      <trkpt lat="47.29313" lon="-2.38928">
        <ele>-16.799999237061</ele>
        <time>2022-09-22T09:46:05.000Z</time>
      </trkpt>
      <trkpt lat="47.29286" lon="-2.38959">
        <ele>-16.799999237061</ele>
        <time>2022-09-22T09:46:10.000Z</time>
      </trkpt>
      <trkpt lat="47.29282" lon="-2.38967">
        <ele>-16.799999237061</ele>
        <time>2022-09-22T09:46:11.000Z</time>
      </trkpt>
      <trkpt lat="47.29266" lon="-2.39005">
        <ele>-16.799999237061</ele>
        <time>2022-09-22T09:46:16.000Z</time>
      </trkpt>
      <trkpt lat="47.29249" lon="-2.3901">
        <ele>-16.799999237061</ele>
        <time>2022-09-22T09:46:19.000Z</time>
      </trkpt>
      <trkpt lat="47.29242" lon="-2.39012">
        <ele>-16.799999237061</ele>
        <time>2022-09-22T09:46:20.000Z</time>
      </trkpt>
      <trkpt lat="47.29209" lon="-2.39014">
        <ele>-16.799999237061</ele>
        <time>2022-09-22T09:46:25.000Z</time>
      </trkpt>
      <trkpt lat="47.29155" lon="-2.39013">
        <ele>-16.799999237061</ele>
        <time>2022-09-22T09:46:33.000Z</time>
      </trkpt>
      <trkpt lat="47.29142" lon="-2.39016">
        <ele>-16.799999237061</ele>
        <time>2022-09-22T09:46:35.000Z</time>
      </trkpt>
      <trkpt lat="47.2913" lon="-2.39018">
        <ele>-16.799999237061</ele>
        <time>2022-09-22T09:46:37.000Z</time>
      </trkpt>
      <trkpt lat="47.29124" lon="-2.39018">
        <ele>-16.799999237061</ele>
        <time>2022-09-22T09:46:38.000Z</time>
      </trkpt>
      <trkpt lat="47.29087" lon="-2.39016">
        <ele>-16.799999237061</ele>
        <time>2022-09-22T09:46:44.000Z</time>
      </trkpt>
      <trkpt lat="47.29081" lon="-2.39017">
        <ele>-16.799999237061</ele>
        <time>2022-09-22T09:46:45.000Z</time>
      </trkpt>
      <trkpt lat="47.2903" lon="-2.39027">
        <ele>-16.799999237061</ele>
        <time>2022-09-22T09:46:53.000Z</time>
      </trkpt>
      <trkpt lat="47.29" lon="-2.39033">
        <ele>-16.799999237061</ele>
        <time>2022-09-22T09:46:58.000Z</time>
      </trkpt>
      <trkpt lat="47.28971" lon="-2.39043">
        <ele>-16.799999237061</ele>
        <time>2022-09-22T09:47:04.000Z</time>
      </trkpt>
      <trkpt lat="47.28953" lon="-2.39049">
        <ele>-16.799999237061</ele>
        <time>2022-09-22T09:47:10.000Z</time>
      </trkpt>
      <trkpt lat="47.28951" lon="-2.39037">
        <ele>-16.799999237061</ele>
        <time>2022-09-22T09:47:13.000Z</time>
      </trkpt>
      <trkpt lat="47.2895" lon="-2.39015">
        <ele>-16.799999237061</ele>
        <time>2022-09-22T09:47:17.000Z</time>
      </trkpt>
      <trkpt lat="47.2895" lon="-2.39004">
        <ele>-16.799999237061</ele>
        <time>2022-09-22T09:47:19.000Z</time>
      </trkpt>
      <trkpt lat="47.2895" lon="-2.38998">
        <ele>-16.799999237061</ele>
        <time>2022-09-22T09:47:20.000Z</time>
      </trkpt>
      <trkpt lat="47.28951" lon="-2.38971">
        <ele>-16.799999237061</ele>
        <time>2022-09-22T09:47:24.000Z</time>
      </trkpt>
      <trkpt lat="47.28955" lon="-2.38913">
        <ele>-16.799999237061</ele>
        <time>2022-09-22T09:47:32.000Z</time>
      </trkpt>
      <trkpt lat="47.28959" lon="-2.38864">
        <ele>-16.799999237061</ele>
        <time>2022-09-22T09:47:39.000Z</time>
      </trkpt>
      <trkpt lat="47.28959" lon="-2.38857">
        <ele>-16.799999237061</ele>
        <time>2022-09-22T09:47:40.000Z</time>
      </trkpt>
      <trkpt lat="47.28959" lon="-2.38817">
        <ele>-16.799999237061</ele>
        <time>2022-09-22T09:47:45.000Z</time>
      </trkpt>
      <trkpt lat="47.28959" lon="-2.38761">
        <ele>-16.799999237061</ele>
        <time>2022-09-22T09:47:52.000Z</time>
      </trkpt>
      <trkpt lat="47.28957" lon="-2.38723">
        <ele>-16.799999237061</ele>
        <time>2022-09-22T09:47:57.000Z</time>
      </trkpt>
      <trkpt lat="47.28957" lon="-2.38707">
        <ele>-16.799999237061</ele>
        <time>2022-09-22T09:47:59.000Z</time>
      </trkpt>
      <trkpt lat="47.28956" lon="-2.38634">
        <ele>-16.799999237061</ele>
        <time>2022-09-22T09:48:08.000Z</time>
      </trkpt>
      <trkpt lat="47.28954" lon="-2.38576">
        <ele>-16.799999237061</ele>
        <time>2022-09-22T09:48:15.000Z</time>
      </trkpt>
      <trkpt lat="47.28949" lon="-2.3852">
        <ele>-16.799999237061</ele>
        <time>2022-09-22T09:48:22.000Z</time>
      </trkpt>
      <trkpt lat="47.28944" lon="-2.38473">
        <ele>-16.799999237061</ele>
        <time>2022-09-22T09:48:28.000Z</time>
      </trkpt>
      <trkpt lat="47.2894" lon="-2.3842">
        <ele>-16.799999237061</ele>
        <time>2022-09-22T09:48:35.000Z</time>
      </trkpt>
      <trkpt lat="47.28937" lon="-2.38367">
        <ele>-16.799999237061</ele>
        <time>2022-09-22T09:48:42.000Z</time>
      </trkpt>
      <trkpt lat="47.28933" lon="-2.38318">
        <ele>-16.799999237061</ele>
        <time>2022-09-22T09:48:48.000Z</time>
      </trkpt>
      <trkpt lat="47.28935" lon="-2.38266">
        <ele>-16.799999237061</ele>
        <time>2022-09-22T09:48:54.000Z</time>
      </trkpt>
      <trkpt lat="47.28934" lon="-2.38234">
        <ele>-16.799999237061</ele>
        <time>2022-09-22T09:48:58.000Z</time>
      </trkpt>
      <trkpt lat="47.28931" lon="-2.38228">
        <ele>-16.799999237061</ele>
        <time>2022-09-22T09:48:59.000Z</time>
      </trkpt>
      <trkpt lat="47.28917" lon="-2.38216">
        <ele>-16.799999237061</ele>
        <time>2022-09-22T09:49:02.000Z</time>
      </trkpt>
      <trkpt lat="47.28904" lon="-2.38204">
        <ele>-16.39999961853</ele>
        <time>2022-09-22T09:49:05.000Z</time>
      </trkpt>
      <trkpt lat="47.289" lon="-2.38198">
        <ele>-16</ele>
        <time>2022-09-22T09:49:06.000Z</time>
      </trkpt>
      <trkpt lat="47.28898" lon="-2.3819">
        <ele>-15.60000038147</ele>
        <time>2022-09-22T09:49:07.000Z</time>
      </trkpt>
      <trkpt lat="47.28898" lon="-2.38182">
        <ele>-15.199999809265</ele>
        <time>2022-09-22T09:49:08.000Z</time>
      </trkpt>
      <trkpt lat="47.28899" lon="-2.38174">
        <ele>-14.800000190735</ele>
        <time>2022-09-22T09:49:09.000Z</time>
      </trkpt>
      <trkpt lat="47.289" lon="-2.38165">
        <ele>-14.800000190735</ele>
        <time>2022-09-22T09:49:10.000Z</time>
      </trkpt>
      <trkpt lat="47.28902" lon="-2.38148">
        <ele>-14.800000190735</ele>
        <time>2022-09-22T09:49:12.000Z</time>
      </trkpt>
      <trkpt lat="47.28904" lon="-2.38116">
        <ele>-14.800000190735</ele>
        <time>2022-09-22T09:49:16.000Z</time>
      </trkpt>
      <trkpt lat="47.28907" lon="-2.38063">
        <ele>-14.800000190735</ele>
        <time>2022-09-22T09:49:22.000Z</time>
      </trkpt>
      <trkpt lat="47.28912" lon="-2.37976">
        <ele>-14.800000190735</ele>
        <time>2022-09-22T09:49:32.000Z</time>
      </trkpt>
      <trkpt lat="47.28912" lon="-2.37968">
        <ele>-14.800000190735</ele>
        <time>2022-09-22T09:49:33.000Z</time>
      </trkpt>
      <trkpt lat="47.28917" lon="-2.37893">
        <ele>-14.800000190735</ele>
        <time>2022-09-22T09:49:42.000Z</time>
      </trkpt>
      <trkpt lat="47.28923" lon="-2.37828">
        <ele>-14.800000190735</ele>
        <time>2022-09-22T09:49:50.000Z</time>
      </trkpt>
      <trkpt lat="47.28928" lon="-2.37762">
        <ele>-14.800000190735</ele>
        <time>2022-09-22T09:49:58.000Z</time>
      </trkpt>
      <trkpt lat="47.28932" lon="-2.37703">
        <ele>-14.800000190735</ele>
        <time>2022-09-22T09:50:06.000Z</time>
      </trkpt>
      <trkpt lat="47.28934" lon="-2.37657">
        <ele>-14.800000190735</ele>
        <time>2022-09-22T09:50:13.000Z</time>
      </trkpt>
      <trkpt lat="47.28924" lon="-2.37645">
        <ele>-14.800000190735</ele>
        <time>2022-09-22T09:50:16.000Z</time>
      </trkpt>
      <trkpt lat="47.28912" lon="-2.37648">
        <ele>-14.800000190735</ele>
        <time>2022-09-22T09:50:19.000Z</time>
      </trkpt>
      <trkpt lat="47.28908" lon="-2.3765">
        <ele>-14.800000190735</ele>
        <time>2022-09-22T09:50:20.000Z</time>
      </trkpt>
      <trkpt lat="47.28883" lon="-2.37654">
        <ele>-14.800000190735</ele>
        <time>2022-09-22T09:50:26.000Z</time>
      </trkpt>
      <trkpt lat="47.28866" lon="-2.37656">
        <ele>-14.800000190735</ele>
        <time>2022-09-22T09:50:30.000Z</time>
      </trkpt>
      <trkpt lat="47.2886" lon="-2.37649">
        <ele>-14.800000190735</ele>
        <time>2022-09-22T09:50:32.000Z</time>
      </trkpt>
      <trkpt lat="47.28857" lon="-2.37638">
        <ele>-14.800000190735</ele>
        <time>2022-09-22T09:50:35.000Z</time>
      </trkpt>
      <trkpt lat="47.28857" lon="-2.37624">
        <ele>-14.800000190735</ele>
        <time>2022-09-22T09:50:40.000Z</time>
      </trkpt>
      <trkpt lat="47.28859" lon="-2.37605">
        <ele>-14.800000190735</ele>
        <time>2022-09-22T09:50:46.000Z</time>
      </trkpt>
      <trkpt lat="47.28863" lon="-2.37597">
        <ele>-14.800000190735</ele>
        <time>2022-09-22T09:50:50.000Z</time>
      </trkpt>
      <trkpt lat="47.28873" lon="-2.37576">
        <ele>-14.800000190735</ele>
        <time>2022-09-22T09:50:57.000Z</time>
      </trkpt>
      <trkpt lat="47.28879" lon="-2.37566">
        <ele>-14.800000190735</ele>
        <time>2022-09-22T09:51:03.000Z</time>
      </trkpt>
      <trkpt lat="47.2888" lon="-2.37563">
        <ele>-14.800000190735</ele>
        <time>2022-09-22T09:51:07.000Z</time>
      </trkpt>
      <trkpt lat="47.28881" lon="-2.37555">
        <ele>-14.800000190735</ele>
        <time>2022-09-22T09:51:09.000Z</time>
      </trkpt>
      <trkpt lat="47.28882" lon="-2.37531">
        <ele>-14.800000190735</ele>
        <time>2022-09-22T09:51:14.000Z</time>
      </trkpt>
      <trkpt lat="47.2888" lon="-2.37514">
        <ele>-14.800000190735</ele>
        <time>2022-09-22T09:51:15.000Z</time>
      </trkpt>
      <trkpt lat="47.28878" lon="-2.37489">
        <ele>-14.800000190735</ele>
        <time>2022-09-22T09:51:21.000Z</time>
      </trkpt>
      <trkpt lat="47.28874" lon="-2.37445">
        <ele>-14.800000190735</ele>
        <time>2022-09-22T09:51:28.000Z</time>
      </trkpt>
      <trkpt lat="47.28868" lon="-2.37406">
        <ele>-14.800000190735</ele>
        <time>2022-09-22T09:51:34.000Z</time>
      </trkpt>
      <trkpt lat="47.28864" lon="-2.37376">
        <ele>-14.39999961853</ele>
        <time>2022-09-22T09:51:38.000Z</time>
      </trkpt>
      <trkpt lat="47.28863" lon="-2.37368">
        <ele>-14</ele>
        <time>2022-09-22T09:51:39.000Z</time>
      </trkpt>
      <trkpt lat="47.28863" lon="-2.3736">
        <ele>-13.60000038147</ele>
        <time>2022-09-22T09:51:40.000Z</time>
      </trkpt>
      <trkpt lat="47.28863" lon="-2.37353">
        <ele>-13.199999809265</ele>
        <time>2022-09-22T09:51:41.000Z</time>
      </trkpt>
      <trkpt lat="47.28863" lon="-2.37345">
        <ele>-12.800000190735</ele>
        <time>2022-09-22T09:51:42.000Z</time>
      </trkpt>
      <trkpt lat="47.28862" lon="-2.37337">
        <ele>-12.800000190735</ele>
        <time>2022-09-22T09:51:43.000Z</time>
      </trkpt>
      <trkpt lat="47.28861" lon="-2.37323">
        <ele>-12.800000190735</ele>
        <time>2022-09-22T09:51:45.000Z</time>
      </trkpt>
      <trkpt lat="47.28855" lon="-2.37266">
        <ele>-12.800000190735</ele>
        <time>2022-09-22T09:51:53.000Z</time>
      </trkpt>
      <trkpt lat="47.28854" lon="-2.3726">
        <ele>-12.800000190735</ele>
        <time>2022-09-22T09:51:54.000Z</time>
      </trkpt>
      <trkpt lat="47.28849" lon="-2.37243">
        <ele>-12.800000190735</ele>
        <time>2022-09-22T09:51:57.000Z</time>
      </trkpt>
      <trkpt lat="47.28846" lon="-2.37237">
        <ele>-12.800000190735</ele>
        <time>2022-09-22T09:51:58.000Z</time>
      </trkpt>
      <trkpt lat="47.2884" lon="-2.37215">
        <ele>-12.800000190735</ele>
        <time>2022-09-22T09:52:02.000Z</time>
      </trkpt>
      <trkpt lat="47.28833" lon="-2.37179">
        <ele>-12.800000190735</ele>
        <time>2022-09-22T09:52:08.000Z</time>
      </trkpt>
      <trkpt lat="47.28826" lon="-2.37134">
        <ele>-12.800000190735</ele>
        <time>2022-09-22T09:52:16.000Z</time>
      </trkpt>
      <trkpt lat="47.28827" lon="-2.37123">
        <ele>-12.800000190735</ele>
        <time>2022-09-22T09:52:20.000Z</time>
      </trkpt>
      <trkpt lat="47.28831" lon="-2.37113">
        <ele>-12.800000190735</ele>
        <time>2022-09-22T09:52:25.000Z</time>
      </trkpt>
      <trkpt lat="47.28829" lon="-2.37111">
        <ele>-12.39999961853</ele>
        <time>2022-09-22T09:52:26.000Z</time>
      </trkpt>
      <trkpt lat="47.28828" lon="-2.3711">
        <ele>-12</ele>
        <time>2022-09-22T09:52:27.000Z</time>
      </trkpt>
      <trkpt lat="47.28827" lon="-2.37109">
        <ele>-11.60000038147</ele>
        <time>2022-09-22T09:52:28.000Z</time>
      </trkpt>
      <trkpt lat="47.28827" lon="-2.37109">
        <ele>-11.199999809265</ele>
        <time>2022-09-22T09:52:29.000Z</time>
      </trkpt>
      <trkpt lat="47.28825" lon="-2.37111">
        <ele>-10.800000190735</ele>
        <time>2022-09-22T09:52:35.000Z</time>
      </trkpt>
      <trkpt lat="47.28822" lon="-2.37113">
        <ele>-10.199999809265</ele>
        <time>2022-09-22T09:52:37.000Z</time>
      </trkpt>
      <trkpt lat="47.28821" lon="-2.37114">
        <ele>-9.3999996185303</ele>
        <time>2022-09-22T09:52:38.000Z</time>
      </trkpt>
      <trkpt lat="47.28819" lon="-2.37114">
        <ele>-8.3999996185303</ele>
        <time>2022-09-22T09:52:43.000Z</time>
      </trkpt>
      <trkpt lat="47.28813" lon="-2.37114">
        <ele>-8</ele>
        <time>2022-09-22T09:52:46.000Z</time>
      </trkpt>
      <trkpt lat="47.28811" lon="-2.37114">
        <ele>-7.5999999046326</ele>
        <time>2022-09-22T09:52:47.000Z</time>
      </trkpt>
      <trkpt lat="47.28809" lon="-2.37114">
        <ele>-7.1999998092651</ele>
        <time>2022-09-22T09:52:48.000Z</time>
      </trkpt>
      <trkpt lat="47.28807" lon="-2.37114">
        <ele>-6.8000001907349</ele>
        <time>2022-09-22T09:52:49.000Z</time>
      </trkpt>
      <trkpt lat="47.28804" lon="-2.37112">
        <ele>-6.4000000953674</ele>
        <time>2022-09-22T09:52:50.000Z</time>
      </trkpt>
      <trkpt lat="47.28802" lon="-2.3711">
        <ele>-6.4000000953674</ele>
        <time>2022-09-22T09:52:51.000Z</time>
      </trkpt>
      <trkpt lat="47.28797" lon="-2.37093">
        <ele>-6</ele>
        <time>2022-09-22T09:52:56.000Z</time>
      </trkpt>
      <trkpt lat="47.28796" lon="-2.3709">
        <ele>-5.5999999046326</ele>
        <time>2022-09-22T09:52:57.000Z</time>
      </trkpt>
      <trkpt lat="47.28794" lon="-2.37086">
        <ele>-5.1999998092651</ele>
        <time>2022-09-22T09:52:58.000Z</time>
      </trkpt>
      <trkpt lat="47.28794" lon="-2.37082">
        <ele>-4.8000001907349</ele>
        <time>2022-09-22T09:52:59.000Z</time>
      </trkpt>
      <trkpt lat="47.28793" lon="-2.37078">
        <ele>-4.4000000953674</ele>
        <time>2022-09-22T09:53:00.000Z</time>
      </trkpt>
      <trkpt lat="47.28793" lon="-2.37075">
        <ele>-4.4000000953674</ele>
        <time>2022-09-22T09:53:01.000Z</time>
      </trkpt>
      <trkpt lat="47.2879" lon="-2.37067">
        <ele>-4</ele>
        <time>2022-09-22T09:53:03.000Z</time>
      </trkpt>
      <trkpt lat="47.28789" lon="-2.37064">
        <ele>-3.4000000953674</ele>
        <time>2022-09-22T09:53:04.000Z</time>
      </trkpt>
      <trkpt lat="47.28788" lon="-2.37061">
        <ele>-3</ele>
        <time>2022-09-22T09:53:05.000Z</time>
      </trkpt>
      <trkpt lat="47.28787" lon="-2.37057">
        <ele>-2.5999999046326</ele>
        <time>2022-09-22T09:53:06.000Z</time>
      </trkpt>
      <trkpt lat="47.28786" lon="-2.37054">
        <ele>-2.2000000476837</ele>
        <time>2022-09-22T09:53:07.000Z</time>
      </trkpt>
      <trkpt lat="47.28781" lon="-2.37038">
        <ele>-1.7999999523163</ele>
        <time>2022-09-22T09:53:13.000Z</time>
      </trkpt>
      <trkpt lat="47.2878" lon="-2.37033">
        <ele>-1.3999999761581</ele>
        <time>2022-09-22T09:53:14.000Z</time>
      </trkpt>
      <trkpt lat="47.28779" lon="-2.37029">
        <ele>-1</ele>
        <time>2022-09-22T09:53:15.000Z</time>
      </trkpt>
      <trkpt lat="47.28778" lon="-2.37025">
        <ele>-0.60000002384186</ele>
        <time>2022-09-22T09:53:16.000Z</time>
      </trkpt>
      <trkpt lat="47.28777" lon="-2.37022">
        <ele>-0.20000000298023</ele>
        <time>2022-09-22T09:53:17.000Z</time>
      </trkpt>
      <trkpt lat="47.28776" lon="-2.37019">
        <ele>-0.20000000298023</ele>
        <time>2022-09-22T09:53:18.000Z</time>
      </trkpt>
      <trkpt lat="47.28767" lon="-2.3701">
        <ele>-0.20000000298023</ele>
        <time>2022-09-22T09:53:23.000Z</time>
      </trkpt>
      <trkpt lat="47.28756" lon="-2.36981">
        <ele>-0.20000000298023</ele>
        <time>2022-09-22T09:53:30.000Z</time>
      </trkpt>
      <trkpt lat="47.2875" lon="-2.36954">
        <ele>-0.20000000298023</ele>
        <time>2022-09-22T09:53:34.000Z</time>
      </trkpt>
      <trkpt lat="47.28746" lon="-2.36948">
        <ele>-0.60000002384186</ele>
        <time>2022-09-22T09:53:35.000Z</time>
      </trkpt>
      <trkpt lat="47.28743" lon="-2.36941">
        <ele>-1</ele>
        <time>2022-09-22T09:53:36.000Z</time>
      </trkpt>
      <trkpt lat="47.28738" lon="-2.36934">
        <ele>-1.3999999761581</ele>
        <time>2022-09-22T09:53:37.000Z</time>
      </trkpt>
      <trkpt lat="47.28733" lon="-2.36927">
        <ele>-1.7999999523163</ele>
        <time>2022-09-22T09:53:38.000Z</time>
      </trkpt>
      <trkpt lat="47.28728" lon="-2.36922">
        <ele>-2.5999999046326</ele>
        <time>2022-09-22T09:53:39.000Z</time>
      </trkpt>
      <trkpt lat="47.28724" lon="-2.36918">
        <ele>-3.2000000476837</ele>
        <time>2022-09-22T09:53:40.000Z</time>
      </trkpt>
      <trkpt lat="47.28721" lon="-2.36916">
        <ele>-3.7999999523163</ele>
        <time>2022-09-22T09:53:41.000Z</time>
      </trkpt>
      <trkpt lat="47.28718" lon="-2.36915">
        <ele>-4.4000000953674</ele>
        <time>2022-09-22T09:53:42.000Z</time>
      </trkpt>
      <trkpt lat="47.28716" lon="-2.36914">
        <ele>-5</ele>
        <time>2022-09-22T09:53:43.000Z</time>
      </trkpt>
      <trkpt lat="47.28715" lon="-2.36912">
        <ele>-5</ele>
        <time>2022-09-22T09:53:45.000Z</time>
      </trkpt>
      <trkpt lat="47.28715" lon="-2.36911">
        <ele>-4.4000000953674</ele>
        <time>2022-09-22T09:53:46.000Z</time>
      </trkpt>
      <trkpt lat="47.28714" lon="-2.36908">
        <ele>-4</ele>
        <time>2022-09-22T09:53:47.000Z</time>
      </trkpt>
      <trkpt lat="47.28713" lon="-2.36906">
        <ele>-3.5999999046326</ele>
        <time>2022-09-22T09:53:48.000Z</time>
      </trkpt>
      <trkpt lat="47.28711" lon="-2.36904">
        <ele>-3.2000000476837</ele>
        <time>2022-09-22T09:53:49.000Z</time>
      </trkpt>
      <trkpt lat="47.2871" lon="-2.36901">
        <ele>-2.5999999046326</ele>
        <time>2022-09-22T09:53:50.000Z</time>
      </trkpt>
      <trkpt lat="47.28708" lon="-2.36897">
        <ele>-2.5999999046326</ele>
        <time>2022-09-22T09:53:51.000Z</time>
      </trkpt>
      <trkpt lat="47.28699" lon="-2.36881">
        <ele>-2.5999999046326</ele>
        <time>2022-09-22T09:53:55.000Z</time>
      </trkpt>
      <trkpt lat="47.2869" lon="-2.36866">
        <ele>-2.2000000476837</ele>
        <time>2022-09-22T09:53:59.000Z</time>
      </trkpt>
      <trkpt lat="47.28688" lon="-2.36862">
        <ele>-1.7999999523163</ele>
        <time>2022-09-22T09:54:00.000Z</time>
      </trkpt>
      <trkpt lat="47.28687" lon="-2.36857">
        <ele>-1.3999999761581</ele>
        <time>2022-09-22T09:54:01.000Z</time>
      </trkpt>
      <trkpt lat="47.28685" lon="-2.36853">
        <ele>-1</ele>
        <time>2022-09-22T09:54:02.000Z</time>
      </trkpt>
      <trkpt lat="47.28684" lon="-2.36849">
        <ele>-0.60000002384186</ele>
        <time>2022-09-22T09:54:03.000Z</time>
      </trkpt>
      <trkpt lat="47.28679" lon="-2.36838">
        <ele>-0.60000002384186</ele>
        <time>2022-09-22T09:54:06.000Z</time>
      </trkpt>
      <trkpt lat="47.28669" lon="-2.36817">
        <ele>-0.60000002384186</ele>
        <time>2022-09-22T09:54:12.000Z</time>
      </trkpt>
      <trkpt lat="47.28666" lon="-2.36811">
        <ele>-0.20000000298023</ele>
        <time>2022-09-22T09:54:13.000Z</time>
      </trkpt>
      <trkpt lat="47.28663" lon="-2.36807">
        <ele>0.20000000298023</ele>
        <time>2022-09-22T09:54:14.000Z</time>
      </trkpt>
      <trkpt lat="47.28659" lon="-2.36805">
        <ele>0.60000002384186</ele>
        <time>2022-09-22T09:54:15.000Z</time>
      </trkpt>
      <trkpt lat="47.28655" lon="-2.36806">
        <ele>1</ele>
        <time>2022-09-22T09:54:16.000Z</time>
      </trkpt>
      <trkpt lat="47.28652" lon="-2.36807">
        <ele>1.3999999761581</ele>
        <time>2022-09-22T09:54:17.000Z</time>
      </trkpt>
      <trkpt lat="47.28648" lon="-2.3681">
        <ele>1.3999999761581</ele>
        <time>2022-09-22T09:54:18.000Z</time>
      </trkpt>
      <trkpt lat="47.28639" lon="-2.36818">
        <ele>1.3999999761581</ele>
        <time>2022-09-22T09:54:20.000Z</time>
      </trkpt>
      <trkpt lat="47.28625" lon="-2.36832">
        <ele>1</ele>
        <time>2022-09-22T09:54:23.000Z</time>
      </trkpt>
      <trkpt lat="47.28621" lon="-2.36837">
        <ele>0.60000002384186</ele>
        <time>2022-09-22T09:54:24.000Z</time>
      </trkpt>
      <trkpt lat="47.28615" lon="-2.36841">
        <ele>0.20000000298023</ele>
        <time>2022-09-22T09:54:25.000Z</time>
      </trkpt>
      <trkpt lat="47.2861" lon="-2.36844">
        <ele>-0.20000000298023</ele>
        <time>2022-09-22T09:54:26.000Z</time>
      </trkpt>
      <trkpt lat="47.28604" lon="-2.36844">
        <ele>-0.60000002384186</ele>
        <time>2022-09-22T09:54:27.000Z</time>
      </trkpt>
      <trkpt lat="47.28593" lon="-2.36837">
        <ele>-0.60000002384186</ele>
        <time>2022-09-22T09:54:29.000Z</time>
      </trkpt>
      <trkpt lat="47.28582" lon="-2.36819">
        <ele>-0.60000002384186</ele>
        <time>2022-09-22T09:54:32.000Z</time>
      </trkpt>
      <trkpt lat="47.28576" lon="-2.36806">
        <ele>-0.60000002384186</ele>
        <time>2022-09-22T09:54:34.000Z</time>
      </trkpt>
      <trkpt lat="47.2856" lon="-2.36777">
        <ele>-0.60000002384186</ele>
        <time>2022-09-22T09:54:39.000Z</time>
      </trkpt>
      <trkpt lat="47.28557" lon="-2.36771">
        <ele>-0.60000002384186</ele>
        <time>2022-09-22T09:54:40.000Z</time>
      </trkpt>
      <trkpt lat="47.28546" lon="-2.3675">
        <ele>-0.60000002384186</ele>
        <time>2022-09-22T09:54:44.000Z</time>
      </trkpt>
      <trkpt lat="47.28541" lon="-2.3674">
        <ele>-0.60000002384186</ele>
        <time>2022-09-22T09:54:46.000Z</time>
      </trkpt>
      <trkpt lat="47.28539" lon="-2.36735">
        <ele>-0.20000000298023</ele>
        <time>2022-09-22T09:54:47.000Z</time>
      </trkpt>
      <trkpt lat="47.28537" lon="-2.3673">
        <ele>0.20000000298023</ele>
        <time>2022-09-22T09:54:48.000Z</time>
      </trkpt>
      <trkpt lat="47.28534" lon="-2.36725">
        <ele>0.60000002384186</ele>
        <time>2022-09-22T09:54:49.000Z</time>
      </trkpt>
      <trkpt lat="47.28532" lon="-2.3672">
        <ele>1</ele>
        <time>2022-09-22T09:54:50.000Z</time>
      </trkpt>
      <trkpt lat="47.28529" lon="-2.36715">
        <ele>1.3999999761581</ele>
        <time>2022-09-22T09:54:51.000Z</time>
      </trkpt>
      <trkpt lat="47.28527" lon="-2.36711">
        <ele>1.3999999761581</ele>
        <time>2022-09-22T09:54:52.000Z</time>
      </trkpt>
      <trkpt lat="47.28517" lon="-2.36693">
        <ele>1.7999999523163</ele>
        <time>2022-09-22T09:54:56.000Z</time>
      </trkpt>
      <trkpt lat="47.28516" lon="-2.36689">
        <ele>2.2000000476837</ele>
        <time>2022-09-22T09:54:57.000Z</time>
      </trkpt>
      <trkpt lat="47.28514" lon="-2.36686">
        <ele>2.5999999046326</ele>
        <time>2022-09-22T09:54:58.000Z</time>
      </trkpt>
      <trkpt lat="47.28512" lon="-2.36683">
        <ele>3.2000000476837</ele>
        <time>2022-09-22T09:54:59.000Z</time>
      </trkpt>
      <trkpt lat="47.28509" lon="-2.3668">
        <ele>3.5999999046326</ele>
        <time>2022-09-22T09:55:00.000Z</time>
      </trkpt>
      <trkpt lat="47.28497" lon="-2.3667">
        <ele>3.5999999046326</ele>
        <time>2022-09-22T09:55:04.000Z</time>
      </trkpt>
      <trkpt lat="47.28491" lon="-2.36659">
        <ele>3.5999999046326</ele>
        <time>2022-09-22T09:55:08.000Z</time>
      </trkpt>
      <trkpt lat="47.28489" lon="-2.36642">
        <ele>3.5999999046326</ele>
        <time>2022-09-22T09:55:12.000Z</time>
      </trkpt>
      <trkpt lat="47.28482" lon="-2.36617">
        <ele>4</ele>
        <time>2022-09-22T09:55:17.000Z</time>
      </trkpt>
      <trkpt lat="47.2848" lon="-2.36611">
        <ele>4.4000000953674</ele>
        <time>2022-09-22T09:55:18.000Z</time>
      </trkpt>
      <trkpt lat="47.28478" lon="-2.36606">
        <ele>4.8000001907349</ele>
        <time>2022-09-22T09:55:19.000Z</time>
      </trkpt>
      <trkpt lat="47.28476" lon="-2.36601">
        <ele>5.1999998092651</ele>
        <time>2022-09-22T09:55:20.000Z</time>
      </trkpt>
      <trkpt lat="47.28474" lon="-2.36595">
        <ele>5.5999999046326</ele>
        <time>2022-09-22T09:55:21.000Z</time>
      </trkpt>
      <trkpt lat="47.28469" lon="-2.36577">
        <ele>5.5999999046326</ele>
        <time>2022-09-22T09:55:24.000Z</time>
      </trkpt>
      <trkpt lat="47.28473" lon="-2.36561">
        <ele>5.5999999046326</ele>
        <time>2022-09-22T09:55:27.000Z</time>
      </trkpt>
      <trkpt lat="47.28478" lon="-2.36555">
        <ele>5.5999999046326</ele>
        <time>2022-09-22T09:55:29.000Z</time>
      </trkpt>
      <trkpt lat="47.28481" lon="-2.3655">
        <ele>5.5999999046326</ele>
        <time>2022-09-22T09:55:31.000Z</time>
      </trkpt>
      <trkpt lat="47.28481" lon="-2.3655">
        <ele>5.5999999046326</ele>
        <time>2022-09-22T09:55:32.000Z</time>
      </trkpt>
      <trkpt lat="47.28482" lon="-2.36548">
        <ele>5.5999999046326</ele>
        <time>2022-09-22T09:56:12.000Z</time>
      </trkpt>
      <trkpt lat="47.28485" lon="-2.36545">
        <ele>5.5999999046326</ele>
        <time>2022-09-22T09:56:14.000Z</time>
      </trkpt>
      <trkpt lat="47.28495" lon="-2.36531">
        <ele>5.5999999046326</ele>
        <time>2022-09-22T09:56:20.000Z</time>
      </trkpt>
      <trkpt lat="47.28504" lon="-2.3652">
        <ele>5.5999999046326</ele>
        <time>2022-09-22T09:56:25.000Z</time>
      </trkpt>
      <trkpt lat="47.2851" lon="-2.36513">
        <ele>6</ele>
        <time>2022-09-22T09:56:28.000Z</time>
      </trkpt>
      <trkpt lat="47.28511" lon="-2.36511">
        <ele>6.4000000953674</ele>
        <time>2022-09-22T09:56:29.000Z</time>
      </trkpt>
      <trkpt lat="47.28513" lon="-2.36509">
        <ele>7</ele>
        <time>2022-09-22T09:56:30.000Z</time>
      </trkpt>
      <trkpt lat="47.28515" lon="-2.36506">
        <ele>7.4000000953674</ele>
        <time>2022-09-22T09:56:31.000Z</time>
      </trkpt>
      <trkpt lat="47.28516" lon="-2.36504">
        <ele>7.8000001907349</ele>
        <time>2022-09-22T09:56:32.000Z</time>
      </trkpt>
      <trkpt lat="47.28517" lon="-2.36501">
        <ele>7.8000001907349</ele>
        <time>2022-09-22T09:56:33.000Z</time>
      </trkpt>
      <trkpt lat="47.28518" lon="-2.36494">
        <ele>7.8000001907349</ele>
        <time>2022-09-22T09:56:35.000Z</time>
      </trkpt>
      <trkpt lat="47.28517" lon="-2.36481">
        <ele>7.8000001907349</ele>
        <time>2022-09-22T09:56:38.000Z</time>
      </trkpt>
      <trkpt lat="47.28517" lon="-2.36477">
        <ele>7.8000001907349</ele>
        <time>2022-09-22T09:56:39.000Z</time>
      </trkpt>
      <trkpt lat="47.28514" lon="-2.36461">
        <ele>7.8000001907349</ele>
        <time>2022-09-22T09:56:43.000Z</time>
      </trkpt>
      <trkpt lat="47.28509" lon="-2.36453">
        <ele>7.8000001907349</ele>
        <time>2022-09-22T09:56:45.000Z</time>
      </trkpt>
      <trkpt lat="47.285" lon="-2.36445">
        <ele>7.8000001907349</ele>
        <time>2022-09-22T09:56:48.000Z</time>
      </trkpt>
      <trkpt lat="47.28484" lon="-2.36432">
        <ele>7.8000001907349</ele>
        <time>2022-09-22T09:56:53.000Z</time>
      </trkpt>
      <trkpt lat="47.2848" lon="-2.36426">
        <ele>8.1999998092651</ele>
        <time>2022-09-22T09:56:55.000Z</time>
      </trkpt>
      <trkpt lat="47.28478" lon="-2.36425">
        <ele>8.6000003814697</ele>
        <time>2022-09-22T09:56:56.000Z</time>
      </trkpt>
      <trkpt lat="47.28477" lon="-2.36423">
        <ele>9</ele>
        <time>2022-09-22T09:56:57.000Z</time>
      </trkpt>
      <trkpt lat="47.28475" lon="-2.36422">
        <ele>9.3999996185303</ele>
        <time>2022-09-22T09:56:58.000Z</time>
      </trkpt>
      <trkpt lat="47.28473" lon="-2.3642">
        <ele>9.8000001907349</ele>
        <time>2022-09-22T09:56:59.000Z</time>
      </trkpt>
      <trkpt lat="47.28471" lon="-2.36415">
        <ele>9.8000001907349</ele>
        <time>2022-09-22T09:57:01.000Z</time>
      </trkpt>
      <trkpt lat="47.2847" lon="-2.36412">
        <ele>9.8000001907349</ele>
        <time>2022-09-22T09:57:02.000Z</time>
      </trkpt>
      <trkpt lat="47.28462" lon="-2.364">
        <ele>9.8000001907349</ele>
        <time>2022-09-22T09:57:05.000Z</time>
      </trkpt>
      <trkpt lat="47.28449" lon="-2.36388">
        <ele>9.8000001907349</ele>
        <time>2022-09-22T09:57:08.000Z</time>
      </trkpt>
      <trkpt lat="47.28444" lon="-2.36385">
        <ele>9.8000001907349</ele>
        <time>2022-09-22T09:57:09.000Z</time>
      </trkpt>
      <trkpt lat="47.28426" lon="-2.36373">
        <ele>9.8000001907349</ele>
        <time>2022-09-22T09:57:13.000Z</time>
      </trkpt>
      <trkpt lat="47.28419" lon="-2.36364">
        <ele>9.8000001907349</ele>
        <time>2022-09-22T09:57:15.000Z</time>
      </trkpt>
      <trkpt lat="47.2841" lon="-2.36349">
        <ele>9.8000001907349</ele>
        <time>2022-09-22T09:57:18.000Z</time>
      </trkpt>
      <trkpt lat="47.28402" lon="-2.36341">
        <ele>9.8000001907349</ele>
        <time>2022-09-22T09:57:20.000Z</time>
      </trkpt>
      <trkpt lat="47.28397" lon="-2.36337">
        <ele>9.3999996185303</ele>
        <time>2022-09-22T09:57:21.000Z</time>
      </trkpt>
      <trkpt lat="47.28393" lon="-2.36333">
        <ele>9</ele>
        <time>2022-09-22T09:57:22.000Z</time>
      </trkpt>
      <trkpt lat="47.28388" lon="-2.36329">
        <ele>8.3999996185303</ele>
        <time>2022-09-22T09:57:23.000Z</time>
      </trkpt>
      <trkpt lat="47.28384" lon="-2.36324">
        <ele>8</ele>
        <time>2022-09-22T09:57:24.000Z</time>
      </trkpt>
      <trkpt lat="47.2838" lon="-2.36321">
        <ele>7.5999999046326</ele>
        <time>2022-09-22T09:57:25.000Z</time>
      </trkpt>
      <trkpt lat="47.28376" lon="-2.36318">
        <ele>7.5999999046326</ele>
        <time>2022-09-22T09:57:26.000Z</time>
      </trkpt>
      <trkpt lat="47.28364" lon="-2.3631">
        <ele>7</ele>
        <time>2022-09-22T09:57:30.000Z</time>
      </trkpt>
      <trkpt lat="47.28362" lon="-2.36305">
        <ele>6.5999999046326</ele>
        <time>2022-09-22T09:57:31.000Z</time>
      </trkpt>
      <trkpt lat="47.28362" lon="-2.363">
        <ele>6.1999998092651</ele>
        <time>2022-09-22T09:57:32.000Z</time>
      </trkpt>
      <trkpt lat="47.28363" lon="-2.36295">
        <ele>5.8000001907349</ele>
        <time>2022-09-22T09:57:33.000Z</time>
      </trkpt>
      <trkpt lat="47.28362" lon="-2.36289">
        <ele>5.4000000953674</ele>
        <time>2022-09-22T09:57:34.000Z</time>
      </trkpt>
      <trkpt lat="47.28357" lon="-2.36279">
        <ele>5.4000000953674</ele>
        <time>2022-09-22T09:57:36.000Z</time>
      </trkpt>
      <trkpt lat="47.28336" lon="-2.36266">
        <ele>5.4000000953674</ele>
        <time>2022-09-22T09:57:40.000Z</time>
      </trkpt>
      <trkpt lat="47.28331" lon="-2.36262">
        <ele>5.4000000953674</ele>
        <time>2022-09-22T09:57:41.000Z</time>
      </trkpt>
      <trkpt lat="47.28319" lon="-2.36257">
        <ele>5</ele>
        <time>2022-09-22T09:57:43.000Z</time>
      </trkpt>
      <trkpt lat="47.28314" lon="-2.36254">
        <ele>4.5999999046326</ele>
        <time>2022-09-22T09:57:44.000Z</time>
      </trkpt>
      <trkpt lat="47.28308" lon="-2.36252">
        <ele>4</ele>
        <time>2022-09-22T09:57:45.000Z</time>
      </trkpt>
      <trkpt lat="47.28302" lon="-2.36251">
        <ele>3.5999999046326</ele>
        <time>2022-09-22T09:57:46.000Z</time>
      </trkpt>
      <trkpt lat="47.28296" lon="-2.3625">
        <ele>3.2000000476837</ele>
        <time>2022-09-22T09:57:47.000Z</time>
      </trkpt>
      <trkpt lat="47.28291" lon="-2.36248">
        <ele>3.2000000476837</ele>
        <time>2022-09-22T09:57:48.000Z</time>
      </trkpt>
      <trkpt lat="47.28283" lon="-2.36242">
        <ele>3.2000000476837</ele>
        <time>2022-09-22T09:57:51.000Z</time>
      </trkpt>
      <trkpt lat="47.28278" lon="-2.36226">
        <ele>3.2000000476837</ele>
        <time>2022-09-22T09:57:56.000Z</time>
      </trkpt>
      <trkpt lat="47.28275" lon="-2.36206">
        <ele>3.2000000476837</ele>
        <time>2022-09-22T09:58:00.000Z</time>
      </trkpt>
      <trkpt lat="47.28268" lon="-2.36173">
        <ele>3.2000000476837</ele>
        <time>2022-09-22T09:58:05.000Z</time>
      </trkpt>
      <trkpt lat="47.28267" lon="-2.36167">
        <ele>3.2000000476837</ele>
        <time>2022-09-22T09:58:06.000Z</time>
      </trkpt>
      <trkpt lat="47.28254" lon="-2.36136">
        <ele>3.2000000476837</ele>
        <time>2022-09-22T09:58:11.000Z</time>
      </trkpt>
      <trkpt lat="47.28251" lon="-2.36131">
        <ele>3.2000000476837</ele>
        <time>2022-09-22T09:58:12.000Z</time>
      </trkpt>
      <trkpt lat="47.28243" lon="-2.36112">
        <ele>3.2000000476837</ele>
        <time>2022-09-22T09:58:16.000Z</time>
      </trkpt>
      <trkpt lat="47.28243" lon="-2.36102">
        <ele>3.5999999046326</ele>
        <time>2022-09-22T09:58:18.000Z</time>
      </trkpt>
      <trkpt lat="47.28243" lon="-2.36097">
        <ele>4.1999998092651</ele>
        <time>2022-09-22T09:58:19.000Z</time>
      </trkpt>
      <trkpt lat="47.28244" lon="-2.36092">
        <ele>4.5999999046326</ele>
        <time>2022-09-22T09:58:20.000Z</time>
      </trkpt>
      <trkpt lat="47.28245" lon="-2.36088">
        <ele>5</ele>
        <time>2022-09-22T09:58:21.000Z</time>
      </trkpt>
      <trkpt lat="47.28246" lon="-2.36084">
        <ele>5.4000000953674</ele>
        <time>2022-09-22T09:58:22.000Z</time>
      </trkpt>
      <trkpt lat="47.28246" lon="-2.3606">
        <ele>5.4000000953674</ele>
        <time>2022-09-22T09:58:26.000Z</time>
      </trkpt>
      <trkpt lat="47.2825" lon="-2.36037">
        <ele>5.4000000953674</ele>
        <time>2022-09-22T09:58:30.000Z</time>
      </trkpt>
      <trkpt lat="47.28251" lon="-2.36032">
        <ele>5.4000000953674</ele>
        <time>2022-09-22T09:58:31.000Z</time>
      </trkpt>
      <trkpt lat="47.28249" lon="-2.36025">
        <ele>5</ele>
        <time>2022-09-22T09:58:33.000Z</time>
      </trkpt>
      <trkpt lat="47.28248" lon="-2.36022">
        <ele>4.5999999046326</ele>
        <time>2022-09-22T09:58:34.000Z</time>
      </trkpt>
      <trkpt lat="47.28245" lon="-2.36022">
        <ele>4.1999998092651</ele>
        <time>2022-09-22T09:58:35.000Z</time>
      </trkpt>
      <trkpt lat="47.28242" lon="-2.36023">
        <ele>3.7999999523163</ele>
        <time>2022-09-22T09:58:36.000Z</time>
      </trkpt>
      <trkpt lat="47.28239" lon="-2.36025">
        <ele>3.4000000953674</ele>
        <time>2022-09-22T09:58:37.000Z</time>
      </trkpt>
      <trkpt lat="47.28226" lon="-2.36034">
        <ele>3.4000000953674</ele>
        <time>2022-09-22T09:58:41.000Z</time>
      </trkpt>
      <trkpt lat="47.28223" lon="-2.36035">
        <ele>3.4000000953674</ele>
        <time>2022-09-22T09:58:43.000Z</time>
      </trkpt>
      <trkpt lat="47.28221" lon="-2.36034">
        <ele>3</ele>
        <time>2022-09-22T09:58:44.000Z</time>
      </trkpt>
      <trkpt lat="47.28218" lon="-2.36033">
        <ele>2.5999999046326</ele>
        <time>2022-09-22T09:58:45.000Z</time>
      </trkpt>
      <trkpt lat="47.28215" lon="-2.36032">
        <ele>2.2000000476837</ele>
        <time>2022-09-22T09:58:46.000Z</time>
      </trkpt>
      <trkpt lat="47.28212" lon="-2.36031">
        <ele>1.7999999523163</ele>
        <time>2022-09-22T09:58:47.000Z</time>
      </trkpt>
      <trkpt lat="47.2821" lon="-2.36029">
        <ele>1.3999999761581</ele>
        <time>2022-09-22T09:58:48.000Z</time>
      </trkpt>
      <trkpt lat="47.28206" lon="-2.36024">
        <ele>1.3999999761581</ele>
        <time>2022-09-22T09:58:50.000Z</time>
      </trkpt>
      <trkpt lat="47.28192" lon="-2.35997">
        <ele>1.3999999761581</ele>
        <time>2022-09-22T09:58:56.000Z</time>
      </trkpt>
      <trkpt lat="47.28184" lon="-2.35977">
        <ele>1.3999999761581</ele>
        <time>2022-09-22T09:59:00.000Z</time>
      </trkpt>
      <trkpt lat="47.28178" lon="-2.35954">
        <ele>1.3999999761581</ele>
        <time>2022-09-22T09:59:05.000Z</time>
      </trkpt>
      <trkpt lat="47.28175" lon="-2.35928">
        <ele>1.3999999761581</ele>
        <time>2022-09-22T09:59:09.000Z</time>
      </trkpt>
      <trkpt lat="47.28174" lon="-2.35917">
        <ele>1.7999999523163</ele>
        <time>2022-09-22T09:59:11.000Z</time>
      </trkpt>
      <trkpt lat="47.28175" lon="-2.35911">
        <ele>2.2000000476837</ele>
        <time>2022-09-22T09:59:12.000Z</time>
      </trkpt>
      <trkpt lat="47.28176" lon="-2.35906">
        <ele>2.5999999046326</ele>
        <time>2022-09-22T09:59:13.000Z</time>
      </trkpt>
      <trkpt lat="47.28176" lon="-2.35903">
        <ele>3</ele>
        <time>2022-09-22T09:59:14.000Z</time>
      </trkpt>
      <trkpt lat="47.28177" lon="-2.359">
        <ele>3.4000000953674</ele>
        <time>2022-09-22T09:59:15.000Z</time>
      </trkpt>
      <trkpt lat="47.28176" lon="-2.35892">
        <ele>3.4000000953674</ele>
        <time>2022-09-22T09:59:19.000Z</time>
      </trkpt>
      <trkpt lat="47.28179" lon="-2.35881">
        <ele>3.4000000953674</ele>
        <time>2022-09-22T09:59:22.000Z</time>
      </trkpt>
      <trkpt lat="47.28179" lon="-2.35876">
        <ele>3.4000000953674</ele>
        <time>2022-09-22T09:59:23.000Z</time>
      </trkpt>
      <trkpt lat="47.28179" lon="-2.35872">
        <ele>3.4000000953674</ele>
        <time>2022-09-22T09:59:24.000Z</time>
      </trkpt>
      <trkpt lat="47.28175" lon="-2.35852">
        <ele>3.4000000953674</ele>
        <time>2022-09-22T09:59:29.000Z</time>
      </trkpt>
      <trkpt lat="47.28172" lon="-2.35845">
        <ele>3.4000000953674</ele>
        <time>2022-09-22T09:59:31.000Z</time>
      </trkpt>
      <trkpt lat="47.2817" lon="-2.35841">
        <ele>3.4000000953674</ele>
        <time>2022-09-22T09:59:32.000Z</time>
      </trkpt>
      <trkpt lat="47.2816" lon="-2.35826">
        <ele>3.4000000953674</ele>
        <time>2022-09-22T09:59:37.000Z</time>
      </trkpt>
      <trkpt lat="47.28146" lon="-2.35818">
        <ele>3.4000000953674</ele>
        <time>2022-09-22T09:59:41.000Z</time>
      </trkpt>
      <trkpt lat="47.28135" lon="-2.35802">
        <ele>3.4000000953674</ele>
        <time>2022-09-22T09:59:45.000Z</time>
      </trkpt>
      <trkpt lat="47.28133" lon="-2.35781">
        <ele>3.4000000953674</ele>
        <time>2022-09-22T09:59:49.000Z</time>
      </trkpt>
      <trkpt lat="47.28129" lon="-2.3576">
        <ele>3.4000000953674</ele>
        <time>2022-09-22T09:59:53.000Z</time>
      </trkpt>
      <trkpt lat="47.28127" lon="-2.35757">
        <ele>3.4000000953674</ele>
        <time>2022-09-22T09:59:54.000Z</time>
      </trkpt>
      <trkpt lat="47.28116" lon="-2.35756">
        <ele>3.4000000953674</ele>
        <time>2022-09-22T09:59:58.000Z</time>
      </trkpt>
      <trkpt lat="47.28106" lon="-2.35767">
        <ele>3.4000000953674</ele>
        <time>2022-09-22T10:00:02.000Z</time>
      </trkpt>
      <trkpt lat="47.28105" lon="-2.35768">
        <ele>3.4000000953674</ele>
        <time>2022-09-22T10:00:03.000Z</time>
      </trkpt>
      <trkpt lat="47.281" lon="-2.35777">
        <ele>3.4000000953674</ele>
        <time>2022-09-22T10:00:07.000Z</time>
      </trkpt>
      <trkpt lat="47.28089" lon="-2.35797">
        <ele>3.4000000953674</ele>
        <time>2022-09-22T10:00:15.000Z</time>
      </trkpt>
      <trkpt lat="47.28085" lon="-2.35798">
        <ele>3.4000000953674</ele>
        <time>2022-09-22T10:00:17.000Z</time>
      </trkpt>
      <trkpt lat="47.28079" lon="-2.35798">
        <ele>3.4000000953674</ele>
        <time>2022-09-22T10:00:20.000Z</time>
      </trkpt>
      <trkpt lat="47.28078" lon="-2.35796">
        <ele>3.4000000953674</ele>
        <time>2022-09-22T10:00:21.000Z</time>
      </trkpt>
      <trkpt lat="47.28079" lon="-2.35786">
        <ele>3.7999999523163</ele>
        <time>2022-09-22T10:00:24.000Z</time>
      </trkpt>
      <trkpt lat="47.28079" lon="-2.35783">
        <ele>4.1999998092651</ele>
        <time>2022-09-22T10:00:25.000Z</time>
      </trkpt>
      <trkpt lat="47.2808" lon="-2.3578">
        <ele>4.8000001907349</ele>
        <time>2022-09-22T10:00:26.000Z</time>
      </trkpt>
      <trkpt lat="47.28082" lon="-2.35776">
        <ele>5.8000001907349</ele>
        <time>2022-09-22T10:00:27.000Z</time>
      </trkpt>
      <trkpt lat="47.28085" lon="-2.35751">
        <ele>5.8000001907349</ele>
        <time>2022-09-22T10:00:32.000Z</time>
      </trkpt>
      <trkpt lat="47.28087" lon="-2.35739">
        <ele>6.1999998092651</ele>
        <time>2022-09-22T10:00:35.000Z</time>
      </trkpt>
      <trkpt lat="47.28088" lon="-2.35735">
        <ele>6.5999999046326</ele>
        <time>2022-09-22T10:00:36.000Z</time>
      </trkpt>
      <trkpt lat="47.28089" lon="-2.35732">
        <ele>7</ele>
        <time>2022-09-22T10:00:37.000Z</time>
      </trkpt>
      <trkpt lat="47.28089" lon="-2.35728">
        <ele>7.4000000953674</ele>
        <time>2022-09-22T10:00:38.000Z</time>
      </trkpt>
      <trkpt lat="47.28091" lon="-2.35724">
        <ele>7.8000001907349</ele>
        <time>2022-09-22T10:00:39.000Z</time>
      </trkpt>
      <trkpt lat="47.28093" lon="-2.35703">
        <ele>7.8000001907349</ele>
        <time>2022-09-22T10:00:43.000Z</time>
      </trkpt>
      <trkpt lat="47.2809" lon="-2.35689">
        <ele>7.8000001907349</ele>
        <time>2022-09-22T10:00:46.000Z</time>
      </trkpt>
      <trkpt lat="47.28088" lon="-2.35681">
        <ele>7.8000001907349</ele>
        <time>2022-09-22T10:00:47.000Z</time>
      </trkpt>
      <trkpt lat="47.28078" lon="-2.35641">
        <ele>7.4000000953674</ele>
        <time>2022-09-22T10:00:53.000Z</time>
      </trkpt>
      <trkpt lat="47.28078" lon="-2.35637">
        <ele>6.8000001907349</ele>
        <time>2022-09-22T10:00:54.000Z</time>
      </trkpt>
      <trkpt lat="47.28078" lon="-2.35633">
        <ele>6.4000000953674</ele>
        <time>2022-09-22T10:00:55.000Z</time>
      </trkpt>
      <trkpt lat="47.28079" lon="-2.35631">
        <ele>6</ele>
        <time>2022-09-22T10:00:56.000Z</time>
      </trkpt>
      <trkpt lat="47.2808" lon="-2.3563">
        <ele>5.4000000953674</ele>
        <time>2022-09-22T10:00:57.000Z</time>
      </trkpt>
      <trkpt lat="47.28081" lon="-2.35629">
        <ele>5</ele>
        <time>2022-09-22T10:00:58.000Z</time>
      </trkpt>
      <trkpt lat="47.28083" lon="-2.35629">
        <ele>4.4000000953674</ele>
        <time>2022-09-22T10:00:59.000Z</time>
      </trkpt>
      <trkpt lat="47.28084" lon="-2.35629">
        <ele>4</ele>
        <time>2022-09-22T10:01:00.000Z</time>
      </trkpt>
      <trkpt lat="47.28085" lon="-2.3563">
        <ele>3.4000000953674</ele>
        <time>2022-09-22T10:01:01.000Z</time>
      </trkpt>
      <trkpt lat="47.28085" lon="-2.3563">
        <ele>3.4000000953674</ele>
        <time>2022-09-22T10:01:02.000Z</time>
      </trkpt>
      <trkpt lat="47.28082" lon="-2.3562">
        <ele>7.4000000953674</ele>
        <time>2022-09-22T10:26:34.000Z</time>
      </trkpt>
      <trkpt lat="47.28079" lon="-2.35613">
        <ele>7.4000000953674</ele>
        <time>2022-09-22T10:26:37.000Z</time>
      </trkpt>
      <trkpt lat="47.28074" lon="-2.35602">
        <ele>7.4000000953674</ele>
        <time>2022-09-22T10:26:42.000Z</time>
      </trkpt>
      <trkpt lat="47.28073" lon="-2.35599">
        <ele>7.4000000953674</ele>
        <time>2022-09-22T10:26:43.000Z</time>
      </trkpt>
      <trkpt lat="47.28067" lon="-2.35587">
        <ele>7.4000000953674</ele>
        <time>2022-09-22T10:26:48.000Z</time>
      </trkpt>
      <trkpt lat="47.2806" lon="-2.35582">
        <ele>7.4000000953674</ele>
        <time>2022-09-22T10:26:51.000Z</time>
      </trkpt>
      <trkpt lat="47.28055" lon="-2.3558">
        <ele>7.4000000953674</ele>
        <time>2022-09-22T10:26:53.000Z</time>
      </trkpt>
      <trkpt lat="47.28036" lon="-2.35576">
        <ele>7.4000000953674</ele>
        <time>2022-09-22T10:26:59.000Z</time>
      </trkpt>
      <trkpt lat="47.28021" lon="-2.35577">
        <ele>7.4000000953674</ele>
        <time>2022-09-22T10:27:04.000Z</time>
      </trkpt>
      <trkpt lat="47.27998" lon="-2.35582">
        <ele>7.4000000953674</ele>
        <time>2022-09-22T10:27:11.000Z</time>
      </trkpt>
      <trkpt lat="47.27995" lon="-2.35584">
        <ele>7</ele>
        <time>2022-09-22T10:27:12.000Z</time>
      </trkpt>
      <trkpt lat="47.27992" lon="-2.35585">
        <ele>6.1999998092651</ele>
        <time>2022-09-22T10:27:13.000Z</time>
      </trkpt>
      <trkpt lat="47.27989" lon="-2.35586">
        <ele>5.8000001907349</ele>
        <time>2022-09-22T10:27:14.000Z</time>
      </trkpt>
      <trkpt lat="47.27986" lon="-2.35586">
        <ele>5.4000000953674</ele>
        <time>2022-09-22T10:27:15.000Z</time>
      </trkpt>
      <trkpt lat="47.27983" lon="-2.35586">
        <ele>5.4000000953674</ele>
        <time>2022-09-22T10:27:16.000Z</time>
      </trkpt>
      <trkpt lat="47.27963" lon="-2.35581">
        <ele>5.4000000953674</ele>
        <time>2022-09-22T10:27:21.000Z</time>
      </trkpt>
      <trkpt lat="47.27946" lon="-2.35585">
        <ele>5.4000000953674</ele>
        <time>2022-09-22T10:27:25.000Z</time>
      </trkpt>
      <trkpt lat="47.27916" lon="-2.3559">
        <ele>5.4000000953674</ele>
        <time>2022-09-22T10:27:31.000Z</time>
      </trkpt>
      <trkpt lat="47.27884" lon="-2.35597">
        <ele>5</ele>
        <time>2022-09-22T10:27:37.000Z</time>
      </trkpt>
      <trkpt lat="47.27879" lon="-2.35598">
        <ele>4</ele>
        <time>2022-09-22T10:27:38.000Z</time>
      </trkpt>
      <trkpt lat="47.27873" lon="-2.35599">
        <ele>3.5999999046326</ele>
        <time>2022-09-22T10:27:39.000Z</time>
      </trkpt>
      <trkpt lat="47.27868" lon="-2.35601">
        <ele>3.2000000476837</ele>
        <time>2022-09-22T10:27:40.000Z</time>
      </trkpt>
      <trkpt lat="47.27833" lon="-2.35609">
        <ele>3.2000000476837</ele>
        <time>2022-09-22T10:27:46.000Z</time>
      </trkpt>
      <trkpt lat="47.27821" lon="-2.35613">
        <ele>2.7999999523163</ele>
        <time>2022-09-22T10:27:48.000Z</time>
      </trkpt>
      <trkpt lat="47.27815" lon="-2.35615">
        <ele>2.4000000953674</ele>
        <time>2022-09-22T10:27:49.000Z</time>
      </trkpt>
      <trkpt lat="47.27808" lon="-2.35617">
        <ele>2</ele>
        <time>2022-09-22T10:27:50.000Z</time>
      </trkpt>
      <trkpt lat="47.27802" lon="-2.3562">
        <ele>1.6000000238419</ele>
        <time>2022-09-22T10:27:51.000Z</time>
      </trkpt>
      <trkpt lat="47.27796" lon="-2.35622">
        <ele>1.2000000476837</ele>
        <time>2022-09-22T10:27:52.000Z</time>
      </trkpt>
      <trkpt lat="47.27789" lon="-2.35626">
        <ele>1.2000000476837</ele>
        <time>2022-09-22T10:27:53.000Z</time>
      </trkpt>
      <trkpt lat="47.27777" lon="-2.35634">
        <ele>1.2000000476837</ele>
        <time>2022-09-22T10:27:55.000Z</time>
      </trkpt>
      <trkpt lat="47.27762" lon="-2.35649">
        <ele>1.2000000476837</ele>
        <time>2022-09-22T10:27:58.000Z</time>
      </trkpt>
      <trkpt lat="47.27741" lon="-2.3568">
        <ele>0.20000000298023</ele>
        <time>2022-09-22T10:28:03.000Z</time>
      </trkpt>
      <trkpt lat="47.27737" lon="-2.35685">
        <ele>-0.20000000298023</ele>
        <time>2022-09-22T10:28:04.000Z</time>
      </trkpt>
      <trkpt lat="47.27733" lon="-2.3569">
        <ele>-0.60000002384186</ele>
        <time>2022-09-22T10:28:05.000Z</time>
      </trkpt>
      <trkpt lat="47.27729" lon="-2.35696">
        <ele>-1</ele>
        <time>2022-09-22T10:28:06.000Z</time>
      </trkpt>
      <trkpt lat="47.27706" lon="-2.35722">
        <ele>-1</ele>
        <time>2022-09-22T10:28:11.000Z</time>
      </trkpt>
      <trkpt lat="47.27692" lon="-2.35733">
        <ele>-1.6000000238419</ele>
        <time>2022-09-22T10:28:14.000Z</time>
      </trkpt>
      <trkpt lat="47.27688" lon="-2.35738">
        <ele>-2</ele>
        <time>2022-09-22T10:28:15.000Z</time>
      </trkpt>
      <trkpt lat="47.27684" lon="-2.35743">
        <ele>-2.4000000953674</ele>
        <time>2022-09-22T10:28:16.000Z</time>
      </trkpt>
      <trkpt lat="47.27679" lon="-2.35745">
        <ele>-2.7999999523163</ele>
        <time>2022-09-22T10:28:17.000Z</time>
      </trkpt>
      <trkpt lat="47.27675" lon="-2.35744">
        <ele>-3.2000000476837</ele>
        <time>2022-09-22T10:28:18.000Z</time>
      </trkpt>
      <trkpt lat="47.2767" lon="-2.35741">
        <ele>-3.2000000476837</ele>
        <time>2022-09-22T10:28:19.000Z</time>
      </trkpt>
      <trkpt lat="47.27653" lon="-2.35724">
        <ele>-3.2000000476837</ele>
        <time>2022-09-22T10:28:23.000Z</time>
      </trkpt>
      <trkpt lat="47.27647" lon="-2.35722">
        <ele>-3.2000000476837</ele>
        <time>2022-09-22T10:28:24.000Z</time>
      </trkpt>
      <trkpt lat="47.27623" lon="-2.35715">
        <ele>-3.2000000476837</ele>
        <time>2022-09-22T10:28:28.000Z</time>
      </trkpt>
      <trkpt lat="47.27582" lon="-2.35704">
        <ele>-3.5999999046326</ele>
        <time>2022-09-22T10:28:35.000Z</time>
      </trkpt>
      <trkpt lat="47.27576" lon="-2.35703">
        <ele>-4</ele>
        <time>2022-09-22T10:28:36.000Z</time>
      </trkpt>
      <trkpt lat="47.27571" lon="-2.35701">
        <ele>-4.4000000953674</ele>
        <time>2022-09-22T10:28:37.000Z</time>
      </trkpt>
      <trkpt lat="47.27565" lon="-2.357">
        <ele>-4.8000001907349</ele>
        <time>2022-09-22T10:28:38.000Z</time>
      </trkpt>
      <trkpt lat="47.27559" lon="-2.35698">
        <ele>-5.1999998092651</ele>
        <time>2022-09-22T10:28:39.000Z</time>
      </trkpt>
      <trkpt lat="47.27535" lon="-2.35693">
        <ele>-5.1999998092651</ele>
        <time>2022-09-22T10:28:43.000Z</time>
      </trkpt>
      <trkpt lat="47.27497" lon="-2.35684">
        <ele>-5.5999999046326</ele>
        <time>2022-09-22T10:28:49.000Z</time>
      </trkpt>
      <trkpt lat="47.2749" lon="-2.35682">
        <ele>-6</ele>
        <time>2022-09-22T10:28:50.000Z</time>
      </trkpt>
      <trkpt lat="47.27484" lon="-2.35681">
        <ele>-6.4000000953674</ele>
        <time>2022-09-22T10:28:51.000Z</time>
      </trkpt>
      <trkpt lat="47.27478" lon="-2.3568">
        <ele>-7.4000000953674</ele>
        <time>2022-09-22T10:28:52.000Z</time>
      </trkpt>
      <trkpt lat="47.2746" lon="-2.35676">
        <ele>-7.4000000953674</ele>
        <time>2022-09-22T10:28:55.000Z</time>
      </trkpt>
      <trkpt lat="47.27421" lon="-2.35667">
        <ele>-7.4000000953674</ele>
        <time>2022-09-22T10:29:02.000Z</time>
      </trkpt>
      <trkpt lat="47.2741" lon="-2.35668">
        <ele>-7.4000000953674</ele>
        <time>2022-09-22T10:29:04.000Z</time>
      </trkpt>
      <trkpt lat="47.27394" lon="-2.35676">
        <ele>-7.4000000953674</ele>
        <time>2022-09-22T10:29:07.000Z</time>
      </trkpt>
      <trkpt lat="47.27388" lon="-2.3568">
        <ele>-7.8000001907349</ele>
        <time>2022-09-22T10:29:08.000Z</time>
      </trkpt>
      <trkpt lat="47.27383" lon="-2.35683">
        <ele>-8.1999998092651</ele>
        <time>2022-09-22T10:29:09.000Z</time>
      </trkpt>
      <trkpt lat="47.27378" lon="-2.35687">
        <ele>-8.6000003814697</ele>
        <time>2022-09-22T10:29:10.000Z</time>
      </trkpt>
      <trkpt lat="47.27372" lon="-2.3569">
        <ele>-9.1999998092651</ele>
        <time>2022-09-22T10:29:11.000Z</time>
      </trkpt>
      <trkpt lat="47.27367" lon="-2.35694">
        <ele>-9.6000003814697</ele>
        <time>2022-09-22T10:29:12.000Z</time>
      </trkpt>
      <trkpt lat="47.27362" lon="-2.35697">
        <ele>-9.6000003814697</ele>
        <time>2022-09-22T10:29:13.000Z</time>
      </trkpt>
      <trkpt lat="47.27338" lon="-2.35717">
        <ele>-9.6000003814697</ele>
        <time>2022-09-22T10:29:18.000Z</time>
      </trkpt>
      <trkpt lat="47.2733" lon="-2.35726">
        <ele>-9.6000003814697</ele>
        <time>2022-09-22T10:29:20.000Z</time>
      </trkpt>
      <trkpt lat="47.27316" lon="-2.3574">
        <ele>-9.6000003814697</ele>
        <time>2022-09-22T10:29:24.000Z</time>
      </trkpt>
      <trkpt lat="47.27306" lon="-2.35731">
        <ele>-9.6000003814697</ele>
        <time>2022-09-22T10:29:27.000Z</time>
      </trkpt>
      <trkpt lat="47.27301" lon="-2.3572">
        <ele>-9.6000003814697</ele>
        <time>2022-09-22T10:29:29.000Z</time>
      </trkpt>
      <trkpt lat="47.27294" lon="-2.35697">
        <ele>-9.6000003814697</ele>
        <time>2022-09-22T10:29:33.000Z</time>
      </trkpt>
      <trkpt lat="47.27281" lon="-2.35669">
        <ele>-9.6000003814697</ele>
        <time>2022-09-22T10:29:39.000Z</time>
      </trkpt>
      <trkpt lat="47.27266" lon="-2.35634">
        <ele>-9.1999998092651</ele>
        <time>2022-09-22T10:29:46.000Z</time>
      </trkpt>
      <trkpt lat="47.27264" lon="-2.35629">
        <ele>-8.8000001907349</ele>
        <time>2022-09-22T10:29:47.000Z</time>
      </trkpt>
      <trkpt lat="47.27261" lon="-2.35623">
        <ele>-8.3999996185303</ele>
        <time>2022-09-22T10:29:48.000Z</time>
      </trkpt>
      <trkpt lat="47.27259" lon="-2.35618">
        <ele>-8</ele>
        <time>2022-09-22T10:29:49.000Z</time>
      </trkpt>
      <trkpt lat="47.27257" lon="-2.35613">
        <ele>-7.5999999046326</ele>
        <time>2022-09-22T10:29:50.000Z</time>
      </trkpt>
      <trkpt lat="47.27251" lon="-2.35599">
        <ele>-7.5999999046326</ele>
        <time>2022-09-22T10:29:53.000Z</time>
      </trkpt>
      <trkpt lat="47.27234" lon="-2.35564">
        <ele>-7.5999999046326</ele>
        <time>2022-09-22T10:30:00.000Z</time>
      </trkpt>
      <trkpt lat="47.27216" lon="-2.35524">
        <ele>-7.5999999046326</ele>
        <time>2022-09-22T10:30:07.000Z</time>
      </trkpt>
      <trkpt lat="47.27196" lon="-2.35482">
        <ele>-7.5999999046326</ele>
        <time>2022-09-22T10:30:15.000Z</time>
      </trkpt>
      <trkpt lat="47.27191" lon="-2.35471">
        <ele>-7.5999999046326</ele>
        <time>2022-09-22T10:30:17.000Z</time>
      </trkpt>
      <trkpt lat="47.27179" lon="-2.35449">
        <ele>-7.5999999046326</ele>
        <time>2022-09-22T10:30:21.000Z</time>
      </trkpt>
      <trkpt lat="47.27151" lon="-2.35396">
        <ele>-7.5999999046326</ele>
        <time>2022-09-22T10:30:30.000Z</time>
      </trkpt>
      <trkpt lat="47.2713" lon="-2.35357">
        <ele>-7.5999999046326</ele>
        <time>2022-09-22T10:30:37.000Z</time>
      </trkpt>
      <trkpt lat="47.27105" lon="-2.35319">
        <ele>-7.5999999046326</ele>
        <time>2022-09-22T10:30:44.000Z</time>
      </trkpt>
      <trkpt lat="47.27076" lon="-2.35274">
        <ele>-7.5999999046326</ele>
        <time>2022-09-22T10:30:52.000Z</time>
      </trkpt>
      <trkpt lat="47.27056" lon="-2.35238">
        <ele>-7.5999999046326</ele>
        <time>2022-09-22T10:30:58.000Z</time>
      </trkpt>
      <trkpt lat="47.27053" lon="-2.35233">
        <ele>-7.5999999046326</ele>
        <time>2022-09-22T10:30:59.000Z</time>
      </trkpt>
      <trkpt lat="47.27023" lon="-2.35188">
        <ele>-7.5999999046326</ele>
        <time>2022-09-22T10:31:07.000Z</time>
      </trkpt>
      <trkpt lat="47.26993" lon="-2.35144">
        <ele>-7.5999999046326</ele>
        <time>2022-09-22T10:31:15.000Z</time>
      </trkpt>
      <trkpt lat="47.26965" lon="-2.35099">
        <ele>-7.5999999046326</ele>
        <time>2022-09-22T10:31:23.000Z</time>
      </trkpt>
      <trkpt lat="47.26933" lon="-2.35058">
        <ele>-7.5999999046326</ele>
        <time>2022-09-22T10:31:31.000Z</time>
      </trkpt>
      <trkpt lat="47.26903" lon="-2.35013">
        <ele>-7.5999999046326</ele>
        <time>2022-09-22T10:31:38.000Z</time>
      </trkpt>
      <trkpt lat="47.26875" lon="-2.3497">
        <ele>-7.5999999046326</ele>
        <time>2022-09-22T10:31:45.000Z</time>
      </trkpt>
      <trkpt lat="47.26845" lon="-2.34921">
        <ele>-7.5999999046326</ele>
        <time>2022-09-22T10:31:53.000Z</time>
      </trkpt>
      <trkpt lat="47.26811" lon="-2.34873">
        <ele>-7.5999999046326</ele>
        <time>2022-09-22T10:32:01.000Z</time>
      </trkpt>
      <trkpt lat="47.26776" lon="-2.34822">
        <ele>-7.5999999046326</ele>
        <time>2022-09-22T10:32:10.000Z</time>
      </trkpt>
      <trkpt lat="47.26759" lon="-2.34799">
        <ele>-7.5999999046326</ele>
        <time>2022-09-22T10:32:16.000Z</time>
      </trkpt>
      <trkpt lat="47.26755" lon="-2.34795">
        <ele>-7.5999999046326</ele>
        <time>2022-09-22T10:32:17.000Z</time>
      </trkpt>
      <trkpt lat="47.26743" lon="-2.34781">
        <ele>-7.5999999046326</ele>
        <time>2022-09-22T10:32:20.000Z</time>
      </trkpt>
      <trkpt lat="47.26706" lon="-2.34735">
        <ele>-7.5999999046326</ele>
        <time>2022-09-22T10:32:28.000Z</time>
      </trkpt>
      <trkpt lat="47.26674" lon="-2.34695">
        <ele>-7.5999999046326</ele>
        <time>2022-09-22T10:32:35.000Z</time>
      </trkpt>
      <trkpt lat="47.26638" lon="-2.34651">
        <ele>-7.5999999046326</ele>
        <time>2022-09-22T10:32:43.000Z</time>
      </trkpt>
      <trkpt lat="47.26604" lon="-2.34609">
        <ele>-7.5999999046326</ele>
        <time>2022-09-22T10:32:51.000Z</time>
      </trkpt>
      <trkpt lat="47.26562" lon="-2.34563">
        <ele>-7.5999999046326</ele>
        <time>2022-09-22T10:33:00.000Z</time>
      </trkpt>
      <trkpt lat="47.26518" lon="-2.34521">
        <ele>-7.5999999046326</ele>
        <time>2022-09-22T10:33:09.000Z</time>
      </trkpt>
      <trkpt lat="47.26481" lon="-2.34495">
        <ele>-7.5999999046326</ele>
        <time>2022-09-22T10:33:16.000Z</time>
      </trkpt>
      <trkpt lat="47.2644" lon="-2.34466">
        <ele>-7.5999999046326</ele>
        <time>2022-09-22T10:33:24.000Z</time>
      </trkpt>
      <trkpt lat="47.26391" lon="-2.34428">
        <ele>-7.5999999046326</ele>
        <time>2022-09-22T10:33:34.000Z</time>
      </trkpt>
      <trkpt lat="47.26354" lon="-2.34394">
        <ele>-7.5999999046326</ele>
        <time>2022-09-22T10:33:42.000Z</time>
      </trkpt>
      <trkpt lat="47.26339" lon="-2.34382">
        <ele>-7.5999999046326</ele>
        <time>2022-09-22T10:33:45.000Z</time>
      </trkpt>
      <trkpt lat="47.26329" lon="-2.3438">
        <ele>-7.5999999046326</ele>
        <time>2022-09-22T10:33:47.000Z</time>
      </trkpt>
      <trkpt lat="47.26317" lon="-2.34366">
        <ele>-7.5999999046326</ele>
        <time>2022-09-22T10:33:50.000Z</time>
      </trkpt>
      <trkpt lat="47.26313" lon="-2.3436">
        <ele>-7.5999999046326</ele>
        <time>2022-09-22T10:33:51.000Z</time>
      </trkpt>
      <trkpt lat="47.26309" lon="-2.34354">
        <ele>-7.5999999046326</ele>
        <time>2022-09-22T10:33:52.000Z</time>
      </trkpt>
      <trkpt lat="47.26294" lon="-2.34338">
        <ele>-7.5999999046326</ele>
        <time>2022-09-22T10:33:55.000Z</time>
      </trkpt>
      <trkpt lat="47.26257" lon="-2.34299">
        <ele>-7.5999999046326</ele>
        <time>2022-09-22T10:34:03.000Z</time>
      </trkpt>
      <trkpt lat="47.26225" lon="-2.34265">
        <ele>-7.5999999046326</ele>
        <time>2022-09-22T10:34:10.000Z</time>
      </trkpt>
      <trkpt lat="47.26188" lon="-2.34225">
        <ele>-7.5999999046326</ele>
        <time>2022-09-22T10:34:18.000Z</time>
      </trkpt>
      <trkpt lat="47.26153" lon="-2.34191">
        <ele>-7.5999999046326</ele>
        <time>2022-09-22T10:34:26.000Z</time>
      </trkpt>
      <trkpt lat="47.26139" lon="-2.34185">
        <ele>-7.5999999046326</ele>
        <time>2022-09-22T10:34:30.000Z</time>
      </trkpt>
      <trkpt lat="47.26132" lon="-2.34181">
        <ele>-7.5999999046326</ele>
        <time>2022-09-22T10:34:32.000Z</time>
      </trkpt>
      <trkpt lat="47.26125" lon="-2.34173">
        <ele>-7.5999999046326</ele>
        <time>2022-09-22T10:34:34.000Z</time>
      </trkpt>
      <trkpt lat="47.26108" lon="-2.34158">
        <ele>-7.5999999046326</ele>
        <time>2022-09-22T10:34:38.000Z</time>
      </trkpt>
      <trkpt lat="47.26098" lon="-2.34154">
        <ele>-7.5999999046326</ele>
        <time>2022-09-22T10:34:40.000Z</time>
      </trkpt>
      <trkpt lat="47.26077" lon="-2.34143">
        <ele>-7.5999999046326</ele>
        <time>2022-09-22T10:34:44.000Z</time>
      </trkpt>
      <trkpt lat="47.2604" lon="-2.34124">
        <ele>-8</ele>
        <time>2022-09-22T10:34:52.000Z</time>
      </trkpt>
      <trkpt lat="47.26036" lon="-2.34122">
        <ele>-8.3999996185303</ele>
        <time>2022-09-22T10:34:53.000Z</time>
      </trkpt>
      <trkpt lat="47.26032" lon="-2.3412">
        <ele>-8.8000001907349</ele>
        <time>2022-09-22T10:34:54.000Z</time>
      </trkpt>
      <trkpt lat="47.26028" lon="-2.34118">
        <ele>-9.1999998092651</ele>
        <time>2022-09-22T10:34:55.000Z</time>
      </trkpt>
      <trkpt lat="47.26024" lon="-2.34116">
        <ele>-9.6000003814697</ele>
        <time>2022-09-22T10:34:56.000Z</time>
      </trkpt>
      <trkpt lat="47.26014" lon="-2.34111">
        <ele>-9.6000003814697</ele>
        <time>2022-09-22T10:34:58.000Z</time>
      </trkpt>
      <trkpt lat="47.25975" lon="-2.34092">
        <ele>-9.6000003814697</ele>
        <time>2022-09-22T10:35:06.000Z</time>
      </trkpt>
      <trkpt lat="47.25939" lon="-2.34078">
        <ele>-9.6000003814697</ele>
        <time>2022-09-22T10:35:13.000Z</time>
      </trkpt>
      <trkpt lat="47.25929" lon="-2.34076">
        <ele>-9.6000003814697</ele>
        <time>2022-09-22T10:35:15.000Z</time>
      </trkpt>
      <trkpt lat="47.25914" lon="-2.34075">
        <ele>-9.6000003814697</ele>
        <time>2022-09-22T10:35:18.000Z</time>
      </trkpt>
      <trkpt lat="47.25907" lon="-2.34073">
        <ele>-9.6000003814697</ele>
        <time>2022-09-22T10:35:20.000Z</time>
      </trkpt>
      <trkpt lat="47.25905" lon="-2.34071">
        <ele>-9.6000003814697</ele>
        <time>2022-09-22T10:35:21.000Z</time>
      </trkpt>
      <trkpt lat="47.25898" lon="-2.34055">
        <ele>-9.6000003814697</ele>
        <time>2022-09-22T10:35:25.000Z</time>
      </trkpt>
      <trkpt lat="47.25899" lon="-2.34039">
        <ele>-9.6000003814697</ele>
        <time>2022-09-22T10:35:28.000Z</time>
      </trkpt>
      <trkpt lat="47.25902" lon="-2.34027">
        <ele>-9.6000003814697</ele>
        <time>2022-09-22T10:35:30.000Z</time>
      </trkpt>
      <trkpt lat="47.25906" lon="-2.34016">
        <ele>-9.6000003814697</ele>
        <time>2022-09-22T10:35:32.000Z</time>
      </trkpt>
      <trkpt lat="47.25912" lon="-2.33991">
        <ele>-9.6000003814697</ele>
        <time>2022-09-22T10:35:36.000Z</time>
      </trkpt>
      <trkpt lat="47.25924" lon="-2.33956">
        <ele>-9.6000003814697</ele>
        <time>2022-09-22T10:35:42.000Z</time>
      </trkpt>
      <trkpt lat="47.25927" lon="-2.33952">
        <ele>-9.6000003814697</ele>
        <time>2022-09-22T10:35:43.000Z</time>
      </trkpt>
      <trkpt lat="47.25942" lon="-2.33932">
        <ele>-9.6000003814697</ele>
        <time>2022-09-22T10:35:48.000Z</time>
      </trkpt>
      <trkpt lat="47.25946" lon="-2.33914">
        <ele>-9.6000003814697</ele>
        <time>2022-09-22T10:35:51.000Z</time>
      </trkpt>
      <trkpt lat="47.25948" lon="-2.33909">
        <ele>-9.6000003814697</ele>
        <time>2022-09-22T10:35:52.000Z</time>
      </trkpt>
      <trkpt lat="47.25958" lon="-2.33903">
        <ele>-9.6000003814697</ele>
        <time>2022-09-22T10:35:55.000Z</time>
      </trkpt>
      <trkpt lat="47.2597" lon="-2.33901">
        <ele>-9.6000003814697</ele>
        <time>2022-09-22T10:35:58.000Z</time>
      </trkpt>
      <trkpt lat="47.25972" lon="-2.33896">
        <ele>-10</ele>
        <time>2022-09-22T10:35:59.000Z</time>
      </trkpt>
      <trkpt lat="47.25973" lon="-2.3389">
        <ele>-10.39999961853</ele>
        <time>2022-09-22T10:36:00.000Z</time>
      </trkpt>
      <trkpt lat="47.25975" lon="-2.33885">
        <ele>-10.800000190735</ele>
        <time>2022-09-22T10:36:01.000Z</time>
      </trkpt>
      <trkpt lat="47.25976" lon="-2.3388">
        <ele>-11.199999809265</ele>
        <time>2022-09-22T10:36:02.000Z</time>
      </trkpt>
      <trkpt lat="47.25978" lon="-2.33876">
        <ele>-11.60000038147</ele>
        <time>2022-09-22T10:36:03.000Z</time>
      </trkpt>
      <trkpt lat="47.25988" lon="-2.33848">
        <ele>-11.60000038147</ele>
        <time>2022-09-22T10:36:08.000Z</time>
      </trkpt>
      <trkpt lat="47.26007" lon="-2.33794">
        <ele>-11.60000038147</ele>
        <time>2022-09-22T10:36:17.000Z</time>
      </trkpt>
      <trkpt lat="47.26026" lon="-2.33744">
        <ele>-11.60000038147</ele>
        <time>2022-09-22T10:36:25.000Z</time>
      </trkpt>
      <trkpt lat="47.26043" lon="-2.337">
        <ele>-11.60000038147</ele>
        <time>2022-09-22T10:36:32.000Z</time>
      </trkpt>
      <trkpt lat="47.26057" lon="-2.33657">
        <ele>-11.60000038147</ele>
        <time>2022-09-22T10:36:39.000Z</time>
      </trkpt>
      <trkpt lat="47.26072" lon="-2.3361">
        <ele>-11.60000038147</ele>
        <time>2022-09-22T10:36:46.000Z</time>
      </trkpt>
      <trkpt lat="47.26091" lon="-2.33557">
        <ele>-11.60000038147</ele>
        <time>2022-09-22T10:36:54.000Z</time>
      </trkpt>
      <trkpt lat="47.26107" lon="-2.33511">
        <ele>-11.60000038147</ele>
        <time>2022-09-22T10:37:01.000Z</time>
      </trkpt>
      <trkpt lat="47.26128" lon="-2.33456">
        <ele>-11.60000038147</ele>
        <time>2022-09-22T10:37:10.000Z</time>
      </trkpt>
      <trkpt lat="47.26134" lon="-2.33436">
        <ele>-11.60000038147</ele>
        <time>2022-09-22T10:37:14.000Z</time>
      </trkpt>
      <trkpt lat="47.26134" lon="-2.3343">
        <ele>-11.60000038147</ele>
        <time>2022-09-22T10:37:15.000Z</time>
      </trkpt>
      <trkpt lat="47.26127" lon="-2.33417">
        <ele>-11.60000038147</ele>
        <time>2022-09-22T10:37:18.000Z</time>
      </trkpt>
      <trkpt lat="47.2612" lon="-2.3341">
        <ele>-11.60000038147</ele>
        <time>2022-09-22T10:37:20.000Z</time>
      </trkpt>
      <trkpt lat="47.26116" lon="-2.33406">
        <ele>-11.60000038147</ele>
        <time>2022-09-22T10:37:21.000Z</time>
      </trkpt>
      <trkpt lat="47.2611" lon="-2.33398">
        <ele>-11.60000038147</ele>
        <time>2022-09-22T10:37:23.000Z</time>
      </trkpt>
      <trkpt lat="47.26093" lon="-2.33378">
        <ele>-11.60000038147</ele>
        <time>2022-09-22T10:37:29.000Z</time>
      </trkpt>
      <trkpt lat="47.2608" lon="-2.33367">
        <ele>-11.60000038147</ele>
        <time>2022-09-22T10:37:34.000Z</time>
      </trkpt>
      <trkpt lat="47.26071" lon="-2.33338">
        <ele>-11.60000038147</ele>
        <time>2022-09-22T10:37:40.000Z</time>
      </trkpt>
      <trkpt lat="47.26061" lon="-2.33309">
        <ele>-11.60000038147</ele>
        <time>2022-09-22T10:37:46.000Z</time>
      </trkpt>
      <trkpt lat="47.26051" lon="-2.33279">
        <ele>-11.60000038147</ele>
        <time>2022-09-22T10:37:53.000Z</time>
      </trkpt>
      <trkpt lat="47.26042" lon="-2.33251">
        <ele>-11.60000038147</ele>
        <time>2022-09-22T10:37:59.000Z</time>
      </trkpt>
      <trkpt lat="47.26028" lon="-2.33215">
        <ele>-11.60000038147</ele>
        <time>2022-09-22T10:38:06.000Z</time>
      </trkpt>
      <trkpt lat="47.26011" lon="-2.33166">
        <ele>-11.60000038147</ele>
        <time>2022-09-22T10:38:14.000Z</time>
      </trkpt>
      <trkpt lat="47.26007" lon="-2.33154">
        <ele>-11.60000038147</ele>
        <time>2022-09-22T10:38:16.000Z</time>
      </trkpt>
      <trkpt lat="47.25996" lon="-2.33124">
        <ele>-11.60000038147</ele>
        <time>2022-09-22T10:38:21.000Z</time>
      </trkpt>
      <trkpt lat="47.25994" lon="-2.33118">
        <ele>-11.60000038147</ele>
        <time>2022-09-22T10:38:22.000Z</time>
      </trkpt>
      <trkpt lat="47.2599" lon="-2.33095">
        <ele>-11.60000038147</ele>
        <time>2022-09-22T10:38:26.000Z</time>
      </trkpt>
      <trkpt lat="47.25989" lon="-2.33089">
        <ele>-11.60000038147</ele>
        <time>2022-09-22T10:38:27.000Z</time>
      </trkpt>
      <trkpt lat="47.25982" lon="-2.33074">
        <ele>-11.60000038147</ele>
        <time>2022-09-22T10:38:30.000Z</time>
      </trkpt>
      <trkpt lat="47.25979" lon="-2.33069">
        <ele>-11.60000038147</ele>
        <time>2022-09-22T10:38:31.000Z</time>
      </trkpt>
      <trkpt lat="47.25967" lon="-2.33039">
        <ele>-11.60000038147</ele>
        <time>2022-09-22T10:38:36.000Z</time>
      </trkpt>
      <trkpt lat="47.2595" lon="-2.32988">
        <ele>-11.60000038147</ele>
        <time>2022-09-22T10:38:44.000Z</time>
      </trkpt>
      <trkpt lat="47.25936" lon="-2.3295">
        <ele>-11.60000038147</ele>
        <time>2022-09-22T10:38:50.000Z</time>
      </trkpt>
      <trkpt lat="47.2593" lon="-2.32929">
        <ele>-11.60000038147</ele>
        <time>2022-09-22T10:38:53.000Z</time>
      </trkpt>
      <trkpt lat="47.25928" lon="-2.32923">
        <ele>-11.60000038147</ele>
        <time>2022-09-22T10:38:54.000Z</time>
      </trkpt>
      <trkpt lat="47.25917" lon="-2.32899">
        <ele>-11.60000038147</ele>
        <time>2022-09-22T10:38:58.000Z</time>
      </trkpt>
      <trkpt lat="47.25898" lon="-2.32849">
        <ele>-11.60000038147</ele>
        <time>2022-09-22T10:39:06.000Z</time>
      </trkpt>
      <trkpt lat="47.25881" lon="-2.32796">
        <ele>-11.60000038147</ele>
        <time>2022-09-22T10:39:14.000Z</time>
      </trkpt>
      <trkpt lat="47.25866" lon="-2.32744">
        <ele>-11.60000038147</ele>
        <time>2022-09-22T10:39:22.000Z</time>
      </trkpt>
      <trkpt lat="47.25863" lon="-2.32725">
        <ele>-11.60000038147</ele>
        <time>2022-09-22T10:39:25.000Z</time>
      </trkpt>
      <trkpt lat="47.25862" lon="-2.32711">
        <ele>-11.60000038147</ele>
        <time>2022-09-22T10:39:27.000Z</time>
      </trkpt>
      <trkpt lat="47.25858" lon="-2.32698">
        <ele>-11.60000038147</ele>
        <time>2022-09-22T10:39:29.000Z</time>
      </trkpt>
      <trkpt lat="47.25855" lon="-2.32694">
        <ele>-11.60000038147</ele>
        <time>2022-09-22T10:39:30.000Z</time>
      </trkpt>
      <trkpt lat="47.25851" lon="-2.32691">
        <ele>-11.60000038147</ele>
        <time>2022-09-22T10:39:31.000Z</time>
      </trkpt>
      <trkpt lat="47.25846" lon="-2.32674">
        <ele>-11.60000038147</ele>
        <time>2022-09-22T10:39:34.000Z</time>
      </trkpt>
      <trkpt lat="47.25842" lon="-2.32661">
        <ele>-11.60000038147</ele>
        <time>2022-09-22T10:39:36.000Z</time>
      </trkpt>
      <trkpt lat="47.25832" lon="-2.32627">
        <ele>-11.60000038147</ele>
        <time>2022-09-22T10:39:41.000Z</time>
      </trkpt>
      <trkpt lat="47.25817" lon="-2.32568">
        <ele>-11.60000038147</ele>
        <time>2022-09-22T10:39:50.000Z</time>
      </trkpt>
      <trkpt lat="47.25807" lon="-2.32523">
        <ele>-11.60000038147</ele>
        <time>2022-09-22T10:39:57.000Z</time>
      </trkpt>
      <trkpt lat="47.25798" lon="-2.32484">
        <ele>-11.60000038147</ele>
        <time>2022-09-22T10:40:04.000Z</time>
      </trkpt>
      <trkpt lat="47.25801" lon="-2.32465">
        <ele>-11.60000038147</ele>
        <time>2022-09-22T10:40:09.000Z</time>
      </trkpt>
      <trkpt lat="47.25809" lon="-2.32456">
        <ele>-11.60000038147</ele>
        <time>2022-09-22T10:40:12.000Z</time>
      </trkpt>
      <trkpt lat="47.25812" lon="-2.32456">
        <ele>-11.60000038147</ele>
        <time>2022-09-22T10:40:13.000Z</time>
      </trkpt>
      <trkpt lat="47.25829" lon="-2.32465">
        <ele>-11.60000038147</ele>
        <time>2022-09-22T10:40:17.000Z</time>
      </trkpt>
      <trkpt lat="47.25854" lon="-2.32473">
        <ele>-11.60000038147</ele>
        <time>2022-09-22T10:40:23.000Z</time>
      </trkpt>
      <trkpt lat="47.25862" lon="-2.32473">
        <ele>-11.60000038147</ele>
        <time>2022-09-22T10:40:25.000Z</time>
      </trkpt>
      <trkpt lat="47.2588" lon="-2.3247">
        <ele>-11.60000038147</ele>
        <time>2022-09-22T10:40:29.000Z</time>
      </trkpt>
      <trkpt lat="47.25885" lon="-2.32468">
        <ele>-11.60000038147</ele>
        <time>2022-09-22T10:40:30.000Z</time>
      </trkpt>
      <trkpt lat="47.25898" lon="-2.32458">
        <ele>-11.60000038147</ele>
        <time>2022-09-22T10:40:33.000Z</time>
      </trkpt>
      <trkpt lat="47.25906" lon="-2.32449">
        <ele>-11.60000038147</ele>
        <time>2022-09-22T10:40:35.000Z</time>
      </trkpt>
      <trkpt lat="47.25918" lon="-2.32435">
        <ele>-11.60000038147</ele>
        <time>2022-09-22T10:40:38.000Z</time>
      </trkpt>
      <trkpt lat="47.25944" lon="-2.324">
        <ele>-11.60000038147</ele>
        <time>2022-09-22T10:40:46.000Z</time>
      </trkpt>
      <trkpt lat="47.25974" lon="-2.32361">
        <ele>-11.60000038147</ele>
        <time>2022-09-22T10:40:54.000Z</time>
      </trkpt>
      <trkpt lat="47.26004" lon="-2.32322">
        <ele>-11.60000038147</ele>
        <time>2022-09-22T10:41:02.000Z</time>
      </trkpt>
      <trkpt lat="47.26034" lon="-2.32285">
        <ele>-11.60000038147</ele>
        <time>2022-09-22T10:41:10.000Z</time>
      </trkpt>
      <trkpt lat="47.26058" lon="-2.32258">
        <ele>-11.60000038147</ele>
        <time>2022-09-22T10:41:16.000Z</time>
      </trkpt>
      <trkpt lat="47.26065" lon="-2.3225">
        <ele>-11.60000038147</ele>
        <time>2022-09-22T10:41:18.000Z</time>
      </trkpt>
      <trkpt lat="47.26087" lon="-2.32223">
        <ele>-11.60000038147</ele>
        <time>2022-09-22T10:41:24.000Z</time>
      </trkpt>
      <trkpt lat="47.26094" lon="-2.32212">
        <ele>-11.60000038147</ele>
        <time>2022-09-22T10:41:26.000Z</time>
      </trkpt>
      <trkpt lat="47.26096" lon="-2.32207">
        <ele>-11.60000038147</ele>
        <time>2022-09-22T10:41:27.000Z</time>
      </trkpt>
      <trkpt lat="47.26107" lon="-2.32184">
        <ele>-11.60000038147</ele>
        <time>2022-09-22T10:41:31.000Z</time>
      </trkpt>
      <trkpt lat="47.26121" lon="-2.32147">
        <ele>-11.60000038147</ele>
        <time>2022-09-22T10:41:37.000Z</time>
      </trkpt>
      <trkpt lat="47.26135" lon="-2.32101">
        <ele>-11.60000038147</ele>
        <time>2022-09-22T10:41:44.000Z</time>
      </trkpt>
      <trkpt lat="47.26152" lon="-2.3205">
        <ele>-11.60000038147</ele>
        <time>2022-09-22T10:41:52.000Z</time>
      </trkpt>
      <trkpt lat="47.26164" lon="-2.32023">
        <ele>-11.60000038147</ele>
        <time>2022-09-22T10:41:57.000Z</time>
      </trkpt>
      <trkpt lat="47.26177" lon="-2.32021">
        <ele>-11.60000038147</ele>
        <time>2022-09-22T10:42:01.000Z</time>
      </trkpt>
      <trkpt lat="47.26189" lon="-2.32023">
        <ele>-11.60000038147</ele>
        <time>2022-09-22T10:42:06.000Z</time>
      </trkpt>
      <trkpt lat="47.26195" lon="-2.32023">
        <ele>-11.60000038147</ele>
        <time>2022-09-22T10:42:09.000Z</time>
      </trkpt>
      <trkpt lat="47.26197" lon="-2.3202">
        <ele>-11.60000038147</ele>
        <time>2022-09-22T10:42:10.000Z</time>
      </trkpt>
      <trkpt lat="47.26198" lon="-2.3201">
        <ele>-11.60000038147</ele>
        <time>2022-09-22T10:42:13.000Z</time>
      </trkpt>
      <trkpt lat="47.262" lon="-2.32007">
        <ele>-11.60000038147</ele>
        <time>2022-09-22T10:42:14.000Z</time>
      </trkpt>
      <trkpt lat="47.26201" lon="-2.32005">
        <ele>-11.60000038147</ele>
        <time>2022-09-22T10:42:15.000Z</time>
      </trkpt>
      <trkpt lat="47.26208" lon="-2.31999">
        <ele>-11.60000038147</ele>
        <time>2022-09-22T10:42:18.000Z</time>
      </trkpt>
      <trkpt lat="47.26221" lon="-2.31983">
        <ele>-11.60000038147</ele>
        <time>2022-09-22T10:42:23.000Z</time>
      </trkpt>
      <trkpt lat="47.26239" lon="-2.31965">
        <ele>-11.60000038147</ele>
        <time>2022-09-22T10:42:28.000Z</time>
      </trkpt>
      <trkpt lat="47.2625" lon="-2.31948">
        <ele>-11.60000038147</ele>
        <time>2022-09-22T10:42:32.000Z</time>
      </trkpt>
      <trkpt lat="47.26259" lon="-2.31931">
        <ele>-11.60000038147</ele>
        <time>2022-09-22T10:42:37.000Z</time>
      </trkpt>
      <trkpt lat="47.26277" lon="-2.31907">
        <ele>-11.60000038147</ele>
        <time>2022-09-22T10:42:43.000Z</time>
      </trkpt>
      <trkpt lat="47.26298" lon="-2.31886">
        <ele>-11.60000038147</ele>
        <time>2022-09-22T10:42:49.000Z</time>
      </trkpt>
      <trkpt lat="47.26302" lon="-2.31868">
        <ele>-11.60000038147</ele>
        <time>2022-09-22T10:42:53.000Z</time>
      </trkpt>
      <trkpt lat="47.26303" lon="-2.31862">
        <ele>-11.60000038147</ele>
        <time>2022-09-22T10:42:54.000Z</time>
      </trkpt>
      <trkpt lat="47.26304" lon="-2.31831">
        <ele>-11.60000038147</ele>
        <time>2022-09-22T10:42:58.000Z</time>
      </trkpt>
      <trkpt lat="47.26304" lon="-2.31799">
        <ele>-11.60000038147</ele>
        <time>2022-09-22T10:43:03.000Z</time>
      </trkpt>
      <trkpt lat="47.26304" lon="-2.31767">
        <ele>-11.60000038147</ele>
        <time>2022-09-22T10:43:08.000Z</time>
      </trkpt>
      <trkpt lat="47.263" lon="-2.31737">
        <ele>-11.60000038147</ele>
        <time>2022-09-22T10:43:13.000Z</time>
      </trkpt>
      <trkpt lat="47.26301" lon="-2.3173">
        <ele>-11.60000038147</ele>
        <time>2022-09-22T10:43:14.000Z</time>
      </trkpt>
      <trkpt lat="47.26304" lon="-2.3172">
        <ele>-11.60000038147</ele>
        <time>2022-09-22T10:43:16.000Z</time>
      </trkpt>
      <trkpt lat="47.26307" lon="-2.31717">
        <ele>-11.60000038147</ele>
        <time>2022-09-22T10:43:17.000Z</time>
      </trkpt>
      <trkpt lat="47.26314" lon="-2.31712">
        <ele>-11.60000038147</ele>
        <time>2022-09-22T10:43:19.000Z</time>
      </trkpt>
      <trkpt lat="47.2633" lon="-2.31699">
        <ele>-11.199999809265</ele>
        <time>2022-09-22T10:43:24.000Z</time>
      </trkpt>
      <trkpt lat="47.26331" lon="-2.31694">
        <ele>-10.800000190735</ele>
        <time>2022-09-22T10:43:25.000Z</time>
      </trkpt>
      <trkpt lat="47.26333" lon="-2.3169">
        <ele>-10.39999961853</ele>
        <time>2022-09-22T10:43:26.000Z</time>
      </trkpt>
      <trkpt lat="47.26336" lon="-2.31687">
        <ele>-10</ele>
        <time>2022-09-22T10:43:27.000Z</time>
      </trkpt>
      <trkpt lat="47.26338" lon="-2.31686">
        <ele>-9.3999996185303</ele>
        <time>2022-09-22T10:43:28.000Z</time>
      </trkpt>
      <trkpt lat="47.26341" lon="-2.31685">
        <ele>-9.3999996185303</ele>
        <time>2022-09-22T10:43:29.000Z</time>
      </trkpt>
      <trkpt lat="47.26358" lon="-2.31675">
        <ele>-9.3999996185303</ele>
        <time>2022-09-22T10:43:35.000Z</time>
      </trkpt>
      <trkpt lat="47.26367" lon="-2.31673">
        <ele>-9</ele>
        <time>2022-09-22T10:43:38.000Z</time>
      </trkpt>
      <trkpt lat="47.26371" lon="-2.31672">
        <ele>-8.6000003814697</ele>
        <time>2022-09-22T10:43:39.000Z</time>
      </trkpt>
      <trkpt lat="47.26374" lon="-2.31671">
        <ele>-7.8000001907349</ele>
        <time>2022-09-22T10:43:40.000Z</time>
      </trkpt>
      <trkpt lat="47.26376" lon="-2.31669">
        <ele>-7.4000000953674</ele>
        <time>2022-09-22T10:43:41.000Z</time>
      </trkpt>
      <trkpt lat="47.26395" lon="-2.31659">
        <ele>-7.4000000953674</ele>
        <time>2022-09-22T10:43:47.000Z</time>
      </trkpt>
      <trkpt lat="47.26408" lon="-2.31651">
        <ele>-7.4000000953674</ele>
        <time>2022-09-22T10:43:52.000Z</time>
      </trkpt>
      <trkpt lat="47.26409" lon="-2.31638">
        <ele>-7.4000000953674</ele>
        <time>2022-09-22T10:43:55.000Z</time>
      </trkpt>
      <trkpt lat="47.2641" lon="-2.31619">
        <ele>-7.4000000953674</ele>
        <time>2022-09-22T10:43:59.000Z</time>
      </trkpt>
      <trkpt lat="47.2641" lon="-2.31609">
        <ele>-7.4000000953674</ele>
        <time>2022-09-22T10:44:01.000Z</time>
      </trkpt>
      <trkpt lat="47.2641" lon="-2.31579">
        <ele>-7.4000000953674</ele>
        <time>2022-09-22T10:44:07.000Z</time>
      </trkpt>
      <trkpt lat="47.2641" lon="-2.31555">
        <ele>-7.4000000953674</ele>
        <time>2022-09-22T10:44:13.000Z</time>
      </trkpt>
      <trkpt lat="47.26412" lon="-2.31553">
        <ele>-7.4000000953674</ele>
        <time>2022-09-22T10:44:14.000Z</time>
      </trkpt>
      <trkpt lat="47.26415" lon="-2.31552">
        <ele>-7.4000000953674</ele>
        <time>2022-09-22T10:44:16.000Z</time>
      </trkpt>
      <trkpt lat="47.26416" lon="-2.31552">
        <ele>-7</ele>
        <time>2022-09-22T10:44:17.000Z</time>
      </trkpt>
      <trkpt lat="47.26416" lon="-2.31552">
        <ele>-6.5999999046326</ele>
        <time>2022-09-22T10:44:18.000Z</time>
      </trkpt>
    </trkseg>
  </trk>
</gpx>